<?xml version="1.0" encoding="UTF-8"?>
<gpx
 version="1.0"
creator="GPSBabel - http://www.gpsbabel.org"
xmlns:xsi="http://www.w3.org/2001/XMLSchema-instance"
xmlns="http://www.topografix.com/GPX/1/0"
xsi:schemaLocation="http://www.topografix.com/GPX/1/0 http://www.topografix.com/GPX/1/0/gpx.xsd">
<time>2017-08-16T07:37:28Z</time>
<bounds minlat="45.411300160" minlon="6.883635130" maxlat="45.481480160" maxlon="6.978311740"/>
<trk>
<trkseg>
<trkpt lat="45.471336710" lon="6.911133470">
  <ele>2055.478027</ele>
<time>2017-08-15T07:38:28Z</time>
</trkpt>
<trkpt lat="45.471336710" lon="6.911133470">
  <ele>2055.515625</ele>
<time>2017-08-15T07:38:29Z</time>
</trkpt>
<trkpt lat="45.471328500" lon="6.911273450">
  <ele>2055.600000</ele>
<time>2017-08-15T07:39:28Z</time>
</trkpt>
<trkpt lat="45.471386670" lon="6.911170020">
  <ele>2055.500000</ele>
<time>2017-08-15T07:39:42Z</time>
</trkpt>
<trkpt lat="45.471388340" lon="6.911026690">
  <ele>2055.400000</ele>
<time>2017-08-15T07:39:47Z</time>
</trkpt>
<trkpt lat="45.471391700" lon="6.910891740">
  <ele>2055.400000</ele>
<time>2017-08-15T07:39:51Z</time>
</trkpt>
<trkpt lat="45.471396730" lon="6.910740030">
  <ele>2055.400000</ele>
<time>2017-08-15T07:39:55Z</time>
</trkpt>
<trkpt lat="45.471395050" lon="6.910591830">
  <ele>2055.400000</ele>
<time>2017-08-15T07:39:58Z</time>
</trkpt>
<trkpt lat="45.471375100" lon="6.910453360">
  <ele>2055.400000</ele>
<time>2017-08-15T07:40:01Z</time>
</trkpt>
<trkpt lat="45.471326820" lon="6.910305000">
  <ele>2055.400000</ele>
<time>2017-08-15T07:40:05Z</time>
</trkpt>
<trkpt lat="45.471248370" lon="6.910233420">
  <ele>2055.400000</ele>
<time>2017-08-15T07:40:08Z</time>
</trkpt>
<trkpt lat="45.471156670" lon="6.910210120">
  <ele>2055.600000</ele>
<time>2017-08-15T07:40:11Z</time>
</trkpt>
<trkpt lat="45.471065140" lon="6.910226720">
  <ele>2055.700000</ele>
<time>2017-08-15T07:40:14Z</time>
</trkpt>
<trkpt lat="45.470953490" lon="6.910283380">
  <ele>2056.100000</ele>
<time>2017-08-15T07:40:18Z</time>
</trkpt>
<trkpt lat="45.470866820" lon="6.910336690">
  <ele>2056.500000</ele>
<time>2017-08-15T07:40:21Z</time>
</trkpt>
<trkpt lat="45.470760040" lon="6.910411790">
  <ele>2057.100000</ele>
<time>2017-08-15T07:40:25Z</time>
</trkpt>
<trkpt lat="45.470658450" lon="6.910455040">
  <ele>2057.700000</ele>
<time>2017-08-15T07:40:29Z</time>
</trkpt>
<trkpt lat="45.470553340" lon="6.910495110">
  <ele>2058.500000</ele>
<time>2017-08-15T07:40:33Z</time>
</trkpt>
<trkpt lat="45.470455100" lon="6.910558470">
  <ele>2059.400000</ele>
<time>2017-08-15T07:40:37Z</time>
</trkpt>
<trkpt lat="45.470350160" lon="6.910608430">
  <ele>2060.200000</ele>
<time>2017-08-15T07:40:41Z</time>
</trkpt>
<trkpt lat="45.470255110" lon="6.910635080">
  <ele>2061.200000</ele>
<time>2017-08-15T07:40:45Z</time>
</trkpt>
<trkpt lat="45.470175150" lon="6.910551770">
  <ele>2062.100000</ele>
<time>2017-08-15T07:40:49Z</time>
</trkpt>
<trkpt lat="45.470158380" lon="6.910413470">
  <ele>2062.900000</ele>
<time>2017-08-15T07:40:53Z</time>
</trkpt>
<trkpt lat="45.470185040" lon="6.910288410">
  <ele>2063.400000</ele>
<time>2017-08-15T07:40:56Z</time>
</trkpt>
<trkpt lat="45.470233490" lon="6.910175090">
  <ele>2064.000000</ele>
<time>2017-08-15T07:40:59Z</time>
</trkpt>
<trkpt lat="45.470271710" lon="6.910053380">
  <ele>2064.600000</ele>
<time>2017-08-15T07:41:02Z</time>
</trkpt>
<trkpt lat="45.470308420" lon="6.909935030">
  <ele>2065.100000</ele>
<time>2017-08-15T07:41:05Z</time>
</trkpt>
<trkpt lat="45.470296680" lon="6.909785160">
  <ele>2065.800000</ele>
<time>2017-08-15T07:41:08Z</time>
</trkpt>
<trkpt lat="45.470301710" lon="6.909635120">
  <ele>2066.400000</ele>
<time>2017-08-15T07:41:11Z</time>
</trkpt>
<trkpt lat="45.470323340" lon="6.909501680">
  <ele>2067.000000</ele>
<time>2017-08-15T07:41:14Z</time>
</trkpt>
<trkpt lat="45.470351670" lon="6.909371760">
  <ele>2067.700000</ele>
<time>2017-08-15T07:41:17Z</time>
</trkpt>
<trkpt lat="45.470356700" lon="6.909243350">
  <ele>2068.400000</ele>
<time>2017-08-15T07:41:20Z</time>
</trkpt>
<trkpt lat="45.470351670" lon="6.909111760">
  <ele>2069.100000</ele>
<time>2017-08-15T07:41:23Z</time>
</trkpt>
<trkpt lat="45.470335070" lon="6.908975130">
  <ele>2069.800000</ele>
<time>2017-08-15T07:41:26Z</time>
</trkpt>
<trkpt lat="45.470310100" lon="6.908840020">
  <ele>2070.500000</ele>
<time>2017-08-15T07:41:29Z</time>
</trkpt>
<trkpt lat="45.470275060" lon="6.908713450">
  <ele>2071.100000</ele>
<time>2017-08-15T07:41:32Z</time>
</trkpt>
<trkpt lat="45.470210020" lon="6.908623430">
  <ele>2071.800000</ele>
<time>2017-08-15T07:41:35Z</time>
</trkpt>
<trkpt lat="45.470123350" lon="6.908510100">
  <ele>2072.700000</ele>
<time>2017-08-15T07:41:39Z</time>
</trkpt>
<trkpt lat="45.470051770" lon="6.908426790">
  <ele>2073.400000</ele>
<time>2017-08-15T07:41:42Z</time>
</trkpt>
<trkpt lat="45.469973480" lon="6.908340120">
  <ele>2074.000000</ele>
<time>2017-08-15T07:41:45Z</time>
</trkpt>
<trkpt lat="45.469906760" lon="6.908240040">
  <ele>2074.600000</ele>
<time>2017-08-15T07:41:48Z</time>
</trkpt>
<trkpt lat="45.469871720" lon="6.908108440">
  <ele>2075.300000</ele>
<time>2017-08-15T07:41:51Z</time>
</trkpt>
<trkpt lat="45.469855130" lon="6.907971820">
  <ele>2075.900000</ele>
<time>2017-08-15T07:41:54Z</time>
</trkpt>
<trkpt lat="45.469796790" lon="6.907843410">
  <ele>2076.800000</ele>
<time>2017-08-15T07:41:58Z</time>
</trkpt>
<trkpt lat="45.469693360" lon="6.907788420">
  <ele>2080.000000</ele>
<time>2017-08-15T07:46:20Z</time>
</trkpt>
<trkpt lat="45.469606690" lon="6.907678450">
  <ele>2080.200000</ele>
<time>2017-08-15T07:46:24Z</time>
</trkpt>
<trkpt lat="45.469525050" lon="6.907565130">
  <ele>2080.500000</ele>
<time>2017-08-15T07:46:28Z</time>
</trkpt>
<trkpt lat="45.469416750" lon="6.907510140">
  <ele>2080.900000</ele>
<time>2017-08-15T07:46:32Z</time>
</trkpt>
<trkpt lat="45.469321700" lon="6.907536800">
  <ele>2081.200000</ele>
<time>2017-08-15T07:46:35Z</time>
</trkpt>
<trkpt lat="45.469238390" lon="6.907601670">
  <ele>2081.600000</ele>
<time>2017-08-15T07:46:38Z</time>
</trkpt>
<trkpt lat="45.469160100" lon="6.907708460">
  <ele>2082.000000</ele>
<time>2017-08-15T07:46:42Z</time>
</trkpt>
<trkpt lat="45.469146690" lon="6.907851790">
  <ele>2082.600000</ele>
<time>2017-08-15T07:46:47Z</time>
</trkpt>
<trkpt lat="45.469055160" lon="6.907815080">
  <ele>2084.800000</ele>
<time>2017-08-15T07:49:05Z</time>
</trkpt>
<trkpt lat="45.469003360" lon="6.907686830">
  <ele>2084.900000</ele>
<time>2017-08-15T07:49:09Z</time>
</trkpt>
<trkpt lat="45.468988440" lon="6.907513500">
  <ele>2084.900000</ele>
<time>2017-08-15T07:49:13Z</time>
</trkpt>
<trkpt lat="45.468911830" lon="6.907375030">
  <ele>2084.900000</ele>
<time>2017-08-15T07:49:16Z</time>
</trkpt>
<trkpt lat="45.468828340" lon="6.907235050">
  <ele>2084.900000</ele>
<time>2017-08-15T07:49:19Z</time>
</trkpt>
<trkpt lat="45.468733460" lon="6.907120050">
  <ele>2084.800000</ele>
<time>2017-08-15T07:49:22Z</time>
</trkpt>
<trkpt lat="45.468708480" lon="6.906966830">
  <ele>2084.800000</ele>
<time>2017-08-15T07:49:25Z</time>
</trkpt>
<trkpt lat="45.468665060" lon="6.906821820">
  <ele>2084.800000</ele>
<time>2017-08-15T07:49:28Z</time>
</trkpt>
<trkpt lat="45.468635060" lon="6.906693410">
  <ele>2084.800000</ele>
<time>2017-08-15T07:49:31Z</time>
</trkpt>
<trkpt lat="45.468676800" lon="6.906563490">
  <ele>2084.800000</ele>
<time>2017-08-15T07:49:36Z</time>
</trkpt>
<trkpt lat="45.468571690" lon="6.906626690">
  <ele>2084.800000</ele>
<time>2017-08-15T07:49:41Z</time>
</trkpt>
<trkpt lat="45.468485020" lon="6.906750070">
  <ele>2084.800000</ele>
<time>2017-08-15T07:49:45Z</time>
</trkpt>
<trkpt lat="45.468371700" lon="6.906833390">
  <ele>2084.500000</ele>
<time>2017-08-15T07:49:48Z</time>
</trkpt>
<trkpt lat="45.468295090" lon="6.906910170">
  <ele>2084.000000</ele>
<time>2017-08-15T07:49:51Z</time>
</trkpt>
<trkpt lat="45.468306820" lon="6.907043440">
  <ele>2083.400000</ele>
<time>2017-08-15T07:49:56Z</time>
</trkpt>
<trkpt lat="45.468223340" lon="6.907100100">
  <ele>2082.000000</ele>
<time>2017-08-15T08:04:42Z</time>
</trkpt>
<trkpt lat="45.468121750" lon="6.907213420">
  <ele>2082.200000</ele>
<time>2017-08-15T08:04:45Z</time>
</trkpt>
<trkpt lat="45.468040110" lon="6.907330100">
  <ele>2082.400000</ele>
<time>2017-08-15T08:04:47Z</time>
</trkpt>
<trkpt lat="45.467963500" lon="6.907428340">
  <ele>2082.600000</ele>
<time>2017-08-15T08:04:49Z</time>
</trkpt>
<trkpt lat="45.467890070" lon="6.907513500">
  <ele>2083.000000</ele>
<time>2017-08-15T08:04:51Z</time>
</trkpt>
<trkpt lat="45.467815140" lon="6.907590110">
  <ele>2083.800000</ele>
<time>2017-08-15T08:04:53Z</time>
</trkpt>
<trkpt lat="45.467740040" lon="6.907680130">
  <ele>2084.600000</ele>
<time>2017-08-15T08:04:55Z</time>
</trkpt>
<trkpt lat="45.467665100" lon="6.907760090">
  <ele>2085.500000</ele>
<time>2017-08-15T08:04:57Z</time>
</trkpt>
<trkpt lat="45.467588490" lon="6.907841730">
  <ele>2086.400000</ele>
<time>2017-08-15T08:04:59Z</time>
</trkpt>
<trkpt lat="45.467513390" lon="6.907918340">
  <ele>2087.400000</ele>
<time>2017-08-15T08:05:01Z</time>
</trkpt>
<trkpt lat="45.467435100" lon="6.907998470">
  <ele>2088.300000</ele>
<time>2017-08-15T08:05:03Z</time>
</trkpt>
<trkpt lat="45.467360000" lon="6.908076760">
  <ele>2089.400000</ele>
<time>2017-08-15T08:05:05Z</time>
</trkpt>
<trkpt lat="45.467280040" lon="6.908146830">
  <ele>2090.500000</ele>
<time>2017-08-15T08:05:07Z</time>
</trkpt>
<trkpt lat="45.467201750" lon="6.908225120">
  <ele>2091.500000</ele>
<time>2017-08-15T08:05:09Z</time>
</trkpt>
<trkpt lat="45.467126820" lon="6.908306760">
  <ele>2092.400000</ele>
<time>2017-08-15T08:05:11Z</time>
</trkpt>
<trkpt lat="45.467050040" lon="6.908386720">
  <ele>2093.300000</ele>
<time>2017-08-15T08:05:13Z</time>
</trkpt>
<trkpt lat="45.466973430" lon="6.908465010">
  <ele>2094.000000</ele>
<time>2017-08-15T08:05:15Z</time>
</trkpt>
<trkpt lat="45.466896820" lon="6.908543460">
  <ele>2094.700000</ele>
<time>2017-08-15T08:05:17Z</time>
</trkpt>
<trkpt lat="45.466818360" lon="6.908620070">
  <ele>2095.500000</ele>
<time>2017-08-15T08:05:19Z</time>
</trkpt>
<trkpt lat="45.466740080" lon="6.908701710">
  <ele>2096.200000</ele>
<time>2017-08-15T08:05:21Z</time>
</trkpt>
<trkpt lat="45.466663460" lon="6.908778490">
  <ele>2097.000000</ele>
<time>2017-08-15T08:05:23Z</time>
</trkpt>
<trkpt lat="45.466585010" lon="6.908856780">
  <ele>2097.600000</ele>
<time>2017-08-15T08:05:25Z</time>
</trkpt>
<trkpt lat="45.466505050" lon="6.908938420">
  <ele>2098.300000</ele>
<time>2017-08-15T08:05:27Z</time>
</trkpt>
<trkpt lat="45.466428440" lon="6.909018380">
  <ele>2099.100000</ele>
<time>2017-08-15T08:05:29Z</time>
</trkpt>
<trkpt lat="45.466350150" lon="6.909098350">
  <ele>2100.000000</ele>
<time>2017-08-15T08:05:31Z</time>
</trkpt>
<trkpt lat="45.466273370" lon="6.909178480">
  <ele>2101.000000</ele>
<time>2017-08-15T08:05:33Z</time>
</trkpt>
<trkpt lat="45.466193410" lon="6.909260120">
  <ele>2101.800000</ele>
<time>2017-08-15T08:05:35Z</time>
</trkpt>
<trkpt lat="45.466116800" lon="6.909335050">
  <ele>2102.700000</ele>
<time>2017-08-15T08:05:37Z</time>
</trkpt>
<trkpt lat="45.466040020" lon="6.909406800">
  <ele>2103.400000</ele>
<time>2017-08-15T08:05:39Z</time>
</trkpt>
<trkpt lat="45.465963410" lon="6.909480060">
  <ele>2104.100000</ele>
<time>2017-08-15T08:05:41Z</time>
</trkpt>
<trkpt lat="45.465886800" lon="6.909553480">
  <ele>2104.800000</ele>
<time>2017-08-15T08:05:43Z</time>
</trkpt>
<trkpt lat="45.465806670" lon="6.909630090">
  <ele>2105.600000</ele>
<time>2017-08-15T08:05:45Z</time>
</trkpt>
<trkpt lat="45.465730060" lon="6.909705030">
  <ele>2106.400000</ele>
<time>2017-08-15T08:05:47Z</time>
</trkpt>
<trkpt lat="45.465658470" lon="6.909786670">
  <ele>2107.500000</ele>
<time>2017-08-15T08:05:49Z</time>
</trkpt>
<trkpt lat="45.465585050" lon="6.909861770">
  <ele>2108.700000</ele>
<time>2017-08-15T08:05:51Z</time>
</trkpt>
<trkpt lat="45.465473400" lon="6.909960010">
  <ele>2110.900000</ele>
<time>2017-08-15T08:05:54Z</time>
</trkpt>
<trkpt lat="45.465400140" lon="6.910035110">
  <ele>2112.700000</ele>
<time>2017-08-15T08:05:56Z</time>
</trkpt>
<trkpt lat="45.465291680" lon="6.910136700">
  <ele>2115.600000</ele>
<time>2017-08-15T08:05:59Z</time>
</trkpt>
<trkpt lat="45.465216750" lon="6.910213470">
  <ele>2117.900000</ele>
<time>2017-08-15T08:06:01Z</time>
</trkpt>
<trkpt lat="45.465138460" lon="6.910295110">
  <ele>2120.300000</ele>
<time>2017-08-15T08:06:03Z</time>
</trkpt>
<trkpt lat="45.465028490" lon="6.910411790">
  <ele>2124.200000</ele>
<time>2017-08-15T08:06:06Z</time>
</trkpt>
<trkpt lat="45.464956740" lon="6.910493430">
  <ele>2127.100000</ele>
<time>2017-08-15T08:06:08Z</time>
</trkpt>
<trkpt lat="45.464858340" lon="6.910610110">
  <ele>2131.900000</ele>
<time>2017-08-15T08:06:11Z</time>
</trkpt>
<trkpt lat="45.464758430" lon="6.910725110">
  <ele>2137.300000</ele>
<time>2017-08-15T08:06:14Z</time>
</trkpt>
<trkpt lat="45.464660020" lon="6.910831720">
  <ele>2143.200000</ele>
<time>2017-08-15T08:06:17Z</time>
</trkpt>
<trkpt lat="45.464561790" lon="6.910933480">
  <ele>2149.500000</ele>
<time>2017-08-15T08:06:20Z</time>
</trkpt>
<trkpt lat="45.464455000" lon="6.911038420">
  <ele>2156.400000</ele>
<time>2017-08-15T08:06:23Z</time>
</trkpt>
<trkpt lat="45.464353410" lon="6.911128440">
  <ele>2163.500000</ele>
<time>2017-08-15T08:06:26Z</time>
</trkpt>
<trkpt lat="45.464256690" lon="6.911226680">
  <ele>2171.000000</ele>
<time>2017-08-15T08:06:29Z</time>
</trkpt>
<trkpt lat="45.464155100" lon="6.911333460">
  <ele>2178.700000</ele>
<time>2017-08-15T08:06:32Z</time>
</trkpt>
<trkpt lat="45.464046800" lon="6.911438410">
  <ele>2186.400000</ele>
<time>2017-08-15T08:06:35Z</time>
</trkpt>
<trkpt lat="45.463940020" lon="6.911543350">
  <ele>2194.100000</ele>
<time>2017-08-15T08:06:38Z</time>
</trkpt>
<trkpt lat="45.463835080" lon="6.911645100">
  <ele>2202.000000</ele>
<time>2017-08-15T08:06:41Z</time>
</trkpt>
<trkpt lat="45.463730130" lon="6.911745020">
  <ele>2209.900000</ele>
<time>2017-08-15T08:06:44Z</time>
</trkpt>
<trkpt lat="45.463628380" lon="6.911838390">
  <ele>2217.900000</ele>
<time>2017-08-15T08:06:47Z</time>
</trkpt>
<trkpt lat="45.463528470" lon="6.911933440">
  <ele>2226.000000</ele>
<time>2017-08-15T08:06:50Z</time>
</trkpt>
<trkpt lat="45.463428390" lon="6.912033350">
  <ele>2234.300000</ele>
<time>2017-08-15T08:06:53Z</time>
</trkpt>
<trkpt lat="45.463331830" lon="6.912121700">
  <ele>2242.600000</ele>
<time>2017-08-15T08:06:56Z</time>
</trkpt>
<trkpt lat="45.463236780" lon="6.912215070">
  <ele>2251.000000</ele>
<time>2017-08-15T08:06:59Z</time>
</trkpt>
<trkpt lat="45.463163350" lon="6.912291680">
  <ele>2256.500000</ele>
<time>2017-08-15T08:07:01Z</time>
</trkpt>
<trkpt lat="45.463090090" lon="6.912368460">
  <ele>2261.900000</ele>
<time>2017-08-15T08:07:03Z</time>
</trkpt>
<trkpt lat="45.463015160" lon="6.912440040">
  <ele>2267.200000</ele>
<time>2017-08-15T08:07:05Z</time>
</trkpt>
<trkpt lat="45.462908370" lon="6.912548340">
  <ele>2275.000000</ele>
<time>2017-08-15T08:07:08Z</time>
</trkpt>
<trkpt lat="45.462801750" lon="6.912655120">
  <ele>2282.700000</ele>
<time>2017-08-15T08:07:11Z</time>
</trkpt>
<trkpt lat="45.462693460" lon="6.912761740">
  <ele>2290.200000</ele>
<time>2017-08-15T08:07:14Z</time>
</trkpt>
<trkpt lat="45.462615010" lon="6.912841700">
  <ele>2295.100000</ele>
<time>2017-08-15T08:07:16Z</time>
</trkpt>
<trkpt lat="45.462540070" lon="6.912916810">
  <ele>2299.800000</ele>
<time>2017-08-15T08:07:18Z</time>
</trkpt>
<trkpt lat="45.462463460" lon="6.912991740">
  <ele>2304.400000</ele>
<time>2017-08-15T08:07:20Z</time>
</trkpt>
<trkpt lat="45.462351810" lon="6.913098360">
  <ele>2311.200000</ele>
<time>2017-08-15T08:07:23Z</time>
</trkpt>
<trkpt lat="45.462276710" lon="6.913170110">
  <ele>2315.600000</ele>
<time>2017-08-15T08:07:25Z</time>
</trkpt>
<trkpt lat="45.462168420" lon="6.913275050">
  <ele>2322.100000</ele>
<time>2017-08-15T08:07:28Z</time>
</trkpt>
<trkpt lat="45.462091810" lon="6.913350150">
  <ele>2326.400000</ele>
<time>2017-08-15T08:07:30Z</time>
</trkpt>
<trkpt lat="45.462010170" lon="6.913431790">
  <ele>2330.500000</ele>
<time>2017-08-15T08:07:32Z</time>
</trkpt>
<trkpt lat="45.461931710" lon="6.913506720">
  <ele>2334.400000</ele>
<time>2017-08-15T08:07:34Z</time>
</trkpt>
<trkpt lat="45.461851750" lon="6.913585010">
  <ele>2338.200000</ele>
<time>2017-08-15T08:07:36Z</time>
</trkpt>
<trkpt lat="45.461771790" lon="6.913660110">
  <ele>2341.900000</ele>
<time>2017-08-15T08:07:38Z</time>
</trkpt>
<trkpt lat="45.461693500" lon="6.913738400">
  <ele>2345.600000</ele>
<time>2017-08-15T08:07:40Z</time>
</trkpt>
<trkpt lat="45.461616720" lon="6.913813330">
  <ele>2349.100000</ele>
<time>2017-08-15T08:07:42Z</time>
</trkpt>
<trkpt lat="45.461538430" lon="6.913890110">
  <ele>2352.700000</ele>
<time>2017-08-15T08:07:44Z</time>
</trkpt>
<trkpt lat="45.461460150" lon="6.913968400">
  <ele>2356.200000</ele>
<time>2017-08-15T08:07:46Z</time>
</trkpt>
<trkpt lat="45.461383370" lon="6.914043330">
  <ele>2359.600000</ele>
<time>2017-08-15T08:07:48Z</time>
</trkpt>
<trkpt lat="45.461306760" lon="6.914120110">
  <ele>2363.100000</ele>
<time>2017-08-15T08:07:50Z</time>
</trkpt>
<trkpt lat="45.461230150" lon="6.914196720">
  <ele>2366.600000</ele>
<time>2017-08-15T08:07:52Z</time>
</trkpt>
<trkpt lat="45.461153370" lon="6.914271820">
  <ele>2370.200000</ele>
<time>2017-08-15T08:07:54Z</time>
</trkpt>
<trkpt lat="45.461076760" lon="6.914348430">
  <ele>2373.600000</ele>
<time>2017-08-15T08:07:56Z</time>
</trkpt>
<trkpt lat="45.461001820" lon="6.914421690">
  <ele>2377.100000</ele>
<time>2017-08-15T08:07:58Z</time>
</trkpt>
<trkpt lat="45.460926720" lon="6.914498470">
  <ele>2380.600000</ele>
<time>2017-08-15T08:08:00Z</time>
</trkpt>
<trkpt lat="45.460846760" lon="6.914575080">
  <ele>2384.000000</ele>
<time>2017-08-15T08:08:02Z</time>
</trkpt>
<trkpt lat="45.460761770" lon="6.914660070">
  <ele>2387.300000</ele>
<time>2017-08-15T08:08:04Z</time>
</trkpt>
<trkpt lat="45.460683480" lon="6.914738360">
  <ele>2390.400000</ele>
<time>2017-08-15T08:08:06Z</time>
</trkpt>
<trkpt lat="45.460601670" lon="6.914818490">
  <ele>2393.300000</ele>
<time>2017-08-15T08:08:08Z</time>
</trkpt>
<trkpt lat="45.460521710" lon="6.914896780">
  <ele>2396.000000</ele>
<time>2017-08-15T08:08:10Z</time>
</trkpt>
<trkpt lat="45.460440070" lon="6.914976740">
  <ele>2398.600000</ele>
<time>2017-08-15T08:08:12Z</time>
</trkpt>
<trkpt lat="45.460361780" lon="6.915055030">
  <ele>2401.200000</ele>
<time>2017-08-15T08:08:14Z</time>
</trkpt>
<trkpt lat="45.460280140" lon="6.915135160">
  <ele>2403.700000</ele>
<time>2017-08-15T08:08:16Z</time>
</trkpt>
<trkpt lat="45.460201690" lon="6.915215120">
  <ele>2406.200000</ele>
<time>2017-08-15T08:08:18Z</time>
</trkpt>
<trkpt lat="45.460123400" lon="6.915293410">
  <ele>2408.600000</ele>
<time>2017-08-15T08:08:20Z</time>
</trkpt>
<trkpt lat="45.460043440" lon="6.915373370">
  <ele>2411.100000</ele>
<time>2017-08-15T08:08:22Z</time>
</trkpt>
<trkpt lat="45.459963470" lon="6.915451830">
  <ele>2413.500000</ele>
<time>2017-08-15T08:08:24Z</time>
</trkpt>
<trkpt lat="45.459885020" lon="6.915531790">
  <ele>2416.000000</ele>
<time>2017-08-15T08:08:26Z</time>
</trkpt>
<trkpt lat="45.459806730" lon="6.915608400">
  <ele>2418.500000</ele>
<time>2017-08-15T08:08:28Z</time>
</trkpt>
<trkpt lat="45.459726770" lon="6.915685010">
  <ele>2421.000000</ele>
<time>2017-08-15T08:08:30Z</time>
</trkpt>
<trkpt lat="45.459646810" lon="6.915758440">
  <ele>2423.400000</ele>
<time>2017-08-15T08:08:32Z</time>
</trkpt>
<trkpt lat="45.459571700" lon="6.915831700">
  <ele>2426.100000</ele>
<time>2017-08-15T08:08:34Z</time>
</trkpt>
<trkpt lat="45.459496770" lon="6.915908470">
  <ele>2429.000000</ele>
<time>2017-08-15T08:08:36Z</time>
</trkpt>
<trkpt lat="45.459386800" lon="6.916020120">
  <ele>2433.600000</ele>
<time>2017-08-15T08:08:39Z</time>
</trkpt>
<trkpt lat="45.459278340" lon="6.916130090">
  <ele>2438.700000</ele>
<time>2017-08-15T08:08:42Z</time>
</trkpt>
<trkpt lat="45.459171720" lon="6.916236710">
  <ele>2444.200000</ele>
<time>2017-08-15T08:08:45Z</time>
</trkpt>
<trkpt lat="45.459063430" lon="6.916345000">
  <ele>2450.000000</ele>
<time>2017-08-15T08:08:48Z</time>
</trkpt>
<trkpt lat="45.458958480" lon="6.916450110">
  <ele>2455.900000</ele>
<time>2017-08-15T08:08:51Z</time>
</trkpt>
<trkpt lat="45.458850020" lon="6.916556730">
  <ele>2462.200000</ele>
<time>2017-08-15T08:08:54Z</time>
</trkpt>
<trkpt lat="45.458745080" lon="6.916661670">
  <ele>2468.700000</ele>
<time>2017-08-15T08:08:57Z</time>
</trkpt>
<trkpt lat="45.458643490" lon="6.916761750">
  <ele>2475.300000</ele>
<time>2017-08-15T08:09:00Z</time>
</trkpt>
<trkpt lat="45.458540060" lon="6.916866690">
  <ele>2482.100000</ele>
<time>2017-08-15T08:09:03Z</time>
</trkpt>
<trkpt lat="45.458461770" lon="6.916948330">
  <ele>2486.500000</ele>
<time>2017-08-15T08:09:05Z</time>
</trkpt>
<trkpt lat="45.458381810" lon="6.917028460">
  <ele>2490.900000</ele>
<time>2017-08-15T08:09:07Z</time>
</trkpt>
<trkpt lat="45.458305030" lon="6.917106750">
  <ele>2495.100000</ele>
<time>2017-08-15T08:09:09Z</time>
</trkpt>
<trkpt lat="45.458230100" lon="6.917181690">
  <ele>2499.300000</ele>
<time>2017-08-15T08:09:11Z</time>
</trkpt>
<trkpt lat="45.458118450" lon="6.917291820">
  <ele>2505.400000</ele>
<time>2017-08-15T08:09:14Z</time>
</trkpt>
<trkpt lat="45.458043350" lon="6.917366760">
  <ele>2509.500000</ele>
<time>2017-08-15T08:09:16Z</time>
</trkpt>
<trkpt lat="45.457965060" lon="6.917441690">
  <ele>2513.500000</ele>
<time>2017-08-15T08:09:18Z</time>
</trkpt>
<trkpt lat="45.457855090" lon="6.917553340">
  <ele>2519.400000</ele>
<time>2017-08-15T08:09:21Z</time>
</trkpt>
<trkpt lat="45.457780160" lon="6.917626760">
  <ele>2523.300000</ele>
<time>2017-08-15T08:09:23Z</time>
</trkpt>
<trkpt lat="45.457705050" lon="6.917698350">
  <ele>2527.300000</ele>
<time>2017-08-15T08:09:25Z</time>
</trkpt>
<trkpt lat="45.457593410" lon="6.917806810">
  <ele>2533.200000</ele>
<time>2017-08-15T08:09:28Z</time>
</trkpt>
<trkpt lat="45.457481760" lon="6.917911750">
  <ele>2539.400000</ele>
<time>2017-08-15T08:09:31Z</time>
</trkpt>
<trkpt lat="45.457408340" lon="6.917991710">
  <ele>2543.500000</ele>
<time>2017-08-15T08:09:33Z</time>
</trkpt>
<trkpt lat="45.457333400" lon="6.918063460">
  <ele>2547.500000</ele>
<time>2017-08-15T08:09:35Z</time>
</trkpt>
<trkpt lat="45.457223430" lon="6.918176790">
  <ele>2553.700000</ele>
<time>2017-08-15T08:09:38Z</time>
</trkpt>
<trkpt lat="45.457113460" lon="6.918285080">
  <ele>2559.900000</ele>
<time>2017-08-15T08:09:41Z</time>
</trkpt>
<trkpt lat="45.457038360" lon="6.918360010">
  <ele>2564.000000</ele>
<time>2017-08-15T08:09:43Z</time>
</trkpt>
<trkpt lat="45.456928390" lon="6.918470150">
  <ele>2570.300000</ele>
<time>2017-08-15T08:09:46Z</time>
</trkpt>
<trkpt lat="45.456818420" lon="6.918580120">
  <ele>2576.700000</ele>
<time>2017-08-15T08:09:49Z</time>
</trkpt>
<trkpt lat="45.456710120" lon="6.918691770">
  <ele>2583.200000</ele>
<time>2017-08-15T08:09:52Z</time>
</trkpt>
<trkpt lat="45.456603340" lon="6.918801740">
  <ele>2589.700000</ele>
<time>2017-08-15T08:09:55Z</time>
</trkpt>
<trkpt lat="45.456493370" lon="6.918911710">
  <ele>2596.300000</ele>
<time>2017-08-15T08:09:58Z</time>
</trkpt>
<trkpt lat="45.456415080" lon="6.918991670">
  <ele>2600.600000</ele>
<time>2017-08-15T08:10:00Z</time>
</trkpt>
<trkpt lat="45.456301760" lon="6.919095110">
  <ele>2606.900000</ele>
<time>2017-08-15T08:10:03Z</time>
</trkpt>
<trkpt lat="45.456225150" lon="6.919176750">
  <ele>2610.900000</ele>
<time>2017-08-15T08:10:05Z</time>
</trkpt>
<trkpt lat="45.456153400" lon="6.919265090">
  <ele>2615.000000</ele>
<time>2017-08-15T08:10:07Z</time>
</trkpt>
<trkpt lat="45.456038400" lon="6.919383440">
  <ele>2620.900000</ele>
<time>2017-08-15T08:10:10Z</time>
</trkpt>
<trkpt lat="45.455961790" lon="6.919468440">
  <ele>2624.500000</ele>
<time>2017-08-15T08:10:12Z</time>
</trkpt>
<trkpt lat="45.455875120" lon="6.919545050">
  <ele>2630.600000</ele>
<time>2017-08-15T08:10:16Z</time>
</trkpt>
<trkpt lat="45.455786770" lon="6.919506830">
  <ele>2642.800000</ele>
<time>2017-08-15T08:10:30Z</time>
</trkpt>
<trkpt lat="45.455708490" lon="6.919578410">
  <ele>2645.300000</ele>
<time>2017-08-15T08:10:37Z</time>
</trkpt>
<trkpt lat="45.455613430" lon="6.919616800">
  <ele>2647.900000</ele>
<time>2017-08-15T08:10:53Z</time>
</trkpt>
<trkpt lat="45.455520060" lon="6.919701790">
  <ele>2648.300000</ele>
<time>2017-08-15T08:10:56Z</time>
</trkpt>
<trkpt lat="45.455453340" lon="6.919805050">
  <ele>2648.900000</ele>
<time>2017-08-15T08:10:59Z</time>
</trkpt>
<trkpt lat="45.455381760" lon="6.919918380">
  <ele>2649.400000</ele>
<time>2017-08-15T08:11:02Z</time>
</trkpt>
<trkpt lat="45.455311690" lon="6.920063380">
  <ele>2650.200000</ele>
<time>2017-08-15T08:11:05Z</time>
</trkpt>
<trkpt lat="45.455313360" lon="6.920213420">
  <ele>2651.000000</ele>
<time>2017-08-15T08:11:09Z</time>
</trkpt>
<trkpt lat="45.455351750" lon="6.920335130">
  <ele>2651.700000</ele>
<time>2017-08-15T08:11:13Z</time>
</trkpt>
<trkpt lat="45.455398350" lon="6.920461690">
  <ele>2652.500000</ele>
<time>2017-08-15T08:11:18Z</time>
</trkpt>
<trkpt lat="45.455435070" lon="6.920581720">
  <ele>2652.900000</ele>
<time>2017-08-15T08:11:22Z</time>
</trkpt>
<trkpt lat="45.455430040" lon="6.920723370">
  <ele>2653.200000</ele>
<time>2017-08-15T08:11:26Z</time>
</trkpt>
<trkpt lat="45.455346720" lon="6.920781710">
  <ele>2653.600000</ele>
<time>2017-08-15T08:16:19Z</time>
</trkpt>
<trkpt lat="45.455255020" lon="6.920776680">
  <ele>2653.200000</ele>
<time>2017-08-15T08:16:25Z</time>
</trkpt>
<trkpt lat="45.455116720" lon="6.920826810">
  <ele>2652.500000</ele>
<time>2017-08-15T08:16:28Z</time>
</trkpt>
<trkpt lat="45.455000050" lon="6.920860170">
  <ele>2651.800000</ele>
<time>2017-08-15T08:16:30Z</time>
</trkpt>
<trkpt lat="45.454903490" lon="6.920883470">
  <ele>2650.700000</ele>
<time>2017-08-15T08:16:32Z</time>
</trkpt>
<trkpt lat="45.454776750" lon="6.920928400">
  <ele>2648.900000</ele>
<time>2017-08-15T08:16:35Z</time>
</trkpt>
<trkpt lat="45.454681700" lon="6.920960080">
  <ele>2647.600000</ele>
<time>2017-08-15T08:16:37Z</time>
</trkpt>
<trkpt lat="45.454571730" lon="6.921008360">
  <ele>2644.800000</ele>
<time>2017-08-15T08:16:41Z</time>
</trkpt>
<trkpt lat="45.454543400" lon="6.921175160">
  <ele>2641.300000</ele>
<time>2017-08-15T08:16:46Z</time>
</trkpt>
<trkpt lat="45.454536700" lon="6.921306760">
  <ele>2639.300000</ele>
<time>2017-08-15T08:16:49Z</time>
</trkpt>
<trkpt lat="45.454598390" lon="6.921428460">
  <ele>2637.300000</ele>
<time>2017-08-15T08:16:52Z</time>
</trkpt>
<trkpt lat="45.454545080" lon="6.921538430">
  <ele>2634.600000</ele>
<time>2017-08-15T08:16:56Z</time>
</trkpt>
<trkpt lat="45.454436780" lon="6.921490150">
  <ele>2632.400000</ele>
<time>2017-08-15T08:16:59Z</time>
</trkpt>
<trkpt lat="45.454480030" lon="6.921641700">
  <ele>2629.000000</ele>
<time>2017-08-15T08:17:05Z</time>
</trkpt>
<trkpt lat="45.454546750" lon="6.921753340">
  <ele>2627.300000</ele>
<time>2017-08-15T08:17:08Z</time>
</trkpt>
<trkpt lat="45.454455060" lon="6.921776810">
  <ele>2626.000000</ele>
<time>2017-08-15T08:17:10Z</time>
</trkpt>
<trkpt lat="45.454355140" lon="6.921750160">
  <ele>2624.900000</ele>
<time>2017-08-15T08:17:12Z</time>
</trkpt>
<trkpt lat="45.454250030" lon="6.921763400">
  <ele>2623.700000</ele>
<time>2017-08-15T08:17:14Z</time>
</trkpt>
<trkpt lat="45.454138390" lon="6.921773460">
  <ele>2622.500000</ele>
<time>2017-08-15T08:17:16Z</time>
</trkpt>
<trkpt lat="45.454046690" lon="6.921796760">
  <ele>2621.400000</ele>
<time>2017-08-15T08:17:18Z</time>
</trkpt>
<trkpt lat="45.453956670" lon="6.921836830">
  <ele>2620.400000</ele>
<time>2017-08-15T08:17:20Z</time>
</trkpt>
<trkpt lat="45.453871670" lon="6.921936740">
  <ele>2619.100000</ele>
<time>2017-08-15T08:17:23Z</time>
</trkpt>
<trkpt lat="45.453846700" lon="6.922085100">
  <ele>2614.700000</ele>
<time>2017-08-15T08:17:38Z</time>
</trkpt>
<trkpt lat="45.453941750" lon="6.922200100">
  <ele>2613.600000</ele>
<time>2017-08-15T08:17:41Z</time>
</trkpt>
<trkpt lat="45.454081730" lon="6.922231780">
  <ele>2612.700000</ele>
<time>2017-08-15T08:17:43Z</time>
</trkpt>
<trkpt lat="45.454175100" lon="6.922293470">
  <ele>2611.400000</ele>
<time>2017-08-15T08:17:45Z</time>
</trkpt>
<trkpt lat="45.454221700" lon="6.922425070">
  <ele>2609.800000</ele>
<time>2017-08-15T08:17:48Z</time>
</trkpt>
<trkpt lat="45.454176780" lon="6.922543420">
  <ele>2608.700000</ele>
<time>2017-08-15T08:17:50Z</time>
</trkpt>
<trkpt lat="45.454105030" lon="6.922671830">
  <ele>2607.600000</ele>
<time>2017-08-15T08:17:52Z</time>
</trkpt>
<trkpt lat="45.454058420" lon="6.922816670">
  <ele>2606.400000</ele>
<time>2017-08-15T08:17:54Z</time>
</trkpt>
<trkpt lat="45.454038470" lon="6.922998390">
  <ele>2604.500000</ele>
<time>2017-08-15T08:17:57Z</time>
</trkpt>
<trkpt lat="45.454048370" lon="6.923130150">
  <ele>2603.300000</ele>
<time>2017-08-15T08:17:59Z</time>
</trkpt>
<trkpt lat="45.454050040" lon="6.923288400">
  <ele>2601.500000</ele>
<time>2017-08-15T08:18:02Z</time>
</trkpt>
<trkpt lat="45.454083400" lon="6.923436760">
  <ele>2599.500000</ele>
<time>2017-08-15T08:18:05Z</time>
</trkpt>
<trkpt lat="45.454101670" lon="6.923573390">
  <ele>2597.400000</ele>
<time>2017-08-15T08:18:08Z</time>
</trkpt>
<trkpt lat="45.454078370" lon="6.923718400">
  <ele>2595.500000</ele>
<time>2017-08-15T08:18:11Z</time>
</trkpt>
<trkpt lat="45.454058420" lon="6.923855020">
  <ele>2594.300000</ele>
<time>2017-08-15T08:18:13Z</time>
</trkpt>
<trkpt lat="45.454030090" lon="6.924030040">
  <ele>2592.400000</ele>
<time>2017-08-15T08:18:16Z</time>
</trkpt>
<trkpt lat="45.454015010" lon="6.924173370">
  <ele>2590.600000</ele>
<time>2017-08-15T08:18:19Z</time>
</trkpt>
<trkpt lat="45.453980140" lon="6.924298420">
  <ele>2588.500000</ele>
<time>2017-08-15T08:18:23Z</time>
</trkpt>
<trkpt lat="45.454060100" lon="6.924191810">
  <ele>2586.400000</ele>
<time>2017-08-15T08:18:27Z</time>
</trkpt>
<trkpt lat="45.454148450" lon="6.924291720">
  <ele>2583.700000</ele>
<time>2017-08-15T08:18:32Z</time>
</trkpt>
<trkpt lat="45.454141740" lon="6.924465060">
  <ele>2581.900000</ele>
<time>2017-08-15T08:18:35Z</time>
</trkpt>
<trkpt lat="45.454145090" lon="6.924598500">
  <ele>2580.300000</ele>
<time>2017-08-15T08:18:37Z</time>
</trkpt>
<trkpt lat="45.454146770" lon="6.924728420">
  <ele>2578.800000</ele>
<time>2017-08-15T08:18:39Z</time>
</trkpt>
<trkpt lat="45.454171750" lon="6.924883480">
  <ele>2577.100000</ele>
<time>2017-08-15T08:18:41Z</time>
</trkpt>
<trkpt lat="45.454133360" lon="6.925075090">
  <ele>2575.400000</ele>
<time>2017-08-15T08:18:43Z</time>
</trkpt>
<trkpt lat="45.454093460" lon="6.925211720">
  <ele>2573.100000</ele>
<time>2017-08-15T08:18:46Z</time>
</trkpt>
<trkpt lat="45.454173420" lon="6.925140130">
  <ele>2570.700000</ele>
<time>2017-08-15T08:18:49Z</time>
</trkpt>
<trkpt lat="45.454273340" lon="6.925110130">
  <ele>2568.200000</ele>
<time>2017-08-15T08:18:53Z</time>
</trkpt>
<trkpt lat="45.454300160" lon="6.925238370">
  <ele>2559.600000</ele>
<time>2017-08-15T08:19:39Z</time>
</trkpt>
<trkpt lat="45.454313400" lon="6.925371810">
  <ele>2559.100000</ele>
<time>2017-08-15T08:19:42Z</time>
</trkpt>
<trkpt lat="45.454311720" lon="6.925500050">
  <ele>2558.400000</ele>
<time>2017-08-15T08:19:44Z</time>
</trkpt>
<trkpt lat="45.454310050" lon="6.925665010">
  <ele>2557.700000</ele>
<time>2017-08-15T08:19:46Z</time>
</trkpt>
<trkpt lat="45.454275010" lon="6.925860140">
  <ele>2556.900000</ele>
<time>2017-08-15T08:19:48Z</time>
</trkpt>
<trkpt lat="45.454236790" lon="6.926043370">
  <ele>2555.800000</ele>
<time>2017-08-15T08:19:50Z</time>
</trkpt>
<trkpt lat="45.454151800" lon="6.926193400">
  <ele>2554.600000</ele>
<time>2017-08-15T08:19:52Z</time>
</trkpt>
<trkpt lat="45.454040150" lon="6.926293480">
  <ele>2553.600000</ele>
<time>2017-08-15T08:19:54Z</time>
</trkpt>
<trkpt lat="45.453943420" lon="6.926395070">
  <ele>2552.700000</ele>
<time>2017-08-15T08:19:56Z</time>
</trkpt>
<trkpt lat="45.453873350" lon="6.926508400">
  <ele>2551.700000</ele>
<time>2017-08-15T08:19:58Z</time>
</trkpt>
<trkpt lat="45.453776790" lon="6.926641670">
  <ele>2550.500000</ele>
<time>2017-08-15T08:20:00Z</time>
</trkpt>
<trkpt lat="45.453646700" lon="6.926753480">
  <ele>2549.400000</ele>
<time>2017-08-15T08:20:02Z</time>
</trkpt>
<trkpt lat="45.453508400" lon="6.926845010">
  <ele>2548.300000</ele>
<time>2017-08-15T08:20:04Z</time>
</trkpt>
<trkpt lat="45.453410170" lon="6.926926820">
  <ele>2547.500000</ele>
<time>2017-08-15T08:20:06Z</time>
</trkpt>
<trkpt lat="45.453321820" lon="6.927006780">
  <ele>2546.800000</ele>
<time>2017-08-15T08:20:08Z</time>
</trkpt>
<trkpt lat="45.453235150" lon="6.927108370">
  <ele>2546.100000</ele>
<time>2017-08-15T08:20:10Z</time>
</trkpt>
<trkpt lat="45.453145130" lon="6.927235110">
  <ele>2545.500000</ele>
<time>2017-08-15T08:20:12Z</time>
</trkpt>
<trkpt lat="45.453045050" lon="6.927366700">
  <ele>2544.600000</ele>
<time>2017-08-15T08:20:14Z</time>
</trkpt>
<trkpt lat="45.452943460" lon="6.927520090">
  <ele>2543.600000</ele>
<time>2017-08-15T08:20:16Z</time>
</trkpt>
<trkpt lat="45.452846740" lon="6.927666780">
  <ele>2542.600000</ele>
<time>2017-08-15T08:20:18Z</time>
</trkpt>
<trkpt lat="45.452856790" lon="6.927803400">
  <ele>2541.700000</ele>
<time>2017-08-15T08:20:20Z</time>
</trkpt>
<trkpt lat="45.452898370" lon="6.927963500">
  <ele>2540.600000</ele>
<time>2017-08-15T08:20:22Z</time>
</trkpt>
<trkpt lat="45.452860150" lon="6.928101800">
  <ele>2539.400000</ele>
<time>2017-08-15T08:20:24Z</time>
</trkpt>
<trkpt lat="45.452803490" lon="6.928231720">
  <ele>2538.100000</ele>
<time>2017-08-15T08:20:26Z</time>
</trkpt>
<trkpt lat="45.452713460" lon="6.928263400">
  <ele>2536.600000</ele>
<time>2017-08-15T08:20:28Z</time>
</trkpt>
<trkpt lat="45.452608350" lon="6.928326770">
  <ele>2535.400000</ele>
<time>2017-08-15T08:20:30Z</time>
</trkpt>
<trkpt lat="45.452503410" lon="6.928415110">
  <ele>2534.100000</ele>
<time>2017-08-15T08:20:32Z</time>
</trkpt>
<trkpt lat="45.452405010" lon="6.928500100">
  <ele>2532.900000</ele>
<time>2017-08-15T08:20:34Z</time>
</trkpt>
<trkpt lat="45.452316830" lon="6.928595160">
  <ele>2531.600000</ele>
<time>2017-08-15T08:20:36Z</time>
</trkpt>
<trkpt lat="45.452358410" lon="6.928715020">
  <ele>2529.900000</ele>
<time>2017-08-15T08:20:39Z</time>
</trkpt>
<trkpt lat="45.452448430" lon="6.928795150">
  <ele>2528.700000</ele>
<time>2017-08-15T08:20:41Z</time>
</trkpt>
<trkpt lat="45.452538450" lon="6.928908470">
  <ele>2527.500000</ele>
<time>2017-08-15T08:20:43Z</time>
</trkpt>
<trkpt lat="45.452641710" lon="6.928951720">
  <ele>2526.200000</ele>
<time>2017-08-15T08:20:45Z</time>
</trkpt>
<trkpt lat="45.452756710" lon="6.928950050">
  <ele>2524.700000</ele>
<time>2017-08-15T08:20:47Z</time>
</trkpt>
<trkpt lat="45.452863500" lon="6.928930100">
  <ele>2523.300000</ele>
<time>2017-08-15T08:20:49Z</time>
</trkpt>
<trkpt lat="45.452943460" lon="6.929005030">
  <ele>2520.800000</ele>
<time>2017-08-15T08:20:53Z</time>
</trkpt>
<trkpt lat="45.453036670" lon="6.929016770">
  <ele>2519.400000</ele>
<time>2017-08-15T08:20:55Z</time>
</trkpt>
<trkpt lat="45.453133400" lon="6.929043420">
  <ele>2518.000000</ele>
<time>2017-08-15T08:20:57Z</time>
</trkpt>
<trkpt lat="45.453198440" lon="6.929185070">
  <ele>2516.400000</ele>
<time>2017-08-15T08:20:59Z</time>
</trkpt>
<trkpt lat="45.453303380" lon="6.929300070">
  <ele>2514.800000</ele>
<time>2017-08-15T08:21:01Z</time>
</trkpt>
<trkpt lat="45.453420060" lon="6.929338460">
  <ele>2513.100000</ele>
<time>2017-08-15T08:21:03Z</time>
</trkpt>
<trkpt lat="45.453511760" lon="6.929400150">
  <ele>2510.800000</ele>
<time>2017-08-15T08:21:06Z</time>
</trkpt>
<trkpt lat="45.453616700" lon="6.929430160">
  <ele>2509.000000</ele>
<time>2017-08-15T08:21:08Z</time>
</trkpt>
<trkpt lat="45.453750140" lon="6.929480120">
  <ele>2507.200000</ele>
<time>2017-08-15T08:21:10Z</time>
</trkpt>
<trkpt lat="45.453813340" lon="6.929586730">
  <ele>2504.800000</ele>
<time>2017-08-15T08:21:13Z</time>
</trkpt>
<trkpt lat="45.453686770" lon="6.929565110">
  <ele>2502.600000</ele>
<time>2017-08-15T08:21:16Z</time>
</trkpt>
<trkpt lat="45.453575120" lon="6.929566790">
  <ele>2501.100000</ele>
<time>2017-08-15T08:21:18Z</time>
</trkpt>
<trkpt lat="45.453471690" lon="6.929696710">
  <ele>2499.600000</ele>
<time>2017-08-15T08:21:20Z</time>
</trkpt>
<trkpt lat="45.453330040" lon="6.929820090">
  <ele>2498.100000</ele>
<time>2017-08-15T08:21:22Z</time>
</trkpt>
<trkpt lat="45.453206820" lon="6.929993420">
  <ele>2496.400000</ele>
<time>2017-08-15T08:21:24Z</time>
</trkpt>
<trkpt lat="45.453111770" lon="6.930183360">
  <ele>2495.000000</ele>
<time>2017-08-15T08:21:26Z</time>
</trkpt>
<trkpt lat="45.453080090" lon="6.930345130">
  <ele>2493.700000</ele>
<time>2017-08-15T08:21:28Z</time>
</trkpt>
<trkpt lat="45.453063490" lon="6.930513440">
  <ele>2492.400000</ele>
<time>2017-08-15T08:21:30Z</time>
</trkpt>
<trkpt lat="45.453005150" lon="6.930653420">
  <ele>2490.700000</ele>
<time>2017-08-15T08:21:32Z</time>
</trkpt>
<trkpt lat="45.452968440" lon="6.930803450">
  <ele>2489.300000</ele>
<time>2017-08-15T08:21:34Z</time>
</trkpt>
<trkpt lat="45.452965090" lon="6.930945110">
  <ele>2488.000000</ele>
<time>2017-08-15T08:21:36Z</time>
</trkpt>
<trkpt lat="45.452903400" lon="6.931053400">
  <ele>2486.800000</ele>
<time>2017-08-15T08:21:38Z</time>
</trkpt>
<trkpt lat="45.452831820" lon="6.931190030">
  <ele>2485.600000</ele>
<time>2017-08-15T08:21:40Z</time>
</trkpt>
<trkpt lat="45.452745150" lon="6.931311730">
  <ele>2484.500000</ele>
<time>2017-08-15T08:21:42Z</time>
</trkpt>
<trkpt lat="45.452648420" lon="6.931428410">
  <ele>2483.300000</ele>
<time>2017-08-15T08:21:44Z</time>
</trkpt>
<trkpt lat="45.452566780" lon="6.931520100">
  <ele>2482.000000</ele>
<time>2017-08-15T08:21:46Z</time>
</trkpt>
<trkpt lat="45.452513470" lon="6.931643490">
  <ele>2480.900000</ele>
<time>2017-08-15T08:21:48Z</time>
</trkpt>
<trkpt lat="45.452445070" lon="6.931790000">
  <ele>2479.400000</ele>
<time>2017-08-15T08:21:50Z</time>
</trkpt>
<trkpt lat="45.452388410" lon="6.931965020">
  <ele>2478.200000</ele>
<time>2017-08-15T08:21:52Z</time>
</trkpt>
<trkpt lat="45.452336780" lon="6.932135000">
  <ele>2477.000000</ele>
<time>2017-08-15T08:21:54Z</time>
</trkpt>
<trkpt lat="45.452295040" lon="6.932296770">
  <ele>2476.000000</ele>
<time>2017-08-15T08:21:56Z</time>
</trkpt>
<trkpt lat="45.452265030" lon="6.932453350">
  <ele>2474.700000</ele>
<time>2017-08-15T08:21:59Z</time>
</trkpt>
<trkpt lat="45.452215080" lon="6.932603380">
  <ele>2468.700000</ele>
<time>2017-08-15T08:23:19Z</time>
</trkpt>
<trkpt lat="45.452158410" lon="6.932716700">
  <ele>2468.700000</ele>
<time>2017-08-15T08:23:21Z</time>
</trkpt>
<trkpt lat="45.452066720" lon="6.932868420">
  <ele>2468.500000</ele>
<time>2017-08-15T08:23:23Z</time>
</trkpt>
<trkpt lat="45.451991780" lon="6.932980060">
  <ele>2468.300000</ele>
<time>2017-08-15T08:23:25Z</time>
</trkpt>
<trkpt lat="45.451906790" lon="6.933081820">
  <ele>2468.000000</ele>
<time>2017-08-15T08:23:27Z</time>
</trkpt>
<trkpt lat="45.451788440" lon="6.933166810">
  <ele>2467.600000</ele>
<time>2017-08-15T08:23:29Z</time>
</trkpt>
<trkpt lat="45.451693390" lon="6.933230010">
  <ele>2467.300000</ele>
<time>2017-08-15T08:23:31Z</time>
</trkpt>
<trkpt lat="45.451573360" lon="6.933308470">
  <ele>2466.900000</ele>
<time>2017-08-15T08:23:33Z</time>
</trkpt>
<trkpt lat="45.451483340" lon="6.933401670">
  <ele>2466.400000</ele>
<time>2017-08-15T08:23:35Z</time>
</trkpt>
<trkpt lat="45.451425160" lon="6.933553390">
  <ele>2465.500000</ele>
<time>2017-08-15T08:23:38Z</time>
</trkpt>
<trkpt lat="45.451393480" lon="6.933695040">
  <ele>2464.400000</ele>
<time>2017-08-15T08:23:40Z</time>
</trkpt>
<trkpt lat="45.451333470" lon="6.933888490">
  <ele>2463.300000</ele>
<time>2017-08-15T08:23:42Z</time>
</trkpt>
<trkpt lat="45.451241770" lon="6.934093350">
  <ele>2462.300000</ele>
<time>2017-08-15T08:23:44Z</time>
</trkpt>
<trkpt lat="45.451161810" lon="6.934286800">
  <ele>2461.400000</ele>
<time>2017-08-15T08:23:46Z</time>
</trkpt>
<trkpt lat="45.451138340" lon="6.934473380">
  <ele>2460.700000</ele>
<time>2017-08-15T08:23:48Z</time>
</trkpt>
<trkpt lat="45.451186780" lon="6.934596770">
  <ele>2459.800000</ele>
<time>2017-08-15T08:23:50Z</time>
</trkpt>
<trkpt lat="45.451303460" lon="6.934583350">
  <ele>2458.700000</ele>
<time>2017-08-15T08:23:52Z</time>
</trkpt>
<trkpt lat="45.451451820" lon="6.934581680">
  <ele>2457.500000</ele>
<time>2017-08-15T08:23:54Z</time>
</trkpt>
<trkpt lat="45.451590120" lon="6.934618390">
  <ele>2456.200000</ele>
<time>2017-08-15T08:23:56Z</time>
</trkpt>
<trkpt lat="45.451710150" lon="6.934713440">
  <ele>2454.900000</ele>
<time>2017-08-15T08:23:58Z</time>
</trkpt>
<trkpt lat="45.451761780" lon="6.934885100">
  <ele>2453.800000</ele>
<time>2017-08-15T08:24:00Z</time>
</trkpt>
<trkpt lat="45.451766810" lon="6.935061790">
  <ele>2452.100000</ele>
<time>2017-08-15T08:24:03Z</time>
</trkpt>
<trkpt lat="45.451836720" lon="6.935188360">
  <ele>2450.100000</ele>
<time>2017-08-15T08:24:06Z</time>
</trkpt>
<trkpt lat="45.451950040" lon="6.935240160">
  <ele>2448.300000</ele>
<time>2017-08-15T08:24:09Z</time>
</trkpt>
<trkpt lat="45.452020110" lon="6.935346780">
  <ele>2446.500000</ele>
<time>2017-08-15T08:24:12Z</time>
</trkpt>
<trkpt lat="45.452135110" lon="6.935431770">
  <ele>2444.500000</ele>
<time>2017-08-15T08:24:15Z</time>
</trkpt>
<trkpt lat="45.452076770" lon="6.935586670">
  <ele>2442.300000</ele>
<time>2017-08-15T08:24:18Z</time>
</trkpt>
<trkpt lat="45.452148360" lon="6.935698480">
  <ele>2440.100000</ele>
<time>2017-08-15T08:24:21Z</time>
</trkpt>
<trkpt lat="45.452266710" lon="6.935696810">
  <ele>2438.700000</ele>
<time>2017-08-15T08:24:23Z</time>
</trkpt>
<trkpt lat="45.452278440" lon="6.935826730">
  <ele>2436.400000</ele>
<time>2017-08-15T08:24:26Z</time>
</trkpt>
<trkpt lat="45.452188420" lon="6.935906690">
  <ele>2435.000000</ele>
<time>2017-08-15T08:24:28Z</time>
</trkpt>
<trkpt lat="45.452268380" lon="6.935990010">
  <ele>2432.700000</ele>
<time>2017-08-15T08:24:31Z</time>
</trkpt>
<trkpt lat="45.452365110" lon="6.936030070">
  <ele>2431.300000</ele>
<time>2017-08-15T08:24:33Z</time>
</trkpt>
<trkpt lat="45.452286820" lon="6.936188490">
  <ele>2429.100000</ele>
<time>2017-08-15T08:24:36Z</time>
</trkpt>
<trkpt lat="45.452190100" lon="6.936246830">
  <ele>2427.600000</ele>
<time>2017-08-15T08:24:38Z</time>
</trkpt>
<trkpt lat="45.452081800" lon="6.936283370">
  <ele>2425.400000</ele>
<time>2017-08-15T08:24:41Z</time>
</trkpt>
<trkpt lat="45.452143490" lon="6.936391830">
  <ele>2423.700000</ele>
<time>2017-08-15T08:24:43Z</time>
</trkpt>
<trkpt lat="45.452233350" lon="6.936428380">
  <ele>2422.000000</ele>
<time>2017-08-15T08:24:45Z</time>
</trkpt>
<trkpt lat="45.452288500" lon="6.936571710">
  <ele>2419.400000</ele>
<time>2017-08-15T08:24:48Z</time>
</trkpt>
<trkpt lat="45.452308450" lon="6.936726780">
  <ele>2417.400000</ele>
<time>2017-08-15T08:24:50Z</time>
</trkpt>
<trkpt lat="45.452311800" lon="6.936895080">
  <ele>2415.600000</ele>
<time>2017-08-15T08:24:52Z</time>
</trkpt>
<trkpt lat="45.452230160" lon="6.936963480">
  <ele>2413.800000</ele>
<time>2017-08-15T08:24:54Z</time>
</trkpt>
<trkpt lat="45.452131760" lon="6.937006730">
  <ele>2411.400000</ele>
<time>2017-08-15T08:24:57Z</time>
</trkpt>
<trkpt lat="45.452056830" lon="6.937120050">
  <ele>2409.900000</ele>
<time>2017-08-15T08:24:59Z</time>
</trkpt>
<trkpt lat="45.452033360" lon="6.937268410">
  <ele>2408.300000</ele>
<time>2017-08-15T08:25:01Z</time>
</trkpt>
<trkpt lat="45.452011730" lon="6.937405040">
  <ele>2406.600000</ele>
<time>2017-08-15T08:25:03Z</time>
</trkpt>
<trkpt lat="45.452003350" lon="6.937590110">
  <ele>2404.000000</ele>
<time>2017-08-15T08:25:06Z</time>
</trkpt>
<trkpt lat="45.451995130" lon="6.937731770">
  <ele>2402.400000</ele>
<time>2017-08-15T08:25:08Z</time>
</trkpt>
<trkpt lat="45.451998490" lon="6.937875100">
  <ele>2400.900000</ele>
<time>2017-08-15T08:25:10Z</time>
</trkpt>
<trkpt lat="45.451995130" lon="6.938028480">
  <ele>2399.200000</ele>
<time>2017-08-15T08:25:12Z</time>
</trkpt>
<trkpt lat="45.451985080" lon="6.938173490">
  <ele>2397.500000</ele>
<time>2017-08-15T08:25:14Z</time>
</trkpt>
<trkpt lat="45.452021790" lon="6.938340120">
  <ele>2395.600000</ele>
<time>2017-08-15T08:25:16Z</time>
</trkpt>
<trkpt lat="45.452080130" lon="6.938460150">
  <ele>2394.100000</ele>
<time>2017-08-15T08:25:18Z</time>
</trkpt>
<trkpt lat="45.452180040" lon="6.938505080">
  <ele>2383.200000</ele>
<time>2017-08-15T08:26:57Z</time>
</trkpt>
<trkpt lat="45.452295040" lon="6.938553360">
  <ele>2383.200000</ele>
<time>2017-08-15T08:27:01Z</time>
</trkpt>
<trkpt lat="45.452383380" lon="6.938615050">
  <ele>2383.000000</ele>
<time>2017-08-15T08:27:03Z</time>
</trkpt>
<trkpt lat="45.452495030" lon="6.938671710">
  <ele>2382.400000</ele>
<time>2017-08-15T08:27:05Z</time>
</trkpt>
<trkpt lat="45.452635010" lon="6.938695010">
  <ele>2381.600000</ele>
<time>2017-08-15T08:27:07Z</time>
</trkpt>
<trkpt lat="45.452770130" lon="6.938685120">
  <ele>2381.200000</ele>
<time>2017-08-15T08:27:09Z</time>
</trkpt>
<trkpt lat="45.452881770" lon="6.938693340">
  <ele>2380.900000</ele>
<time>2017-08-15T08:27:11Z</time>
</trkpt>
<trkpt lat="45.452985040" lon="6.938685120">
  <ele>2380.500000</ele>
<time>2017-08-15T08:27:13Z</time>
</trkpt>
<trkpt lat="45.453078410" lon="6.938728370">
  <ele>2380.100000</ele>
<time>2017-08-15T08:27:15Z</time>
</trkpt>
<trkpt lat="45.453136750" lon="6.938878410">
  <ele>2379.600000</ele>
<time>2017-08-15T08:27:17Z</time>
</trkpt>
<trkpt lat="45.453178490" lon="6.939041690">
  <ele>2378.800000</ele>
<time>2017-08-15T08:27:19Z</time>
</trkpt>
<trkpt lat="45.453265160" lon="6.939095170">
  <ele>2377.900000</ele>
<time>2017-08-15T08:27:21Z</time>
</trkpt>
<trkpt lat="45.453348480" lon="6.939023420">
  <ele>2377.100000</ele>
<time>2017-08-15T08:27:23Z</time>
</trkpt>
<trkpt lat="45.453403460" lon="6.939126680">
  <ele>2376.300000</ele>
<time>2017-08-15T08:27:25Z</time>
</trkpt>
<trkpt lat="45.453451740" lon="6.939263470">
  <ele>2375.500000</ele>
<time>2017-08-15T08:27:27Z</time>
</trkpt>
<trkpt lat="45.453560040" lon="6.939248390">
  <ele>2374.000000</ele>
<time>2017-08-15T08:27:30Z</time>
</trkpt>
<trkpt lat="45.453660120" lon="6.939333380">
  <ele>2372.500000</ele>
<time>2017-08-15T08:27:33Z</time>
</trkpt>
<trkpt lat="45.453790040" lon="6.939300020">
  <ele>2370.800000</ele>
<time>2017-08-15T08:27:36Z</time>
</trkpt>
<trkpt lat="45.453871670" lon="6.939391720">
  <ele>2369.700000</ele>
<time>2017-08-15T08:27:38Z</time>
</trkpt>
<trkpt lat="45.453990030" lon="6.939330030">
  <ele>2367.900000</ele>
<time>2017-08-15T08:27:41Z</time>
</trkpt>
<trkpt lat="45.454008470" lon="6.939153340">
  <ele>2366.800000</ele>
<time>2017-08-15T08:27:43Z</time>
</trkpt>
<trkpt lat="45.454128500" lon="6.939225090">
  <ele>2364.700000</ele>
<time>2017-08-15T08:27:46Z</time>
</trkpt>
<trkpt lat="45.454220030" lon="6.939270010">
  <ele>2363.300000</ele>
<time>2017-08-15T08:27:48Z</time>
</trkpt>
<trkpt lat="45.454346760" lon="6.939183340">
  <ele>2361.800000</ele>
<time>2017-08-15T08:27:50Z</time>
</trkpt>
<trkpt lat="45.454496800" lon="6.939190050">
  <ele>2360.400000</ele>
<time>2017-08-15T08:27:52Z</time>
</trkpt>
<trkpt lat="45.454620010" lon="6.939230110">
  <ele>2359.000000</ele>
<time>2017-08-15T08:27:54Z</time>
</trkpt>
<trkpt lat="45.454753450" lon="6.939230110">
  <ele>2357.400000</ele>
<time>2017-08-15T08:27:56Z</time>
</trkpt>
<trkpt lat="45.454878340" lon="6.939226760">
  <ele>2355.900000</ele>
<time>2017-08-15T08:27:58Z</time>
</trkpt>
<trkpt lat="45.454985130" lon="6.939250060">
  <ele>2354.400000</ele>
<time>2017-08-15T08:28:00Z</time>
</trkpt>
<trkpt lat="45.455098450" lon="6.939301700">
  <ele>2352.700000</ele>
<time>2017-08-15T08:28:02Z</time>
</trkpt>
<trkpt lat="45.455210100" lon="6.939306720">
  <ele>2351.000000</ele>
<time>2017-08-15T08:28:04Z</time>
</trkpt>
<trkpt lat="45.455321740" lon="6.939310080">
  <ele>2349.500000</ele>
<time>2017-08-15T08:28:06Z</time>
</trkpt>
<trkpt lat="45.455441770" lon="6.939333380">
  <ele>2347.900000</ele>
<time>2017-08-15T08:28:08Z</time>
</trkpt>
<trkpt lat="45.455578400" lon="6.939310080">
  <ele>2346.400000</ele>
<time>2017-08-15T08:28:10Z</time>
</trkpt>
<trkpt lat="45.455665070" lon="6.939231790">
  <ele>2345.100000</ele>
<time>2017-08-15T08:28:12Z</time>
</trkpt>
<trkpt lat="45.455730110" lon="6.939341760">
  <ele>2342.800000</ele>
<time>2017-08-15T08:28:15Z</time>
</trkpt>
<trkpt lat="45.455655010" lon="6.939435140">
  <ele>2341.400000</ele>
<time>2017-08-15T08:28:17Z</time>
</trkpt>
<trkpt lat="45.455680150" lon="6.939558350">
  <ele>2338.500000</ele>
<time>2017-08-15T08:28:21Z</time>
</trkpt>
<trkpt lat="45.455795150" lon="6.939573440">
  <ele>2337.100000</ele>
<time>2017-08-15T08:28:23Z</time>
</trkpt>
<trkpt lat="45.455888360" lon="6.939481740">
  <ele>2335.700000</ele>
<time>2017-08-15T08:28:25Z</time>
</trkpt>
<trkpt lat="45.455983410" lon="6.939321810">
  <ele>2334.400000</ele>
<time>2017-08-15T08:28:27Z</time>
</trkpt>
<trkpt lat="45.456108470" lon="6.939196750">
  <ele>2333.100000</ele>
<time>2017-08-15T08:28:29Z</time>
</trkpt>
<trkpt lat="45.456245090" lon="6.939103380">
  <ele>2331.800000</ele>
<time>2017-08-15T08:28:31Z</time>
</trkpt>
<trkpt lat="45.456368480" lon="6.939031800">
  <ele>2330.500000</ele>
<time>2017-08-15T08:28:33Z</time>
</trkpt>
<trkpt lat="45.456476770" lon="6.938971780">
  <ele>2328.900000</ele>
<time>2017-08-15T08:28:35Z</time>
</trkpt>
<trkpt lat="45.456583390" lon="6.938911770">
  <ele>2327.500000</ele>
<time>2017-08-15T08:28:37Z</time>
</trkpt>
<trkpt lat="45.456690010" lon="6.938853430">
  <ele>2325.400000</ele>
<time>2017-08-15T08:28:39Z</time>
</trkpt>
<trkpt lat="45.456783380" lon="6.938800120">
  <ele>2323.700000</ele>
<time>2017-08-15T08:28:41Z</time>
</trkpt>
<trkpt lat="45.456903410" lon="6.938725020">
  <ele>2320.800000</ele>
<time>2017-08-15T08:28:44Z</time>
</trkpt>
<trkpt lat="45.456963420" lon="6.938611700">
  <ele>2318.900000</ele>
<time>2017-08-15T08:28:46Z</time>
</trkpt>
<trkpt lat="45.457010030" lon="6.938491670">
  <ele>2317.200000</ele>
<time>2017-08-15T08:28:48Z</time>
</trkpt>
<trkpt lat="45.457065010" lon="6.938388400">
  <ele>2315.300000</ele>
<time>2017-08-15T08:28:50Z</time>
</trkpt>
<trkpt lat="45.457131730" lon="6.938265020">
  <ele>2313.600000</ele>
<time>2017-08-15T08:28:52Z</time>
</trkpt>
<trkpt lat="45.457241700" lon="6.938253450">
  <ele>2311.900000</ele>
<time>2017-08-15T08:28:54Z</time>
</trkpt>
<trkpt lat="45.457351670" lon="6.938191760">
  <ele>2310.400000</ele>
<time>2017-08-15T08:28:56Z</time>
</trkpt>
<trkpt lat="45.457478410" lon="6.938096710">
  <ele>2308.800000</ele>
<time>2017-08-15T08:28:58Z</time>
</trkpt>
<trkpt lat="45.457613360" lon="6.938080120">
  <ele>2307.400000</ele>
<time>2017-08-15T08:29:00Z</time>
</trkpt>
<trkpt lat="45.457741770" lon="6.938035020">
  <ele>2306.000000</ele>
<time>2017-08-15T08:29:02Z</time>
</trkpt>
<trkpt lat="45.457873360" lon="6.937985070">
  <ele>2304.600000</ele>
<time>2017-08-15T08:29:04Z</time>
</trkpt>
<trkpt lat="45.458015020" lon="6.937905100">
  <ele>2303.100000</ele>
<time>2017-08-15T08:29:06Z</time>
</trkpt>
<trkpt lat="45.458161700" lon="6.937826820">
  <ele>2301.700000</ele>
<time>2017-08-15T08:29:08Z</time>
</trkpt>
<trkpt lat="45.458261780" lon="6.937740150">
  <ele>2300.300000</ele>
<time>2017-08-15T08:29:10Z</time>
</trkpt>
<trkpt lat="45.458355150" lon="6.937618440">
  <ele>2298.500000</ele>
<time>2017-08-15T08:29:13Z</time>
</trkpt>
<trkpt lat="45.458448360" lon="6.937526740">
  <ele>2297.000000</ele>
<time>2017-08-15T08:29:16Z</time>
</trkpt>
<trkpt lat="45.458546770" lon="6.937511820">
  <ele>2296.000000</ele>
<time>2017-08-15T08:29:18Z</time>
</trkpt>
<trkpt lat="45.458666790" lon="6.937485000">
  <ele>2294.900000</ele>
<time>2017-08-15T08:29:20Z</time>
</trkpt>
<trkpt lat="45.458770060" lon="6.937421800">
  <ele>2293.900000</ele>
<time>2017-08-15T08:29:22Z</time>
</trkpt>
<trkpt lat="45.458870140" lon="6.937366820">
  <ele>2293.000000</ele>
<time>2017-08-15T08:29:24Z</time>
</trkpt>
<trkpt lat="45.458991680" lon="6.937326750">
  <ele>2292.000000</ele>
<time>2017-08-15T08:29:26Z</time>
</trkpt>
<trkpt lat="45.459105170" lon="6.937245110">
  <ele>2291.000000</ele>
<time>2017-08-15T08:29:28Z</time>
</trkpt>
<trkpt lat="45.459196700" lon="6.937140000">
  <ele>2290.100000</ele>
<time>2017-08-15T08:29:30Z</time>
</trkpt>
<trkpt lat="45.459286720" lon="6.937043440">
  <ele>2289.300000</ele>
<time>2017-08-15T08:29:32Z</time>
</trkpt>
<trkpt lat="45.459403400" lon="6.937001700">
  <ele>2288.400000</ele>
<time>2017-08-15T08:29:34Z</time>
</trkpt>
<trkpt lat="45.459503480" lon="6.936918390">
  <ele>2287.400000</ele>
<time>2017-08-15T08:29:36Z</time>
</trkpt>
<trkpt lat="45.459566680" lon="6.936825010">
  <ele>2286.500000</ele>
<time>2017-08-15T08:29:38Z</time>
</trkpt>
<trkpt lat="45.459630040" lon="6.936730130">
  <ele>2285.700000</ele>
<time>2017-08-15T08:29:40Z</time>
</trkpt>
<trkpt lat="45.459688380" lon="6.936615130">
  <ele>2279.100000</ele>
<time>2017-08-15T08:31:06Z</time>
</trkpt>
<trkpt lat="45.459760130" lon="6.936505160">
  <ele>2279.100000</ele>
<time>2017-08-15T08:31:10Z</time>
</trkpt>
<trkpt lat="45.459853340" lon="6.936385130">
  <ele>2279.000000</ele>
<time>2017-08-15T08:31:13Z</time>
</trkpt>
<trkpt lat="45.459930110" lon="6.936285050">
  <ele>2278.800000</ele>
<time>2017-08-15T08:31:15Z</time>
</trkpt>
<trkpt lat="45.459965150" lon="6.936408430">
  <ele>2278.100000</ele>
<time>2017-08-15T08:31:20Z</time>
</trkpt>
<trkpt lat="45.460068420" lon="6.936373390">
  <ele>2277.500000</ele>
<time>2017-08-15T08:31:23Z</time>
</trkpt>
<trkpt lat="45.460166820" lon="6.936250010">
  <ele>2277.000000</ele>
<time>2017-08-15T08:31:25Z</time>
</trkpt>
<trkpt lat="45.460256670" lon="6.936101820">
  <ele>2276.500000</ele>
<time>2017-08-15T08:31:27Z</time>
</trkpt>
<trkpt lat="45.460326750" lon="6.935965030">
  <ele>2276.000000</ele>
<time>2017-08-15T08:31:29Z</time>
</trkpt>
<trkpt lat="45.460378380" lon="6.935833430">
  <ele>2275.500000</ele>
<time>2017-08-15T08:31:31Z</time>
</trkpt>
<trkpt lat="45.460451800" lon="6.935720110">
  <ele>2275.000000</ele>
<time>2017-08-15T08:31:33Z</time>
</trkpt>
<trkpt lat="45.460570160" lon="6.935728490">
  <ele>2274.500000</ele>
<time>2017-08-15T08:31:35Z</time>
</trkpt>
<trkpt lat="45.460683480" lon="6.935716760">
  <ele>2274.100000</ele>
<time>2017-08-15T08:31:37Z</time>
</trkpt>
<trkpt lat="45.460776690" lon="6.935730170">
  <ele>2273.500000</ele>
<time>2017-08-15T08:31:39Z</time>
</trkpt>
<trkpt lat="45.460718350" lon="6.935875010">
  <ele>2272.500000</ele>
<time>2017-08-15T08:31:42Z</time>
</trkpt>
<trkpt lat="45.460835020" lon="6.935933340">
  <ele>2271.200000</ele>
<time>2017-08-15T08:31:45Z</time>
</trkpt>
<trkpt lat="45.460941810" lon="6.935913400">
  <ele>2270.400000</ele>
<time>2017-08-15T08:31:47Z</time>
</trkpt>
<trkpt lat="45.460898390" lon="6.936038450">
  <ele>2269.400000</ele>
<time>2017-08-15T08:31:50Z</time>
</trkpt>
<trkpt lat="45.460883470" lon="6.936178430">
  <ele>2268.500000</ele>
<time>2017-08-15T08:31:52Z</time>
</trkpt>
<trkpt lat="45.461016740" lon="6.936150100">
  <ele>2267.200000</ele>
<time>2017-08-15T08:31:55Z</time>
</trkpt>
<trkpt lat="45.461115150" lon="6.936205090">
  <ele>2266.500000</ele>
<time>2017-08-15T08:31:57Z</time>
</trkpt>
<trkpt lat="45.461221770" lon="6.936201730">
  <ele>2265.800000</ele>
<time>2017-08-15T08:31:59Z</time>
</trkpt>
<trkpt lat="45.461336770" lon="6.936230060">
  <ele>2265.100000</ele>
<time>2017-08-15T08:32:01Z</time>
</trkpt>
<trkpt lat="45.461368450" lon="6.936351770">
  <ele>2264.300000</ele>
<time>2017-08-15T08:32:03Z</time>
</trkpt>
<trkpt lat="45.461458470" lon="6.936268450">
  <ele>2262.700000</ele>
<time>2017-08-15T08:32:08Z</time>
</trkpt>
<trkpt lat="45.461498370" lon="6.936151780">
  <ele>2262.200000</ele>
<time>2017-08-15T08:32:10Z</time>
</trkpt>
<trkpt lat="45.461576820" lon="6.936241800">
  <ele>2261.200000</ele>
<time>2017-08-15T08:32:13Z</time>
</trkpt>
<trkpt lat="45.461563410" lon="6.936420170">
  <ele>2260.400000</ele>
<time>2017-08-15T08:32:16Z</time>
</trkpt>
<trkpt lat="45.461655110" lon="6.936395020">
  <ele>2259.600000</ele>
<time>2017-08-15T08:32:19Z</time>
</trkpt>
<trkpt lat="45.461705070" lon="6.936265100">
  <ele>2258.900000</ele>
<time>2017-08-15T08:32:21Z</time>
</trkpt>
<trkpt lat="45.461740100" lon="6.936120090">
  <ele>2258.300000</ele>
<time>2017-08-15T08:32:23Z</time>
</trkpt>
<trkpt lat="45.461785030" lon="6.935973410">
  <ele>2257.800000</ele>
<time>2017-08-15T08:32:25Z</time>
</trkpt>
<trkpt lat="45.461868350" lon="6.935911720">
  <ele>2257.300000</ele>
<time>2017-08-15T08:32:27Z</time>
</trkpt>
<trkpt lat="45.461898350" lon="6.936036780">
  <ele>2256.700000</ele>
<time>2017-08-15T08:32:29Z</time>
</trkpt>
<trkpt lat="45.461916790" lon="6.936196700">
  <ele>2256.000000</ele>
<time>2017-08-15T08:32:31Z</time>
</trkpt>
<trkpt lat="45.461931710" lon="6.936346740">
  <ele>2255.400000</ele>
<time>2017-08-15T08:32:33Z</time>
</trkpt>
<trkpt lat="45.461958370" lon="6.936485040">
  <ele>2254.500000</ele>
<time>2017-08-15T08:32:36Z</time>
</trkpt>
<trkpt lat="45.462006810" lon="6.936303490">
  <ele>2253.500000</ele>
<time>2017-08-15T08:32:39Z</time>
</trkpt>
<trkpt lat="45.462041680" lon="6.936176750">
  <ele>2252.900000</ele>
<time>2017-08-15T08:32:41Z</time>
</trkpt>
<trkpt lat="45.462068340" lon="6.936040130">
  <ele>2252.200000</ele>
<time>2017-08-15T08:32:43Z</time>
</trkpt>
<trkpt lat="45.462146790" lon="6.936105010">
  <ele>2250.900000</ele>
<time>2017-08-15T08:32:47Z</time>
</trkpt>
<trkpt lat="45.462166740" lon="6.936231740">
  <ele>2250.300000</ele>
<time>2017-08-15T08:32:49Z</time>
</trkpt>
<trkpt lat="45.462235140" lon="6.936106680">
  <ele>2249.300000</ele>
<time>2017-08-15T08:32:52Z</time>
</trkpt>
<trkpt lat="45.462265150" lon="6.935961670">
  <ele>2248.800000</ele>
<time>2017-08-15T08:32:54Z</time>
</trkpt>
<trkpt lat="45.462325160" lon="6.935861760">
  <ele>2248.100000</ele>
<time>2017-08-15T08:32:56Z</time>
</trkpt>
<trkpt lat="45.462335050" lon="6.936023370">
  <ele>2247.200000</ele>
<time>2017-08-15T08:32:59Z</time>
</trkpt>
<trkpt lat="45.462411830" lon="6.935888420">
  <ele>2245.300000</ele>
<time>2017-08-15T08:33:04Z</time>
</trkpt>
<trkpt lat="45.462405120" lon="6.935741730">
  <ele>2244.600000</ele>
<time>2017-08-15T08:33:06Z</time>
</trkpt>
<trkpt lat="45.462421720" lon="6.935613490">
  <ele>2244.000000</ele>
<time>2017-08-15T08:33:08Z</time>
</trkpt>
<trkpt lat="45.462483410" lon="6.935780120">
  <ele>2242.800000</ele>
<time>2017-08-15T08:33:12Z</time>
</trkpt>
<trkpt lat="45.462593380" lon="6.935830080">
  <ele>2241.800000</ele>
<time>2017-08-15T08:33:15Z</time>
</trkpt>
<trkpt lat="45.462615010" lon="6.936013480">
  <ele>2240.800000</ele>
<time>2017-08-15T08:33:18Z</time>
</trkpt>
<trkpt lat="45.462701670" lon="6.936075170">
  <ele>2240.300000</ele>
<time>2017-08-15T08:33:20Z</time>
</trkpt>
<trkpt lat="45.462755150" lon="6.935950110">
  <ele>2239.600000</ele>
<time>2017-08-15T08:33:22Z</time>
</trkpt>
<trkpt lat="45.462840140" lon="6.935888420">
  <ele>2239.000000</ele>
<time>2017-08-15T08:33:24Z</time>
</trkpt>
<trkpt lat="45.462903340" lon="6.936016830">
  <ele>2238.300000</ele>
<time>2017-08-15T08:33:26Z</time>
</trkpt>
<trkpt lat="45.462948440" lon="6.936151780">
  <ele>2237.400000</ele>
<time>2017-08-15T08:33:29Z</time>
</trkpt>
<trkpt lat="45.463026720" lon="6.936061750">
  <ele>2236.700000</ele>
<time>2017-08-15T08:33:31Z</time>
</trkpt>
<trkpt lat="45.463045160" lon="6.935923450">
  <ele>2236.100000</ele>
<time>2017-08-15T08:33:33Z</time>
</trkpt>
<trkpt lat="45.463041810" lon="6.935781800">
  <ele>2235.500000</ele>
<time>2017-08-15T08:33:35Z</time>
</trkpt>
<trkpt lat="45.463138370" lon="6.935858410">
  <ele>2234.700000</ele>
<time>2017-08-15T08:33:38Z</time>
</trkpt>
<trkpt lat="45.463201740" lon="6.936011800">
  <ele>2234.000000</ele>
<time>2017-08-15T08:33:41Z</time>
</trkpt>
<trkpt lat="45.463248340" lon="6.935835110">
  <ele>2233.100000</ele>
<time>2017-08-15T08:33:44Z</time>
</trkpt>
<trkpt lat="45.463343390" lon="6.935841810">
  <ele>2231.700000</ele>
<time>2017-08-15T08:33:48Z</time>
</trkpt>
<trkpt lat="45.463358480" lon="6.935983470">
  <ele>2231.100000</ele>
<time>2017-08-15T08:33:50Z</time>
</trkpt>
<trkpt lat="45.463318410" lon="6.936116740">
  <ele>2230.500000</ele>
<time>2017-08-15T08:33:52Z</time>
</trkpt>
<trkpt lat="45.463261750" lon="6.936240120">
  <ele>2229.900000</ele>
<time>2017-08-15T08:33:54Z</time>
</trkpt>
<trkpt lat="45.463231750" lon="6.936403400">
  <ele>2229.100000</ele>
<time>2017-08-15T08:33:57Z</time>
</trkpt>
<trkpt lat="45.463331830" lon="6.936281700">
  <ele>2228.400000</ele>
<time>2017-08-15T08:34:00Z</time>
</trkpt>
<trkpt lat="45.463416820" lon="6.936225030">
  <ele>2227.800000</ele>
<time>2017-08-15T08:34:02Z</time>
</trkpt>
<trkpt lat="45.463491750" lon="6.936150100">
  <ele>2227.100000</ele>
<time>2017-08-15T08:34:04Z</time>
</trkpt>
<trkpt lat="45.463553440" lon="6.936030070">
  <ele>2226.500000</ele>
<time>2017-08-15T08:34:06Z</time>
</trkpt>
<trkpt lat="45.463611780" lon="6.936183460">
  <ele>2225.400000</ele>
<time>2017-08-15T08:34:10Z</time>
</trkpt>
<trkpt lat="45.463568360" lon="6.936305170">
  <ele>2224.900000</ele>
<time>2017-08-15T08:34:12Z</time>
</trkpt>
<trkpt lat="45.463661740" lon="6.936288400">
  <ele>2223.600000</ele>
<time>2017-08-15T08:34:17Z</time>
</trkpt>
<trkpt lat="45.463725100" lon="6.936155130">
  <ele>2223.000000</ele>
<time>2017-08-15T08:34:19Z</time>
</trkpt>
<trkpt lat="45.463750080" lon="6.936306670">
  <ele>2220.800000</ele>
<time>2017-08-15T08:34:25Z</time>
</trkpt>
<trkpt lat="45.463846810" lon="6.936268450">
  <ele>2219.700000</ele>
<time>2017-08-15T08:34:28Z</time>
</trkpt>
<trkpt lat="45.463841780" lon="6.936401720">
  <ele>2218.600000</ele>
<time>2017-08-15T08:34:31Z</time>
</trkpt>
<trkpt lat="45.463810100" lon="6.936568360">
  <ele>2217.700000</ele>
<time>2017-08-15T08:34:33Z</time>
</trkpt>
<trkpt lat="45.463738350" lon="6.936671790">
  <ele>2216.700000</ele>
<time>2017-08-15T08:34:35Z</time>
</trkpt>
<trkpt lat="45.463651680" lon="6.936733480">
  <ele>2215.700000</ele>
<time>2017-08-15T08:34:37Z</time>
</trkpt>
<trkpt lat="45.463673470" lon="6.936870110">
  <ele>2214.900000</ele>
<time>2017-08-15T08:34:39Z</time>
</trkpt>
<trkpt lat="45.463696770" lon="6.936995160">
  <ele>2213.000000</ele>
<time>2017-08-15T08:34:45Z</time>
</trkpt>
<trkpt lat="45.463770030" lon="6.937098430">
  <ele>2210.200000</ele>
<time>2017-08-15T08:37:41Z</time>
</trkpt>
<trkpt lat="45.463853350" lon="6.937005050">
  <ele>2209.900000</ele>
<time>2017-08-15T08:37:47Z</time>
</trkpt>
<trkpt lat="45.463873460" lon="6.936858370">
  <ele>2209.800000</ele>
<time>2017-08-15T08:37:49Z</time>
</trkpt>
<trkpt lat="45.463941690" lon="6.936958450">
  <ele>2209.400000</ele>
<time>2017-08-15T08:37:54Z</time>
</trkpt>
<trkpt lat="45.463908500" lon="6.937170010">
  <ele>2208.800000</ele>
<time>2017-08-15T08:37:57Z</time>
</trkpt>
<trkpt lat="45.463878490" lon="6.937383410">
  <ele>2208.300000</ele>
<time>2017-08-15T08:37:59Z</time>
</trkpt>
<trkpt lat="45.463851670" lon="6.937570160">
  <ele>2207.800000</ele>
<time>2017-08-15T08:38:01Z</time>
</trkpt>
<trkpt lat="45.463858380" lon="6.937783400">
  <ele>2207.300000</ele>
<time>2017-08-15T08:38:03Z</time>
</trkpt>
<trkpt lat="45.463850160" lon="6.938000150">
  <ele>2206.700000</ele>
<time>2017-08-15T08:38:05Z</time>
</trkpt>
<trkpt lat="45.463811770" lon="6.938166790">
  <ele>2206.100000</ele>
<time>2017-08-15T08:38:07Z</time>
</trkpt>
<trkpt lat="45.463736670" lon="6.938306760">
  <ele>2205.500000</ele>
<time>2017-08-15T08:38:09Z</time>
</trkpt>
<trkpt lat="45.463650000" lon="6.938456800">
  <ele>2205.000000</ele>
<time>2017-08-15T08:38:11Z</time>
</trkpt>
<trkpt lat="45.463538360" lon="6.938551680">
  <ele>2204.100000</ele>
<time>2017-08-15T08:38:13Z</time>
</trkpt>
<trkpt lat="45.463481690" lon="6.938660140">
  <ele>2203.300000</ele>
<time>2017-08-15T08:38:15Z</time>
</trkpt>
<trkpt lat="45.463455040" lon="6.938808340">
  <ele>2202.300000</ele>
<time>2017-08-15T08:38:17Z</time>
</trkpt>
<trkpt lat="45.463368370" lon="6.938896680">
  <ele>2201.500000</ele>
<time>2017-08-15T08:38:19Z</time>
</trkpt>
<trkpt lat="45.463348420" lon="6.939023420">
  <ele>2200.700000</ele>
<time>2017-08-15T08:38:21Z</time>
</trkpt>
<trkpt lat="45.463283380" lon="6.939141770">
  <ele>2199.800000</ele>
<time>2017-08-15T08:38:23Z</time>
</trkpt>
<trkpt lat="45.463208440" lon="6.939281750">
  <ele>2199.000000</ele>
<time>2017-08-15T08:38:25Z</time>
</trkpt>
<trkpt lat="45.463135020" lon="6.939426750">
  <ele>2198.200000</ele>
<time>2017-08-15T08:38:27Z</time>
</trkpt>
<trkpt lat="45.463090090" lon="6.939593390">
  <ele>2197.500000</ele>
<time>2017-08-15T08:38:29Z</time>
</trkpt>
<trkpt lat="45.463030080" lon="6.939733360">
  <ele>2196.800000</ele>
<time>2017-08-15T08:38:31Z</time>
</trkpt>
<trkpt lat="45.462986830" lon="6.939880050">
  <ele>2196.000000</ele>
<time>2017-08-15T08:38:33Z</time>
</trkpt>
<trkpt lat="45.462990010" lon="6.940016670">
  <ele>2195.200000</ele>
<time>2017-08-15T08:38:35Z</time>
</trkpt>
<trkpt lat="45.462905020" lon="6.940065120">
  <ele>2194.400000</ele>
<time>2017-08-15T08:38:37Z</time>
</trkpt>
<trkpt lat="45.462876690" lon="6.940260080">
  <ele>2193.300000</ele>
<time>2017-08-15T08:38:40Z</time>
</trkpt>
<trkpt lat="45.462850030" lon="6.940383460">
  <ele>2192.700000</ele>
<time>2017-08-15T08:38:42Z</time>
</trkpt>
<trkpt lat="45.462758340" lon="6.940410120">
  <ele>2192.100000</ele>
<time>2017-08-15T08:38:44Z</time>
</trkpt>
<trkpt lat="45.462676700" lon="6.940486730">
  <ele>2191.600000</ele>
<time>2017-08-15T08:38:46Z</time>
</trkpt>
<trkpt lat="45.462643340" lon="6.940620000">
  <ele>2191.100000</ele>
<time>2017-08-15T08:38:48Z</time>
</trkpt>
<trkpt lat="45.462601760" lon="6.940771710">
  <ele>2190.600000</ele>
<time>2017-08-15T08:38:50Z</time>
</trkpt>
<trkpt lat="45.462545100" lon="6.940923430">
  <ele>2190.100000</ele>
<time>2017-08-15T08:38:52Z</time>
</trkpt>
<trkpt lat="45.462486760" lon="6.941055020">
  <ele>2189.500000</ele>
<time>2017-08-15T08:38:54Z</time>
</trkpt>
<trkpt lat="45.462395060" lon="6.941126770">
  <ele>2188.900000</ele>
<time>2017-08-15T08:38:56Z</time>
</trkpt>
<trkpt lat="45.462291800" lon="6.941205060">
  <ele>2188.200000</ele>
<time>2017-08-15T08:38:58Z</time>
</trkpt>
<trkpt lat="45.462230110" lon="6.941365150">
  <ele>2187.400000</ele>
<time>2017-08-15T08:39:00Z</time>
</trkpt>
<trkpt lat="45.462193400" lon="6.941536810">
  <ele>2186.800000</ele>
<time>2017-08-15T08:39:02Z</time>
</trkpt>
<trkpt lat="45.462165070" lon="6.941711830">
  <ele>2186.200000</ele>
<time>2017-08-15T08:39:04Z</time>
</trkpt>
<trkpt lat="45.462101700" lon="6.941860020">
  <ele>2185.500000</ele>
<time>2017-08-15T08:39:06Z</time>
</trkpt>
<trkpt lat="45.462053420" lon="6.942033360">
  <ele>2184.800000</ele>
<time>2017-08-15T08:39:08Z</time>
</trkpt>
<trkpt lat="45.462005140" lon="6.942198480">
  <ele>2184.100000</ele>
<time>2017-08-15T08:39:10Z</time>
</trkpt>
<trkpt lat="45.461961720" lon="6.942376680">
  <ele>2183.300000</ele>
<time>2017-08-15T08:39:12Z</time>
</trkpt>
<trkpt lat="45.461878400" lon="6.942506770">
  <ele>2182.500000</ele>
<time>2017-08-15T08:39:14Z</time>
</trkpt>
<trkpt lat="45.461841690" lon="6.942640040">
  <ele>2181.700000</ele>
<time>2017-08-15T08:39:16Z</time>
</trkpt>
<trkpt lat="45.461823420" lon="6.942791750">
  <ele>2180.900000</ele>
<time>2017-08-15T08:39:18Z</time>
</trkpt>
<trkpt lat="45.461781680" lon="6.942958380">
  <ele>2180.200000</ele>
<time>2017-08-15T08:39:20Z</time>
</trkpt>
<trkpt lat="45.461716800" lon="6.943086800">
  <ele>2179.200000</ele>
<time>2017-08-15T08:39:22Z</time>
</trkpt>
<trkpt lat="45.461710100" lon="6.943235160">
  <ele>2178.300000</ele>
<time>2017-08-15T08:39:24Z</time>
</trkpt>
<trkpt lat="45.461720150" lon="6.943395080">
  <ele>2177.200000</ele>
<time>2017-08-15T08:39:26Z</time>
</trkpt>
<trkpt lat="45.461746810" lon="6.943550150">
  <ele>2176.200000</ele>
<time>2017-08-15T08:39:28Z</time>
</trkpt>
<trkpt lat="45.461768430" lon="6.943705040">
  <ele>2175.100000</ele>
<time>2017-08-15T08:39:30Z</time>
</trkpt>
<trkpt lat="45.461806820" lon="6.943850050">
  <ele>2174.100000</ele>
<time>2017-08-15T08:39:32Z</time>
</trkpt>
<trkpt lat="45.461853430" lon="6.944013500">
  <ele>2173.100000</ele>
<time>2017-08-15T08:39:34Z</time>
</trkpt>
<trkpt lat="45.461891820" lon="6.944178450">
  <ele>2172.200000</ele>
<time>2017-08-15T08:39:36Z</time>
</trkpt>
<trkpt lat="45.461965070" lon="6.944320110">
  <ele>2171.200000</ele>
<time>2017-08-15T08:39:38Z</time>
</trkpt>
<trkpt lat="45.462058450" lon="6.944448350">
  <ele>2170.300000</ele>
<time>2017-08-15T08:39:40Z</time>
</trkpt>
<trkpt lat="45.462161710" lon="6.944570060">
  <ele>2169.200000</ele>
<time>2017-08-15T08:39:42Z</time>
</trkpt>
<trkpt lat="45.462225080" lon="6.944703500">
  <ele>2168.100000</ele>
<time>2017-08-15T08:39:44Z</time>
</trkpt>
<trkpt lat="45.462251730" lon="6.944855040">
  <ele>2167.100000</ele>
<time>2017-08-15T08:39:46Z</time>
</trkpt>
<trkpt lat="45.462175120" lon="6.944761670">
  <ele>2163.700000</ele>
<time>2017-08-15T08:39:53Z</time>
</trkpt>
<trkpt lat="45.462176800" lon="6.944896780">
  <ele>2162.200000</ele>
<time>2017-08-15T08:39:56Z</time>
</trkpt>
<trkpt lat="45.462230110" lon="6.945048500">
  <ele>2161.400000</ele>
<time>2017-08-15T08:39:58Z</time>
</trkpt>
<trkpt lat="45.462280060" lon="6.945230050">
  <ele>2160.500000</ele>
<time>2017-08-15T08:40:00Z</time>
</trkpt>
<trkpt lat="45.462328340" lon="6.945406740">
  <ele>2159.500000</ele>
<time>2017-08-15T08:40:02Z</time>
</trkpt>
<trkpt lat="45.462375120" lon="6.945598350">
  <ele>2158.600000</ele>
<time>2017-08-15T08:40:04Z</time>
</trkpt>
<trkpt lat="45.462393390" lon="6.945755090">
  <ele>2157.500000</ele>
<time>2017-08-15T08:40:06Z</time>
</trkpt>
<trkpt lat="45.462310070" lon="6.945608410">
  <ele>2155.400000</ele>
<time>2017-08-15T08:40:10Z</time>
</trkpt>
<trkpt lat="45.462256760" lon="6.945501790">
  <ele>2154.400000</ele>
<time>2017-08-15T08:40:12Z</time>
</trkpt>
<trkpt lat="45.462246700" lon="6.945676800">
  <ele>2152.900000</ele>
<time>2017-08-15T08:40:15Z</time>
</trkpt>
<trkpt lat="45.462270010" lon="6.945845110">
  <ele>2151.800000</ele>
<time>2017-08-15T08:40:17Z</time>
</trkpt>
<trkpt lat="45.462285090" lon="6.946010070">
  <ele>2150.900000</ele>
<time>2017-08-15T08:40:19Z</time>
</trkpt>
<trkpt lat="45.462251730" lon="6.946151720">
  <ele>2150.100000</ele>
<time>2017-08-15T08:40:21Z</time>
</trkpt>
<trkpt lat="45.462220050" lon="6.946313490">
  <ele>2149.000000</ele>
<time>2017-08-15T08:40:23Z</time>
</trkpt>
<trkpt lat="45.462190040" lon="6.946475100">
  <ele>2148.100000</ele>
<time>2017-08-15T08:40:25Z</time>
</trkpt>
<trkpt lat="45.462185010" lon="6.946673410">
  <ele>2146.800000</ele>
<time>2017-08-15T08:40:27Z</time>
</trkpt>
<trkpt lat="45.462091810" lon="6.946623460">
  <ele>2144.600000</ele>
<time>2017-08-15T08:40:31Z</time>
</trkpt>
<trkpt lat="45.462038500" lon="6.946460010">
  <ele>2143.600000</ele>
<time>2017-08-15T08:40:33Z</time>
</trkpt>
<trkpt lat="45.461970100" lon="6.946555060">
  <ele>2141.700000</ele>
<time>2017-08-15T08:40:37Z</time>
</trkpt>
<trkpt lat="45.461996760" lon="6.946715150">
  <ele>2140.800000</ele>
<time>2017-08-15T08:40:39Z</time>
</trkpt>
<trkpt lat="45.462030120" lon="6.946880110">
  <ele>2140.000000</ele>
<time>2017-08-15T08:40:41Z</time>
</trkpt>
<trkpt lat="45.462053420" lon="6.947058480">
  <ele>2139.000000</ele>
<time>2017-08-15T08:40:43Z</time>
</trkpt>
<trkpt lat="45.462025090" lon="6.947198450">
  <ele>2138.000000</ele>
<time>2017-08-15T08:40:45Z</time>
</trkpt>
<trkpt lat="45.461953340" lon="6.947356700">
  <ele>2137.100000</ele>
<time>2017-08-15T08:40:47Z</time>
</trkpt>
<trkpt lat="45.461850070" lon="6.947471700">
  <ele>2135.800000</ele>
<time>2017-08-15T08:40:50Z</time>
</trkpt>
<trkpt lat="45.461833480" lon="6.947601790">
  <ele>2134.700000</ele>
<time>2017-08-15T08:40:52Z</time>
</trkpt>
<trkpt lat="45.461848400" lon="6.947748470">
  <ele>2133.600000</ele>
<time>2017-08-15T08:40:54Z</time>
</trkpt>
<trkpt lat="45.461883430" lon="6.947873370">
  <ele>2131.800000</ele>
<time>2017-08-15T08:40:58Z</time>
</trkpt>
<trkpt lat="45.461958370" lon="6.948005130">
  <ele>2126.400000</ele>
<time>2017-08-15T08:42:03Z</time>
</trkpt>
<trkpt lat="45.462028440" lon="6.948161700">
  <ele>2126.300000</ele>
<time>2017-08-15T08:42:06Z</time>
</trkpt>
<trkpt lat="45.462108400" lon="6.948285080">
  <ele>2126.000000</ele>
<time>2017-08-15T08:42:09Z</time>
</trkpt>
<trkpt lat="45.461998430" lon="6.948320120">
  <ele>2125.800000</ele>
<time>2017-08-15T08:42:12Z</time>
</trkpt>
<trkpt lat="45.461896680" lon="6.948341750">
  <ele>2125.600000</ele>
<time>2017-08-15T08:42:14Z</time>
</trkpt>
<trkpt lat="45.461803470" lon="6.948418360">
  <ele>2125.400000</ele>
<time>2017-08-15T08:42:16Z</time>
</trkpt>
<trkpt lat="45.461726690" lon="6.948505030">
  <ele>2125.100000</ele>
<time>2017-08-15T08:42:18Z</time>
</trkpt>
<trkpt lat="45.461663490" lon="6.948615160">
  <ele>2124.500000</ele>
<time>2017-08-15T08:42:21Z</time>
</trkpt>
<trkpt lat="45.461751670" lon="6.948681720">
  <ele>2124.100000</ele>
<time>2017-08-15T08:42:23Z</time>
</trkpt>
<trkpt lat="45.461763400" lon="6.948815160">
  <ele>2123.500000</ele>
<time>2017-08-15T08:42:25Z</time>
</trkpt>
<trkpt lat="45.461875050" lon="6.948896800">
  <ele>2122.700000</ele>
<time>2017-08-15T08:42:28Z</time>
</trkpt>
<trkpt lat="45.461986700" lon="6.948943400">
  <ele>2122.200000</ele>
<time>2017-08-15T08:42:30Z</time>
</trkpt>
<trkpt lat="45.462085100" lon="6.949043480">
  <ele>2121.100000</ele>
<time>2017-08-15T08:42:32Z</time>
</trkpt>
<trkpt lat="45.462188370" lon="6.949076670">
  <ele>2120.200000</ele>
<time>2017-08-15T08:42:34Z</time>
</trkpt>
<trkpt lat="45.462113430" lon="6.949203410">
  <ele>2118.800000</ele>
<time>2017-08-15T08:42:38Z</time>
</trkpt>
<trkpt lat="45.461988370" lon="6.949208430">
  <ele>2118.200000</ele>
<time>2017-08-15T08:42:40Z</time>
</trkpt>
<trkpt lat="45.461885110" lon="6.949233410">
  <ele>2117.700000</ele>
<time>2017-08-15T08:42:42Z</time>
</trkpt>
<trkpt lat="45.461936740" lon="6.949370040">
  <ele>2116.900000</ele>
<time>2017-08-15T08:42:45Z</time>
</trkpt>
<trkpt lat="45.462028440" lon="6.949416810">
  <ele>2116.100000</ele>
<time>2017-08-15T08:42:48Z</time>
</trkpt>
<trkpt lat="45.462153500" lon="6.949450000">
  <ele>2115.200000</ele>
<time>2017-08-15T08:42:51Z</time>
</trkpt>
<trkpt lat="45.462203450" lon="6.949561820">
  <ele>2114.400000</ele>
<time>2017-08-15T08:42:54Z</time>
</trkpt>
<trkpt lat="45.462093480" lon="6.949601710">
  <ele>2113.800000</ele>
<time>2017-08-15T08:42:56Z</time>
</trkpt>
<trkpt lat="45.461963400" lon="6.949623340">
  <ele>2113.300000</ele>
<time>2017-08-15T08:42:58Z</time>
</trkpt>
<trkpt lat="45.461846720" lon="6.949645130">
  <ele>2112.800000</ele>
<time>2017-08-15T08:43:00Z</time>
</trkpt>
<trkpt lat="45.461736750" lon="6.949606740">
  <ele>2112.300000</ele>
<time>2017-08-15T08:43:02Z</time>
</trkpt>
<trkpt lat="45.461813360" lon="6.949718390">
  <ele>2110.600000</ele>
<time>2017-08-15T08:43:08Z</time>
</trkpt>
<trkpt lat="45.461708420" lon="6.949823500">
  <ele>2108.500000</ele>
<time>2017-08-15T08:43:14Z</time>
</trkpt>
<trkpt lat="45.461593420" lon="6.949821820">
  <ele>2107.800000</ele>
<time>2017-08-15T08:43:16Z</time>
</trkpt>
<trkpt lat="45.461473390" lon="6.949813440">
  <ele>2107.200000</ele>
<time>2017-08-15T08:43:18Z</time>
</trkpt>
<trkpt lat="45.461358390" lon="6.949786790">
  <ele>2106.600000</ele>
<time>2017-08-15T08:43:20Z</time>
</trkpt>
<trkpt lat="45.461385050" lon="6.949915030">
  <ele>2104.700000</ele>
<time>2017-08-15T08:43:25Z</time>
</trkpt>
<trkpt lat="45.461463500" lon="6.950006730">
  <ele>2103.400000</ele>
<time>2017-08-15T08:43:28Z</time>
</trkpt>
<trkpt lat="45.461368450" lon="6.950023490">
  <ele>2102.500000</ele>
<time>2017-08-15T08:43:30Z</time>
</trkpt>
<trkpt lat="45.461235010" lon="6.950045120">
  <ele>2101.700000</ele>
<time>2017-08-15T08:43:32Z</time>
</trkpt>
<trkpt lat="45.461136770" lon="6.950101780">
  <ele>2100.800000</ele>
<time>2017-08-15T08:43:34Z</time>
</trkpt>
<trkpt lat="45.461223440" lon="6.950186770">
  <ele>2099.500000</ele>
<time>2017-08-15T08:43:37Z</time>
</trkpt>
<trkpt lat="45.461326710" lon="6.950178390">
  <ele>2098.700000</ele>
<time>2017-08-15T08:43:39Z</time>
</trkpt>
<trkpt lat="45.461233500" lon="6.950310150">
  <ele>2096.100000</ele>
<time>2017-08-15T08:43:45Z</time>
</trkpt>
<trkpt lat="45.461351690" lon="6.950348370">
  <ele>2094.800000</ele>
<time>2017-08-15T08:43:48Z</time>
</trkpt>
<trkpt lat="45.461476740" lon="6.950338480">
  <ele>2093.900000</ele>
<time>2017-08-15T08:43:50Z</time>
</trkpt>
<trkpt lat="45.461611690" lon="6.950343340">
  <ele>2093.000000</ele>
<time>2017-08-15T08:43:52Z</time>
</trkpt>
<trkpt lat="45.461710100" lon="6.950430010">
  <ele>2092.100000</ele>
<time>2017-08-15T08:43:54Z</time>
</trkpt>
<trkpt lat="45.461805150" lon="6.950456670">
  <ele>2091.200000</ele>
<time>2017-08-15T08:43:56Z</time>
</trkpt>
<trkpt lat="45.461701710" lon="6.950495060">
  <ele>2088.900000</ele>
<time>2017-08-15T08:44:02Z</time>
</trkpt>
<trkpt lat="45.461580010" lon="6.950468400">
  <ele>2088.100000</ele>
<time>2017-08-15T08:44:04Z</time>
</trkpt>
<trkpt lat="45.461486800" lon="6.950493380">
  <ele>2087.400000</ele>
<time>2017-08-15T08:44:06Z</time>
</trkpt>
<trkpt lat="45.461563410" lon="6.950591780">
  <ele>2086.300000</ele>
<time>2017-08-15T08:44:09Z</time>
</trkpt>
<trkpt lat="45.461688470" lon="6.950608380">
  <ele>2085.300000</ele>
<time>2017-08-15T08:44:11Z</time>
</trkpt>
<trkpt lat="45.461790060" lon="6.950636710">
  <ele>2084.500000</ele>
<time>2017-08-15T08:44:13Z</time>
</trkpt>
<trkpt lat="45.461671710" lon="6.950681810">
  <ele>2082.900000</ele>
<time>2017-08-15T08:44:17Z</time>
</trkpt>
<trkpt lat="45.461573470" lon="6.950686670">
  <ele>2082.300000</ele>
<time>2017-08-15T08:44:19Z</time>
</trkpt>
<trkpt lat="45.461473390" lon="6.950706780">
  <ele>2081.600000</ele>
<time>2017-08-15T08:44:21Z</time>
</trkpt>
<trkpt lat="45.461503400" lon="6.950830170">
  <ele>2080.800000</ele>
<time>2017-08-15T08:44:23Z</time>
</trkpt>
<trkpt lat="45.461600120" lon="6.950871740">
  <ele>2080.000000</ele>
<time>2017-08-15T08:44:25Z</time>
</trkpt>
<trkpt lat="45.461710100" lon="6.950865030">
  <ele>2079.100000</ele>
<time>2017-08-15T08:44:27Z</time>
</trkpt>
<trkpt lat="45.461833480" lon="6.950873420">
  <ele>2078.400000</ele>
<time>2017-08-15T08:44:29Z</time>
</trkpt>
<trkpt lat="45.461961720" lon="6.950855140">
  <ele>2077.600000</ele>
<time>2017-08-15T08:44:31Z</time>
</trkpt>
<trkpt lat="45.462081750" lon="6.950806700">
  <ele>2077.000000</ele>
<time>2017-08-15T08:44:33Z</time>
</trkpt>
<trkpt lat="45.462186690" lon="6.950770150">
  <ele>2076.500000</ele>
<time>2017-08-15T08:44:35Z</time>
</trkpt>
<trkpt lat="45.462245030" lon="6.950903420">
  <ele>2075.800000</ele>
<time>2017-08-15T08:44:38Z</time>
</trkpt>
<trkpt lat="45.462241680" lon="6.951081790">
  <ele>2074.800000</ele>
<time>2017-08-15T08:44:40Z</time>
</trkpt>
<trkpt lat="45.462248380" lon="6.951288490">
  <ele>2074.000000</ele>
<time>2017-08-15T08:44:42Z</time>
</trkpt>
<trkpt lat="45.462233460" lon="6.951465010">
  <ele>2073.200000</ele>
<time>2017-08-15T08:44:44Z</time>
</trkpt>
<trkpt lat="45.462248380" lon="6.951636670">
  <ele>2072.400000</ele>
<time>2017-08-15T08:44:46Z</time>
</trkpt>
<trkpt lat="45.462265150" lon="6.951786710">
  <ele>2071.500000</ele>
<time>2017-08-15T08:44:48Z</time>
</trkpt>
<trkpt lat="45.462333370" lon="6.951948480">
  <ele>2070.100000</ele>
<time>2017-08-15T08:44:51Z</time>
</trkpt>
<trkpt lat="45.462230110" lon="6.951911770">
  <ele>2068.400000</ele>
<time>2017-08-15T08:44:55Z</time>
</trkpt>
<trkpt lat="45.462140090" lon="6.951815040">
  <ele>2066.900000</ele>
<time>2017-08-15T08:44:58Z</time>
</trkpt>
<trkpt lat="45.462135060" lon="6.952021740">
  <ele>2065.400000</ele>
<time>2017-08-15T08:45:01Z</time>
</trkpt>
<trkpt lat="45.462161710" lon="6.952171770">
  <ele>2064.300000</ele>
<time>2017-08-15T08:45:03Z</time>
</trkpt>
<trkpt lat="45.462046710" lon="6.952098350">
  <ele>2062.000000</ele>
<time>2017-08-15T08:45:07Z</time>
</trkpt>
<trkpt lat="45.461990050" lon="6.951960050">
  <ele>2060.900000</ele>
<time>2017-08-15T08:45:09Z</time>
</trkpt>
<trkpt lat="45.462001790" lon="6.951768440">
  <ele>2059.300000</ele>
<time>2017-08-15T08:45:12Z</time>
</trkpt>
<trkpt lat="45.462005140" lon="6.951625100">
  <ele>2058.400000</ele>
<time>2017-08-15T08:45:14Z</time>
</trkpt>
<trkpt lat="45.461905060" lon="6.951486800">
  <ele>2057.000000</ele>
<time>2017-08-15T08:45:17Z</time>
</trkpt>
<trkpt lat="45.461780000" lon="6.951520160">
  <ele>2056.000000</ele>
<time>2017-08-15T08:45:19Z</time>
</trkpt>
<trkpt lat="45.461651760" lon="6.951558390">
  <ele>2055.000000</ele>
<time>2017-08-15T08:45:21Z</time>
</trkpt>
<trkpt lat="45.461541790" lon="6.951593420">
  <ele>2054.000000</ele>
<time>2017-08-15T08:45:23Z</time>
</trkpt>
<trkpt lat="45.461451770" lon="6.951661820">
  <ele>2052.600000</ele>
<time>2017-08-15T08:45:25Z</time>
</trkpt>
<trkpt lat="45.461335090" lon="6.951670030">
  <ele>2051.300000</ele>
<time>2017-08-15T08:45:27Z</time>
</trkpt>
<trkpt lat="45.461236690" lon="6.951670030">
  <ele>2050.100000</ele>
<time>2017-08-15T08:45:29Z</time>
</trkpt>
<trkpt lat="45.461138450" lon="6.951700040">
  <ele>2048.800000</ele>
<time>2017-08-15T08:45:31Z</time>
</trkpt>
<trkpt lat="45.461006690" lon="6.951705070">
  <ele>2046.900000</ele>
<time>2017-08-15T08:45:34Z</time>
</trkpt>
<trkpt lat="45.460915160" lon="6.951673380">
  <ele>2044.900000</ele>
<time>2017-08-15T08:45:37Z</time>
</trkpt>
<trkpt lat="45.460905100" lon="6.951826770">
  <ele>2043.000000</ele>
<time>2017-08-15T08:45:40Z</time>
</trkpt>
<trkpt lat="45.460976680" lon="6.951940100">
  <ele>2041.800000</ele>
<time>2017-08-15T08:45:42Z</time>
</trkpt>
<trkpt lat="45.461035020" lon="6.952041690">
  <ele>2034.800000</ele>
<time>2017-08-15T08:46:02Z</time>
</trkpt>
<trkpt lat="45.461108440" lon="6.952166740">
  <ele>2032.900000</ele>
<time>2017-08-15T08:46:59Z</time>
</trkpt>
<trkpt lat="45.461036690" lon="6.952310070">
  <ele>2032.900000</ele>
<time>2017-08-15T08:47:02Z</time>
</trkpt>
<trkpt lat="45.460960080" lon="6.952391710">
  <ele>2032.800000</ele>
<time>2017-08-15T08:47:04Z</time>
</trkpt>
<trkpt lat="45.460885150" lon="6.952481740">
  <ele>2032.700000</ele>
<time>2017-08-15T08:47:07Z</time>
</trkpt>
<trkpt lat="45.460861680" lon="6.952618360">
  <ele>2032.500000</ele>
<time>2017-08-15T08:47:10Z</time>
</trkpt>
<trkpt lat="45.460838380" lon="6.952753480">
  <ele>2032.100000</ele>
<time>2017-08-15T08:47:12Z</time>
</trkpt>
<trkpt lat="45.460783390" lon="6.952901670">
  <ele>2031.400000</ele>
<time>2017-08-15T08:47:14Z</time>
</trkpt>
<trkpt lat="45.460713490" lon="6.953075010">
  <ele>2030.800000</ele>
<time>2017-08-15T08:47:16Z</time>
</trkpt>
<trkpt lat="45.460638390" lon="6.953251700">
  <ele>2030.200000</ele>
<time>2017-08-15T08:47:18Z</time>
</trkpt>
<trkpt lat="45.460590110" lon="6.953435090">
  <ele>2029.300000</ele>
<time>2017-08-15T08:47:20Z</time>
</trkpt>
<trkpt lat="45.460516680" lon="6.953615140">
  <ele>2028.300000</ele>
<time>2017-08-15T08:47:22Z</time>
</trkpt>
<trkpt lat="45.460441750" lon="6.953748410">
  <ele>2027.300000</ele>
<time>2017-08-15T08:47:24Z</time>
</trkpt>
<trkpt lat="45.460375030" lon="6.953921750">
  <ele>2026.000000</ele>
<time>2017-08-15T08:47:26Z</time>
</trkpt>
<trkpt lat="45.460315010" lon="6.954101790">
  <ele>2024.700000</ele>
<time>2017-08-15T08:47:28Z</time>
</trkpt>
<trkpt lat="45.460281820" lon="6.954301780">
  <ele>2023.500000</ele>
<time>2017-08-15T08:47:30Z</time>
</trkpt>
<trkpt lat="45.460256670" lon="6.954510160">
  <ele>2022.300000</ele>
<time>2017-08-15T08:47:32Z</time>
</trkpt>
<trkpt lat="45.460218450" lon="6.954703440">
  <ele>2020.900000</ele>
<time>2017-08-15T08:47:34Z</time>
</trkpt>
<trkpt lat="45.460151730" lon="6.954900080">
  <ele>2019.600000</ele>
<time>2017-08-15T08:47:36Z</time>
</trkpt>
<trkpt lat="45.460071770" lon="6.955078450">
  <ele>2018.400000</ele>
<time>2017-08-15T08:47:38Z</time>
</trkpt>
<trkpt lat="45.460005050" lon="6.955231670">
  <ele>2017.000000</ele>
<time>2017-08-15T08:47:40Z</time>
</trkpt>
<trkpt lat="45.459946710" lon="6.955360080">
  <ele>2015.700000</ele>
<time>2017-08-15T08:47:42Z</time>
</trkpt>
<trkpt lat="45.459825010" lon="6.955398470">
  <ele>2013.500000</ele>
<time>2017-08-15T08:47:45Z</time>
</trkpt>
<trkpt lat="45.459713360" lon="6.955378350">
  <ele>2012.200000</ele>
<time>2017-08-15T08:47:47Z</time>
</trkpt>
<trkpt lat="45.459586790" lon="6.955390090">
  <ele>2010.600000</ele>
<time>2017-08-15T08:47:49Z</time>
</trkpt>
<trkpt lat="45.459470120" lon="6.955386740">
  <ele>2009.000000</ele>
<time>2017-08-15T08:47:51Z</time>
</trkpt>
<trkpt lat="45.459513370" lon="6.955521680">
  <ele>2006.400000</ele>
<time>2017-08-15T08:47:55Z</time>
</trkpt>
<trkpt lat="45.459555110" lon="6.955690160">
  <ele>2004.700000</ele>
<time>2017-08-15T08:47:58Z</time>
</trkpt>
<trkpt lat="45.459576730" lon="6.955866680">
  <ele>1995.000000</ele>
<time>2017-08-15T08:48:32Z</time>
</trkpt>
<trkpt lat="45.459580090" lon="6.956016720">
  <ele>1994.400000</ele>
<time>2017-08-15T08:48:34Z</time>
</trkpt>
<trkpt lat="45.459536670" lon="6.956151670">
  <ele>1993.900000</ele>
<time>2017-08-15T08:48:36Z</time>
</trkpt>
<trkpt lat="45.459491740" lon="6.956313440">
  <ele>1993.100000</ele>
<time>2017-08-15T08:48:38Z</time>
</trkpt>
<trkpt lat="45.459458380" lon="6.956460120">
  <ele>1992.200000</ele>
<time>2017-08-15T08:48:40Z</time>
</trkpt>
<trkpt lat="45.459426700" lon="6.956583340">
  <ele>1991.400000</ele>
<time>2017-08-15T08:48:42Z</time>
</trkpt>
<trkpt lat="45.459386800" lon="6.956725160">
  <ele>1990.500000</ele>
<time>2017-08-15T08:48:44Z</time>
</trkpt>
<trkpt lat="45.459341700" lon="6.956840160">
  <ele>1989.600000</ele>
<time>2017-08-15T08:48:46Z</time>
</trkpt>
<trkpt lat="45.459288400" lon="6.956946780">
  <ele>1988.500000</ele>
<time>2017-08-15T08:48:48Z</time>
</trkpt>
<trkpt lat="45.459246820" lon="6.957068480">
  <ele>1987.300000</ele>
<time>2017-08-15T08:48:50Z</time>
</trkpt>
<trkpt lat="45.459195020" lon="6.957186830">
  <ele>1986.300000</ele>
<time>2017-08-15T08:48:52Z</time>
</trkpt>
<trkpt lat="45.459148420" lon="6.957316750">
  <ele>1985.100000</ele>
<time>2017-08-15T08:48:54Z</time>
</trkpt>
<trkpt lat="45.459098460" lon="6.957431750">
  <ele>1984.100000</ele>
<time>2017-08-15T08:48:56Z</time>
</trkpt>
<trkpt lat="45.459063430" lon="6.957586820">
  <ele>1982.200000</ele>
<time>2017-08-15T08:49:00Z</time>
</trkpt>
<trkpt lat="45.458988490" lon="6.957696790">
  <ele>1980.800000</ele>
<time>2017-08-15T08:49:03Z</time>
</trkpt>
<trkpt lat="45.458886740" lon="6.957788490">
  <ele>1979.300000</ele>
<time>2017-08-15T08:49:06Z</time>
</trkpt>
<trkpt lat="45.458816830" lon="6.957871800">
  <ele>1978.300000</ele>
<time>2017-08-15T08:49:08Z</time>
</trkpt>
<trkpt lat="45.458741730" lon="6.958040110">
  <ele>1976.800000</ele>
<time>2017-08-15T08:49:11Z</time>
</trkpt>
<trkpt lat="45.458685070" lon="6.958143380">
  <ele>1975.900000</ele>
<time>2017-08-15T08:49:13Z</time>
</trkpt>
<trkpt lat="45.458640140" lon="6.958303470">
  <ele>1974.300000</ele>
<time>2017-08-15T08:49:16Z</time>
</trkpt>
<trkpt lat="45.458583480" lon="6.958425010">
  <ele>1973.100000</ele>
<time>2017-08-15T08:49:18Z</time>
</trkpt>
<trkpt lat="45.458496810" lon="6.958496760">
  <ele>1972.000000</ele>
<time>2017-08-15T08:49:20Z</time>
</trkpt>
<trkpt lat="45.458406790" lon="6.958571690">
  <ele>1970.700000</ele>
<time>2017-08-15T08:49:23Z</time>
</trkpt>
<trkpt lat="45.458326820" lon="6.958658360">
  <ele>1969.800000</ele>
<time>2017-08-15T08:49:25Z</time>
</trkpt>
<trkpt lat="45.458241830" lon="6.958740170">
  <ele>1968.300000</ele>
<time>2017-08-15T08:49:29Z</time>
</trkpt>
<trkpt lat="45.458198410" lon="6.958906800">
  <ele>1963.300000</ele>
<time>2017-08-15T08:50:00Z</time>
</trkpt>
<trkpt lat="45.458158350" lon="6.959091700">
  <ele>1962.700000</ele>
<time>2017-08-15T08:50:02Z</time>
</trkpt>
<trkpt lat="45.458088440" lon="6.959281810">
  <ele>1961.900000</ele>
<time>2017-08-15T08:50:04Z</time>
</trkpt>
<trkpt lat="45.457986690" lon="6.959450110">
  <ele>1960.900000</ele>
<time>2017-08-15T08:50:06Z</time>
</trkpt>
<trkpt lat="45.457886770" lon="6.959573500">
  <ele>1959.700000</ele>
<time>2017-08-15T08:50:08Z</time>
</trkpt>
<trkpt lat="45.457753330" lon="6.959638370">
  <ele>1958.500000</ele>
<time>2017-08-15T08:50:10Z</time>
</trkpt>
<trkpt lat="45.457621740" lon="6.959691680">
  <ele>1957.200000</ele>
<time>2017-08-15T08:50:12Z</time>
</trkpt>
<trkpt lat="45.457543450" lon="6.959766780">
  <ele>1956.200000</ele>
<time>2017-08-15T08:50:14Z</time>
</trkpt>
<trkpt lat="45.457443370" lon="6.959831830">
  <ele>1955.200000</ele>
<time>2017-08-15T08:50:16Z</time>
</trkpt>
<trkpt lat="45.457340110" lon="6.959865020">
  <ele>1954.200000</ele>
<time>2017-08-15T08:50:18Z</time>
</trkpt>
<trkpt lat="45.457236670" lon="6.959855130">
  <ele>1953.300000</ele>
<time>2017-08-15T08:50:20Z</time>
</trkpt>
<trkpt lat="45.457133410" lon="6.959860160">
  <ele>1952.600000</ele>
<time>2017-08-15T08:50:22Z</time>
</trkpt>
<trkpt lat="45.457023440" lon="6.959863340">
  <ele>1951.900000</ele>
<time>2017-08-15T08:50:24Z</time>
</trkpt>
<trkpt lat="45.456913470" lon="6.959918500">
  <ele>1951.500000</ele>
<time>2017-08-15T08:50:26Z</time>
</trkpt>
<trkpt lat="45.456801820" lon="6.959941800">
  <ele>1950.900000</ele>
<time>2017-08-15T08:50:28Z</time>
</trkpt>
<trkpt lat="45.456678440" lon="6.959940120">
  <ele>1949.900000</ele>
<time>2017-08-15T08:50:30Z</time>
</trkpt>
<trkpt lat="45.456568470" lon="6.959983370">
  <ele>1949.200000</ele>
<time>2017-08-15T08:50:32Z</time>
</trkpt>
<trkpt lat="45.456450120" lon="6.959988400">
  <ele>1948.100000</ele>
<time>2017-08-15T08:50:35Z</time>
</trkpt>
<trkpt lat="45.456538460" lon="6.960061830">
  <ele>1946.700000</ele>
<time>2017-08-15T08:50:39Z</time>
</trkpt>
<trkpt lat="45.456618420" lon="6.960146820">
  <ele>1945.700000</ele>
<time>2017-08-15T08:50:42Z</time>
</trkpt>
<trkpt lat="45.456513480" lon="6.960250080">
  <ele>1944.500000</ele>
<time>2017-08-15T08:50:45Z</time>
</trkpt>
<trkpt lat="45.456420110" lon="6.960298360">
  <ele>1943.800000</ele>
<time>2017-08-15T08:50:47Z</time>
</trkpt>
<trkpt lat="45.456343500" lon="6.960400120">
  <ele>1942.500000</ele>
<time>2017-08-15T08:50:50Z</time>
</trkpt>
<trkpt lat="45.456438380" lon="6.960405150">
  <ele>1941.000000</ele>
<time>2017-08-15T08:50:53Z</time>
</trkpt>
<trkpt lat="45.456531760" lon="6.960451750">
  <ele>1940.000000</ele>
<time>2017-08-15T08:50:55Z</time>
</trkpt>
<trkpt lat="45.456626810" lon="6.960465160">
  <ele>1939.200000</ele>
<time>2017-08-15T08:50:57Z</time>
</trkpt>
<trkpt lat="45.456593450" lon="6.960596760">
  <ele>1937.400000</ele>
<time>2017-08-15T08:51:01Z</time>
</trkpt>
<trkpt lat="45.456475090" lon="6.960645040">
  <ele>1936.000000</ele>
<time>2017-08-15T08:51:04Z</time>
</trkpt>
<trkpt lat="45.456415080" lon="6.960748470">
  <ele>1934.400000</ele>
<time>2017-08-15T08:51:07Z</time>
</trkpt>
<trkpt lat="45.456365120" lon="6.960858440">
  <ele>1933.200000</ele>
<time>2017-08-15T08:51:09Z</time>
</trkpt>
<trkpt lat="45.456295050" lon="6.960991710">
  <ele>1931.700000</ele>
<time>2017-08-15T08:51:11Z</time>
</trkpt>
<trkpt lat="45.456241740" lon="6.961135040">
  <ele>1930.300000</ele>
<time>2017-08-15T08:51:13Z</time>
</trkpt>
<trkpt lat="45.456175020" lon="6.961238480">
  <ele>1929.100000</ele>
<time>2017-08-15T08:51:15Z</time>
</trkpt>
<trkpt lat="45.456071760" lon="6.961361690">
  <ele>1927.100000</ele>
<time>2017-08-15T08:51:18Z</time>
</trkpt>
<trkpt lat="45.455973350" lon="6.961448360">
  <ele>1925.100000</ele>
<time>2017-08-15T08:51:21Z</time>
</trkpt>
<trkpt lat="45.456058350" lon="6.961505020">
  <ele>1921.800000</ele>
<time>2017-08-15T08:51:26Z</time>
</trkpt>
<trkpt lat="45.455946700" lon="6.961586830">
  <ele>1920.100000</ele>
<time>2017-08-15T08:51:29Z</time>
</trkpt>
<trkpt lat="45.455830020" lon="6.961675010">
  <ele>1918.800000</ele>
<time>2017-08-15T08:51:31Z</time>
</trkpt>
<trkpt lat="45.455716700" lon="6.961760170">
  <ele>1917.400000</ele>
<time>2017-08-15T08:51:33Z</time>
</trkpt>
<trkpt lat="45.455656680" lon="6.961870140">
  <ele>1915.900000</ele>
<time>2017-08-15T08:51:35Z</time>
</trkpt>
<trkpt lat="45.455608410" lon="6.962000060">
  <ele>1914.400000</ele>
<time>2017-08-15T08:51:37Z</time>
</trkpt>
<trkpt lat="45.455548390" lon="6.962141710">
  <ele>1912.900000</ele>
<time>2017-08-15T08:51:39Z</time>
</trkpt>
<trkpt lat="45.455515030" lon="6.962290070">
  <ele>1911.300000</ele>
<time>2017-08-15T08:51:41Z</time>
</trkpt>
<trkpt lat="45.455465070" lon="6.962425020">
  <ele>1909.700000</ele>
<time>2017-08-15T08:51:43Z</time>
</trkpt>
<trkpt lat="45.455401710" lon="6.962536830">
  <ele>1908.300000</ele>
<time>2017-08-15T08:51:45Z</time>
</trkpt>
<trkpt lat="45.455338340" lon="6.962633390">
  <ele>1906.900000</ele>
<time>2017-08-15T08:51:47Z</time>
</trkpt>
<trkpt lat="45.455266760" lon="6.962788460">
  <ele>1904.800000</ele>
<time>2017-08-15T08:51:50Z</time>
</trkpt>
<trkpt lat="45.455228370" lon="6.962906810">
  <ele>1903.000000</ele>
<time>2017-08-15T08:51:52Z</time>
</trkpt>
<trkpt lat="45.455303470" lon="6.962986770">
  <ele>1898.500000</ele>
<time>2017-08-15T08:51:58Z</time>
</trkpt>
<trkpt lat="45.455281680" lon="6.963116690">
  <ele>1896.000000</ele>
<time>2017-08-15T08:52:02Z</time>
</trkpt>
<trkpt lat="45.455250160" lon="6.963243430">
  <ele>1894.000000</ele>
<time>2017-08-15T08:52:05Z</time>
</trkpt>
<trkpt lat="45.455165000" lon="6.963348370">
  <ele>1892.000000</ele>
<time>2017-08-15T08:52:08Z</time>
</trkpt>
<trkpt lat="45.455081690" lon="6.963475100">
  <ele>1890.000000</ele>
<time>2017-08-15T08:52:11Z</time>
</trkpt>
<trkpt lat="45.455013460" lon="6.963575020">
  <ele>1888.400000</ele>
<time>2017-08-15T08:52:13Z</time>
</trkpt>
<trkpt lat="45.454940030" lon="6.963703430">
  <ele>1886.400000</ele>
<time>2017-08-15T08:52:16Z</time>
</trkpt>
<trkpt lat="45.454881690" lon="6.963811720">
  <ele>1885.300000</ele>
<time>2017-08-15T08:52:18Z</time>
</trkpt>
<trkpt lat="45.454793350" lon="6.963926720">
  <ele>1883.800000</ele>
<time>2017-08-15T08:52:21Z</time>
</trkpt>
<trkpt lat="45.454721770" lon="6.964088490">
  <ele>1882.200000</ele>
<time>2017-08-15T08:52:24Z</time>
</trkpt>
<trkpt lat="45.454655050" lon="6.964178350">
  <ele>1881.200000</ele>
<time>2017-08-15T08:52:26Z</time>
</trkpt>
<trkpt lat="45.454608440" lon="6.964303400">
  <ele>1880.200000</ele>
<time>2017-08-15T08:52:28Z</time>
</trkpt>
<trkpt lat="45.454548430" lon="6.964408350">
  <ele>1879.300000</ele>
<time>2017-08-15T08:52:30Z</time>
</trkpt>
<trkpt lat="45.454483390" lon="6.964501720">
  <ele>1878.500000</ele>
<time>2017-08-15T08:52:32Z</time>
</trkpt>
<trkpt lat="45.454398390" lon="6.964603480">
  <ele>1877.800000</ele>
<time>2017-08-15T08:52:34Z</time>
</trkpt>
<trkpt lat="45.454310050" lon="6.964716800">
  <ele>1877.000000</ele>
<time>2017-08-15T08:52:36Z</time>
</trkpt>
<trkpt lat="45.454256740" lon="6.964823420">
  <ele>1876.100000</ele>
<time>2017-08-15T08:52:38Z</time>
</trkpt>
<trkpt lat="45.454186670" lon="6.964921820">
  <ele>1874.200000</ele>
<time>2017-08-15T08:52:44Z</time>
</trkpt>
<trkpt lat="45.454180130" lon="6.965058450">
  <ele>1871.300000</ele>
<time>2017-08-15T08:54:13Z</time>
</trkpt>
<trkpt lat="45.454111730" lon="6.965200100">
  <ele>1871.200000</ele>
<time>2017-08-15T08:54:17Z</time>
</trkpt>
<trkpt lat="45.454028420" lon="6.965325160">
  <ele>1871.000000</ele>
<time>2017-08-15T08:54:20Z</time>
</trkpt>
<trkpt lat="45.453956670" lon="6.965440160">
  <ele>1870.700000</ele>
<time>2017-08-15T08:54:23Z</time>
</trkpt>
<trkpt lat="45.453850050" lon="6.965531690">
  <ele>1870.400000</ele>
<time>2017-08-15T08:54:26Z</time>
</trkpt>
<trkpt lat="45.453738400" lon="6.965545100">
  <ele>1870.000000</ele>
<time>2017-08-15T08:54:29Z</time>
</trkpt>
<trkpt lat="45.453633460" lon="6.965621710">
  <ele>1869.600000</ele>
<time>2017-08-15T08:54:32Z</time>
</trkpt>
<trkpt lat="45.453608480" lon="6.965775100">
  <ele>1869.000000</ele>
<time>2017-08-15T08:54:35Z</time>
</trkpt>
<trkpt lat="45.453575120" lon="6.965906690">
  <ele>1868.600000</ele>
<time>2017-08-15T08:54:37Z</time>
</trkpt>
<trkpt lat="45.453518460" lon="6.966011800">
  <ele>1868.400000</ele>
<time>2017-08-15T08:54:39Z</time>
</trkpt>
<trkpt lat="45.453430120" lon="6.966145080">
  <ele>1868.100000</ele>
<time>2017-08-15T08:54:42Z</time>
</trkpt>
<trkpt lat="45.453343450" lon="6.966265100">
  <ele>1867.700000</ele>
<time>2017-08-15T08:54:45Z</time>
</trkpt>
<trkpt lat="45.453270020" lon="6.966356800">
  <ele>1867.400000</ele>
<time>2017-08-15T08:54:47Z</time>
</trkpt>
<trkpt lat="45.453171790" lon="6.966471800">
  <ele>1867.000000</ele>
<time>2017-08-15T08:54:50Z</time>
</trkpt>
<trkpt lat="45.453086790" lon="6.966615130">
  <ele>1866.700000</ele>
<time>2017-08-15T08:54:53Z</time>
</trkpt>
<trkpt lat="45.453005150" lon="6.966670120">
  <ele>1866.400000</ele>
<time>2017-08-15T08:54:55Z</time>
</trkpt>
<trkpt lat="45.452916810" lon="6.966725100">
  <ele>1866.000000</ele>
<time>2017-08-15T08:54:57Z</time>
</trkpt>
<trkpt lat="45.452856790" lon="6.966826690">
  <ele>1865.600000</ele>
<time>2017-08-15T08:55:00Z</time>
</trkpt>
<trkpt lat="45.452848410" lon="6.967021820">
  <ele>1863.900000</ele>
<time>2017-08-15T08:55:29Z</time>
</trkpt>
<trkpt lat="45.452880100" lon="6.967201700">
  <ele>1863.700000</ele>
<time>2017-08-15T08:55:31Z</time>
</trkpt>
<trkpt lat="45.452945140" lon="6.967381740">
  <ele>1863.400000</ele>
<time>2017-08-15T08:55:33Z</time>
</trkpt>
<trkpt lat="45.452980010" lon="6.967568490">
  <ele>1863.100000</ele>
<time>2017-08-15T08:55:35Z</time>
</trkpt>
<trkpt lat="45.452985040" lon="6.967791780">
  <ele>1862.500000</ele>
<time>2017-08-15T08:55:37Z</time>
</trkpt>
<trkpt lat="45.452990070" lon="6.967920030">
  <ele>1862.300000</ele>
<time>2017-08-15T08:55:38Z</time>
</trkpt>
<trkpt lat="45.452995100" lon="6.968155060">
  <ele>1861.800000</ele>
<time>2017-08-15T08:55:40Z</time>
</trkpt>
<trkpt lat="45.453035160" lon="6.968403500">
  <ele>1861.000000</ele>
<time>2017-08-15T08:55:42Z</time>
</trkpt>
<trkpt lat="45.453055110" lon="6.968530060">
  <ele>1860.600000</ele>
<time>2017-08-15T08:55:43Z</time>
</trkpt>
<trkpt lat="45.453098360" lon="6.968783360">
  <ele>1860.000000</ele>
<time>2017-08-15T08:55:45Z</time>
</trkpt>
<trkpt lat="45.453135070" lon="6.969028450">
  <ele>1859.300000</ele>
<time>2017-08-15T08:55:47Z</time>
</trkpt>
<trkpt lat="45.453153350" lon="6.969160050">
  <ele>1858.800000</ele>
<time>2017-08-15T08:55:48Z</time>
</trkpt>
<trkpt lat="45.453173460" lon="6.969285100">
  <ele>1858.300000</ele>
<time>2017-08-15T08:55:49Z</time>
</trkpt>
<trkpt lat="45.453213360" lon="6.969520130">
  <ele>1857.200000</ele>
<time>2017-08-15T08:55:51Z</time>
</trkpt>
<trkpt lat="45.453296680" lon="6.969721800">
  <ele>1855.900000</ele>
<time>2017-08-15T08:55:53Z</time>
</trkpt>
<trkpt lat="45.453436820" lon="6.969850040">
  <ele>1854.700000</ele>
<time>2017-08-15T08:55:55Z</time>
</trkpt>
<trkpt lat="45.453561710" lon="6.969938390">
  <ele>1853.300000</ele>
<time>2017-08-15T08:55:57Z</time>
</trkpt>
<trkpt lat="45.453535060" lon="6.970123460">
  <ele>1851.500000</ele>
<time>2017-08-15T08:56:00Z</time>
</trkpt>
<trkpt lat="45.453475040" lon="6.970285070">
  <ele>1850.100000</ele>
<time>2017-08-15T08:56:03Z</time>
</trkpt>
<trkpt lat="45.453460120" lon="6.970426720">
  <ele>1849.300000</ele>
<time>2017-08-15T08:56:05Z</time>
</trkpt>
<trkpt lat="45.453436820" lon="6.970566700">
  <ele>1848.500000</ele>
<time>2017-08-15T08:56:07Z</time>
</trkpt>
<trkpt lat="45.453411680" lon="6.970735010">
  <ele>1847.600000</ele>
<time>2017-08-15T08:56:10Z</time>
</trkpt>
<trkpt lat="45.453393400" lon="6.970863420">
  <ele>1846.800000</ele>
<time>2017-08-15T08:56:13Z</time>
</trkpt>
<trkpt lat="45.453371780" lon="6.971023340">
  <ele>1846.000000</ele>
<time>2017-08-15T08:56:17Z</time>
</trkpt>
<trkpt lat="45.453291810" lon="6.971083360">
  <ele>1845.000000</ele>
<time>2017-08-15T08:56:24Z</time>
</trkpt>
<trkpt lat="45.453230120" lon="6.971208420">
  <ele>1844.400000</ele>
<time>2017-08-15T08:56:31Z</time>
</trkpt>
<trkpt lat="45.453158370" lon="6.971315030">
  <ele>1844.000000</ele>
<time>2017-08-15T08:56:37Z</time>
</trkpt>
<trkpt lat="45.453111770" lon="6.971438420">
  <ele>1843.800000</ele>
<time>2017-08-15T08:56:42Z</time>
</trkpt>
<trkpt lat="45.453026780" lon="6.971571690">
  <ele>1843.700000</ele>
<time>2017-08-15T08:56:46Z</time>
</trkpt>
<trkpt lat="45.452946820" lon="6.971723400">
  <ele>1843.600000</ele>
<time>2017-08-15T08:56:49Z</time>
</trkpt>
<trkpt lat="45.452890150" lon="6.971823480">
  <ele>1843.700000</ele>
<time>2017-08-15T08:56:51Z</time>
</trkpt>
<trkpt lat="45.452815050" lon="6.971941830">
  <ele>1843.800000</ele>
<time>2017-08-15T08:56:54Z</time>
</trkpt>
<trkpt lat="45.452740120" lon="6.972055160">
  <ele>1844.100000</ele>
<time>2017-08-15T08:56:57Z</time>
</trkpt>
<trkpt lat="45.452643390" lon="6.972148360">
  <ele>1844.400000</ele>
<time>2017-08-15T08:57:00Z</time>
</trkpt>
<trkpt lat="45.452553370" lon="6.972245090">
  <ele>1844.700000</ele>
<time>2017-08-15T08:57:03Z</time>
</trkpt>
<trkpt lat="45.452460160" lon="6.972338460">
  <ele>1845.100000</ele>
<time>2017-08-15T08:57:06Z</time>
</trkpt>
<trkpt lat="45.452373490" lon="6.972441730">
  <ele>1845.400000</ele>
<time>2017-08-15T08:57:09Z</time>
</trkpt>
<trkpt lat="45.452283470" lon="6.972536780">
  <ele>1845.800000</ele>
<time>2017-08-15T08:57:12Z</time>
</trkpt>
<trkpt lat="45.452186740" lon="6.972628480">
  <ele>1846.200000</ele>
<time>2017-08-15T08:57:15Z</time>
</trkpt>
<trkpt lat="45.452091690" lon="6.972710120">
  <ele>1846.600000</ele>
<time>2017-08-15T08:57:18Z</time>
</trkpt>
<trkpt lat="45.451998490" lon="6.972786730">
  <ele>1847.000000</ele>
<time>2017-08-15T08:57:21Z</time>
</trkpt>
<trkpt lat="45.451913490" lon="6.972875070">
  <ele>1847.400000</ele>
<time>2017-08-15T08:57:24Z</time>
</trkpt>
<trkpt lat="45.451821800" lon="6.972961740">
  <ele>1847.900000</ele>
<time>2017-08-15T08:57:27Z</time>
</trkpt>
<trkpt lat="45.451728420" lon="6.973041710">
  <ele>1848.300000</ele>
<time>2017-08-15T08:57:30Z</time>
</trkpt>
<trkpt lat="45.451651810" lon="6.973130050">
  <ele>1848.800000</ele>
<time>2017-08-15T08:57:33Z</time>
</trkpt>
<trkpt lat="45.451565140" lon="6.973208340">
  <ele>1849.200000</ele>
<time>2017-08-15T08:57:36Z</time>
</trkpt>
<trkpt lat="45.451481830" lon="6.973296680">
  <ele>1849.700000</ele>
<time>2017-08-15T08:57:39Z</time>
</trkpt>
<trkpt lat="45.451391800" lon="6.973360050">
  <ele>1850.100000</ele>
<time>2017-08-15T08:57:42Z</time>
</trkpt>
<trkpt lat="45.451288370" lon="6.973443370">
  <ele>1850.600000</ele>
<time>2017-08-15T08:57:46Z</time>
</trkpt>
<trkpt lat="45.451206730" lon="6.973508410">
  <ele>1851.000000</ele>
<time>2017-08-15T08:57:49Z</time>
</trkpt>
<trkpt lat="45.451125090" lon="6.973583340">
  <ele>1851.400000</ele>
<time>2017-08-15T08:57:52Z</time>
</trkpt>
<trkpt lat="45.451033390" lon="6.973645040">
  <ele>1851.800000</ele>
<time>2017-08-15T08:57:55Z</time>
</trkpt>
<trkpt lat="45.450935160" lon="6.973708400">
  <ele>1852.200000</ele>
<time>2017-08-15T08:57:58Z</time>
</trkpt>
<trkpt lat="45.450836760" lon="6.973781830">
  <ele>1852.500000</ele>
<time>2017-08-15T08:58:01Z</time>
</trkpt>
<trkpt lat="45.450745060" lon="6.973865140">
  <ele>1852.900000</ele>
<time>2017-08-15T08:58:04Z</time>
</trkpt>
<trkpt lat="45.450651680" lon="6.973956670">
  <ele>1853.200000</ele>
<time>2017-08-15T08:58:07Z</time>
</trkpt>
<trkpt lat="45.450533500" lon="6.974031780">
  <ele>1853.500000</ele>
<time>2017-08-15T08:58:10Z</time>
</trkpt>
<trkpt lat="45.450433420" lon="6.974086760">
  <ele>1853.900000</ele>
<time>2017-08-15T08:58:14Z</time>
</trkpt>
<trkpt lat="45.450353450" lon="6.974148450">
  <ele>1854.200000</ele>
<time>2017-08-15T08:58:17Z</time>
</trkpt>
<trkpt lat="45.450261760" lon="6.974246690">
  <ele>1854.500000</ele>
<time>2017-08-15T08:58:20Z</time>
</trkpt>
<trkpt lat="45.450173410" lon="6.974371750">
  <ele>1854.800000</ele>
<time>2017-08-15T08:58:23Z</time>
</trkpt>
<trkpt lat="45.450070150" lon="6.974471830">
  <ele>1855.100000</ele>
<time>2017-08-15T08:58:26Z</time>
</trkpt>
<trkpt lat="45.449956820" lon="6.974553470">
  <ele>1855.300000</ele>
<time>2017-08-15T08:58:29Z</time>
</trkpt>
<trkpt lat="45.449890100" lon="6.974663440">
  <ele>1855.500000</ele>
<time>2017-08-15T08:58:32Z</time>
</trkpt>
<trkpt lat="45.449790020" lon="6.974728480">
  <ele>1855.800000</ele>
<time>2017-08-15T08:58:36Z</time>
</trkpt>
<trkpt lat="45.449690110" lon="6.974793360">
  <ele>1856.200000</ele>
<time>2017-08-15T08:58:40Z</time>
</trkpt>
<trkpt lat="45.449590030" lon="6.974835100">
  <ele>1856.500000</ele>
<time>2017-08-15T08:58:43Z</time>
</trkpt>
<trkpt lat="45.449483410" lon="6.974856720">
  <ele>1856.800000</ele>
<time>2017-08-15T08:58:46Z</time>
</trkpt>
<trkpt lat="45.449365060" lon="6.974893440">
  <ele>1857.000000</ele>
<time>2017-08-15T08:58:49Z</time>
</trkpt>
<trkpt lat="45.449250060" lon="6.974943390">
  <ele>1857.100000</ele>
<time>2017-08-15T08:58:52Z</time>
</trkpt>
<trkpt lat="45.449141770" lon="6.975000050">
  <ele>1857.300000</ele>
<time>2017-08-15T08:58:55Z</time>
</trkpt>
<trkpt lat="45.449040010" lon="6.975051690">
  <ele>1857.400000</ele>
<time>2017-08-15T08:58:58Z</time>
</trkpt>
<trkpt lat="45.448935070" lon="6.975101810">
  <ele>1857.600000</ele>
<time>2017-08-15T08:59:01Z</time>
</trkpt>
<trkpt lat="45.448821750" lon="6.975143380">
  <ele>1857.800000</ele>
<time>2017-08-15T08:59:04Z</time>
</trkpt>
<trkpt lat="45.448701720" lon="6.975171720">
  <ele>1858.000000</ele>
<time>2017-08-15T08:59:07Z</time>
</trkpt>
<trkpt lat="45.448581690" lon="6.975195020">
  <ele>1858.200000</ele>
<time>2017-08-15T08:59:10Z</time>
</trkpt>
<trkpt lat="45.448470040" lon="6.975201720">
  <ele>1858.600000</ele>
<time>2017-08-15T08:59:13Z</time>
</trkpt>
<trkpt lat="45.448360070" lon="6.975198370">
  <ele>1858.900000</ele>
<time>2017-08-15T08:59:16Z</time>
</trkpt>
<trkpt lat="45.448248420" lon="6.975196690">
  <ele>1859.200000</ele>
<time>2017-08-15T08:59:19Z</time>
</trkpt>
<trkpt lat="45.448146670" lon="6.975196690">
  <ele>1859.500000</ele>
<time>2017-08-15T08:59:22Z</time>
</trkpt>
<trkpt lat="45.448046760" lon="6.975205070">
  <ele>1859.900000</ele>
<time>2017-08-15T08:59:25Z</time>
</trkpt>
<trkpt lat="45.447945170" lon="6.975205070">
  <ele>1860.400000</ele>
<time>2017-08-15T08:59:28Z</time>
</trkpt>
<trkpt lat="45.447845090" lon="6.975216810">
  <ele>1860.800000</ele>
<time>2017-08-15T08:59:31Z</time>
</trkpt>
<trkpt lat="45.447748360" lon="6.975230050">
  <ele>1861.300000</ele>
<time>2017-08-15T08:59:34Z</time>
</trkpt>
<trkpt lat="45.447655150" lon="6.975256710">
  <ele>1861.700000</ele>
<time>2017-08-15T08:59:37Z</time>
</trkpt>
<trkpt lat="45.447560100" lon="6.975298450">
  <ele>1862.200000</ele>
<time>2017-08-15T08:59:40Z</time>
</trkpt>
<trkpt lat="45.447455160" lon="6.975350080">
  <ele>1862.500000</ele>
<time>2017-08-15T08:59:43Z</time>
</trkpt>
<trkpt lat="45.447365140" lon="6.975451670">
  <ele>1862.800000</ele>
<time>2017-08-15T08:59:46Z</time>
</trkpt>
<trkpt lat="45.447316690" lon="6.975616790">
  <ele>1863.100000</ele>
<time>2017-08-15T08:59:49Z</time>
</trkpt>
<trkpt lat="45.447305120" lon="6.975808400">
  <ele>1863.300000</ele>
<time>2017-08-15T08:59:52Z</time>
</trkpt>
<trkpt lat="45.447320040" lon="6.975941680">
  <ele>1863.400000</ele>
<time>2017-08-15T08:59:54Z</time>
</trkpt>
<trkpt lat="45.447341670" lon="6.976078470">
  <ele>1863.500000</ele>
<time>2017-08-15T08:59:56Z</time>
</trkpt>
<trkpt lat="45.447373350" lon="6.976226830">
  <ele>1863.600000</ele>
<time>2017-08-15T08:59:58Z</time>
</trkpt>
<trkpt lat="45.447391790" lon="6.976380050">
  <ele>1863.700000</ele>
<time>2017-08-15T09:00:00Z</time>
</trkpt>
<trkpt lat="45.447410070" lon="6.976536790">
  <ele>1863.700000</ele>
<time>2017-08-15T09:00:02Z</time>
</trkpt>
<trkpt lat="45.447426830" lon="6.976678450">
  <ele>1863.700000</ele>
<time>2017-08-15T09:00:04Z</time>
</trkpt>
<trkpt lat="45.447445100" lon="6.976855140">
  <ele>1863.700000</ele>
<time>2017-08-15T09:00:07Z</time>
</trkpt>
<trkpt lat="45.447401680" lon="6.976970140">
  <ele>1863.600000</ele>
<time>2017-08-15T09:00:11Z</time>
</trkpt>
<trkpt lat="45.447301770" lon="6.976923370">
  <ele>1863.500000</ele>
<time>2017-08-15T09:00:14Z</time>
</trkpt>
<trkpt lat="45.447186770" lon="6.976980030">
  <ele>1863.500000</ele>
<time>2017-08-15T09:00:17Z</time>
</trkpt>
<trkpt lat="45.447086690" lon="6.977031830">
  <ele>1863.500000</ele>
<time>2017-08-15T09:00:20Z</time>
</trkpt>
<trkpt lat="45.446995160" lon="6.977065020">
  <ele>1863.500000</ele>
<time>2017-08-15T09:00:23Z</time>
</trkpt>
<trkpt lat="45.446900110" lon="6.977071720">
  <ele>1863.600000</ele>
<time>2017-08-15T09:00:26Z</time>
</trkpt>
<trkpt lat="45.446796680" lon="6.977076750">
  <ele>1864.000000</ele>
<time>2017-08-15T09:00:31Z</time>
</trkpt>
<trkpt lat="45.446776730" lon="6.976945160">
  <ele>1865.900000</ele>
<time>2017-08-15T09:01:15Z</time>
</trkpt>
<trkpt lat="45.446736830" lon="6.976813390">
  <ele>1866.400000</ele>
<time>2017-08-15T09:01:22Z</time>
</trkpt>
<trkpt lat="45.446693410" lon="6.976688340">
  <ele>1866.700000</ele>
<time>2017-08-15T09:01:29Z</time>
</trkpt>
<trkpt lat="45.446656700" lon="6.976565120">
  <ele>1867.100000</ele>
<time>2017-08-15T09:01:36Z</time>
</trkpt>
<trkpt lat="45.446646810" lon="6.976433360">
  <ele>1867.400000</ele>
<time>2017-08-15T09:01:41Z</time>
</trkpt>
<trkpt lat="45.446736830" lon="6.976378370">
  <ele>1869.000000</ele>
<time>2017-08-15T09:04:29Z</time>
</trkpt>
<trkpt lat="45.446651170" lon="6.975696090">
  <ele>1870.000000</ele>
<time>2017-08-15T09:06:15Z</time>
</trkpt>
<trkpt lat="45.446638430" lon="6.975173390">
  <ele>1872.800000</ele>
<time>2017-08-15T09:06:20Z</time>
</trkpt>
<trkpt lat="45.446608420" lon="6.975011790">
  <ele>1874.300000</ele>
<time>2017-08-15T09:06:22Z</time>
</trkpt>
<trkpt lat="45.446583440" lon="6.974861750">
  <ele>1876.000000</ele>
<time>2017-08-15T09:06:24Z</time>
</trkpt>
<trkpt lat="45.446555110" lon="6.974718420">
  <ele>1878.000000</ele>
<time>2017-08-15T09:06:26Z</time>
</trkpt>
<trkpt lat="45.446533490" lon="6.974563360">
  <ele>1880.000000</ele>
<time>2017-08-15T09:06:28Z</time>
</trkpt>
<trkpt lat="45.446511690" lon="6.974411810">
  <ele>1882.200000</ele>
<time>2017-08-15T09:06:30Z</time>
</trkpt>
<trkpt lat="45.446498450" lon="6.974266800">
  <ele>1884.600000</ele>
<time>2017-08-15T09:06:32Z</time>
</trkpt>
<trkpt lat="45.446495100" lon="6.974105030">
  <ele>1887.000000</ele>
<time>2017-08-15T09:06:34Z</time>
</trkpt>
<trkpt lat="45.446483360" lon="6.973955170">
  <ele>1889.600000</ele>
<time>2017-08-15T09:06:36Z</time>
</trkpt>
<trkpt lat="45.446461740" lon="6.973806810">
  <ele>1892.400000</ele>
<time>2017-08-15T09:06:38Z</time>
</trkpt>
<trkpt lat="45.446436760" lon="6.973671690">
  <ele>1895.200000</ele>
<time>2017-08-15T09:06:40Z</time>
</trkpt>
<trkpt lat="45.446410100" lon="6.973528360">
  <ele>1898.100000</ele>
<time>2017-08-15T09:06:42Z</time>
</trkpt>
<trkpt lat="45.446383450" lon="6.973390060">
  <ele>1901.000000</ele>
<time>2017-08-15T09:06:44Z</time>
</trkpt>
<trkpt lat="45.446360150" lon="6.973258460">
  <ele>1904.000000</ele>
<time>2017-08-15T09:06:46Z</time>
</trkpt>
<trkpt lat="45.446335000" lon="6.973113450">
  <ele>1907.200000</ele>
<time>2017-08-15T09:06:48Z</time>
</trkpt>
<trkpt lat="45.446310020" lon="6.972980010">
  <ele>1910.300000</ele>
<time>2017-08-15T09:06:50Z</time>
</trkpt>
<trkpt lat="45.446281690" lon="6.972833500">
  <ele>1913.600000</ele>
<time>2017-08-15T09:06:52Z</time>
</trkpt>
<trkpt lat="45.446255040" lon="6.972685140">
  <ele>1916.900000</ele>
<time>2017-08-15T09:06:54Z</time>
</trkpt>
<trkpt lat="45.446236770" lon="6.972541810">
  <ele>1920.300000</ele>
<time>2017-08-15T09:06:56Z</time>
</trkpt>
<trkpt lat="45.446211790" lon="6.972401830">
  <ele>1923.800000</ele>
<time>2017-08-15T09:06:58Z</time>
</trkpt>
<trkpt lat="45.446196700" lon="6.972270070">
  <ele>1927.200000</ele>
<time>2017-08-15T09:07:00Z</time>
</trkpt>
<trkpt lat="45.446178430" lon="6.972131770">
  <ele>1930.700000</ele>
<time>2017-08-15T09:07:02Z</time>
</trkpt>
<trkpt lat="45.446163340" lon="6.971993460">
  <ele>1934.200000</ele>
<time>2017-08-15T09:07:04Z</time>
</trkpt>
<trkpt lat="45.446150100" lon="6.971855160">
  <ele>1937.800000</ele>
<time>2017-08-15T09:07:06Z</time>
</trkpt>
<trkpt lat="45.446140040" lon="6.971718370">
  <ele>1941.400000</ele>
<time>2017-08-15T09:07:08Z</time>
</trkpt>
<trkpt lat="45.446111710" lon="6.971531790">
  <ele>1947.000000</ele>
<time>2017-08-15T09:07:11Z</time>
</trkpt>
<trkpt lat="45.446091760" lon="6.971400030">
  <ele>1950.700000</ele>
<time>2017-08-15T09:07:13Z</time>
</trkpt>
<trkpt lat="45.446075160" lon="6.971273460">
  <ele>1954.600000</ele>
<time>2017-08-15T09:07:15Z</time>
</trkpt>
<trkpt lat="45.446068460" lon="6.971143370">
  <ele>1958.400000</ele>
<time>2017-08-15T09:07:17Z</time>
</trkpt>
<trkpt lat="45.446051690" lon="6.970965010">
  <ele>1964.200000</ele>
<time>2017-08-15T09:07:20Z</time>
</trkpt>
<trkpt lat="45.446023360" lon="6.970780100">
  <ele>1970.100000</ele>
<time>2017-08-15T09:07:23Z</time>
</trkpt>
<trkpt lat="45.445995030" lon="6.970646830">
  <ele>1974.200000</ele>
<time>2017-08-15T09:07:25Z</time>
</trkpt>
<trkpt lat="45.445966700" lon="6.970511710">
  <ele>1978.300000</ele>
<time>2017-08-15T09:07:27Z</time>
</trkpt>
<trkpt lat="45.445935020" lon="6.970388500">
  <ele>1982.400000</ele>
<time>2017-08-15T09:07:29Z</time>
</trkpt>
<trkpt lat="45.445906690" lon="6.970260090">
  <ele>1986.600000</ele>
<time>2017-08-15T09:07:31Z</time>
</trkpt>
<trkpt lat="45.445878360" lon="6.970131680">
  <ele>1990.700000</ele>
<time>2017-08-15T09:07:33Z</time>
</trkpt>
<trkpt lat="45.445855060" lon="6.970006790">
  <ele>1994.900000</ele>
<time>2017-08-15T09:07:35Z</time>
</trkpt>
<trkpt lat="45.445828400" lon="6.969878380">
  <ele>1999.200000</ele>
<time>2017-08-15T09:07:37Z</time>
</trkpt>
<trkpt lat="45.445800070" lon="6.969750130">
  <ele>2003.500000</ele>
<time>2017-08-15T09:07:39Z</time>
</trkpt>
<trkpt lat="45.445775090" lon="6.969626750">
  <ele>2007.700000</ele>
<time>2017-08-15T09:07:41Z</time>
</trkpt>
<trkpt lat="45.445750110" lon="6.969500020">
  <ele>2012.100000</ele>
<time>2017-08-15T09:07:43Z</time>
</trkpt>
<trkpt lat="45.445716750" lon="6.969318460">
  <ele>2018.700000</ele>
<time>2017-08-15T09:07:46Z</time>
</trkpt>
<trkpt lat="45.445693450" lon="6.969186700">
  <ele>2023.100000</ele>
<time>2017-08-15T09:07:48Z</time>
</trkpt>
<trkpt lat="45.445661770" lon="6.969020070">
  <ele>2029.900000</ele>
<time>2017-08-15T09:07:51Z</time>
</trkpt>
<trkpt lat="45.445635110" lon="6.968890150">
  <ele>2034.300000</ele>
<time>2017-08-15T09:07:53Z</time>
</trkpt>
<trkpt lat="45.445606780" lon="6.968753360">
  <ele>2038.900000</ele>
<time>2017-08-15T09:07:55Z</time>
</trkpt>
<trkpt lat="45.445581800" lon="6.968628470">
  <ele>2043.400000</ele>
<time>2017-08-15T09:07:57Z</time>
</trkpt>
<trkpt lat="45.445561690" lon="6.968503410">
  <ele>2048.000000</ele>
<time>2017-08-15T09:07:59Z</time>
</trkpt>
<trkpt lat="45.445538390" lon="6.968375170">
  <ele>2052.600000</ele>
<time>2017-08-15T09:08:01Z</time>
</trkpt>
<trkpt lat="45.445515090" lon="6.968246750">
  <ele>2057.100000</ele>
<time>2017-08-15T09:08:03Z</time>
</trkpt>
<trkpt lat="45.445491780" lon="6.968121700">
  <ele>2061.800000</ele>
<time>2017-08-15T09:08:05Z</time>
</trkpt>
<trkpt lat="45.445470160" lon="6.967990100">
  <ele>2066.500000</ele>
<time>2017-08-15T09:08:07Z</time>
</trkpt>
<trkpt lat="45.445443340" lon="6.967816760">
  <ele>2073.700000</ele>
<time>2017-08-15T09:08:10Z</time>
</trkpt>
<trkpt lat="45.445418360" lon="6.967690030">
  <ele>2078.500000</ele>
<time>2017-08-15T09:08:12Z</time>
</trkpt>
<trkpt lat="45.445393380" lon="6.967565140">
  <ele>2083.400000</ele>
<time>2017-08-15T09:08:14Z</time>
</trkpt>
<trkpt lat="45.445368400" lon="6.967435050">
  <ele>2088.300000</ele>
<time>2017-08-15T09:08:16Z</time>
</trkpt>
<trkpt lat="45.445341750" lon="6.967310160">
  <ele>2093.300000</ele>
<time>2017-08-15T09:08:18Z</time>
</trkpt>
<trkpt lat="45.445316770" lon="6.967186780">
  <ele>2098.300000</ele>
<time>2017-08-15T09:08:20Z</time>
</trkpt>
<trkpt lat="45.445286760" lon="6.967056690">
  <ele>2103.200000</ele>
<time>2017-08-15T09:08:22Z</time>
</trkpt>
<trkpt lat="45.445246700" lon="6.966885030">
  <ele>2110.700000</ele>
<time>2017-08-15T09:08:25Z</time>
</trkpt>
<trkpt lat="45.445221720" lon="6.966760140">
  <ele>2115.500000</ele>
<time>2017-08-15T09:08:27Z</time>
</trkpt>
<trkpt lat="45.445198420" lon="6.966631730">
  <ele>2120.300000</ele>
<time>2017-08-15T09:08:29Z</time>
</trkpt>
<trkpt lat="45.445185010" lon="6.966493430">
  <ele>2125.100000</ele>
<time>2017-08-15T09:08:31Z</time>
</trkpt>
<trkpt lat="45.445171760" lon="6.966356800">
  <ele>2129.800000</ele>
<time>2017-08-15T09:08:33Z</time>
</trkpt>
<trkpt lat="45.445156670" lon="6.966220010">
  <ele>2134.400000</ele>
<time>2017-08-15T09:08:35Z</time>
</trkpt>
<trkpt lat="45.445150140" lon="6.966078360">
  <ele>2139.000000</ele>
<time>2017-08-15T09:08:37Z</time>
</trkpt>
<trkpt lat="45.445135050" lon="6.965935030">
  <ele>2143.500000</ele>
<time>2017-08-15T09:08:39Z</time>
</trkpt>
<trkpt lat="45.445130020" lon="6.965798400">
  <ele>2148.000000</ele>
<time>2017-08-15T09:08:41Z</time>
</trkpt>
<trkpt lat="45.445113420" lon="6.965656750">
  <ele>2152.500000</ele>
<time>2017-08-15T09:08:43Z</time>
</trkpt>
<trkpt lat="45.445090120" lon="6.965526830">
  <ele>2157.000000</ele>
<time>2017-08-15T09:08:45Z</time>
</trkpt>
<trkpt lat="45.445073360" lon="6.965390030">
  <ele>2161.600000</ele>
<time>2017-08-15T09:08:47Z</time>
</trkpt>
<trkpt lat="45.445051730" lon="6.965250060">
  <ele>2166.100000</ele>
<time>2017-08-15T09:08:49Z</time>
</trkpt>
<trkpt lat="45.445028430" lon="6.965115110">
  <ele>2170.600000</ele>
<time>2017-08-15T09:08:51Z</time>
</trkpt>
<trkpt lat="45.445011670" lon="6.964973450">
  <ele>2175.100000</ele>
<time>2017-08-15T09:08:53Z</time>
</trkpt>
<trkpt lat="45.444988370" lon="6.964845040">
  <ele>2179.600000</ele>
<time>2017-08-15T09:08:55Z</time>
</trkpt>
<trkpt lat="45.444968420" lon="6.964715120">
  <ele>2184.100000</ele>
<time>2017-08-15T09:08:57Z</time>
</trkpt>
<trkpt lat="45.444948470" lon="6.964585040">
  <ele>2188.700000</ele>
<time>2017-08-15T09:08:59Z</time>
</trkpt>
<trkpt lat="45.444935060" lon="6.964448410">
  <ele>2193.200000</ele>
<time>2017-08-15T09:09:01Z</time>
</trkpt>
<trkpt lat="45.444920140" lon="6.964306760">
  <ele>2197.700000</ele>
<time>2017-08-15T09:09:03Z</time>
</trkpt>
<trkpt lat="45.444895160" lon="6.964178350">
  <ele>2202.300000</ele>
<time>2017-08-15T09:09:05Z</time>
</trkpt>
<trkpt lat="45.444875040" lon="6.964050100">
  <ele>2206.800000</ele>
<time>2017-08-15T09:09:07Z</time>
</trkpt>
<trkpt lat="45.444846710" lon="6.963921690">
  <ele>2211.500000</ele>
<time>2017-08-15T09:09:09Z</time>
</trkpt>
<trkpt lat="45.444820060" lon="6.963791770">
  <ele>2216.100000</ele>
<time>2017-08-15T09:09:11Z</time>
</trkpt>
<trkpt lat="45.444791730" lon="6.963663360">
  <ele>2220.800000</ele>
<time>2017-08-15T09:09:13Z</time>
</trkpt>
<trkpt lat="45.444776810" lon="6.963521710">
  <ele>2225.400000</ele>
<time>2017-08-15T09:09:15Z</time>
</trkpt>
<trkpt lat="45.444756690" lon="6.963383410">
  <ele>2230.200000</ele>
<time>2017-08-15T09:09:17Z</time>
</trkpt>
<trkpt lat="45.444735070" lon="6.963243430">
  <ele>2234.900000</ele>
<time>2017-08-15T09:09:19Z</time>
</trkpt>
<trkpt lat="45.444713440" lon="6.963108480">
  <ele>2239.700000</ele>
<time>2017-08-15T09:09:21Z</time>
</trkpt>
<trkpt lat="45.444690140" lon="6.962973360">
  <ele>2244.700000</ele>
<time>2017-08-15T09:09:23Z</time>
</trkpt>
<trkpt lat="45.444666670" lon="6.962838420">
  <ele>2249.500000</ele>
<time>2017-08-15T09:09:25Z</time>
</trkpt>
<trkpt lat="45.444636830" lon="6.962710000">
  <ele>2254.300000</ele>
<time>2017-08-15T09:09:27Z</time>
</trkpt>
<trkpt lat="45.444583350" lon="6.962536830">
  <ele>2261.700000</ele>
<time>2017-08-15T09:09:30Z</time>
</trkpt>
<trkpt lat="45.444560050" lon="6.962408420">
  <ele>2266.600000</ele>
<time>2017-08-15T09:09:32Z</time>
</trkpt>
<trkpt lat="45.444535070" lon="6.962285040">
  <ele>2271.600000</ele>
<time>2017-08-15T09:09:34Z</time>
</trkpt>
<trkpt lat="45.444513450" lon="6.962156800">
  <ele>2276.500000</ele>
<time>2017-08-15T09:09:36Z</time>
</trkpt>
<trkpt lat="45.444496680" lon="6.962023360">
  <ele>2281.500000</ele>
<time>2017-08-15T09:09:38Z</time>
</trkpt>
<trkpt lat="45.444478410" lon="6.961856730">
  <ele>2289.000000</ele>
<time>2017-08-15T09:09:41Z</time>
</trkpt>
<trkpt lat="45.444451760" lon="6.961680040">
  <ele>2296.600000</ele>
<time>2017-08-15T09:09:44Z</time>
</trkpt>
<trkpt lat="45.444420070" lon="6.961526810">
  <ele>2304.300000</ele>
<time>2017-08-15T09:09:47Z</time>
</trkpt>
<trkpt lat="45.444393420" lon="6.961401760">
  <ele>2309.300000</ele>
<time>2017-08-15T09:09:49Z</time>
</trkpt>
<trkpt lat="45.444373470" lon="6.961273350">
  <ele>2314.600000</ele>
<time>2017-08-15T09:09:51Z</time>
</trkpt>
<trkpt lat="45.444345140" lon="6.961108390">
  <ele>2322.500000</ele>
<time>2017-08-15T09:09:54Z</time>
</trkpt>
<trkpt lat="45.444316810" lon="6.960936730">
  <ele>2330.500000</ele>
<time>2017-08-15T09:09:57Z</time>
</trkpt>
<trkpt lat="45.444296690" lon="6.960763390">
  <ele>2338.400000</ele>
<time>2017-08-15T09:10:00Z</time>
</trkpt>
<trkpt lat="45.444266680" lon="6.960591730">
  <ele>2346.500000</ele>
<time>2017-08-15T09:10:03Z</time>
</trkpt>
<trkpt lat="45.444228460" lon="6.960406820">
  <ele>2354.700000</ele>
<time>2017-08-15T09:10:06Z</time>
</trkpt>
<trkpt lat="45.444196780" lon="6.960285120">
  <ele>2360.100000</ele>
<time>2017-08-15T09:10:08Z</time>
</trkpt>
<trkpt lat="45.444151680" lon="6.960108430">
  <ele>2368.200000</ele>
<time>2017-08-15T09:10:11Z</time>
</trkpt>
<trkpt lat="45.444111790" lon="6.959931740">
  <ele>2376.400000</ele>
<time>2017-08-15T09:10:14Z</time>
</trkpt>
<trkpt lat="45.444073400" lon="6.959756720">
  <ele>2384.700000</ele>
<time>2017-08-15T09:10:17Z</time>
</trkpt>
<trkpt lat="45.444040040" lon="6.959580030">
  <ele>2392.900000</ele>
<time>2017-08-15T09:10:20Z</time>
</trkpt>
<trkpt lat="45.444021770" lon="6.959453470">
  <ele>2398.600000</ele>
<time>2017-08-15T09:10:22Z</time>
</trkpt>
<trkpt lat="45.443998460" lon="6.959261690">
  <ele>2406.900000</ele>
<time>2017-08-15T09:10:25Z</time>
</trkpt>
<trkpt lat="45.443993430" lon="6.959118360">
  <ele>2412.500000</ele>
<time>2017-08-15T09:10:27Z</time>
</trkpt>
<trkpt lat="45.443966780" lon="6.958945020">
  <ele>2421.000000</ele>
<time>2017-08-15T09:10:30Z</time>
</trkpt>
<trkpt lat="45.443963430" lon="6.958770010">
  <ele>2432.400000</ele>
<time>2017-08-15T09:10:34Z</time>
</trkpt>
<trkpt lat="45.443931740" lon="6.958583430">
  <ele>2440.900000</ele>
<time>2017-08-15T09:10:37Z</time>
</trkpt>
<trkpt lat="45.443901740" lon="6.958400030">
  <ele>2449.600000</ele>
<time>2017-08-15T09:10:40Z</time>
</trkpt>
<trkpt lat="45.443873410" lon="6.958213450">
  <ele>2458.300000</ele>
<time>2017-08-15T09:10:43Z</time>
</trkpt>
<trkpt lat="45.443848430" lon="6.958030050">
  <ele>2467.000000</ele>
<time>2017-08-15T09:10:46Z</time>
</trkpt>
<trkpt lat="45.443836690" lon="6.957898460">
  <ele>2473.000000</ele>
<time>2017-08-15T09:10:48Z</time>
</trkpt>
<trkpt lat="45.443815070" lon="6.957756800">
  <ele>2478.800000</ele>
<time>2017-08-15T09:10:50Z</time>
</trkpt>
<trkpt lat="45.443775000" lon="6.957595030">
  <ele>2487.800000</ele>
<time>2017-08-15T09:10:53Z</time>
</trkpt>
<trkpt lat="45.443755050" lon="6.957468460">
  <ele>2493.700000</ele>
<time>2017-08-15T09:10:55Z</time>
</trkpt>
<trkpt lat="45.443711800" lon="6.957296800">
  <ele>2502.900000</ele>
<time>2017-08-15T09:10:58Z</time>
</trkpt>
<trkpt lat="45.443671740" lon="6.957130000">
  <ele>2512.000000</ele>
<time>2017-08-15T09:11:01Z</time>
</trkpt>
<trkpt lat="45.443640050" lon="6.956965050">
  <ele>2521.000000</ele>
<time>2017-08-15T09:11:04Z</time>
</trkpt>
<trkpt lat="45.443611720" lon="6.956778470">
  <ele>2529.400000</ele>
<time>2017-08-15T09:11:07Z</time>
</trkpt>
<trkpt lat="45.443586740" lon="6.956590040">
  <ele>2537.300000</ele>
<time>2017-08-15T09:11:10Z</time>
</trkpt>
<trkpt lat="45.443565120" lon="6.956465150">
  <ele>2542.300000</ele>
<time>2017-08-15T09:11:12Z</time>
</trkpt>
<trkpt lat="45.443541820" lon="6.956273370">
  <ele>2549.600000</ele>
<time>2017-08-15T09:11:15Z</time>
</trkpt>
<trkpt lat="45.443520020" lon="6.956143450">
  <ele>2554.300000</ele>
<time>2017-08-15T09:11:17Z</time>
</trkpt>
<trkpt lat="45.443505100" lon="6.955970120">
  <ele>2561.100000</ele>
<time>2017-08-15T09:11:20Z</time>
</trkpt>
<trkpt lat="45.443490020" lon="6.955840030">
  <ele>2565.600000</ele>
<time>2017-08-15T09:11:22Z</time>
</trkpt>
<trkpt lat="45.443471740" lon="6.955708430">
  <ele>2570.000000</ele>
<time>2017-08-15T09:11:24Z</time>
</trkpt>
<trkpt lat="45.443446770" lon="6.955578350">
  <ele>2574.400000</ele>
<time>2017-08-15T09:11:26Z</time>
</trkpt>
<trkpt lat="45.443433360" lon="6.955445070">
  <ele>2578.600000</ele>
<time>2017-08-15T09:11:28Z</time>
</trkpt>
<trkpt lat="45.443425140" lon="6.955311800">
  <ele>2582.900000</ele>
<time>2017-08-15T09:11:30Z</time>
</trkpt>
<trkpt lat="45.443398490" lon="6.955128410">
  <ele>2589.100000</ele>
<time>2017-08-15T09:11:33Z</time>
</trkpt>
<trkpt lat="45.443376690" lon="6.954948360">
  <ele>2595.400000</ele>
<time>2017-08-15T09:11:36Z</time>
</trkpt>
<trkpt lat="45.443356740" lon="6.954765130">
  <ele>2601.600000</ele>
<time>2017-08-15T09:11:39Z</time>
</trkpt>
<trkpt lat="45.443343330" lon="6.954636720">
  <ele>2605.800000</ele>
<time>2017-08-15T09:11:41Z</time>
</trkpt>
<trkpt lat="45.443330090" lon="6.954506800">
  <ele>2609.900000</ele>
<time>2017-08-15T09:11:43Z</time>
</trkpt>
<trkpt lat="45.443315000" lon="6.954375040">
  <ele>2614.100000</ele>
<time>2017-08-15T09:11:45Z</time>
</trkpt>
<trkpt lat="45.443291700" lon="6.954188460">
  <ele>2620.500000</ele>
<time>2017-08-15T09:11:48Z</time>
</trkpt>
<trkpt lat="45.443268400" lon="6.954010090">
  <ele>2626.900000</ele>
<time>2017-08-15T09:11:51Z</time>
</trkpt>
<trkpt lat="45.443250130" lon="6.953876820">
  <ele>2631.200000</ele>
<time>2017-08-15T09:11:53Z</time>
</trkpt>
<trkpt lat="45.443226830" lon="6.953706670">
  <ele>2637.700000</ele>
<time>2017-08-15T09:11:56Z</time>
</trkpt>
<trkpt lat="45.443215090" lon="6.953575070">
  <ele>2642.000000</ele>
<time>2017-08-15T09:11:58Z</time>
</trkpt>
<trkpt lat="45.443200000" lon="6.953448340">
  <ele>2646.300000</ele>
<time>2017-08-15T09:12:00Z</time>
</trkpt>
<trkpt lat="45.443180050" lon="6.953270140">
  <ele>2652.900000</ele>
<time>2017-08-15T09:12:03Z</time>
</trkpt>
<trkpt lat="45.443151720" lon="6.953086740">
  <ele>2659.500000</ele>
<time>2017-08-15T09:12:06Z</time>
</trkpt>
<trkpt lat="45.443123390" lon="6.952958500">
  <ele>2664.000000</ele>
<time>2017-08-15T09:12:08Z</time>
</trkpt>
<trkpt lat="45.443088360" lon="6.952775100">
  <ele>2670.500000</ele>
<time>2017-08-15T09:12:11Z</time>
</trkpt>
<trkpt lat="45.443061700" lon="6.952641830">
  <ele>2674.400000</ele>
<time>2017-08-15T09:12:13Z</time>
</trkpt>
<trkpt lat="45.443045110" lon="6.952511740">
  <ele>2677.900000</ele>
<time>2017-08-15T09:12:15Z</time>
</trkpt>
<trkpt lat="45.443033370" lon="6.952383500">
  <ele>2680.900000</ele>
<time>2017-08-15T09:12:17Z</time>
</trkpt>
<trkpt lat="45.443025160" lon="6.952206810">
  <ele>2684.500000</ele>
<time>2017-08-15T09:12:20Z</time>
</trkpt>
<trkpt lat="45.443021800" lon="6.952036820">
  <ele>2686.800000</ele>
<time>2017-08-15T09:12:23Z</time>
</trkpt>
<trkpt lat="45.443010070" lon="6.951865160">
  <ele>2688.100000</ele>
<time>2017-08-15T09:12:26Z</time>
</trkpt>
<trkpt lat="45.442998330" lon="6.951696690">
  <ele>2688.700000</ele>
<time>2017-08-15T09:12:29Z</time>
</trkpt>
<trkpt lat="45.442990120" lon="6.951520160">
  <ele>2688.600000</ele>
<time>2017-08-15T09:12:32Z</time>
</trkpt>
<trkpt lat="45.442975030" lon="6.951348330">
  <ele>2688.000000</ele>
<time>2017-08-15T09:12:35Z</time>
</trkpt>
<trkpt lat="45.442971680" lon="6.951171810">
  <ele>2687.200000</ele>
<time>2017-08-15T09:12:38Z</time>
</trkpt>
<trkpt lat="45.442916700" lon="6.951030160">
  <ele>2686.000000</ele>
<time>2017-08-15T09:12:41Z</time>
</trkpt>
<trkpt lat="45.442868420" lon="6.950893360">
  <ele>2684.900000</ele>
<time>2017-08-15T09:12:43Z</time>
</trkpt>
<trkpt lat="45.442858360" lon="6.950713490">
  <ele>2683.600000</ele>
<time>2017-08-15T09:12:46Z</time>
</trkpt>
<trkpt lat="45.442870090" lon="6.950585080">
  <ele>2681.900000</ele>
<time>2017-08-15T09:12:51Z</time>
</trkpt>
<trkpt lat="45.442955080" lon="6.950523390">
  <ele>2677.900000</ele>
<time>2017-08-15T09:13:25Z</time>
</trkpt>
<trkpt lat="45.442931780" lon="6.950166820">
  <ele>2677.500000</ele>
<time>2017-08-15T09:13:37Z</time>
</trkpt>
<trkpt lat="45.442905130" lon="6.950031710">
  <ele>2677.500000</ele>
<time>2017-08-15T09:13:40Z</time>
</trkpt>
<trkpt lat="45.442898420" lon="6.949870100">
  <ele>2677.300000</ele>
<time>2017-08-15T09:13:44Z</time>
</trkpt>
<trkpt lat="45.442926750" lon="6.950001700">
  <ele>2675.300000</ele>
<time>2017-08-15T09:16:00Z</time>
</trkpt>
<trkpt lat="45.442925080" lon="6.950150060">
  <ele>2675.300000</ele>
<time>2017-08-15T09:16:06Z</time>
</trkpt>
<trkpt lat="45.442828350" lon="6.950101780">
  <ele>2675.900000</ele>
<time>2017-08-15T09:17:46Z</time>
</trkpt>
<trkpt lat="45.442788450" lon="6.949936820">
  <ele>2675.600000</ele>
<time>2017-08-15T09:17:49Z</time>
</trkpt>
<trkpt lat="45.442801700" lon="6.949766670">
  <ele>2675.100000</ele>
<time>2017-08-15T09:17:51Z</time>
</trkpt>
<trkpt lat="45.442858360" lon="6.949613450">
  <ele>2674.400000</ele>
<time>2017-08-15T09:17:53Z</time>
</trkpt>
<trkpt lat="45.442923400" lon="6.949463410">
  <ele>2673.800000</ele>
<time>2017-08-15T09:17:55Z</time>
</trkpt>
<trkpt lat="45.442968500" lon="6.949320080">
  <ele>2673.200000</ele>
<time>2017-08-15T09:17:57Z</time>
</trkpt>
<trkpt lat="45.442998330" lon="6.949153450">
  <ele>2672.400000</ele>
<time>2017-08-15T09:18:00Z</time>
</trkpt>
<trkpt lat="45.442865060" lon="6.949240120">
  <ele>2671.200000</ele>
<time>2017-08-15T09:18:03Z</time>
</trkpt>
<trkpt lat="45.442783420" lon="6.949365010">
  <ele>2670.100000</ele>
<time>2017-08-15T09:18:05Z</time>
</trkpt>
<trkpt lat="45.442695080" lon="6.949495100">
  <ele>2669.100000</ele>
<time>2017-08-15T09:18:07Z</time>
</trkpt>
<trkpt lat="45.442603380" lon="6.949615120">
  <ele>2668.300000</ele>
<time>2017-08-15T09:18:09Z</time>
</trkpt>
<trkpt lat="45.442555100" lon="6.949753430">
  <ele>2667.500000</ele>
<time>2017-08-15T09:18:11Z</time>
</trkpt>
<trkpt lat="45.442540010" lon="6.949923410">
  <ele>2666.800000</ele>
<time>2017-08-15T09:18:13Z</time>
</trkpt>
<trkpt lat="45.442523420" lon="6.950058360">
  <ele>2665.900000</ele>
<time>2017-08-15T09:18:15Z</time>
</trkpt>
<trkpt lat="45.442435070" lon="6.949998350">
  <ele>2664.100000</ele>
<time>2017-08-15T09:18:19Z</time>
</trkpt>
<trkpt lat="45.442390140" lon="6.949845120">
  <ele>2663.200000</ele>
<time>2017-08-15T09:18:21Z</time>
</trkpt>
<trkpt lat="45.442315040" lon="6.949703470">
  <ele>2662.000000</ele>
<time>2017-08-15T09:18:23Z</time>
</trkpt>
<trkpt lat="45.442226700" lon="6.949578410">
  <ele>2660.800000</ele>
<time>2017-08-15T09:18:25Z</time>
</trkpt>
<trkpt lat="45.442125110" lon="6.949455030">
  <ele>2659.600000</ele>
<time>2017-08-15T09:18:27Z</time>
</trkpt>
<trkpt lat="45.441976750" lon="6.949358470">
  <ele>2658.100000</ele>
<time>2017-08-15T09:18:29Z</time>
</trkpt>
<trkpt lat="45.441886730" lon="6.949311700">
  <ele>2657.400000</ele>
<time>2017-08-15T09:18:30Z</time>
</trkpt>
<trkpt lat="45.441790170" lon="6.949268450">
  <ele>2656.700000</ele>
<time>2017-08-15T09:18:31Z</time>
</trkpt>
<trkpt lat="45.441698470" lon="6.949236770">
  <ele>2656.000000</ele>
<time>2017-08-15T09:18:32Z</time>
</trkpt>
<trkpt lat="45.441520100" lon="6.949205080">
  <ele>2654.800000</ele>
<time>2017-08-15T09:18:34Z</time>
</trkpt>
<trkpt lat="45.441370070" lon="6.949175070">
  <ele>2653.600000</ele>
<time>2017-08-15T09:18:36Z</time>
</trkpt>
<trkpt lat="45.441243500" lon="6.949173400">
  <ele>2652.700000</ele>
<time>2017-08-15T09:18:38Z</time>
</trkpt>
<trkpt lat="45.441151800" lon="6.949215140">
  <ele>2651.800000</ele>
<time>2017-08-15T09:18:40Z</time>
</trkpt>
<trkpt lat="45.441063460" lon="6.949241790">
  <ele>2650.700000</ele>
<time>2017-08-15T09:18:43Z</time>
</trkpt>
<trkpt lat="45.440971760" lon="6.949271800">
  <ele>2649.500000</ele>
<time>2017-08-15T09:18:47Z</time>
</trkpt>
<trkpt lat="45.440876710" lon="6.949295100">
  <ele>2648.600000</ele>
<time>2017-08-15T09:18:51Z</time>
</trkpt>
<trkpt lat="45.440781820" lon="6.949308350">
  <ele>2647.900000</ele>
<time>2017-08-15T09:18:55Z</time>
</trkpt>
<trkpt lat="45.440661800" lon="6.949313380">
  <ele>2647.300000</ele>
<time>2017-08-15T09:18:58Z</time>
</trkpt>
<trkpt lat="45.440556690" lon="6.949328460">
  <ele>2646.600000</ele>
<time>2017-08-15T09:19:01Z</time>
</trkpt>
<trkpt lat="45.440466830" lon="6.949223350">
  <ele>2646.100000</ele>
<time>2017-08-15T09:19:04Z</time>
</trkpt>
<trkpt lat="45.440370110" lon="6.949270130">
  <ele>2645.700000</ele>
<time>2017-08-15T09:19:07Z</time>
</trkpt>
<trkpt lat="45.440266670" lon="6.949203410">
  <ele>2645.100000</ele>
<time>2017-08-15T09:19:10Z</time>
</trkpt>
<trkpt lat="45.440190060" lon="6.949130150">
  <ele>2644.700000</ele>
<time>2017-08-15T09:19:12Z</time>
</trkpt>
<trkpt lat="45.440075060" lon="6.949100140">
  <ele>2644.300000</ele>
<time>2017-08-15T09:19:14Z</time>
</trkpt>
<trkpt lat="45.439946820" lon="6.949078350">
  <ele>2643.900000</ele>
<time>2017-08-15T09:19:16Z</time>
</trkpt>
<trkpt lat="45.439835000" lon="6.949078350">
  <ele>2643.400000</ele>
<time>2017-08-15T09:19:18Z</time>
</trkpt>
<trkpt lat="45.439736770" lon="6.949078350">
  <ele>2642.900000</ele>
<time>2017-08-15T09:19:20Z</time>
</trkpt>
<trkpt lat="45.439653450" lon="6.949015150">
  <ele>2642.300000</ele>
<time>2017-08-15T09:19:22Z</time>
</trkpt>
<trkpt lat="45.439566780" lon="6.948883380">
  <ele>2641.000000</ele>
<time>2017-08-15T09:19:25Z</time>
</trkpt>
<trkpt lat="45.439500060" lon="6.948735020">
  <ele>2639.400000</ele>
<time>2017-08-15T09:19:28Z</time>
</trkpt>
<trkpt lat="45.439388420" lon="6.948715080">
  <ele>2637.600000</ele>
<time>2017-08-15T09:19:31Z</time>
</trkpt>
<trkpt lat="45.439436700" lon="6.948570070">
  <ele>2635.800000</ele>
<time>2017-08-15T09:19:34Z</time>
</trkpt>
<trkpt lat="45.439466700" lon="6.948410140">
  <ele>2634.100000</ele>
<time>2017-08-15T09:19:37Z</time>
</trkpt>
<trkpt lat="45.439370140" lon="6.948386670">
  <ele>2633.200000</ele>
<time>2017-08-15T09:19:39Z</time>
</trkpt>
<trkpt lat="45.439283480" lon="6.948460100">
  <ele>2632.100000</ele>
<time>2017-08-15T09:19:41Z</time>
</trkpt>
<trkpt lat="45.439221780" lon="6.948555150">
  <ele>2630.800000</ele>
<time>2017-08-15T09:19:43Z</time>
</trkpt>
<trkpt lat="45.439158420" lon="6.948726810">
  <ele>2628.800000</ele>
<time>2017-08-15T09:19:46Z</time>
</trkpt>
<trkpt lat="45.439063370" lon="6.948651710">
  <ele>2626.700000</ele>
<time>2017-08-15T09:19:49Z</time>
</trkpt>
<trkpt lat="45.438953400" lon="6.948695130">
  <ele>2623.000000</ele>
<time>2017-08-15T09:19:55Z</time>
</trkpt>
<trkpt lat="45.438908470" lon="6.948561690">
  <ele>2621.900000</ele>
<time>2017-08-15T09:19:57Z</time>
</trkpt>
<trkpt lat="45.438851810" lon="6.948428410">
  <ele>2620.100000</ele>
<time>2017-08-15T09:20:00Z</time>
</trkpt>
<trkpt lat="45.438738480" lon="6.948350130">
  <ele>2618.200000</ele>
<time>2017-08-15T09:20:03Z</time>
</trkpt>
<trkpt lat="45.438676790" lon="6.948243340">
  <ele>2616.900000</ele>
<time>2017-08-15T09:20:05Z</time>
</trkpt>
<trkpt lat="45.438623480" lon="6.948111750">
  <ele>2615.300000</ele>
<time>2017-08-15T09:20:07Z</time>
</trkpt>
<trkpt lat="45.438631700" lon="6.947973450">
  <ele>2613.900000</ele>
<time>2017-08-15T09:20:09Z</time>
</trkpt>
<trkpt lat="45.438591800" lon="6.947846710">
  <ele>2612.400000</ele>
<time>2017-08-15T09:20:11Z</time>
</trkpt>
<trkpt lat="45.438645110" lon="6.947681750">
  <ele>2610.400000</ele>
<time>2017-08-15T09:20:14Z</time>
</trkpt>
<trkpt lat="45.438708480" lon="6.947555020">
  <ele>2609.000000</ele>
<time>2017-08-15T09:20:16Z</time>
</trkpt>
<trkpt lat="45.438660030" lon="6.947428450">
  <ele>2605.900000</ele>
<time>2017-08-15T09:20:21Z</time>
</trkpt>
<trkpt lat="45.438668410" lon="6.947240030">
  <ele>2604.000000</ele>
<time>2017-08-15T09:20:24Z</time>
</trkpt>
<trkpt lat="45.438623480" lon="6.947123350">
  <ele>2602.700000</ele>
<time>2017-08-15T09:20:26Z</time>
</trkpt>
<trkpt lat="45.438516700" lon="6.947011710">
  <ele>2601.400000</ele>
<time>2017-08-15T09:20:28Z</time>
</trkpt>
<trkpt lat="45.438416790" lon="6.946886820">
  <ele>2599.700000</ele>
<time>2017-08-15T09:20:30Z</time>
</trkpt>
<trkpt lat="45.438311680" lon="6.946740130">
  <ele>2598.300000</ele>
<time>2017-08-15T09:20:32Z</time>
</trkpt>
<trkpt lat="45.438203380" lon="6.946605020">
  <ele>2597.000000</ele>
<time>2017-08-15T09:20:34Z</time>
</trkpt>
<trkpt lat="45.438080000" lon="6.946516670">
  <ele>2595.800000</ele>
<time>2017-08-15T09:20:36Z</time>
</trkpt>
<trkpt lat="45.437980090" lon="6.946430000">
  <ele>2594.700000</ele>
<time>2017-08-15T09:20:38Z</time>
</trkpt>
<trkpt lat="45.437858380" lon="6.946360100">
  <ele>2593.500000</ele>
<time>2017-08-15T09:20:40Z</time>
</trkpt>
<trkpt lat="45.437743380" lon="6.946305110">
  <ele>2592.000000</ele>
<time>2017-08-15T09:20:42Z</time>
</trkpt>
<trkpt lat="45.437628380" lon="6.946215090">
  <ele>2590.500000</ele>
<time>2017-08-15T09:20:44Z</time>
</trkpt>
<trkpt lat="45.437521770" lon="6.946091710">
  <ele>2589.300000</ele>
<time>2017-08-15T09:20:46Z</time>
</trkpt>
<trkpt lat="45.437433420" lon="6.946000010">
  <ele>2588.200000</ele>
<time>2017-08-15T09:20:48Z</time>
</trkpt>
<trkpt lat="45.437406770" lon="6.945831700">
  <ele>2586.900000</ele>
<time>2017-08-15T09:20:51Z</time>
</trkpt>
<trkpt lat="45.437428390" lon="6.945640090">
  <ele>2585.700000</ele>
<time>2017-08-15T09:20:54Z</time>
</trkpt>
<trkpt lat="45.437471810" lon="6.945478490">
  <ele>2585.000000</ele>
<time>2017-08-15T09:20:56Z</time>
</trkpt>
<trkpt lat="45.437491760" lon="6.945331800">
  <ele>2584.200000</ele>
<time>2017-08-15T09:20:58Z</time>
</trkpt>
<trkpt lat="45.437516740" lon="6.945191830">
  <ele>2582.900000</ele>
<time>2017-08-15T09:21:00Z</time>
</trkpt>
<trkpt lat="45.437580100" lon="6.945086720">
  <ele>2581.900000</ele>
<time>2017-08-15T09:21:02Z</time>
</trkpt>
<trkpt lat="45.437488410" lon="6.944995020">
  <ele>2580.400000</ele>
<time>2017-08-15T09:21:05Z</time>
</trkpt>
<trkpt lat="45.437395030" lon="6.945076830">
  <ele>2579.600000</ele>
<time>2017-08-15T09:21:07Z</time>
</trkpt>
<trkpt lat="45.437291770" lon="6.945088390">
  <ele>2578.800000</ele>
<time>2017-08-15T09:21:09Z</time>
</trkpt>
<trkpt lat="45.437205100" lon="6.944976750">
  <ele>2577.400000</ele>
<time>2017-08-15T09:21:12Z</time>
</trkpt>
<trkpt lat="45.437100160" lon="6.944995020">
  <ele>2576.400000</ele>
<time>2017-08-15T09:21:14Z</time>
</trkpt>
<trkpt lat="45.437031760" lon="6.944891750">
  <ele>2575.200000</ele>
<time>2017-08-15T09:21:16Z</time>
</trkpt>
<trkpt lat="45.437113400" lon="6.944780110">
  <ele>2574.200000</ele>
<time>2017-08-15T09:21:18Z</time>
</trkpt>
<trkpt lat="45.437215160" lon="6.944678350">
  <ele>2573.200000</ele>
<time>2017-08-15T09:21:20Z</time>
</trkpt>
<trkpt lat="45.437335020" lon="6.944590010">
  <ele>2572.200000</ele>
<time>2017-08-15T09:21:22Z</time>
</trkpt>
<trkpt lat="45.437450020" lon="6.944480040">
  <ele>2571.200000</ele>
<time>2017-08-15T09:21:24Z</time>
</trkpt>
<trkpt lat="45.437571720" lon="6.944366710">
  <ele>2570.200000</ele>
<time>2017-08-15T09:21:26Z</time>
</trkpt>
<trkpt lat="45.437700130" lon="6.944291780">
  <ele>2569.300000</ele>
<time>2017-08-15T09:21:28Z</time>
</trkpt>
<trkpt lat="45.437828380" lon="6.944200080">
  <ele>2568.400000</ele>
<time>2017-08-15T09:21:30Z</time>
</trkpt>
<trkpt lat="45.437953430" lon="6.944060100">
  <ele>2567.500000</ele>
<time>2017-08-15T09:21:32Z</time>
</trkpt>
<trkpt lat="45.438088380" lon="6.943921800">
  <ele>2566.400000</ele>
<time>2017-08-15T09:21:34Z</time>
</trkpt>
<trkpt lat="45.438225010" lon="6.943811830">
  <ele>2565.400000</ele>
<time>2017-08-15T09:21:36Z</time>
</trkpt>
<trkpt lat="45.438355100" lon="6.943723480">
  <ele>2564.200000</ele>
<time>2017-08-15T09:21:38Z</time>
</trkpt>
<trkpt lat="45.438470100" lon="6.943655090">
  <ele>2563.200000</ele>
<time>2017-08-15T09:21:40Z</time>
</trkpt>
<trkpt lat="45.438610070" lon="6.943600100">
  <ele>2562.100000</ele>
<time>2017-08-15T09:21:42Z</time>
</trkpt>
<trkpt lat="45.438728430" lon="6.943520140">
  <ele>2561.100000</ele>
<time>2017-08-15T09:21:44Z</time>
</trkpt>
<trkpt lat="45.438831690" lon="6.943441690">
  <ele>2560.200000</ele>
<time>2017-08-15T09:21:46Z</time>
</trkpt>
<trkpt lat="45.438926740" lon="6.943376810">
  <ele>2559.400000</ele>
<time>2017-08-15T09:21:48Z</time>
</trkpt>
<trkpt lat="45.439050120" lon="6.943411680">
  <ele>2558.500000</ele>
<time>2017-08-15T09:21:50Z</time>
</trkpt>
<trkpt lat="45.439186750" lon="6.943481750">
  <ele>2557.600000</ele>
<time>2017-08-15T09:21:52Z</time>
</trkpt>
<trkpt lat="45.439338460" lon="6.943538410">
  <ele>2556.800000</ele>
<time>2017-08-15T09:21:54Z</time>
</trkpt>
<trkpt lat="45.439478440" lon="6.943523490">
  <ele>2556.100000</ele>
<time>2017-08-15T09:21:56Z</time>
</trkpt>
<trkpt lat="45.439593440" lon="6.943460130">
  <ele>2555.300000</ele>
<time>2017-08-15T09:21:58Z</time>
</trkpt>
<trkpt lat="45.439661670" lon="6.943375130">
  <ele>2554.700000</ele>
<time>2017-08-15T09:22:00Z</time>
</trkpt>
<trkpt lat="45.439713470" lon="6.943258460">
  <ele>2550.600000</ele>
<time>2017-08-15T09:23:12Z</time>
</trkpt>
<trkpt lat="45.439755040" lon="6.943113450">
  <ele>2550.600000</ele>
<time>2017-08-15T09:23:16Z</time>
</trkpt>
<trkpt lat="45.439780020" lon="6.942955030">
  <ele>2550.700000</ele>
<time>2017-08-15T09:23:19Z</time>
</trkpt>
<trkpt lat="45.439813380" lon="6.942830140">
  <ele>2550.700000</ele>
<time>2017-08-15T09:23:21Z</time>
</trkpt>
<trkpt lat="45.439890160" lon="6.942723360">
  <ele>2550.700000</ele>
<time>2017-08-15T09:23:23Z</time>
</trkpt>
<trkpt lat="45.439955030" lon="6.942633330">
  <ele>2550.700000</ele>
<time>2017-08-15T09:23:25Z</time>
</trkpt>
<trkpt lat="45.440051760" lon="6.942506770">
  <ele>2550.700000</ele>
<time>2017-08-15T09:23:28Z</time>
</trkpt>
<trkpt lat="45.440120160" lon="6.942405010">
  <ele>2550.700000</ele>
<time>2017-08-15T09:23:30Z</time>
</trkpt>
<trkpt lat="45.440191740" lon="6.942281800">
  <ele>2550.700000</ele>
<time>2017-08-15T09:23:32Z</time>
</trkpt>
<trkpt lat="45.440265160" lon="6.942168470">
  <ele>2550.700000</ele>
<time>2017-08-15T09:23:34Z</time>
</trkpt>
<trkpt lat="45.440356690" lon="6.942061690">
  <ele>2550.700000</ele>
<time>2017-08-15T09:23:36Z</time>
</trkpt>
<trkpt lat="45.440461800" lon="6.941980050">
  <ele>2550.600000</ele>
<time>2017-08-15T09:23:38Z</time>
</trkpt>
<trkpt lat="45.440583340" lon="6.941885170">
  <ele>2550.600000</ele>
<time>2017-08-15T09:23:40Z</time>
</trkpt>
<trkpt lat="45.440686770" lon="6.941786760">
  <ele>2550.400000</ele>
<time>2017-08-15T09:23:42Z</time>
</trkpt>
<trkpt lat="45.440785010" lon="6.941685010">
  <ele>2550.200000</ele>
<time>2017-08-15T09:23:44Z</time>
</trkpt>
<trkpt lat="45.440871680" lon="6.941588450">
  <ele>2549.900000</ele>
<time>2017-08-15T09:23:46Z</time>
</trkpt>
<trkpt lat="45.440966730" lon="6.941488370">
  <ele>2549.400000</ele>
<time>2017-08-15T09:23:48Z</time>
</trkpt>
<trkpt lat="45.441080050" lon="6.941433380">
  <ele>2548.800000</ele>
<time>2017-08-15T09:23:50Z</time>
</trkpt>
<trkpt lat="45.441203430" lon="6.941396670">
  <ele>2548.200000</ele>
<time>2017-08-15T09:23:52Z</time>
</trkpt>
<trkpt lat="45.441351790" lon="6.941371690">
  <ele>2547.300000</ele>
<time>2017-08-15T09:23:54Z</time>
</trkpt>
<trkpt lat="45.441461760" lon="6.941280160">
  <ele>2546.400000</ele>
<time>2017-08-15T09:23:56Z</time>
</trkpt>
<trkpt lat="45.441546760" lon="6.941151750">
  <ele>2545.500000</ele>
<time>2017-08-15T09:23:58Z</time>
</trkpt>
<trkpt lat="45.441636780" lon="6.941021830">
  <ele>2544.400000</ele>
<time>2017-08-15T09:24:00Z</time>
</trkpt>
<trkpt lat="45.441756810" lon="6.940950080">
  <ele>2543.500000</ele>
<time>2017-08-15T09:24:02Z</time>
</trkpt>
<trkpt lat="45.441870130" lon="6.940896770">
  <ele>2542.500000</ele>
<time>2017-08-15T09:24:04Z</time>
</trkpt>
<trkpt lat="45.441978420" lon="6.940811780">
  <ele>2541.500000</ele>
<time>2017-08-15T09:24:06Z</time>
</trkpt>
<trkpt lat="45.442093420" lon="6.940721760">
  <ele>2540.100000</ele>
<time>2017-08-15T09:24:08Z</time>
</trkpt>
<trkpt lat="45.442220160" lon="6.940603410">
  <ele>2538.600000</ele>
<time>2017-08-15T09:24:10Z</time>
</trkpt>
<trkpt lat="45.442343370" lon="6.940571720">
  <ele>2537.400000</ele>
<time>2017-08-15T09:24:12Z</time>
</trkpt>
<trkpt lat="45.442425010" lon="6.940488410">
  <ele>2536.300000</ele>
<time>2017-08-15T09:24:14Z</time>
</trkpt>
<trkpt lat="45.442398360" lon="6.940353460">
  <ele>2535.300000</ele>
<time>2017-08-15T09:24:16Z</time>
</trkpt>
<trkpt lat="45.442276820" lon="6.940351780">
  <ele>2534.200000</ele>
<time>2017-08-15T09:24:18Z</time>
</trkpt>
<trkpt lat="45.442170040" lon="6.940435100">
  <ele>2533.100000</ele>
<time>2017-08-15T09:24:20Z</time>
</trkpt>
<trkpt lat="45.442123430" lon="6.940291770">
  <ele>2531.600000</ele>
<time>2017-08-15T09:24:23Z</time>
</trkpt>
<trkpt lat="45.442235080" lon="6.940185150">
  <ele>2530.700000</ele>
<time>2017-08-15T09:24:25Z</time>
</trkpt>
<trkpt lat="45.442278500" lon="6.940021700">
  <ele>2529.600000</ele>
<time>2017-08-15T09:24:27Z</time>
</trkpt>
<trkpt lat="45.442326780" lon="6.939848360">
  <ele>2528.100000</ele>
<time>2017-08-15T09:24:29Z</time>
</trkpt>
<trkpt lat="45.442400030" lon="6.939695140">
  <ele>2526.800000</ele>
<time>2017-08-15T09:24:31Z</time>
</trkpt>
<trkpt lat="45.442481670" lon="6.939525160">
  <ele>2525.600000</ele>
<time>2017-08-15T09:24:33Z</time>
</trkpt>
<trkpt lat="45.442600030" lon="6.939393390">
  <ele>2524.600000</ele>
<time>2017-08-15T09:24:35Z</time>
</trkpt>
<trkpt lat="45.442726760" lon="6.939255090">
  <ele>2523.600000</ele>
<time>2017-08-15T09:24:37Z</time>
</trkpt>
<trkpt lat="45.442858360" lon="6.939105060">
  <ele>2522.700000</ele>
<time>2017-08-15T09:24:39Z</time>
</trkpt>
<trkpt lat="45.442978390" lon="6.938930040">
  <ele>2521.800000</ele>
<time>2017-08-15T09:24:41Z</time>
</trkpt>
<trkpt lat="45.443070080" lon="6.938735080">
  <ele>2520.900000</ele>
<time>2017-08-15T09:24:43Z</time>
</trkpt>
<trkpt lat="45.443120040" lon="6.938538440">
  <ele>2519.900000</ele>
<time>2017-08-15T09:24:45Z</time>
</trkpt>
<trkpt lat="45.443153400" lon="6.938353370">
  <ele>2519.000000</ele>
<time>2017-08-15T09:24:47Z</time>
</trkpt>
<trkpt lat="45.443186760" lon="6.938191760">
  <ele>2518.300000</ele>
<time>2017-08-15T09:24:49Z</time>
</trkpt>
<trkpt lat="45.443273430" lon="6.938051790">
  <ele>2517.400000</ele>
<time>2017-08-15T09:24:51Z</time>
</trkpt>
<trkpt lat="45.443375020" lon="6.937963440">
  <ele>2516.200000</ele>
<time>2017-08-15T09:24:53Z</time>
</trkpt>
<trkpt lat="45.443395130" lon="6.937806700">
  <ele>2515.100000</ele>
<time>2017-08-15T09:24:55Z</time>
</trkpt>
<trkpt lat="45.443461690" lon="6.937716680">
  <ele>2514.000000</ele>
<time>2017-08-15T09:24:57Z</time>
</trkpt>
<trkpt lat="45.443531760" lon="6.937595140">
  <ele>2512.800000</ele>
<time>2017-08-15T09:24:59Z</time>
</trkpt>
<trkpt lat="45.443528410" lon="6.937420130">
  <ele>2511.500000</ele>
<time>2017-08-15T09:25:01Z</time>
</trkpt>
<trkpt lat="45.443675090" lon="6.937375030">
  <ele>2509.800000</ele>
<time>2017-08-15T09:25:04Z</time>
</trkpt>
<trkpt lat="45.443758410" lon="6.937256680">
  <ele>2508.500000</ele>
<time>2017-08-15T09:25:06Z</time>
</trkpt>
<trkpt lat="45.443718340" lon="6.937076800">
  <ele>2507.100000</ele>
<time>2017-08-15T09:25:08Z</time>
</trkpt>
<trkpt lat="45.443800150" lon="6.937018470">
  <ele>2504.600000</ele>
<time>2017-08-15T09:25:12Z</time>
</trkpt>
<trkpt lat="45.443840050" lon="6.936873460">
  <ele>2500.800000</ele>
<time>2017-08-15T09:25:17Z</time>
</trkpt>
<trkpt lat="45.443948340" lon="6.936850160">
  <ele>2498.700000</ele>
<time>2017-08-15T09:25:20Z</time>
</trkpt>
<trkpt lat="45.443996790" lon="6.937025000">
  <ele>2497.300000</ele>
<time>2017-08-15T09:25:22Z</time>
</trkpt>
<trkpt lat="45.444115140" lon="6.937043440">
  <ele>2495.100000</ele>
<time>2017-08-15T09:25:25Z</time>
</trkpt>
<trkpt lat="45.444190070" lon="6.936908490">
  <ele>2493.800000</ele>
<time>2017-08-15T09:25:27Z</time>
</trkpt>
<trkpt lat="45.444268360" lon="6.936831720">
  <ele>2492.600000</ele>
<time>2017-08-15T09:25:29Z</time>
</trkpt>
<trkpt lat="45.444320160" lon="6.936950070">
  <ele>2491.200000</ele>
<time>2017-08-15T09:25:31Z</time>
</trkpt>
<trkpt lat="45.444423430" lon="6.936905140">
  <ele>2489.200000</ele>
<time>2017-08-15T09:25:34Z</time>
</trkpt>
<trkpt lat="45.444386710" lon="6.936746720">
  <ele>2487.900000</ele>
<time>2017-08-15T09:25:36Z</time>
</trkpt>
<trkpt lat="45.444491820" lon="6.936706830">
  <ele>2486.300000</ele>
<time>2017-08-15T09:25:39Z</time>
</trkpt>
<trkpt lat="45.444583350" lon="6.936823330">
  <ele>2485.300000</ele>
<time>2017-08-15T09:25:41Z</time>
</trkpt>
<trkpt lat="45.444611680" lon="6.936971690">
  <ele>2483.900000</ele>
<time>2017-08-15T09:25:44Z</time>
</trkpt>
<trkpt lat="45.444611680" lon="6.937101780">
  <ele>2476.500000</ele>
<time>2017-08-15T09:26:46Z</time>
</trkpt>
<trkpt lat="45.444586710" lon="6.937265060">
  <ele>2476.200000</ele>
<time>2017-08-15T09:26:48Z</time>
</trkpt>
<trkpt lat="45.444590060" lon="6.937431690">
  <ele>2475.800000</ele>
<time>2017-08-15T09:26:50Z</time>
</trkpt>
<trkpt lat="45.444693490" lon="6.937481820">
  <ele>2475.300000</ele>
<time>2017-08-15T09:26:52Z</time>
</trkpt>
<trkpt lat="45.444770100" lon="6.937371680">
  <ele>2474.700000</ele>
<time>2017-08-15T09:26:54Z</time>
</trkpt>
<trkpt lat="45.444833470" lon="6.937488350">
  <ele>2473.900000</ele>
<time>2017-08-15T09:26:56Z</time>
</trkpt>
<trkpt lat="45.444926680" lon="6.937535130">
  <ele>2473.100000</ele>
<time>2017-08-15T09:26:58Z</time>
</trkpt>
<trkpt lat="45.445036810" lon="6.937468410">
  <ele>2472.400000</ele>
<time>2017-08-15T09:27:00Z</time>
</trkpt>
<trkpt lat="45.445073360" lon="6.937630010">
  <ele>2471.700000</ele>
<time>2017-08-15T09:27:02Z</time>
</trkpt>
<trkpt lat="45.445108400" lon="6.937818430">
  <ele>2470.900000</ele>
<time>2017-08-15T09:27:04Z</time>
</trkpt>
<trkpt lat="45.445203450" lon="6.937916670">
  <ele>2469.800000</ele>
<time>2017-08-15T09:27:06Z</time>
</trkpt>
<trkpt lat="45.445291790" lon="6.937975010">
  <ele>2468.600000</ele>
<time>2017-08-15T09:27:08Z</time>
</trkpt>
<trkpt lat="45.445360020" lon="6.938080120">
  <ele>2467.500000</ele>
<time>2017-08-15T09:27:10Z</time>
</trkpt>
<trkpt lat="45.445471670" lon="6.938086820">
  <ele>2466.500000</ele>
<time>2017-08-15T09:27:12Z</time>
</trkpt>
<trkpt lat="45.445590020" lon="6.938136780">
  <ele>2465.500000</ele>
<time>2017-08-15T09:27:14Z</time>
</trkpt>
<trkpt lat="45.445676690" lon="6.938271730">
  <ele>2464.700000</ele>
<time>2017-08-15T09:27:16Z</time>
</trkpt>
<trkpt lat="45.445761680" lon="6.938316820">
  <ele>2463.800000</ele>
<time>2017-08-15T09:27:18Z</time>
</trkpt>
<trkpt lat="45.445821700" lon="6.938198470">
  <ele>2462.900000</ele>
<time>2017-08-15T09:27:20Z</time>
</trkpt>
<trkpt lat="45.445940050" lon="6.938190090">
  <ele>2461.800000</ele>
<time>2017-08-15T09:27:22Z</time>
</trkpt>
<trkpt lat="45.446066780" lon="6.938310120">
  <ele>2460.500000</ele>
<time>2017-08-15T09:27:24Z</time>
</trkpt>
<trkpt lat="45.446168370" lon="6.938423440">
  <ele>2459.000000</ele>
<time>2017-08-15T09:27:26Z</time>
</trkpt>
<trkpt lat="45.446236770" lon="6.938326710">
  <ele>2457.100000</ele>
<time>2017-08-15T09:27:29Z</time>
</trkpt>
<trkpt lat="45.446346740" lon="6.938345150">
  <ele>2455.100000</ele>
<time>2017-08-15T09:27:32Z</time>
</trkpt>
<trkpt lat="45.446400050" lon="6.938471720">
  <ele>2453.200000</ele>
<time>2017-08-15T09:27:34Z</time>
</trkpt>
<trkpt lat="45.446500130" lon="6.938370130">
  <ele>2450.800000</ele>
<time>2017-08-15T09:27:37Z</time>
</trkpt>
<trkpt lat="45.446610100" lon="6.938313470">
  <ele>2449.300000</ele>
<time>2017-08-15T09:27:39Z</time>
</trkpt>
<trkpt lat="45.446691740" lon="6.938201820">
  <ele>2447.200000</ele>
<time>2017-08-15T09:27:41Z</time>
</trkpt>
<trkpt lat="45.446800030" lon="6.938100070">
  <ele>2445.200000</ele>
<time>2017-08-15T09:27:43Z</time>
</trkpt>
<trkpt lat="45.446915030" lon="6.938001830">
  <ele>2443.500000</ele>
<time>2017-08-15T09:27:45Z</time>
</trkpt>
<trkpt lat="45.447043440" lon="6.937941820">
  <ele>2442.000000</ele>
<time>2017-08-15T09:27:47Z</time>
</trkpt>
<trkpt lat="45.447191800" lon="6.937926730">
  <ele>2440.400000</ele>
<time>2017-08-15T09:27:49Z</time>
</trkpt>
<trkpt lat="45.447286680" lon="6.937885150">
  <ele>2438.900000</ele>
<time>2017-08-15T09:27:51Z</time>
</trkpt>
<trkpt lat="45.447378380" lon="6.937813400">
  <ele>2437.400000</ele>
<time>2017-08-15T09:27:53Z</time>
</trkpt>
<trkpt lat="45.447505120" lon="6.937876770">
  <ele>2436.100000</ele>
<time>2017-08-15T09:27:55Z</time>
</trkpt>
<trkpt lat="45.447613410" lon="6.937868390">
  <ele>2434.300000</ele>
<time>2017-08-15T09:27:57Z</time>
</trkpt>
<trkpt lat="45.447728410" lon="6.937860010">
  <ele>2432.700000</ele>
<time>2017-08-15T09:27:59Z</time>
</trkpt>
<trkpt lat="45.447781720" lon="6.937726740">
  <ele>2430.500000</ele>
<time>2017-08-15T09:28:02Z</time>
</trkpt>
<trkpt lat="45.447890010" lon="6.937645100">
  <ele>2428.300000</ele>
<time>2017-08-15T09:28:05Z</time>
</trkpt>
<trkpt lat="45.448041730" lon="6.937655150">
  <ele>2426.900000</ele>
<time>2017-08-15T09:28:07Z</time>
</trkpt>
<trkpt lat="45.448200140" lon="6.937643420">
  <ele>2425.400000</ele>
<time>2017-08-15T09:28:09Z</time>
</trkpt>
<trkpt lat="45.448353370" lon="6.937656830">
  <ele>2423.800000</ele>
<time>2017-08-15T09:28:11Z</time>
</trkpt>
<trkpt lat="45.448500050" lon="6.937700080">
  <ele>2422.400000</ele>
<time>2017-08-15T09:28:13Z</time>
</trkpt>
<trkpt lat="45.448633490" lon="6.937748360">
  <ele>2421.100000</ele>
<time>2017-08-15T09:28:15Z</time>
</trkpt>
<trkpt lat="45.448741780" lon="6.937843410">
  <ele>2420.000000</ele>
<time>2017-08-15T09:28:17Z</time>
</trkpt>
<trkpt lat="45.448846720" lon="6.937968470">
  <ele>2418.900000</ele>
<time>2017-08-15T09:28:19Z</time>
</trkpt>
<trkpt lat="45.448930040" lon="6.938105100">
  <ele>2417.900000</ele>
<time>2017-08-15T09:28:21Z</time>
</trkpt>
<trkpt lat="45.449013360" lon="6.938201820">
  <ele>2416.900000</ele>
<time>2017-08-15T09:28:23Z</time>
</trkpt>
<trkpt lat="45.449091810" lon="6.938281790">
  <ele>2416.000000</ele>
<time>2017-08-15T09:28:25Z</time>
</trkpt>
<trkpt lat="45.449170100" lon="6.938360070">
  <ele>2415.200000</ele>
<time>2017-08-15T09:28:27Z</time>
</trkpt>
<trkpt lat="45.449285100" lon="6.938350010">
  <ele>2414.300000</ele>
<time>2017-08-15T09:28:30Z</time>
</trkpt>
<trkpt lat="45.449270010" lon="6.938223450">
  <ele>2410.300000</ele>
<time>2017-08-15T09:29:17Z</time>
</trkpt>
<trkpt lat="45.449206810" lon="6.938100070">
  <ele>2410.400000</ele>
<time>2017-08-15T09:29:28Z</time>
</trkpt>
<trkpt lat="45.449105050" lon="6.938016750">
  <ele>2410.400000</ele>
<time>2017-08-15T09:29:32Z</time>
</trkpt>
<trkpt lat="45.449001790" lon="6.937946680">
  <ele>2410.500000</ele>
<time>2017-08-15T09:29:36Z</time>
</trkpt>
<trkpt lat="45.448920150" lon="6.937891690">
  <ele>2411.000000</ele>
<time>2017-08-15T09:29:39Z</time>
</trkpt>
<trkpt lat="45.448811690" lon="6.937816760">
  <ele>2412.000000</ele>
<time>2017-08-15T09:29:43Z</time>
</trkpt>
<trkpt lat="45.448705070" lon="6.937738470">
  <ele>2413.300000</ele>
<time>2017-08-15T09:29:47Z</time>
</trkpt>
<trkpt lat="45.448600130" lon="6.937660020">
  <ele>2414.600000</ele>
<time>2017-08-15T09:29:51Z</time>
</trkpt>
<trkpt lat="45.448518490" lon="6.937603350">
  <ele>2415.800000</ele>
<time>2017-08-15T09:29:54Z</time>
</trkpt>
<trkpt lat="45.448411700" lon="6.937521710">
  <ele>2417.600000</ele>
<time>2017-08-15T09:29:58Z</time>
</trkpt>
<trkpt lat="45.448305090" lon="6.937450130">
  <ele>2419.300000</ele>
<time>2017-08-15T09:30:02Z</time>
</trkpt>
<trkpt lat="45.448223450" lon="6.937395150">
  <ele>2420.400000</ele>
<time>2017-08-15T09:30:05Z</time>
</trkpt>
<trkpt lat="45.448143480" lon="6.937330100">
  <ele>2421.300000</ele>
<time>2017-08-15T09:30:08Z</time>
</trkpt>
<trkpt lat="45.448063350" lon="6.937265060">
  <ele>2422.300000</ele>
<time>2017-08-15T09:30:11Z</time>
</trkpt>
<trkpt lat="45.447983390" lon="6.937201690">
  <ele>2423.400000</ele>
<time>2017-08-15T09:30:14Z</time>
</trkpt>
<trkpt lat="45.447903420" lon="6.937141680">
  <ele>2424.400000</ele>
<time>2017-08-15T09:30:17Z</time>
</trkpt>
<trkpt lat="45.447823460" lon="6.937076800">
  <ele>2425.500000</ele>
<time>2017-08-15T09:30:20Z</time>
</trkpt>
<trkpt lat="45.447745010" lon="6.937010080">
  <ele>2426.700000</ele>
<time>2017-08-15T09:30:23Z</time>
</trkpt>
<trkpt lat="45.447666720" lon="6.936946720">
  <ele>2428.200000</ele>
<time>2017-08-15T09:30:26Z</time>
</trkpt>
<trkpt lat="45.447583400" lon="6.936886700">
  <ele>2429.700000</ele>
<time>2017-08-15T09:30:29Z</time>
</trkpt>
<trkpt lat="45.447498410" lon="6.936826690">
  <ele>2431.200000</ele>
<time>2017-08-15T09:30:32Z</time>
</trkpt>
<trkpt lat="45.447396820" lon="6.936745050">
  <ele>2433.600000</ele>
<time>2017-08-15T09:30:36Z</time>
</trkpt>
<trkpt lat="45.447316690" lon="6.936685030">
  <ele>2435.800000</ele>
<time>2017-08-15T09:30:39Z</time>
</trkpt>
<trkpt lat="45.447240080" lon="6.936616800">
  <ele>2438.000000</ele>
<time>2017-08-15T09:30:42Z</time>
</trkpt>
<trkpt lat="45.447138490" lon="6.936541700">
  <ele>2440.700000</ele>
<time>2017-08-15T09:30:46Z</time>
</trkpt>
<trkpt lat="45.447036740" lon="6.936465090">
  <ele>2443.300000</ele>
<time>2017-08-15T09:30:50Z</time>
</trkpt>
<trkpt lat="45.446936820" lon="6.936388480">
  <ele>2445.800000</ele>
<time>2017-08-15T09:30:54Z</time>
</trkpt>
<trkpt lat="45.446835070" lon="6.936310030">
  <ele>2448.300000</ele>
<time>2017-08-15T09:30:58Z</time>
</trkpt>
<trkpt lat="45.446731800" lon="6.936245150">
  <ele>2450.600000</ele>
<time>2017-08-15T09:31:02Z</time>
</trkpt>
<trkpt lat="45.446626690" lon="6.936173400">
  <ele>2452.400000</ele>
<time>2017-08-15T09:31:06Z</time>
</trkpt>
<trkpt lat="45.446543380" lon="6.936110030">
  <ele>2453.600000</ele>
<time>2017-08-15T09:31:09Z</time>
</trkpt>
<trkpt lat="45.446436760" lon="6.936033420">
  <ele>2455.100000</ele>
<time>2017-08-15T09:31:13Z</time>
</trkpt>
<trkpt lat="45.446335000" lon="6.935948430">
  <ele>2456.500000</ele>
<time>2017-08-15T09:31:17Z</time>
</trkpt>
<trkpt lat="45.446233410" lon="6.935865120">
  <ele>2458.000000</ele>
<time>2017-08-15T09:31:21Z</time>
</trkpt>
<trkpt lat="45.446155130" lon="6.935801750">
  <ele>2459.100000</ele>
<time>2017-08-15T09:31:24Z</time>
</trkpt>
<trkpt lat="45.446076670" lon="6.935738380">
  <ele>2460.400000</ele>
<time>2017-08-15T09:31:27Z</time>
</trkpt>
<trkpt lat="45.445966700" lon="6.935655060">
  <ele>2462.300000</ele>
<time>2017-08-15T09:31:31Z</time>
</trkpt>
<trkpt lat="45.445885060" lon="6.935593370">
  <ele>2463.800000</ele>
<time>2017-08-15T09:31:34Z</time>
</trkpt>
<trkpt lat="45.445791690" lon="6.935513410">
  <ele>2465.500000</ele>
<time>2017-08-15T09:31:38Z</time>
</trkpt>
<trkpt lat="45.445696800" lon="6.935430090">
  <ele>2467.000000</ele>
<time>2017-08-15T09:31:42Z</time>
</trkpt>
<trkpt lat="45.445596720" lon="6.935348450">
  <ele>2468.300000</ele>
<time>2017-08-15T09:31:46Z</time>
</trkpt>
<trkpt lat="45.445491780" lon="6.935266820">
  <ele>2469.600000</ele>
<time>2017-08-15T09:31:50Z</time>
</trkpt>
<trkpt lat="45.445411820" lon="6.935205120">
  <ele>2470.600000</ele>
<time>2017-08-15T09:31:53Z</time>
</trkpt>
<trkpt lat="45.445310060" lon="6.935121810">
  <ele>2472.000000</ele>
<time>2017-08-15T09:31:57Z</time>
</trkpt>
<trkpt lat="45.445228420" lon="6.935056760">
  <ele>2473.300000</ele>
<time>2017-08-15T09:32:00Z</time>
</trkpt>
<trkpt lat="45.445145110" lon="6.934980150">
  <ele>2474.500000</ele>
<time>2017-08-15T09:32:03Z</time>
</trkpt>
<trkpt lat="45.445066820" lon="6.934913430">
  <ele>2475.900000</ele>
<time>2017-08-15T09:32:06Z</time>
</trkpt>
<trkpt lat="45.444966740" lon="6.934836820">
  <ele>2477.800000</ele>
<time>2017-08-15T09:32:10Z</time>
</trkpt>
<trkpt lat="45.444865150" lon="6.934766750">
  <ele>2479.300000</ele>
<time>2017-08-15T09:32:14Z</time>
</trkpt>
<trkpt lat="45.444765070" lon="6.934683430">
  <ele>2480.600000</ele>
<time>2017-08-15T09:32:18Z</time>
</trkpt>
<trkpt lat="45.444665160" lon="6.934601790">
  <ele>2481.700000</ele>
<time>2017-08-15T09:32:22Z</time>
</trkpt>
<trkpt lat="45.444586710" lon="6.934536750">
  <ele>2482.600000</ele>
<time>2017-08-15T09:32:25Z</time>
</trkpt>
<trkpt lat="45.444506740" lon="6.934471710">
  <ele>2483.500000</ele>
<time>2017-08-15T09:32:28Z</time>
</trkpt>
<trkpt lat="45.444428460" lon="6.934408340">
  <ele>2484.400000</ele>
<time>2017-08-15T09:32:31Z</time>
</trkpt>
<trkpt lat="45.444343460" lon="6.934340110">
  <ele>2485.400000</ele>
<time>2017-08-15T09:32:34Z</time>
</trkpt>
<trkpt lat="45.444261820" lon="6.934263330">
  <ele>2486.500000</ele>
<time>2017-08-15T09:32:37Z</time>
</trkpt>
<trkpt lat="45.444158390" lon="6.934183370">
  <ele>2488.000000</ele>
<time>2017-08-15T09:32:41Z</time>
</trkpt>
<trkpt lat="45.444056800" lon="6.934101730">
  <ele>2489.600000</ele>
<time>2017-08-15T09:32:45Z</time>
</trkpt>
<trkpt lat="45.443958400" lon="6.934026800">
  <ele>2491.000000</ele>
<time>2017-08-15T09:32:49Z</time>
</trkpt>
<trkpt lat="45.443855130" lon="6.933950020">
  <ele>2492.300000</ele>
<time>2017-08-15T09:32:53Z</time>
</trkpt>
<trkpt lat="45.443748350" lon="6.933875080">
  <ele>2493.600000</ele>
<time>2017-08-15T09:32:57Z</time>
</trkpt>
<trkpt lat="45.443668380" lon="6.933813390">
  <ele>2494.600000</ele>
<time>2017-08-15T09:33:00Z</time>
</trkpt>
<trkpt lat="45.443585070" lon="6.933751700">
  <ele>2495.800000</ele>
<time>2017-08-15T09:33:03Z</time>
</trkpt>
<trkpt lat="45.443485160" lon="6.933668390">
  <ele>2497.400000</ele>
<time>2017-08-15T09:33:07Z</time>
</trkpt>
<trkpt lat="45.443381720" lon="6.933586750">
  <ele>2499.200000</ele>
<time>2017-08-15T09:33:11Z</time>
</trkpt>
<trkpt lat="45.443283490" lon="6.933508460">
  <ele>2501.200000</ele>
<time>2017-08-15T09:33:15Z</time>
</trkpt>
<trkpt lat="45.443200000" lon="6.933446770">
  <ele>2502.600000</ele>
<time>2017-08-15T09:33:18Z</time>
</trkpt>
<trkpt lat="45.443118360" lon="6.933385080">
  <ele>2503.700000</ele>
<time>2017-08-15T09:33:21Z</time>
</trkpt>
<trkpt lat="45.443011750" lon="6.933306790">
  <ele>2504.900000</ele>
<time>2017-08-15T09:33:25Z</time>
</trkpt>
<trkpt lat="45.442930110" lon="6.933246780">
  <ele>2505.600000</ele>
<time>2017-08-15T09:33:28Z</time>
</trkpt>
<trkpt lat="45.442826670" lon="6.933168490">
  <ele>2506.200000</ele>
<time>2017-08-15T09:33:32Z</time>
</trkpt>
<trkpt lat="45.442723410" lon="6.933085010">
  <ele>2506.600000</ele>
<time>2017-08-15T09:33:36Z</time>
</trkpt>
<trkpt lat="45.442625000" lon="6.933008400">
  <ele>2506.900000</ele>
<time>2017-08-15T09:33:40Z</time>
</trkpt>
<trkpt lat="45.442545040" lon="6.932946700">
  <ele>2507.000000</ele>
<time>2017-08-15T09:33:43Z</time>
</trkpt>
<trkpt lat="45.442463400" lon="6.932885010">
  <ele>2507.100000</ele>
<time>2017-08-15T09:33:46Z</time>
</trkpt>
<trkpt lat="45.442381760" lon="6.932825170">
  <ele>2507.200000</ele>
<time>2017-08-15T09:33:49Z</time>
</trkpt>
<trkpt lat="45.442301800" lon="6.932763480">
  <ele>2507.300000</ele>
<time>2017-08-15T09:33:52Z</time>
</trkpt>
<trkpt lat="45.442196690" lon="6.932680160">
  <ele>2507.400000</ele>
<time>2017-08-15T09:33:56Z</time>
</trkpt>
<trkpt lat="45.442095100" lon="6.932600030">
  <ele>2507.500000</ele>
<time>2017-08-15T09:34:00Z</time>
</trkpt>
<trkpt lat="45.441991670" lon="6.932518390">
  <ele>2507.400000</ele>
<time>2017-08-15T09:34:04Z</time>
</trkpt>
<trkpt lat="45.441908350" lon="6.932456700">
  <ele>2507.300000</ele>
<time>2017-08-15T09:34:07Z</time>
</trkpt>
<trkpt lat="45.441828390" lon="6.932391820">
  <ele>2507.200000</ele>
<time>2017-08-15T09:34:10Z</time>
</trkpt>
<trkpt lat="45.441745070" lon="6.932321750">
  <ele>2507.100000</ele>
<time>2017-08-15T09:34:13Z</time>
</trkpt>
<trkpt lat="45.441663430" lon="6.932261740">
  <ele>2507.100000</ele>
<time>2017-08-15T09:34:16Z</time>
</trkpt>
<trkpt lat="45.441561680" lon="6.932183450">
  <ele>2507.000000</ele>
<time>2017-08-15T09:34:20Z</time>
</trkpt>
<trkpt lat="45.441458410" lon="6.932108350">
  <ele>2507.100000</ele>
<time>2017-08-15T09:34:24Z</time>
</trkpt>
<trkpt lat="45.441355150" lon="6.932026710">
  <ele>2507.300000</ele>
<time>2017-08-15T09:34:28Z</time>
</trkpt>
<trkpt lat="45.441276690" lon="6.931961830">
  <ele>2507.400000</ele>
<time>2017-08-15T09:34:31Z</time>
</trkpt>
<trkpt lat="45.441173430" lon="6.931880020">
  <ele>2507.600000</ele>
<time>2017-08-15T09:34:35Z</time>
</trkpt>
<trkpt lat="45.441088430" lon="6.931823360">
  <ele>2507.700000</ele>
<time>2017-08-15T09:34:38Z</time>
</trkpt>
<trkpt lat="45.440985000" lon="6.931743400">
  <ele>2507.800000</ele>
<time>2017-08-15T09:34:42Z</time>
</trkpt>
<trkpt lat="45.440880060" lon="6.931658410">
  <ele>2507.900000</ele>
<time>2017-08-15T09:34:46Z</time>
</trkpt>
<trkpt lat="45.440800100" lon="6.931596720">
  <ele>2507.900000</ele>
<time>2017-08-15T09:34:49Z</time>
</trkpt>
<trkpt lat="45.440720130" lon="6.931531670">
  <ele>2508.000000</ele>
<time>2017-08-15T09:34:52Z</time>
</trkpt>
<trkpt lat="45.440641680" lon="6.931468470">
  <ele>2508.200000</ele>
<time>2017-08-15T09:34:55Z</time>
</trkpt>
<trkpt lat="45.440540090" lon="6.931386830">
  <ele>2508.600000</ele>
<time>2017-08-15T09:34:59Z</time>
</trkpt>
<trkpt lat="45.440438330" lon="6.931308380">
  <ele>2509.300000</ele>
<time>2017-08-15T09:35:03Z</time>
</trkpt>
<trkpt lat="45.440333390" lon="6.931226740">
  <ele>2510.400000</ele>
<time>2017-08-15T09:35:07Z</time>
</trkpt>
<trkpt lat="45.440253430" lon="6.931161690">
  <ele>2511.600000</ele>
<time>2017-08-15T09:35:10Z</time>
</trkpt>
<trkpt lat="45.440151670" lon="6.931078380">
  <ele>2513.500000</ele>
<time>2017-08-15T09:35:14Z</time>
</trkpt>
<trkpt lat="45.440051760" lon="6.931001770">
  <ele>2515.600000</ele>
<time>2017-08-15T09:35:18Z</time>
</trkpt>
<trkpt lat="45.439953360" lon="6.930921800">
  <ele>2518.100000</ele>
<time>2017-08-15T09:35:22Z</time>
</trkpt>
<trkpt lat="45.439853440" lon="6.930838490">
  <ele>2520.900000</ele>
<time>2017-08-15T09:35:26Z</time>
</trkpt>
<trkpt lat="45.439753360" lon="6.930758360">
  <ele>2524.000000</ele>
<time>2017-08-15T09:35:30Z</time>
</trkpt>
<trkpt lat="45.439653450" lon="6.930685100">
  <ele>2527.300000</ele>
<time>2017-08-15T09:35:34Z</time>
</trkpt>
<trkpt lat="45.439556730" lon="6.930610160">
  <ele>2530.800000</ele>
<time>2017-08-15T09:35:38Z</time>
</trkpt>
<trkpt lat="45.439453460" lon="6.930526680">
  <ele>2533.900000</ele>
<time>2017-08-15T09:35:42Z</time>
</trkpt>
<trkpt lat="45.439373500" lon="6.930465160">
  <ele>2536.100000</ele>
<time>2017-08-15T09:35:45Z</time>
</trkpt>
<trkpt lat="45.439271740" lon="6.930386700">
  <ele>2539.000000</ele>
<time>2017-08-15T09:35:49Z</time>
</trkpt>
<trkpt lat="45.439170150" lon="6.930305060">
  <ele>2541.600000</ele>
<time>2017-08-15T09:35:53Z</time>
</trkpt>
<trkpt lat="45.439066720" lon="6.930223420">
  <ele>2544.400000</ele>
<time>2017-08-15T09:35:57Z</time>
</trkpt>
<trkpt lat="45.438963450" lon="6.930140110">
  <ele>2547.200000</ele>
<time>2017-08-15T09:36:01Z</time>
</trkpt>
<trkpt lat="45.438863370" lon="6.930058470">
  <ele>2550.100000</ele>
<time>2017-08-15T09:36:05Z</time>
</trkpt>
<trkpt lat="45.438761790" lon="6.929981690">
  <ele>2553.200000</ele>
<time>2017-08-15T09:36:09Z</time>
</trkpt>
<trkpt lat="45.438678470" lon="6.929918490">
  <ele>2555.600000</ele>
<time>2017-08-15T09:36:12Z</time>
</trkpt>
<trkpt lat="45.438573360" lon="6.929836680">
  <ele>2558.700000</ele>
<time>2017-08-15T09:36:16Z</time>
</trkpt>
<trkpt lat="45.438493400" lon="6.929776670">
  <ele>2561.000000</ele>
<time>2017-08-15T09:36:19Z</time>
</trkpt>
<trkpt lat="45.438391810" lon="6.929698380">
  <ele>2564.000000</ele>
<time>2017-08-15T09:36:23Z</time>
</trkpt>
<trkpt lat="45.438291730" lon="6.929620090">
  <ele>2566.900000</ele>
<time>2017-08-15T09:36:27Z</time>
</trkpt>
<trkpt lat="45.438188460" lon="6.929538450">
  <ele>2569.900000</ele>
<time>2017-08-15T09:36:31Z</time>
</trkpt>
<trkpt lat="45.438086710" lon="6.929458490">
  <ele>2572.800000</ele>
<time>2017-08-15T09:36:35Z</time>
</trkpt>
<trkpt lat="45.437985120" lon="6.929380040">
  <ele>2575.200000</ele>
<time>2017-08-15T09:36:39Z</time>
</trkpt>
<trkpt lat="45.437880010" lon="6.929300070">
  <ele>2577.300000</ele>
<time>2017-08-15T09:36:43Z</time>
</trkpt>
<trkpt lat="45.437778420" lon="6.929221790">
  <ele>2579.200000</ele>
<time>2017-08-15T09:36:47Z</time>
</trkpt>
<trkpt lat="45.437675160" lon="6.929145010">
  <ele>2580.900000</ele>
<time>2017-08-15T09:36:51Z</time>
</trkpt>
<trkpt lat="45.437593350" lon="6.929083490">
  <ele>2582.300000</ele>
<time>2017-08-15T09:36:54Z</time>
</trkpt>
<trkpt lat="45.437511710" lon="6.929021790">
  <ele>2583.600000</ele>
<time>2017-08-15T09:36:57Z</time>
</trkpt>
<trkpt lat="45.437408440" lon="6.928943340">
  <ele>2585.600000</ele>
<time>2017-08-15T09:37:01Z</time>
</trkpt>
<trkpt lat="45.437308360" lon="6.928866730">
  <ele>2587.500000</ele>
<time>2017-08-15T09:37:05Z</time>
</trkpt>
<trkpt lat="45.437206770" lon="6.928785090">
  <ele>2589.700000</ele>
<time>2017-08-15T09:37:09Z</time>
</trkpt>
<trkpt lat="45.437105020" lon="6.928705130">
  <ele>2592.100000</ele>
<time>2017-08-15T09:37:13Z</time>
</trkpt>
<trkpt lat="45.437001750" lon="6.928626670">
  <ele>2594.500000</ele>
<time>2017-08-15T09:37:17Z</time>
</trkpt>
<trkpt lat="45.436898490" lon="6.928545030">
  <ele>2597.300000</ele>
<time>2017-08-15T09:37:21Z</time>
</trkpt>
<trkpt lat="45.436818360" lon="6.928481830">
  <ele>2599.500000</ele>
<time>2017-08-15T09:37:24Z</time>
</trkpt>
<trkpt lat="45.436720120" lon="6.928401700">
  <ele>2602.800000</ele>
<time>2017-08-15T09:37:28Z</time>
</trkpt>
<trkpt lat="45.436623390" lon="6.928326770">
  <ele>2606.200000</ele>
<time>2017-08-15T09:37:32Z</time>
</trkpt>
<trkpt lat="45.436525160" lon="6.928250160">
  <ele>2609.800000</ele>
<time>2017-08-15T09:37:36Z</time>
</trkpt>
<trkpt lat="45.436423400" lon="6.928176730">
  <ele>2613.500000</ele>
<time>2017-08-15T09:37:40Z</time>
</trkpt>
<trkpt lat="45.436316780" lon="6.928095090">
  <ele>2617.400000</ele>
<time>2017-08-15T09:37:44Z</time>
</trkpt>
<trkpt lat="45.436236820" lon="6.928030050">
  <ele>2620.300000</ele>
<time>2017-08-15T09:37:47Z</time>
</trkpt>
<trkpt lat="45.436138420" lon="6.927955110">
  <ele>2623.700000</ele>
<time>2017-08-15T09:37:51Z</time>
</trkpt>
<trkpt lat="45.436036830" lon="6.927876830">
  <ele>2626.900000</ele>
<time>2017-08-15T09:37:55Z</time>
</trkpt>
<trkpt lat="45.435958370" lon="6.927813460">
  <ele>2629.100000</ele>
<time>2017-08-15T09:37:58Z</time>
</trkpt>
<trkpt lat="45.435856790" lon="6.927730140">
  <ele>2632.000000</ele>
<time>2017-08-15T09:38:02Z</time>
</trkpt>
<trkpt lat="45.435758380" lon="6.927648340">
  <ele>2634.800000</ele>
<time>2017-08-15T09:38:06Z</time>
</trkpt>
<trkpt lat="45.435663500" lon="6.927568370">
  <ele>2637.700000</ele>
<time>2017-08-15T09:38:10Z</time>
</trkpt>
<trkpt lat="45.435563420" lon="6.927490090">
  <ele>2640.600000</ele>
<time>2017-08-15T09:38:14Z</time>
</trkpt>
<trkpt lat="45.435476750" lon="6.927420010">
  <ele>2642.900000</ele>
<time>2017-08-15T09:38:17Z</time>
</trkpt>
<trkpt lat="45.435393430" lon="6.927366700">
  <ele>2645.300000</ele>
<time>2017-08-15T09:38:20Z</time>
</trkpt>
<trkpt lat="45.435315150" lon="6.927303340">
  <ele>2647.400000</ele>
<time>2017-08-15T09:38:23Z</time>
</trkpt>
<trkpt lat="45.435235020" lon="6.927240140">
  <ele>2649.400000</ele>
<time>2017-08-15T09:38:26Z</time>
</trkpt>
<trkpt lat="45.435133430" lon="6.927156820">
  <ele>2652.200000</ele>
<time>2017-08-15T09:38:30Z</time>
</trkpt>
<trkpt lat="45.435035020" lon="6.927080040">
  <ele>2654.800000</ele>
<time>2017-08-15T09:38:34Z</time>
</trkpt>
<trkpt lat="45.434930080" lon="6.927005110">
  <ele>2657.400000</ele>
<time>2017-08-15T09:38:38Z</time>
</trkpt>
<trkpt lat="45.434826820" lon="6.926931680">
  <ele>2660.200000</ele>
<time>2017-08-15T09:38:42Z</time>
</trkpt>
<trkpt lat="45.434725060" lon="6.926851720">
  <ele>2663.000000</ele>
<time>2017-08-15T09:38:46Z</time>
</trkpt>
<trkpt lat="45.434628330" lon="6.926771760">
  <ele>2665.900000</ele>
<time>2017-08-15T09:38:50Z</time>
</trkpt>
<trkpt lat="45.434528420" lon="6.926693470">
  <ele>2668.900000</ele>
<time>2017-08-15T09:38:54Z</time>
</trkpt>
<trkpt lat="45.434426830" lon="6.926616690">
  <ele>2672.100000</ele>
<time>2017-08-15T09:38:58Z</time>
</trkpt>
<trkpt lat="45.434326750" lon="6.926540080">
  <ele>2675.600000</ele>
<time>2017-08-15T09:39:02Z</time>
</trkpt>
<trkpt lat="45.434230030" lon="6.926465150">
  <ele>2679.300000</ele>
<time>2017-08-15T09:39:06Z</time>
</trkpt>
<trkpt lat="45.434130110" lon="6.926388370">
  <ele>2683.300000</ele>
<time>2017-08-15T09:39:10Z</time>
</trkpt>
<trkpt lat="45.434033390" lon="6.926311760">
  <ele>2687.400000</ele>
<time>2017-08-15T09:39:14Z</time>
</trkpt>
<trkpt lat="45.433943360" lon="6.926233470">
  <ele>2691.600000</ele>
<time>2017-08-15T09:39:18Z</time>
</trkpt>
<trkpt lat="45.433851670" lon="6.926160040">
  <ele>2696.500000</ele>
<time>2017-08-15T09:39:22Z</time>
</trkpt>
<trkpt lat="45.433763490" lon="6.926093490">
  <ele>2701.800000</ele>
<time>2017-08-15T09:39:26Z</time>
</trkpt>
<trkpt lat="45.433675140" lon="6.926028450">
  <ele>2707.500000</ele>
<time>2017-08-15T09:39:30Z</time>
</trkpt>
<trkpt lat="45.433586800" lon="6.925961730">
  <ele>2713.600000</ele>
<time>2017-08-15T09:39:34Z</time>
</trkpt>
<trkpt lat="45.433500130" lon="6.925895010">
  <ele>2719.900000</ele>
<time>2017-08-15T09:39:38Z</time>
</trkpt>
<trkpt lat="45.433418490" lon="6.925825100">
  <ele>2726.600000</ele>
<time>2017-08-15T09:39:42Z</time>
</trkpt>
<trkpt lat="45.433335010" lon="6.925758380">
  <ele>2733.500000</ele>
<time>2017-08-15T09:39:46Z</time>
</trkpt>
<trkpt lat="45.433248340" lon="6.925686800">
  <ele>2740.400000</ele>
<time>2017-08-15T09:39:50Z</time>
</trkpt>
<trkpt lat="45.433145070" lon="6.925603490">
  <ele>2746.700000</ele>
<time>2017-08-15T09:39:54Z</time>
</trkpt>
<trkpt lat="45.433041810" lon="6.925523360">
  <ele>2751.800000</ele>
<time>2017-08-15T09:39:58Z</time>
</trkpt>
<trkpt lat="45.432956810" lon="6.925466690">
  <ele>2754.800000</ele>
<time>2017-08-15T09:40:01Z</time>
</trkpt>
<trkpt lat="45.432871820" lon="6.925423440">
  <ele>2759.600000</ele>
<time>2017-08-15T09:40:07Z</time>
</trkpt>
<trkpt lat="45.432766710" lon="6.925368460">
  <ele>2764.500000</ele>
<time>2017-08-15T09:40:18Z</time>
</trkpt>
<trkpt lat="45.432683400" lon="6.925300060">
  <ele>2765.000000</ele>
<time>2017-08-15T09:40:20Z</time>
</trkpt>
<trkpt lat="45.432593380" lon="6.925243400">
  <ele>2767.100000</ele>
<time>2017-08-15T09:43:38Z</time>
</trkpt>
<trkpt lat="45.432463460" lon="6.925191770">
  <ele>2766.900000</ele>
<time>2017-08-15T09:43:41Z</time>
</trkpt>
<trkpt lat="45.432353490" lon="6.925185060">
  <ele>2766.600000</ele>
<time>2017-08-15T09:43:43Z</time>
</trkpt>
<trkpt lat="45.432230100" lon="6.925223450">
  <ele>2766.300000</ele>
<time>2017-08-15T09:43:45Z</time>
</trkpt>
<trkpt lat="45.432100020" lon="6.925288490">
  <ele>2765.900000</ele>
<time>2017-08-15T09:43:47Z</time>
</trkpt>
<trkpt lat="45.431990050" lon="6.925345160">
  <ele>2765.500000</ele>
<time>2017-08-15T09:43:49Z</time>
</trkpt>
<trkpt lat="45.431885100" lon="6.925443390">
  <ele>2764.700000</ele>
<time>2017-08-15T09:43:53Z</time>
</trkpt>
<trkpt lat="45.431791730" lon="6.925580020">
  <ele>2763.400000</ele>
<time>2017-08-15T09:43:56Z</time>
</trkpt>
<trkpt lat="45.431690140" lon="6.925578340">
  <ele>2762.400000</ele>
<time>2017-08-15T09:43:58Z</time>
</trkpt>
<trkpt lat="45.431616720" lon="6.925661820">
  <ele>2761.500000</ele>
<time>2017-08-15T09:44:00Z</time>
</trkpt>
<trkpt lat="45.431540110" lon="6.925775150">
  <ele>2759.900000</ele>
<time>2017-08-15T09:44:02Z</time>
</trkpt>
<trkpt lat="45.431428460" lon="6.925765090">
  <ele>2758.600000</ele>
<time>2017-08-15T09:44:04Z</time>
</trkpt>
<trkpt lat="45.431365090" lon="6.925866680">
  <ele>2756.800000</ele>
<time>2017-08-15T09:44:07Z</time>
</trkpt>
<trkpt lat="45.431480090" lon="6.925948490">
  <ele>2754.700000</ele>
<time>2017-08-15T09:44:10Z</time>
</trkpt>
<trkpt lat="45.431371800" lon="6.926056780">
  <ele>2752.600000</ele>
<time>2017-08-15T09:44:13Z</time>
</trkpt>
<trkpt lat="45.431258470" lon="6.926128360">
  <ele>2751.100000</ele>
<time>2017-08-15T09:44:15Z</time>
</trkpt>
<trkpt lat="45.431296700" lon="6.926261800">
  <ele>2748.800000</ele>
<time>2017-08-15T09:44:18Z</time>
</trkpt>
<trkpt lat="45.431388390" lon="6.926293480">
  <ele>2746.800000</ele>
<time>2017-08-15T09:44:20Z</time>
</trkpt>
<trkpt lat="45.431321670" lon="6.926458440">
  <ele>2744.200000</ele>
<time>2017-08-15T09:44:23Z</time>
</trkpt>
<trkpt lat="45.431393420" lon="6.926543430">
  <ele>2741.100000</ele>
<time>2017-08-15T09:44:27Z</time>
</trkpt>
<trkpt lat="45.431488470" lon="6.926543430">
  <ele>2739.700000</ele>
<time>2017-08-15T09:44:29Z</time>
</trkpt>
<trkpt lat="45.431446730" lon="6.926668490">
  <ele>2737.300000</ele>
<time>2017-08-15T09:44:32Z</time>
</trkpt>
<trkpt lat="45.431385040" lon="6.926791710">
  <ele>2735.300000</ele>
<time>2017-08-15T09:44:35Z</time>
</trkpt>
<trkpt lat="45.431506750" lon="6.926861780">
  <ele>2733.200000</ele>
<time>2017-08-15T09:44:38Z</time>
</trkpt>
<trkpt lat="45.431558380" lon="6.926980130">
  <ele>2731.700000</ele>
<time>2017-08-15T09:44:40Z</time>
</trkpt>
<trkpt lat="45.431631800" lon="6.927121780">
  <ele>2730.200000</ele>
<time>2017-08-15T09:44:42Z</time>
</trkpt>
<trkpt lat="45.431710090" lon="6.927263440">
  <ele>2728.400000</ele>
<time>2017-08-15T09:44:44Z</time>
</trkpt>
<trkpt lat="45.431608330" lon="6.927356810">
  <ele>2726.000000</ele>
<time>2017-08-15T09:44:47Z</time>
</trkpt>
<trkpt lat="45.431516800" lon="6.927381790">
  <ele>2724.600000</ele>
<time>2017-08-15T09:44:49Z</time>
</trkpt>
<trkpt lat="45.431555030" lon="6.927553450">
  <ele>2721.300000</ele>
<time>2017-08-15T09:44:54Z</time>
</trkpt>
<trkpt lat="45.431618390" lon="6.927673480">
  <ele>2719.900000</ele>
<time>2017-08-15T09:44:56Z</time>
</trkpt>
<trkpt lat="45.431585030" lon="6.927805080">
  <ele>2717.700000</ele>
<time>2017-08-15T09:44:59Z</time>
</trkpt>
<trkpt lat="45.431578490" lon="6.927983440">
  <ele>2714.300000</ele>
<time>2017-08-15T09:45:04Z</time>
</trkpt>
<trkpt lat="45.431475060" lon="6.928005070">
  <ele>2712.200000</ele>
<time>2017-08-15T09:45:07Z</time>
</trkpt>
<trkpt lat="45.431498360" lon="6.928181760">
  <ele>2710.100000</ele>
<time>2017-08-15T09:45:10Z</time>
</trkpt>
<trkpt lat="45.431580000" lon="6.928320060">
  <ele>2708.900000</ele>
<time>2017-08-15T09:45:12Z</time>
</trkpt>
<trkpt lat="45.431611690" lon="6.928441770">
  <ele>2707.600000</ele>
<time>2017-08-15T09:45:14Z</time>
</trkpt>
<trkpt lat="45.431661810" lon="6.928590130">
  <ele>2705.600000</ele>
<time>2017-08-15T09:45:17Z</time>
</trkpt>
<trkpt lat="45.431765080" lon="6.928660030">
  <ele>2704.400000</ele>
<time>2017-08-15T09:45:19Z</time>
</trkpt>
<trkpt lat="45.431878400" lon="6.928755080">
  <ele>2702.900000</ele>
<time>2017-08-15T09:45:21Z</time>
</trkpt>
<trkpt lat="45.431988370" lon="6.928838400">
  <ele>2701.400000</ele>
<time>2017-08-15T09:45:23Z</time>
</trkpt>
<trkpt lat="45.432106720" lon="6.928878460">
  <ele>2699.800000</ele>
<time>2017-08-15T09:45:25Z</time>
</trkpt>
<trkpt lat="45.432216690" lon="6.928876790">
  <ele>2698.200000</ele>
<time>2017-08-15T09:45:27Z</time>
</trkpt>
<trkpt lat="45.432320130" lon="6.928916690">
  <ele>2696.900000</ele>
<time>2017-08-15T09:45:29Z</time>
</trkpt>
<trkpt lat="45.432415010" lon="6.929005030">
  <ele>2695.600000</ele>
<time>2017-08-15T09:45:31Z</time>
</trkpt>
<trkpt lat="45.432495140" lon="6.929111820">
  <ele>2694.200000</ele>
<time>2017-08-15T09:45:33Z</time>
</trkpt>
<trkpt lat="45.432508380" lon="6.929291690">
  <ele>2692.300000</ele>
<time>2017-08-15T09:45:36Z</time>
</trkpt>
<trkpt lat="45.432481730" lon="6.929455140">
  <ele>2690.300000</ele>
<time>2017-08-15T09:45:39Z</time>
</trkpt>
<trkpt lat="45.432380140" lon="6.929483470">
  <ele>2686.800000</ele>
<time>2017-08-15T09:45:45Z</time>
</trkpt>
<trkpt lat="45.432276710" lon="6.929458490">
  <ele>2684.500000</ele>
<time>2017-08-15T09:45:50Z</time>
</trkpt>
<trkpt lat="45.432183500" lon="6.929463350">
  <ele>2683.400000</ele>
<time>2017-08-15T09:45:53Z</time>
</trkpt>
<trkpt lat="45.432076710" lon="6.929461680">
  <ele>2682.300000</ele>
<time>2017-08-15T09:45:56Z</time>
</trkpt>
<trkpt lat="45.431966740" lon="6.929465030">
  <ele>2681.400000</ele>
<time>2017-08-15T09:45:59Z</time>
</trkpt>
<trkpt lat="45.431851740" lon="6.929470060">
  <ele>2680.600000</ele>
<time>2017-08-15T09:46:02Z</time>
</trkpt>
<trkpt lat="45.431725010" lon="6.929495040">
  <ele>2679.900000</ele>
<time>2017-08-15T09:46:05Z</time>
</trkpt>
<trkpt lat="45.431630130" lon="6.929508450">
  <ele>2679.400000</ele>
<time>2017-08-15T09:46:07Z</time>
</trkpt>
<trkpt lat="45.431513450" lon="6.929523370">
  <ele>2678.800000</ele>
<time>2017-08-15T09:46:09Z</time>
</trkpt>
<trkpt lat="45.431381690" lon="6.929528400">
  <ele>2678.300000</ele>
<time>2017-08-15T09:46:11Z</time>
</trkpt>
<trkpt lat="45.431248420" lon="6.929548350">
  <ele>2677.800000</ele>
<time>2017-08-15T09:46:13Z</time>
</trkpt>
<trkpt lat="45.431116820" lon="6.929578350">
  <ele>2677.400000</ele>
<time>2017-08-15T09:46:15Z</time>
</trkpt>
<trkpt lat="45.430983380" lon="6.929601820">
  <ele>2676.900000</ele>
<time>2017-08-15T09:46:17Z</time>
</trkpt>
<trkpt lat="45.430856810" lon="6.929605010">
  <ele>2676.500000</ele>
<time>2017-08-15T09:46:19Z</time>
</trkpt>
<trkpt lat="45.430736780" lon="6.929580030">
  <ele>2676.100000</ele>
<time>2017-08-15T09:46:21Z</time>
</trkpt>
<trkpt lat="45.430640060" lon="6.929478440">
  <ele>2675.600000</ele>
<time>2017-08-15T09:46:23Z</time>
</trkpt>
<trkpt lat="45.430600160" lon="6.929323380">
  <ele>2675.200000</ele>
<time>2017-08-15T09:46:25Z</time>
</trkpt>
<trkpt lat="45.430556740" lon="6.929203350">
  <ele>2674.400000</ele>
<time>2017-08-15T09:46:28Z</time>
</trkpt>
<trkpt lat="45.430516680" lon="6.929328400">
  <ele>2673.300000</ele>
<time>2017-08-15T09:46:31Z</time>
</trkpt>
<trkpt lat="45.430473420" lon="6.929453460">
  <ele>2672.600000</ele>
<time>2017-08-15T09:46:33Z</time>
</trkpt>
<trkpt lat="45.430381730" lon="6.929556730">
  <ele>2672.000000</ele>
<time>2017-08-15T09:46:35Z</time>
</trkpt>
<trkpt lat="45.430291700" lon="6.929651780">
  <ele>2671.300000</ele>
<time>2017-08-15T09:46:37Z</time>
</trkpt>
<trkpt lat="45.430276790" lon="6.929826790">
  <ele>2670.600000</ele>
<time>2017-08-15T09:46:40Z</time>
</trkpt>
<trkpt lat="45.430320040" lon="6.929978340">
  <ele>2670.100000</ele>
<time>2017-08-15T09:46:42Z</time>
</trkpt>
<trkpt lat="45.430355070" lon="6.930148490">
  <ele>2669.700000</ele>
<time>2017-08-15T09:46:44Z</time>
</trkpt>
<trkpt lat="45.430368480" lon="6.930340100">
  <ele>2669.400000</ele>
<time>2017-08-15T09:46:46Z</time>
</trkpt>
<trkpt lat="45.430341830" lon="6.930545120">
  <ele>2668.800000</ele>
<time>2017-08-15T09:46:48Z</time>
</trkpt>
<trkpt lat="45.430353400" lon="6.930755000">
  <ele>2667.900000</ele>
<time>2017-08-15T09:46:50Z</time>
</trkpt>
<trkpt lat="45.430376700" lon="6.930961700">
  <ele>2666.900000</ele>
<time>2017-08-15T09:46:52Z</time>
</trkpt>
<trkpt lat="45.430356750" lon="6.931118440">
  <ele>2666.100000</ele>
<time>2017-08-15T09:46:54Z</time>
</trkpt>
<trkpt lat="45.430306790" lon="6.930988360">
  <ele>2664.200000</ele>
<time>2017-08-15T09:46:58Z</time>
</trkpt>
<trkpt lat="45.430273430" lon="6.930846700">
  <ele>2663.200000</ele>
<time>2017-08-15T09:47:00Z</time>
</trkpt>
<trkpt lat="45.430196820" lon="6.930736730">
  <ele>2662.500000</ele>
<time>2017-08-15T09:47:02Z</time>
</trkpt>
<trkpt lat="45.430108480" lon="6.930646710">
  <ele>2661.700000</ele>
<time>2017-08-15T09:47:04Z</time>
</trkpt>
<trkpt lat="45.430023480" lon="6.930571780">
  <ele>2661.000000</ele>
<time>2017-08-15T09:47:06Z</time>
</trkpt>
<trkpt lat="45.429915020" lon="6.930570100">
  <ele>2660.500000</ele>
<time>2017-08-15T09:47:08Z</time>
</trkpt>
<trkpt lat="45.429841760" lon="6.930663470">
  <ele>2659.700000</ele>
<time>2017-08-15T09:47:10Z</time>
</trkpt>
<trkpt lat="45.429800020" lon="6.930816700">
  <ele>2659.100000</ele>
<time>2017-08-15T09:47:12Z</time>
</trkpt>
<trkpt lat="45.429805050" lon="6.930961700">
  <ele>2658.600000</ele>
<time>2017-08-15T09:47:14Z</time>
</trkpt>
<trkpt lat="45.429723410" lon="6.930903360">
  <ele>2657.000000</ele>
<time>2017-08-15T09:47:19Z</time>
</trkpt>
<trkpt lat="45.429705140" lon="6.930738410">
  <ele>2656.200000</ele>
<time>2017-08-15T09:47:21Z</time>
</trkpt>
<trkpt lat="45.429701790" lon="6.930566750">
  <ele>2655.500000</ele>
<time>2017-08-15T09:47:23Z</time>
</trkpt>
<trkpt lat="45.429725090" lon="6.930396760">
  <ele>2654.800000</ele>
<time>2017-08-15T09:47:25Z</time>
</trkpt>
<trkpt lat="45.429755100" lon="6.930245050">
  <ele>2654.100000</ele>
<time>2017-08-15T09:47:27Z</time>
</trkpt>
<trkpt lat="45.429645120" lon="6.930225100">
  <ele>2652.600000</ele>
<time>2017-08-15T09:47:31Z</time>
</trkpt>
<trkpt lat="45.429553430" lon="6.930325010">
  <ele>2651.500000</ele>
<time>2017-08-15T09:47:33Z</time>
</trkpt>
<trkpt lat="45.429493410" lon="6.930456780">
  <ele>2650.700000</ele>
<time>2017-08-15T09:47:35Z</time>
</trkpt>
<trkpt lat="45.429398360" lon="6.930560040">
  <ele>2649.100000</ele>
<time>2017-08-15T09:47:38Z</time>
</trkpt>
<trkpt lat="45.429308340" lon="6.930668340">
  <ele>2647.600000</ele>
<time>2017-08-15T09:47:40Z</time>
</trkpt>
<trkpt lat="45.429218490" lon="6.930801780">
  <ele>2646.000000</ele>
<time>2017-08-15T09:47:42Z</time>
</trkpt>
<trkpt lat="45.429130140" lon="6.930963380">
  <ele>2644.600000</ele>
<time>2017-08-15T09:47:44Z</time>
</trkpt>
<trkpt lat="45.429063420" lon="6.931061780">
  <ele>2643.400000</ele>
<time>2017-08-15T09:47:46Z</time>
</trkpt>
<trkpt lat="45.428980100" lon="6.931135040">
  <ele>2642.200000</ele>
<time>2017-08-15T09:47:48Z</time>
</trkpt>
<trkpt lat="45.428895110" lon="6.931213490">
  <ele>2641.400000</ele>
<time>2017-08-15T09:47:50Z</time>
</trkpt>
<trkpt lat="45.428778440" lon="6.931296810">
  <ele>2640.300000</ele>
<time>2017-08-15T09:47:53Z</time>
</trkpt>
<trkpt lat="45.428665110" lon="6.931341740">
  <ele>2639.500000</ele>
<time>2017-08-15T09:47:56Z</time>
</trkpt>
<trkpt lat="45.428533350" lon="6.931365040">
  <ele>2638.800000</ele>
<time>2017-08-15T09:47:59Z</time>
</trkpt>
<trkpt lat="45.428405110" lon="6.931353470">
  <ele>2638.400000</ele>
<time>2017-08-15T09:48:02Z</time>
</trkpt>
<trkpt lat="45.428278370" lon="6.931398400">
  <ele>2638.000000</ele>
<time>2017-08-15T09:48:05Z</time>
</trkpt>
<trkpt lat="45.428188350" lon="6.931515080">
  <ele>2637.700000</ele>
<time>2017-08-15T09:48:08Z</time>
</trkpt>
<trkpt lat="45.428063460" lon="6.931591690">
  <ele>2637.500000</ele>
<time>2017-08-15T09:48:11Z</time>
</trkpt>
<trkpt lat="45.427990030" lon="6.931681710">
  <ele>2637.300000</ele>
<time>2017-08-15T09:48:13Z</time>
</trkpt>
<trkpt lat="45.427923480" lon="6.931788490">
  <ele>2637.200000</ele>
<time>2017-08-15T09:48:15Z</time>
</trkpt>
<trkpt lat="45.427843350" lon="6.931855050">
  <ele>2637.200000</ele>
<time>2017-08-15T09:48:17Z</time>
</trkpt>
<trkpt lat="45.427755010" lon="6.931905000">
  <ele>2637.100000</ele>
<time>2017-08-15T09:48:19Z</time>
</trkpt>
<trkpt lat="45.427656770" lon="6.931910030">
  <ele>2637.100000</ele>
<time>2017-08-15T09:48:22Z</time>
</trkpt>
<trkpt lat="45.427545120" lon="6.931841800">
  <ele>2637.000000</ele>
<time>2017-08-15T09:48:25Z</time>
</trkpt>
<trkpt lat="45.427476730" lon="6.931756810">
  <ele>2637.000000</ele>
<time>2017-08-15T09:48:27Z</time>
</trkpt>
<trkpt lat="45.427403470" lon="6.931655050">
  <ele>2637.000000</ele>
<time>2017-08-15T09:48:29Z</time>
</trkpt>
<trkpt lat="45.427325010" lon="6.931540050">
  <ele>2636.900000</ele>
<time>2017-08-15T09:48:31Z</time>
</trkpt>
<trkpt lat="45.427246730" lon="6.931431760">
  <ele>2636.700000</ele>
<time>2017-08-15T09:48:33Z</time>
</trkpt>
<trkpt lat="45.427166760" lon="6.931338380">
  <ele>2636.600000</ele>
<time>2017-08-15T09:48:35Z</time>
</trkpt>
<trkpt lat="45.427090150" lon="6.931256750">
  <ele>2636.400000</ele>
<time>2017-08-15T09:48:37Z</time>
</trkpt>
<trkpt lat="45.427003480" lon="6.931200080">
  <ele>2636.300000</ele>
<time>2017-08-15T09:48:39Z</time>
</trkpt>
<trkpt lat="45.426891670" lon="6.931128330">
  <ele>2636.200000</ele>
<time>2017-08-15T09:48:42Z</time>
</trkpt>
<trkpt lat="45.426816740" lon="6.931046690">
  <ele>2636.100000</ele>
<time>2017-08-15T09:48:45Z</time>
</trkpt>
<trkpt lat="45.426723360" lon="6.931098490">
  <ele>2636.000000</ele>
<time>2017-08-15T09:48:50Z</time>
</trkpt>
<trkpt lat="45.426640040" lon="6.931165050">
  <ele>2635.900000</ele>
<time>2017-08-15T09:50:46Z</time>
</trkpt>
<trkpt lat="45.426583380" lon="6.931266800">
  <ele>2635.900000</ele>
<time>2017-08-15T09:50:49Z</time>
</trkpt>
<trkpt lat="45.426556730" lon="6.931395050">
  <ele>2635.800000</ele>
<time>2017-08-15T09:50:53Z</time>
</trkpt>
<trkpt lat="45.426496710" lon="6.931493450">
  <ele>2635.900000</ele>
<time>2017-08-15T09:50:56Z</time>
</trkpt>
<trkpt lat="45.426395130" lon="6.931586820">
  <ele>2636.200000</ele>
<time>2017-08-15T09:51:00Z</time>
</trkpt>
<trkpt lat="45.426300070" lon="6.931593360">
  <ele>2636.300000</ele>
<time>2017-08-15T09:51:03Z</time>
</trkpt>
<trkpt lat="45.426260010" lon="6.931458410">
  <ele>2636.600000</ele>
<time>2017-08-15T09:51:08Z</time>
</trkpt>
<trkpt lat="45.426211730" lon="6.931350120">
  <ele>2637.500000</ele>
<time>2017-08-15T09:51:15Z</time>
</trkpt>
<trkpt lat="45.426118360" lon="6.931415160">
  <ele>2638.700000</ele>
<time>2017-08-15T09:51:21Z</time>
</trkpt>
<trkpt lat="45.426055160" lon="6.931513400">
  <ele>2639.800000</ele>
<time>2017-08-15T09:51:27Z</time>
</trkpt>
<trkpt lat="45.425976700" lon="6.931588500">
  <ele>2640.800000</ele>
<time>2017-08-15T09:51:33Z</time>
</trkpt>
<trkpt lat="45.425880140" lon="6.931585150">
  <ele>2641.700000</ele>
<time>2017-08-15T09:51:38Z</time>
</trkpt>
<trkpt lat="45.425790120" lon="6.931575090">
  <ele>2642.700000</ele>
<time>2017-08-15T09:51:43Z</time>
</trkpt>
<trkpt lat="45.425706800" lon="6.931510050">
  <ele>2643.700000</ele>
<time>2017-08-15T09:51:48Z</time>
</trkpt>
<trkpt lat="45.425633380" lon="6.931416670">
  <ele>2644.900000</ele>
<time>2017-08-15T09:51:54Z</time>
</trkpt>
<trkpt lat="45.425538500" lon="6.931361690">
  <ele>2646.800000</ele>
<time>2017-08-15T09:52:02Z</time>
</trkpt>
<trkpt lat="45.425446800" lon="6.931318440">
  <ele>2648.100000</ele>
<time>2017-08-15T09:52:08Z</time>
</trkpt>
<trkpt lat="45.425345040" lon="6.931280050">
  <ele>2649.400000</ele>
<time>2017-08-15T09:52:14Z</time>
</trkpt>
<trkpt lat="45.425245130" lon="6.931231770">
  <ele>2650.800000</ele>
<time>2017-08-15T09:52:21Z</time>
</trkpt>
<trkpt lat="45.425150080" lon="6.931201760">
  <ele>2651.900000</ele>
<time>2017-08-15T09:52:27Z</time>
</trkpt>
<trkpt lat="45.425060060" lon="6.931168400">
  <ele>2653.000000</ele>
<time>2017-08-15T09:52:33Z</time>
</trkpt>
<trkpt lat="45.424965010" lon="6.931108390">
  <ele>2654.200000</ele>
<time>2017-08-15T09:52:39Z</time>
</trkpt>
<trkpt lat="45.424886720" lon="6.931043340">
  <ele>2655.000000</ele>
<time>2017-08-15T09:52:44Z</time>
</trkpt>
<trkpt lat="45.424828380" lon="6.930920130">
  <ele>2656.000000</ele>
<time>2017-08-15T09:52:50Z</time>
</trkpt>
<trkpt lat="45.424775070" lon="6.930803450">
  <ele>2657.300000</ele>
<time>2017-08-15T09:52:56Z</time>
</trkpt>
<trkpt lat="45.424670130" lon="6.930711750">
  <ele>2658.300000</ele>
<time>2017-08-15T09:53:01Z</time>
</trkpt>
<trkpt lat="45.424568370" lon="6.930660120">
  <ele>2658.800000</ele>
<time>2017-08-15T09:53:04Z</time>
</trkpt>
<trkpt lat="45.424480030" lon="6.930635140">
  <ele>2659.200000</ele>
<time>2017-08-15T09:53:07Z</time>
</trkpt>
<trkpt lat="45.424385150" lon="6.930623410">
  <ele>2659.600000</ele>
<time>2017-08-15T09:53:11Z</time>
</trkpt>
<trkpt lat="45.424285070" lon="6.930605140">
  <ele>2660.100000</ele>
<time>2017-08-15T09:53:16Z</time>
</trkpt>
<trkpt lat="45.424186830" lon="6.930540090">
  <ele>2660.500000</ele>
<time>2017-08-15T09:53:20Z</time>
</trkpt>
<trkpt lat="45.424098480" lon="6.930481750">
  <ele>2660.800000</ele>
<time>2017-08-15T09:53:24Z</time>
</trkpt>
<trkpt lat="45.423996730" lon="6.930383350">
  <ele>2661.100000</ele>
<time>2017-08-15T09:53:28Z</time>
</trkpt>
<trkpt lat="45.423920120" lon="6.930311770">
  <ele>2661.200000</ele>
<time>2017-08-15T09:53:30Z</time>
</trkpt>
<trkpt lat="45.423838480" lon="6.930206830">
  <ele>2661.200000</ele>
<time>2017-08-15T09:53:32Z</time>
</trkpt>
<trkpt lat="45.423746780" lon="6.930128370">
  <ele>2661.200000</ele>
<time>2017-08-15T09:53:35Z</time>
</trkpt>
<trkpt lat="45.423663460" lon="6.930080090">
  <ele>2661.200000</ele>
<time>2017-08-15T09:53:38Z</time>
</trkpt>
<trkpt lat="45.423566740" lon="6.930043380">
  <ele>2661.200000</ele>
<time>2017-08-15T09:53:41Z</time>
</trkpt>
<trkpt lat="45.423465150" lon="6.930003480">
  <ele>2661.300000</ele>
<time>2017-08-15T09:53:44Z</time>
</trkpt>
<trkpt lat="45.423358360" lon="6.930006670">
  <ele>2661.100000</ele>
<time>2017-08-15T09:53:47Z</time>
</trkpt>
<trkpt lat="45.423250070" lon="6.930000130">
  <ele>2661.100000</ele>
<time>2017-08-15T09:53:50Z</time>
</trkpt>
<trkpt lat="45.423145130" lon="6.929981690">
  <ele>2661.000000</ele>
<time>2017-08-15T09:53:53Z</time>
</trkpt>
<trkpt lat="45.423036830" lon="6.930005160">
  <ele>2661.000000</ele>
<time>2017-08-15T09:53:56Z</time>
</trkpt>
<trkpt lat="45.422938430" lon="6.930043380">
  <ele>2660.800000</ele>
<time>2017-08-15T09:53:59Z</time>
</trkpt>
<trkpt lat="45.422853440" lon="6.930123340">
  <ele>2660.600000</ele>
<time>2017-08-15T09:54:02Z</time>
</trkpt>
<trkpt lat="45.422756710" lon="6.930168440">
  <ele>2660.500000</ele>
<time>2017-08-15T09:54:05Z</time>
</trkpt>
<trkpt lat="45.422666690" lon="6.930213370">
  <ele>2660.300000</ele>
<time>2017-08-15T09:54:08Z</time>
</trkpt>
<trkpt lat="45.422580020" lon="6.930263490">
  <ele>2660.300000</ele>
<time>2017-08-15T09:54:11Z</time>
</trkpt>
<trkpt lat="45.422491670" lon="6.930311770">
  <ele>2660.300000</ele>
<time>2017-08-15T09:54:14Z</time>
</trkpt>
<trkpt lat="45.422383380" lon="6.930390060">
  <ele>2660.300000</ele>
<time>2017-08-15T09:54:17Z</time>
</trkpt>
<trkpt lat="45.422301740" lon="6.930461810">
  <ele>2660.300000</ele>
<time>2017-08-15T09:54:19Z</time>
</trkpt>
<trkpt lat="45.422215070" lon="6.930583340">
  <ele>2660.400000</ele>
<time>2017-08-15T09:54:22Z</time>
</trkpt>
<trkpt lat="45.422155060" lon="6.930706720">
  <ele>2660.400000</ele>
<time>2017-08-15T09:54:25Z</time>
</trkpt>
<trkpt lat="45.422081800" lon="6.930833460">
  <ele>2660.400000</ele>
<time>2017-08-15T09:54:28Z</time>
</trkpt>
<trkpt lat="45.422021780" lon="6.930958350">
  <ele>2660.500000</ele>
<time>2017-08-15T09:54:31Z</time>
</trkpt>
<trkpt lat="45.421976690" lon="6.931070160">
  <ele>2660.600000</ele>
<time>2017-08-15T09:54:34Z</time>
</trkpt>
<trkpt lat="45.421928410" lon="6.931220030">
  <ele>2660.700000</ele>
<time>2017-08-15T09:54:38Z</time>
</trkpt>
<trkpt lat="45.421885160" lon="6.931360010">
  <ele>2661.200000</ele>
<time>2017-08-15T09:54:42Z</time>
</trkpt>
<trkpt lat="45.421831680" lon="6.931500160">
  <ele>2661.700000</ele>
<time>2017-08-15T09:54:46Z</time>
</trkpt>
<trkpt lat="45.421781730" lon="6.931636780">
  <ele>2662.000000</ele>
<time>2017-08-15T09:54:49Z</time>
</trkpt>
<trkpt lat="45.421736800" lon="6.931795030">
  <ele>2662.200000</ele>
<time>2017-08-15T09:54:52Z</time>
</trkpt>
<trkpt lat="45.421706790" lon="6.931940040">
  <ele>2662.300000</ele>
<time>2017-08-15T09:54:55Z</time>
</trkpt>
<trkpt lat="45.421690030" lon="6.932095100">
  <ele>2662.400000</ele>
<time>2017-08-15T09:54:59Z</time>
</trkpt>
<trkpt lat="45.421670080" lon="6.932250000">
  <ele>2662.500000</ele>
<time>2017-08-15T09:55:03Z</time>
</trkpt>
<trkpt lat="45.421646780" lon="6.932386790">
  <ele>2662.600000</ele>
<time>2017-08-15T09:55:06Z</time>
</trkpt>
<trkpt lat="45.421628340" lon="6.932536830">
  <ele>2662.600000</ele>
<time>2017-08-15T09:55:09Z</time>
</trkpt>
<trkpt lat="45.421623480" lon="6.932676810">
  <ele>2662.700000</ele>
<time>2017-08-15T09:55:12Z</time>
</trkpt>
<trkpt lat="45.421615090" lon="6.932811760">
  <ele>2662.900000</ele>
<time>2017-08-15T09:55:15Z</time>
</trkpt>
<trkpt lat="45.421616770" lon="6.932993480">
  <ele>2663.200000</ele>
<time>2017-08-15T09:55:18Z</time>
</trkpt>
<trkpt lat="45.421606710" lon="6.933156750">
  <ele>2663.400000</ele>
<time>2017-08-15T09:55:21Z</time>
</trkpt>
<trkpt lat="45.421575030" lon="6.933310140">
  <ele>2663.400000</ele>
<time>2017-08-15T09:55:24Z</time>
</trkpt>
<trkpt lat="45.421513340" lon="6.933431680">
  <ele>2663.200000</ele>
<time>2017-08-15T09:55:27Z</time>
</trkpt>
<trkpt lat="45.421483500" lon="6.933556740">
  <ele>2663.200000</ele>
<time>2017-08-15T09:55:30Z</time>
</trkpt>
<trkpt lat="45.421493390" lon="6.933685150">
  <ele>2663.300000</ele>
<time>2017-08-15T09:55:34Z</time>
</trkpt>
<trkpt lat="45.421515010" lon="6.933820100">
  <ele>2664.200000</ele>
<time>2017-08-15T09:55:59Z</time>
</trkpt>
<trkpt lat="45.421611740" lon="6.933981700">
  <ele>2664.100000</ele>
<time>2017-08-15T09:56:02Z</time>
</trkpt>
<trkpt lat="45.421698410" lon="6.934146830">
  <ele>2663.900000</ele>
<time>2017-08-15T09:56:04Z</time>
</trkpt>
<trkpt lat="45.421705120" lon="6.934290160">
  <ele>2663.400000</ele>
<time>2017-08-15T09:56:06Z</time>
</trkpt>
<trkpt lat="45.421690030" lon="6.934426780">
  <ele>2663.000000</ele>
<time>2017-08-15T09:56:08Z</time>
</trkpt>
<trkpt lat="45.421693380" lon="6.934583350">
  <ele>2662.500000</ele>
<time>2017-08-15T09:56:10Z</time>
</trkpt>
<trkpt lat="45.421713500" lon="6.934770100">
  <ele>2662.000000</ele>
<time>2017-08-15T09:56:12Z</time>
</trkpt>
<trkpt lat="45.421753400" lon="6.934958360">
  <ele>2661.400000</ele>
<time>2017-08-15T09:56:14Z</time>
</trkpt>
<trkpt lat="45.421801680" lon="6.935148460">
  <ele>2660.900000</ele>
<time>2017-08-15T09:56:16Z</time>
</trkpt>
<trkpt lat="45.421880130" lon="6.935343430">
  <ele>2660.200000</ele>
<time>2017-08-15T09:56:18Z</time>
</trkpt>
<trkpt lat="45.421943500" lon="6.935535040">
  <ele>2659.300000</ele>
<time>2017-08-15T09:56:20Z</time>
</trkpt>
<trkpt lat="45.421935120" lon="6.935698480">
  <ele>2658.200000</ele>
<time>2017-08-15T09:56:22Z</time>
</trkpt>
<trkpt lat="45.421830010" lon="6.935791690">
  <ele>2656.800000</ele>
<time>2017-08-15T09:56:25Z</time>
</trkpt>
<trkpt lat="45.421705120" lon="6.935875010">
  <ele>2655.700000</ele>
<time>2017-08-15T09:56:27Z</time>
</trkpt>
<trkpt lat="45.421578380" lon="6.936055050">
  <ele>2654.500000</ele>
<time>2017-08-15T09:56:29Z</time>
</trkpt>
<trkpt lat="45.421465060" lon="6.936231740">
  <ele>2653.500000</ele>
<time>2017-08-15T09:56:31Z</time>
</trkpt>
<trkpt lat="45.421340170" lon="6.936408430">
  <ele>2652.200000</ele>
<time>2017-08-15T09:56:33Z</time>
</trkpt>
<trkpt lat="45.421280150" lon="6.936510020">
  <ele>2651.500000</ele>
<time>2017-08-15T09:56:34Z</time>
</trkpt>
<trkpt lat="45.421176720" lon="6.936693420">
  <ele>2650.300000</ele>
<time>2017-08-15T09:56:36Z</time>
</trkpt>
<trkpt lat="45.421068430" lon="6.936815120">
  <ele>2648.900000</ele>
<time>2017-08-15T09:56:38Z</time>
</trkpt>
<trkpt lat="45.420953430" lon="6.936921740">
  <ele>2647.600000</ele>
<time>2017-08-15T09:56:40Z</time>
</trkpt>
<trkpt lat="45.420845130" lon="6.937033390">
  <ele>2646.500000</ele>
<time>2017-08-15T09:56:42Z</time>
</trkpt>
<trkpt lat="45.420756790" lon="6.937126760">
  <ele>2645.700000</ele>
<time>2017-08-15T09:56:44Z</time>
</trkpt>
<trkpt lat="45.420675150" lon="6.937230020">
  <ele>2644.800000</ele>
<time>2017-08-15T09:56:47Z</time>
</trkpt>
<trkpt lat="45.420566690" lon="6.937346700">
  <ele>2643.800000</ele>
<time>2017-08-15T09:56:51Z</time>
</trkpt>
<trkpt lat="45.420465100" lon="6.937430020">
  <ele>2643.400000</ele>
<time>2017-08-15T09:56:53Z</time>
</trkpt>
<trkpt lat="45.420336690" lon="6.937440070">
  <ele>2642.600000</ele>
<time>2017-08-15T09:56:56Z</time>
</trkpt>
<trkpt lat="45.420246830" lon="6.937460020">
  <ele>2641.900000</ele>
<time>2017-08-15T09:56:59Z</time>
</trkpt>
<trkpt lat="45.420153460" lon="6.937478460">
  <ele>2638.400000</ele>
<time>2017-08-15T10:00:20Z</time>
</trkpt>
<trkpt lat="45.420055050" lon="6.937491710">
  <ele>2638.100000</ele>
<time>2017-08-15T10:00:22Z</time>
</trkpt>
<trkpt lat="45.419935030" lon="6.937526740">
  <ele>2637.900000</ele>
<time>2017-08-15T10:00:24Z</time>
</trkpt>
<trkpt lat="45.419818350" lon="6.937480140">
  <ele>2637.700000</ele>
<time>2017-08-15T10:00:26Z</time>
</trkpt>
<trkpt lat="45.419713410" lon="6.937330100">
  <ele>2637.300000</ele>
<time>2017-08-15T10:00:28Z</time>
</trkpt>
<trkpt lat="45.419573430" lon="6.937190130">
  <ele>2636.700000</ele>
<time>2017-08-15T10:00:30Z</time>
</trkpt>
<trkpt lat="45.419413340" lon="6.937200020">
  <ele>2636.100000</ele>
<time>2017-08-15T10:00:32Z</time>
</trkpt>
<trkpt lat="45.419330020" lon="6.937251820">
  <ele>2635.700000</ele>
<time>2017-08-15T10:00:33Z</time>
</trkpt>
<trkpt lat="45.419240170" lon="6.937311830">
  <ele>2635.000000</ele>
<time>2017-08-15T10:00:34Z</time>
</trkpt>
<trkpt lat="45.419145110" lon="6.937370000">
  <ele>2634.400000</ele>
<time>2017-08-15T10:00:35Z</time>
</trkpt>
<trkpt lat="45.419043360" lon="6.937433370">
  <ele>2633.700000</ele>
<time>2017-08-15T10:00:36Z</time>
</trkpt>
<trkpt lat="45.418936740" lon="6.937498410">
  <ele>2633.000000</ele>
<time>2017-08-15T10:00:37Z</time>
</trkpt>
<trkpt lat="45.418841690" lon="6.937553400">
  <ele>2632.300000</ele>
<time>2017-08-15T10:00:38Z</time>
</trkpt>
<trkpt lat="45.418715120" lon="6.937685160">
  <ele>2630.900000</ele>
<time>2017-08-15T10:00:40Z</time>
</trkpt>
<trkpt lat="45.418681760" lon="6.937891690">
  <ele>2629.600000</ele>
<time>2017-08-15T10:00:42Z</time>
</trkpt>
<trkpt lat="45.418696680" lon="6.938141810">
  <ele>2628.100000</ele>
<time>2017-08-15T10:00:44Z</time>
</trkpt>
<trkpt lat="45.418700040" lon="6.938275080">
  <ele>2627.300000</ele>
<time>2017-08-15T10:00:45Z</time>
</trkpt>
<trkpt lat="45.418678410" lon="6.938513460">
  <ele>2625.500000</ele>
<time>2017-08-15T10:00:47Z</time>
</trkpt>
<trkpt lat="45.418678410" lon="6.938743460">
  <ele>2623.500000</ele>
<time>2017-08-15T10:00:49Z</time>
</trkpt>
<trkpt lat="45.418710090" lon="6.938870030">
  <ele>2622.500000</ele>
<time>2017-08-15T10:00:50Z</time>
</trkpt>
<trkpt lat="45.418755020" lon="6.939008500">
  <ele>2621.300000</ele>
<time>2017-08-15T10:00:51Z</time>
</trkpt>
<trkpt lat="45.418795090" lon="6.939156690">
  <ele>2620.100000</ele>
<time>2017-08-15T10:00:52Z</time>
</trkpt>
<trkpt lat="45.418823420" lon="6.939301700">
  <ele>2619.000000</ele>
<time>2017-08-15T10:00:53Z</time>
</trkpt>
<trkpt lat="45.418845040" lon="6.939440160">
  <ele>2617.700000</ele>
<time>2017-08-15T10:00:54Z</time>
</trkpt>
<trkpt lat="45.418863480" lon="6.939573440">
  <ele>2616.600000</ele>
<time>2017-08-15T10:00:55Z</time>
</trkpt>
<trkpt lat="45.418848400" lon="6.939783490">
  <ele>2614.600000</ele>
<time>2017-08-15T10:00:57Z</time>
</trkpt>
<trkpt lat="45.418750160" lon="6.939923470">
  <ele>2612.800000</ele>
<time>2017-08-15T10:00:59Z</time>
</trkpt>
<trkpt lat="45.418623430" lon="6.940060090">
  <ele>2610.500000</ele>
<time>2017-08-15T10:01:01Z</time>
</trkpt>
<trkpt lat="45.418510100" lon="6.940163360">
  <ele>2608.300000</ele>
<time>2017-08-15T10:01:03Z</time>
</trkpt>
<trkpt lat="45.418435170" lon="6.940268460">
  <ele>2606.200000</ele>
<time>2017-08-15T10:01:05Z</time>
</trkpt>
<trkpt lat="45.418366770" lon="6.940390000">
  <ele>2604.200000</ele>
<time>2017-08-15T10:01:07Z</time>
</trkpt>
<trkpt lat="45.418315140" lon="6.940521770">
  <ele>2602.200000</ele>
<time>2017-08-15T10:01:09Z</time>
</trkpt>
<trkpt lat="45.418286810" lon="6.940648500">
  <ele>2600.100000</ele>
<time>2017-08-15T10:01:11Z</time>
</trkpt>
<trkpt lat="45.418263340" lon="6.940780100">
  <ele>2597.900000</ele>
<time>2017-08-15T10:01:13Z</time>
</trkpt>
<trkpt lat="45.418256800" lon="6.940918400">
  <ele>2594.900000</ele>
<time>2017-08-15T10:01:16Z</time>
</trkpt>
<trkpt lat="45.418186730" lon="6.941060050">
  <ele>2580.900000</ele>
<time>2017-08-15T10:14:11Z</time>
</trkpt>
<trkpt lat="45.418090000" lon="6.941173370">
  <ele>2580.200000</ele>
<time>2017-08-15T10:14:13Z</time>
</trkpt>
<trkpt lat="45.417980030" lon="6.941305140">
  <ele>2579.500000</ele>
<time>2017-08-15T10:14:15Z</time>
</trkpt>
<trkpt lat="45.417853460" lon="6.941445120">
  <ele>2578.100000</ele>
<time>2017-08-15T10:14:17Z</time>
</trkpt>
<trkpt lat="45.417750030" lon="6.941583420">
  <ele>2576.600000</ele>
<time>2017-08-15T10:14:19Z</time>
</trkpt>
<trkpt lat="45.417695050" lon="6.941733450">
  <ele>2575.200000</ele>
<time>2017-08-15T10:14:21Z</time>
</trkpt>
<trkpt lat="45.417661690" lon="6.941960100">
  <ele>2573.900000</ele>
<time>2017-08-15T10:14:23Z</time>
</trkpt>
<trkpt lat="45.417601670" lon="6.942155060">
  <ele>2572.700000</ele>
<time>2017-08-15T10:14:25Z</time>
</trkpt>
<trkpt lat="45.417531770" lon="6.942251790">
  <ele>2571.900000</ele>
<time>2017-08-15T10:14:26Z</time>
</trkpt>
<trkpt lat="45.417383410" lon="6.942345160">
  <ele>2570.400000</ele>
<time>2017-08-15T10:14:28Z</time>
</trkpt>
<trkpt lat="45.417226830" lon="6.942430160">
  <ele>2569.000000</ele>
<time>2017-08-15T10:14:30Z</time>
</trkpt>
<trkpt lat="45.417080150" lon="6.942496710">
  <ele>2566.900000</ele>
<time>2017-08-15T10:14:32Z</time>
</trkpt>
<trkpt lat="45.416975040" lon="6.942560080">
  <ele>2564.900000</ele>
<time>2017-08-15T10:14:34Z</time>
</trkpt>
<trkpt lat="45.416891720" lon="6.942615060">
  <ele>2562.200000</ele>
<time>2017-08-15T10:14:37Z</time>
</trkpt>
<trkpt lat="45.416773370" lon="6.942710110">
  <ele>2558.900000</ele>
<time>2017-08-15T10:14:41Z</time>
</trkpt>
<trkpt lat="45.416650160" lon="6.942768450">
  <ele>2557.400000</ele>
<time>2017-08-15T10:14:43Z</time>
</trkpt>
<trkpt lat="45.416533480" lon="6.942836680">
  <ele>2555.600000</ele>
<time>2017-08-15T10:14:45Z</time>
</trkpt>
<trkpt lat="45.416480000" lon="6.942970120">
  <ele>2553.800000</ele>
<time>2017-08-15T10:14:47Z</time>
</trkpt>
<trkpt lat="45.416473470" lon="6.943123340">
  <ele>2552.100000</ele>
<time>2017-08-15T10:14:49Z</time>
</trkpt>
<trkpt lat="45.416478500" lon="6.943285110">
  <ele>2550.100000</ele>
<time>2017-08-15T10:14:51Z</time>
</trkpt>
<trkpt lat="45.416480000" lon="6.943461800">
  <ele>2548.500000</ele>
<time>2017-08-15T10:14:53Z</time>
</trkpt>
<trkpt lat="45.416458380" lon="6.943668500">
  <ele>2546.700000</ele>
<time>2017-08-15T10:14:55Z</time>
</trkpt>
<trkpt lat="45.416413450" lon="6.943886760">
  <ele>2545.000000</ele>
<time>2017-08-15T10:14:57Z</time>
</trkpt>
<trkpt lat="45.416368360" lon="6.944123470">
  <ele>2542.900000</ele>
<time>2017-08-15T10:14:59Z</time>
</trkpt>
<trkpt lat="45.416333490" lon="6.944351790">
  <ele>2541.100000</ele>
<time>2017-08-15T10:15:01Z</time>
</trkpt>
<trkpt lat="45.416315050" lon="6.944583470">
  <ele>2539.500000</ele>
<time>2017-08-15T10:15:03Z</time>
</trkpt>
<trkpt lat="45.416310020" lon="6.944815140">
  <ele>2538.100000</ele>
<time>2017-08-15T10:15:05Z</time>
</trkpt>
<trkpt lat="45.416305160" lon="6.945041790">
  <ele>2536.600000</ele>
<time>2017-08-15T10:15:07Z</time>
</trkpt>
<trkpt lat="45.416305160" lon="6.945270110">
  <ele>2535.200000</ele>
<time>2017-08-15T10:15:09Z</time>
</trkpt>
<trkpt lat="45.416301810" lon="6.945523410">
  <ele>2533.800000</ele>
<time>2017-08-15T10:15:11Z</time>
</trkpt>
<trkpt lat="45.416301810" lon="6.945771690">
  <ele>2532.500000</ele>
<time>2017-08-15T10:15:13Z</time>
</trkpt>
<trkpt lat="45.416300130" lon="6.946013420">
  <ele>2531.200000</ele>
<time>2017-08-15T10:15:15Z</time>
</trkpt>
<trkpt lat="45.416298450" lon="6.946241740">
  <ele>2529.800000</ele>
<time>2017-08-15T10:15:17Z</time>
</trkpt>
<trkpt lat="45.416296780" lon="6.946465040">
  <ele>2528.700000</ele>
<time>2017-08-15T10:15:19Z</time>
</trkpt>
<trkpt lat="45.416288390" lon="6.946691680">
  <ele>2527.800000</ele>
<time>2017-08-15T10:15:21Z</time>
</trkpt>
<trkpt lat="45.416271800" lon="6.946903410">
  <ele>2526.800000</ele>
<time>2017-08-15T10:15:23Z</time>
</trkpt>
<trkpt lat="45.416263420" lon="6.947105080">
  <ele>2525.900000</ele>
<time>2017-08-15T10:15:25Z</time>
</trkpt>
<trkpt lat="45.416221670" lon="6.947318480">
  <ele>2525.300000</ele>
<time>2017-08-15T10:15:27Z</time>
</trkpt>
<trkpt lat="45.416143390" lon="6.947540100">
  <ele>2524.800000</ele>
<time>2017-08-15T10:15:29Z</time>
</trkpt>
<trkpt lat="45.416063420" lon="6.947750150">
  <ele>2524.200000</ele>
<time>2017-08-15T10:15:31Z</time>
</trkpt>
<trkpt lat="45.415991680" lon="6.947958360">
  <ele>2523.600000</ele>
<time>2017-08-15T10:15:33Z</time>
</trkpt>
<trkpt lat="45.415923450" lon="6.948158350">
  <ele>2522.600000</ele>
<time>2017-08-15T10:15:35Z</time>
</trkpt>
<trkpt lat="45.415860080" lon="6.948368400">
  <ele>2521.700000</ele>
<time>2017-08-15T10:15:37Z</time>
</trkpt>
<trkpt lat="45.415818340" lon="6.948565040">
  <ele>2521.000000</ele>
<time>2017-08-15T10:15:39Z</time>
</trkpt>
<trkpt lat="45.415733340" lon="6.948680040">
  <ele>2520.300000</ele>
<time>2017-08-15T10:15:41Z</time>
</trkpt>
<trkpt lat="45.415615160" lon="6.948725130">
  <ele>2519.400000</ele>
<time>2017-08-15T10:15:43Z</time>
</trkpt>
<trkpt lat="45.415488430" lon="6.948668470">
  <ele>2518.000000</ele>
<time>2017-08-15T10:15:45Z</time>
</trkpt>
<trkpt lat="45.415413490" lon="6.948541740">
  <ele>2516.500000</ele>
<time>2017-08-15T10:15:47Z</time>
</trkpt>
<trkpt lat="45.415413490" lon="6.948348450">
  <ele>2515.100000</ele>
<time>2017-08-15T10:15:49Z</time>
</trkpt>
<trkpt lat="45.415428410" lon="6.948125160">
  <ele>2513.300000</ele>
<time>2017-08-15T10:15:51Z</time>
</trkpt>
<trkpt lat="45.415426730" lon="6.947933380">
  <ele>2511.300000</ele>
<time>2017-08-15T10:15:53Z</time>
</trkpt>
<trkpt lat="45.415448360" lon="6.947753340">
  <ele>2509.400000</ele>
<time>2017-08-15T10:15:55Z</time>
</trkpt>
<trkpt lat="45.415476690" lon="6.947550160">
  <ele>2507.000000</ele>
<time>2017-08-15T10:15:57Z</time>
</trkpt>
<trkpt lat="45.415443500" lon="6.947346810">
  <ele>2504.700000</ele>
<time>2017-08-15T10:15:59Z</time>
</trkpt>
<trkpt lat="45.415361690" lon="6.947173480">
  <ele>2502.600000</ele>
<time>2017-08-15T10:16:01Z</time>
</trkpt>
<trkpt lat="45.415283400" lon="6.946970130">
  <ele>2500.600000</ele>
<time>2017-08-15T10:16:03Z</time>
</trkpt>
<trkpt lat="45.415251720" lon="6.946755050">
  <ele>2498.200000</ele>
<time>2017-08-15T10:16:05Z</time>
</trkpt>
<trkpt lat="45.415248370" lon="6.946526730">
  <ele>2495.900000</ele>
<time>2017-08-15T10:16:07Z</time>
</trkpt>
<trkpt lat="45.415200090" lon="6.946298410">
  <ele>2493.900000</ele>
<time>2017-08-15T10:16:09Z</time>
</trkpt>
<trkpt lat="45.415165050" lon="6.946111820">
  <ele>2491.900000</ele>
<time>2017-08-15T10:16:11Z</time>
</trkpt>
<trkpt lat="45.415111740" lon="6.945985090">
  <ele>2490.200000</ele>
<time>2017-08-15T10:16:13Z</time>
</trkpt>
<trkpt lat="45.415021720" lon="6.945858360">
  <ele>2488.400000</ele>
<time>2017-08-15T10:16:15Z</time>
</trkpt>
<trkpt lat="45.414951820" lon="6.945691720">
  <ele>2486.800000</ele>
<time>2017-08-15T10:16:17Z</time>
</trkpt>
<trkpt lat="45.414883420" lon="6.945520060">
  <ele>2484.900000</ele>
<time>2017-08-15T10:16:19Z</time>
</trkpt>
<trkpt lat="45.414801780" lon="6.945351750">
  <ele>2483.300000</ele>
<time>2017-08-15T10:16:21Z</time>
</trkpt>
<trkpt lat="45.414723490" lon="6.945166680">
  <ele>2481.400000</ele>
<time>2017-08-15T10:16:23Z</time>
</trkpt>
<trkpt lat="45.414645040" lon="6.944975070">
  <ele>2479.400000</ele>
<time>2017-08-15T10:16:25Z</time>
</trkpt>
<trkpt lat="45.414571780" lon="6.944801730">
  <ele>2477.600000</ele>
<time>2017-08-15T10:16:27Z</time>
</trkpt>
<trkpt lat="45.414521820" lon="6.944641810">
  <ele>2476.000000</ele>
<time>2017-08-15T10:16:29Z</time>
</trkpt>
<trkpt lat="45.414465160" lon="6.944485060">
  <ele>2474.600000</ele>
<time>2017-08-15T10:16:31Z</time>
</trkpt>
<trkpt lat="45.414400120" lon="6.944311730">
  <ele>2473.000000</ele>
<time>2017-08-15T10:16:33Z</time>
</trkpt>
<trkpt lat="45.414326690" lon="6.944145090">
  <ele>2471.600000</ele>
<time>2017-08-15T10:16:35Z</time>
</trkpt>
<trkpt lat="45.414250080" lon="6.943993380">
  <ele>2470.300000</ele>
<time>2017-08-15T10:16:37Z</time>
</trkpt>
<trkpt lat="45.414191750" lon="6.943833460">
  <ele>2469.100000</ele>
<time>2017-08-15T10:16:39Z</time>
</trkpt>
<trkpt lat="45.414130050" lon="6.943650060">
  <ele>2468.100000</ele>
<time>2017-08-15T10:16:41Z</time>
</trkpt>
<trkpt lat="45.414038360" lon="6.943473370">
  <ele>2466.800000</ele>
<time>2017-08-15T10:16:43Z</time>
</trkpt>
<trkpt lat="45.413898380" lon="6.943303380">
  <ele>2465.300000</ele>
<time>2017-08-15T10:16:45Z</time>
</trkpt>
<trkpt lat="45.413818420" lon="6.943213360">
  <ele>2464.600000</ele>
<time>2017-08-15T10:16:46Z</time>
</trkpt>
<trkpt lat="45.413740130" lon="6.943130050">
  <ele>2463.900000</ele>
<time>2017-08-15T10:16:47Z</time>
</trkpt>
<trkpt lat="45.413660160" lon="6.943055110">
  <ele>2463.000000</ele>
<time>2017-08-15T10:16:48Z</time>
</trkpt>
<trkpt lat="45.413586740" lon="6.942973470">
  <ele>2462.300000</ele>
<time>2017-08-15T10:16:49Z</time>
</trkpt>
<trkpt lat="45.413521700" lon="6.942878420">
  <ele>2460.900000</ele>
<time>2017-08-15T10:16:50Z</time>
</trkpt>
<trkpt lat="45.413460010" lon="6.942785050">
  <ele>2459.900000</ele>
<time>2017-08-15T10:16:51Z</time>
</trkpt>
<trkpt lat="45.413320030" lon="6.942638360">
  <ele>2458.100000</ele>
<time>2017-08-15T10:16:53Z</time>
</trkpt>
<trkpt lat="45.413180050" lon="6.942515150">
  <ele>2456.000000</ele>
<time>2017-08-15T10:16:55Z</time>
</trkpt>
<trkpt lat="45.413061700" lon="6.942385060">
  <ele>2454.000000</ele>
<time>2017-08-15T10:16:57Z</time>
</trkpt>
<trkpt lat="45.412960110" lon="6.942246760">
  <ele>2452.300000</ele>
<time>2017-08-15T10:16:59Z</time>
</trkpt>
<trkpt lat="45.412833370" lon="6.942153390">
  <ele>2450.600000</ele>
<time>2017-08-15T10:17:01Z</time>
</trkpt>
<trkpt lat="45.412675120" lon="6.942130090">
  <ele>2449.100000</ele>
<time>2017-08-15T10:17:03Z</time>
</trkpt>
<trkpt lat="45.412523410" lon="6.942118350">
  <ele>2447.300000</ele>
<time>2017-08-15T10:17:05Z</time>
</trkpt>
<trkpt lat="45.412396680" lon="6.942125060">
  <ele>2444.900000</ele>
<time>2017-08-15T10:17:07Z</time>
</trkpt>
<trkpt lat="45.412286710" lon="6.942180040">
  <ele>2441.700000</ele>
<time>2017-08-15T10:17:10Z</time>
</trkpt>
<trkpt lat="45.412330120" lon="6.942336780">
  <ele>2438.100000</ele>
<time>2017-08-15T10:17:14Z</time>
</trkpt>
<trkpt lat="45.412425010" lon="6.942431830">
  <ele>2436.200000</ele>
<time>2017-08-15T10:17:16Z</time>
</trkpt>
<trkpt lat="45.412546710" lon="6.942555050">
  <ele>2434.300000</ele>
<time>2017-08-15T10:17:18Z</time>
</trkpt>
<trkpt lat="45.412655010" lon="6.942708440">
  <ele>2432.200000</ele>
<time>2017-08-15T10:17:20Z</time>
</trkpt>
<trkpt lat="45.412698430" lon="6.942916810">
  <ele>2430.100000</ele>
<time>2017-08-15T10:17:22Z</time>
</trkpt>
<trkpt lat="45.412731790" lon="6.943105070">
  <ele>2428.000000</ele>
<time>2017-08-15T10:17:24Z</time>
</trkpt>
<trkpt lat="45.412823480" lon="6.943260130">
  <ele>2425.800000</ele>
<time>2017-08-15T10:17:26Z</time>
</trkpt>
<trkpt lat="45.412916690" lon="6.943410000">
  <ele>2423.800000</ele>
<time>2017-08-15T10:17:28Z</time>
</trkpt>
<trkpt lat="45.412988440" lon="6.943565070">
  <ele>2421.600000</ele>
<time>2017-08-15T10:17:30Z</time>
</trkpt>
<trkpt lat="45.413045100" lon="6.943775120">
  <ele>2419.600000</ele>
<time>2017-08-15T10:17:32Z</time>
</trkpt>
<trkpt lat="45.413076780" lon="6.943900010">
  <ele>2418.600000</ele>
<time>2017-08-15T10:17:33Z</time>
</trkpt>
<trkpt lat="45.413105120" lon="6.944026740">
  <ele>2417.500000</ele>
<time>2017-08-15T10:17:34Z</time>
</trkpt>
<trkpt lat="45.413126740" lon="6.944163370">
  <ele>2416.200000</ele>
<time>2017-08-15T10:17:35Z</time>
</trkpt>
<trkpt lat="45.413145010" lon="6.944295130">
  <ele>2415.000000</ele>
<time>2017-08-15T10:17:36Z</time>
</trkpt>
<trkpt lat="45.413181730" lon="6.944531670">
  <ele>2412.700000</ele>
<time>2017-08-15T10:17:38Z</time>
</trkpt>
<trkpt lat="45.413201670" lon="6.944663430">
  <ele>2411.700000</ele>
<time>2017-08-15T10:17:39Z</time>
</trkpt>
<trkpt lat="45.413226820" lon="6.944791670">
  <ele>2410.800000</ele>
<time>2017-08-15T10:17:40Z</time>
</trkpt>
<trkpt lat="45.413266720" lon="6.945041790">
  <ele>2408.500000</ele>
<time>2017-08-15T10:17:42Z</time>
</trkpt>
<trkpt lat="45.413285160" lon="6.945168360">
  <ele>2407.300000</ele>
<time>2017-08-15T10:17:43Z</time>
</trkpt>
<trkpt lat="45.413305110" lon="6.945296770">
  <ele>2406.100000</ele>
<time>2017-08-15T10:17:44Z</time>
</trkpt>
<trkpt lat="45.413330090" lon="6.945425010">
  <ele>2405.200000</ele>
<time>2017-08-15T10:17:45Z</time>
</trkpt>
<trkpt lat="45.413355060" lon="6.945555100">
  <ele>2404.100000</ele>
<time>2017-08-15T10:17:46Z</time>
</trkpt>
<trkpt lat="45.413378370" lon="6.945686690">
  <ele>2403.100000</ele>
<time>2017-08-15T10:17:47Z</time>
</trkpt>
<trkpt lat="45.413395130" lon="6.945823490">
  <ele>2402.000000</ele>
<time>2017-08-15T10:17:48Z</time>
</trkpt>
<trkpt lat="45.413413400" lon="6.945963460">
  <ele>2401.100000</ele>
<time>2017-08-15T10:17:49Z</time>
</trkpt>
<trkpt lat="45.413438380" lon="6.946103440">
  <ele>2400.000000</ele>
<time>2017-08-15T10:17:50Z</time>
</trkpt>
<trkpt lat="45.413461680" lon="6.946240070">
  <ele>2399.100000</ele>
<time>2017-08-15T10:17:51Z</time>
</trkpt>
<trkpt lat="45.413481800" lon="6.946371830">
  <ele>2398.100000</ele>
<time>2017-08-15T10:17:52Z</time>
</trkpt>
<trkpt lat="45.413510130" lon="6.946608370">
  <ele>2396.200000</ele>
<time>2017-08-15T10:17:54Z</time>
</trkpt>
<trkpt lat="45.413570140" lon="6.946811710">
  <ele>2394.600000</ele>
<time>2017-08-15T10:17:56Z</time>
</trkpt>
<trkpt lat="45.413621780" lon="6.946980020">
  <ele>2393.100000</ele>
<time>2017-08-15T10:17:58Z</time>
</trkpt>
<trkpt lat="45.413598470" lon="6.947113460">
  <ele>2381.200000</ele>
<time>2017-08-15T10:21:50Z</time>
</trkpt>
<trkpt lat="45.413595120" lon="6.947280090">
  <ele>2381.000000</ele>
<time>2017-08-15T10:21:53Z</time>
</trkpt>
<trkpt lat="45.413608360" lon="6.947426780">
  <ele>2380.600000</ele>
<time>2017-08-15T10:21:55Z</time>
</trkpt>
<trkpt lat="45.413633340" lon="6.947603470">
  <ele>2380.100000</ele>
<time>2017-08-15T10:21:57Z</time>
</trkpt>
<trkpt lat="45.413630160" lon="6.947791730">
  <ele>2379.200000</ele>
<time>2017-08-15T10:21:59Z</time>
</trkpt>
<trkpt lat="45.413615070" lon="6.947961710">
  <ele>2378.400000</ele>
<time>2017-08-15T10:22:01Z</time>
</trkpt>
<trkpt lat="45.413558410" lon="6.948128340">
  <ele>2377.000000</ele>
<time>2017-08-15T10:22:04Z</time>
</trkpt>
<trkpt lat="45.413480120" lon="6.948260110">
  <ele>2374.900000</ele>
<time>2017-08-15T10:22:07Z</time>
</trkpt>
<trkpt lat="45.413413400" lon="6.948353480">
  <ele>2373.600000</ele>
<time>2017-08-15T10:22:09Z</time>
</trkpt>
<trkpt lat="45.413346680" lon="6.948450040">
  <ele>2371.900000</ele>
<time>2017-08-15T10:22:11Z</time>
</trkpt>
<trkpt lat="45.413300080" lon="6.948560010">
  <ele>2369.700000</ele>
<time>2017-08-15T10:22:13Z</time>
</trkpt>
<trkpt lat="45.413265040" lon="6.948690100">
  <ele>2367.800000</ele>
<time>2017-08-15T10:22:15Z</time>
</trkpt>
<trkpt lat="45.413266720" lon="6.948856730">
  <ele>2365.900000</ele>
<time>2017-08-15T10:22:17Z</time>
</trkpt>
<trkpt lat="45.413261690" lon="6.949000060">
  <ele>2364.100000</ele>
<time>2017-08-15T10:22:19Z</time>
</trkpt>
<trkpt lat="45.413221790" lon="6.949136690">
  <ele>2362.400000</ele>
<time>2017-08-15T10:22:21Z</time>
</trkpt>
<trkpt lat="45.413163450" lon="6.949236770">
  <ele>2360.600000</ele>
<time>2017-08-15T10:22:23Z</time>
</trkpt>
<trkpt lat="45.413126740" lon="6.949373390">
  <ele>2358.600000</ele>
<time>2017-08-15T10:22:25Z</time>
</trkpt>
<trkpt lat="45.413076780" lon="6.949500120">
  <ele>2356.700000</ele>
<time>2017-08-15T10:22:27Z</time>
</trkpt>
<trkpt lat="45.413000010" lon="6.949663400">
  <ele>2354.700000</ele>
<time>2017-08-15T10:22:29Z</time>
</trkpt>
<trkpt lat="45.412921720" lon="6.949818470">
  <ele>2352.600000</ele>
<time>2017-08-15T10:22:31Z</time>
</trkpt>
<trkpt lat="45.412858350" lon="6.949931790">
  <ele>2350.400000</ele>
<time>2017-08-15T10:22:33Z</time>
</trkpt>
<trkpt lat="45.412818450" lon="6.950123400">
  <ele>2346.900000</ele>
<time>2017-08-15T10:22:36Z</time>
</trkpt>
<trkpt lat="45.412758440" lon="6.950283500">
  <ele>2344.500000</ele>
<time>2017-08-15T10:22:38Z</time>
</trkpt>
<trkpt lat="45.412700100" lon="6.950420120">
  <ele>2342.200000</ele>
<time>2017-08-15T10:22:40Z</time>
</trkpt>
<trkpt lat="45.412583430" lon="6.950505120">
  <ele>2339.000000</ele>
<time>2017-08-15T10:22:43Z</time>
</trkpt>
<trkpt lat="45.412495080" lon="6.950608380">
  <ele>2336.700000</ele>
<time>2017-08-15T10:22:45Z</time>
</trkpt>
<trkpt lat="45.412446800" lon="6.950736790">
  <ele>2334.400000</ele>
<time>2017-08-15T10:22:47Z</time>
</trkpt>
<trkpt lat="45.412390140" lon="6.950868390">
  <ele>2332.200000</ele>
<time>2017-08-15T10:22:49Z</time>
</trkpt>
<trkpt lat="45.412315040" lon="6.950961760">
  <ele>2330.100000</ele>
<time>2017-08-15T10:22:51Z</time>
</trkpt>
<trkpt lat="45.412225020" lon="6.951056810">
  <ele>2328.000000</ele>
<time>2017-08-15T10:22:53Z</time>
</trkpt>
<trkpt lat="45.412151760" lon="6.951166780">
  <ele>2325.800000</ele>
<time>2017-08-15T10:22:55Z</time>
</trkpt>
<trkpt lat="45.412095100" lon="6.951291670">
  <ele>2323.700000</ele>
<time>2017-08-15T10:22:57Z</time>
</trkpt>
<trkpt lat="45.412026700" lon="6.951431820">
  <ele>2321.700000</ele>
<time>2017-08-15T10:22:59Z</time>
</trkpt>
<trkpt lat="45.411953440" lon="6.951533410">
  <ele>2319.700000</ele>
<time>2017-08-15T10:23:01Z</time>
</trkpt>
<trkpt lat="45.411861740" lon="6.951658460">
  <ele>2316.600000</ele>
<time>2017-08-15T10:23:04Z</time>
</trkpt>
<trkpt lat="45.411800050" lon="6.951810010">
  <ele>2313.700000</ele>
<time>2017-08-15T10:23:07Z</time>
</trkpt>
<trkpt lat="45.411786810" lon="6.951988380">
  <ele>2310.700000</ele>
<time>2017-08-15T10:23:10Z</time>
</trkpt>
<trkpt lat="45.411728470" lon="6.952095160">
  <ele>2308.800000</ele>
<time>2017-08-15T10:23:12Z</time>
</trkpt>
<trkpt lat="45.411696790" lon="6.952260120">
  <ele>2306.900000</ele>
<time>2017-08-15T10:23:14Z</time>
</trkpt>
<trkpt lat="45.411685050" lon="6.952421720">
  <ele>2305.100000</ele>
<time>2017-08-15T10:23:16Z</time>
</trkpt>
<trkpt lat="45.411668460" lon="6.952576790">
  <ele>2303.200000</ele>
<time>2017-08-15T10:23:18Z</time>
</trkpt>
<trkpt lat="45.411621690" lon="6.952700000">
  <ele>2301.300000</ele>
<time>2017-08-15T10:23:20Z</time>
</trkpt>
<trkpt lat="45.411593360" lon="6.952843500">
  <ele>2298.200000</ele>
<time>2017-08-15T10:23:23Z</time>
</trkpt>
<trkpt lat="45.411551780" lon="6.953013480">
  <ele>2295.100000</ele>
<time>2017-08-15T10:23:26Z</time>
</trkpt>
<trkpt lat="45.411565020" lon="6.953150110">
  <ele>2293.200000</ele>
<time>2017-08-15T10:23:28Z</time>
</trkpt>
<trkpt lat="45.411588490" lon="6.953311710">
  <ele>2291.400000</ele>
<time>2017-08-15T10:23:30Z</time>
</trkpt>
<trkpt lat="45.411563350" lon="6.953436770">
  <ele>2289.500000</ele>
<time>2017-08-15T10:23:32Z</time>
</trkpt>
<trkpt lat="45.411563350" lon="6.953586810">
  <ele>2286.600000</ele>
<time>2017-08-15T10:23:35Z</time>
</trkpt>
<trkpt lat="45.411580110" lon="6.953718400">
  <ele>2284.700000</ele>
<time>2017-08-15T10:23:37Z</time>
</trkpt>
<trkpt lat="45.411541720" lon="6.953840110">
  <ele>2282.600000</ele>
<time>2017-08-15T10:23:39Z</time>
</trkpt>
<trkpt lat="45.411535020" lon="6.954013440">
  <ele>2280.600000</ele>
<time>2017-08-15T10:23:41Z</time>
</trkpt>
<trkpt lat="45.411533340" lon="6.954218470">
  <ele>2278.400000</ele>
<time>2017-08-15T10:23:43Z</time>
</trkpt>
<trkpt lat="45.411533340" lon="6.954408400">
  <ele>2276.200000</ele>
<time>2017-08-15T10:23:45Z</time>
</trkpt>
<trkpt lat="45.411523450" lon="6.954591800">
  <ele>2274.200000</ele>
<time>2017-08-15T10:23:47Z</time>
</trkpt>
<trkpt lat="45.411508360" lon="6.954778380">
  <ele>2272.100000</ele>
<time>2017-08-15T10:23:49Z</time>
</trkpt>
<trkpt lat="45.411493440" lon="6.954938470">
  <ele>2269.800000</ele>
<time>2017-08-15T10:23:51Z</time>
</trkpt>
<trkpt lat="45.411455050" lon="6.955098400">
  <ele>2266.500000</ele>
<time>2017-08-15T10:23:54Z</time>
</trkpt>
<trkpt lat="45.411433430" lon="6.955228490">
  <ele>2263.000000</ele>
<time>2017-08-15T10:23:57Z</time>
</trkpt>
<trkpt lat="45.411430080" lon="6.955376680">
  <ele>2259.600000</ele>
<time>2017-08-15T10:24:00Z</time>
</trkpt>
<trkpt lat="45.411431750" lon="6.955511790">
  <ele>2256.500000</ele>
<time>2017-08-15T10:24:03Z</time>
</trkpt>
<trkpt lat="45.411418340" lon="6.955676750">
  <ele>2252.300000</ele>
<time>2017-08-15T10:24:07Z</time>
</trkpt>
<trkpt lat="45.411416830" lon="6.955845060">
  <ele>2248.100000</ele>
<time>2017-08-15T10:24:11Z</time>
</trkpt>
<trkpt lat="45.411376770" lon="6.955961730">
  <ele>2245.000000</ele>
<time>2017-08-15T10:24:14Z</time>
</trkpt>
<trkpt lat="45.411300160" lon="6.956061810">
  <ele>2241.900000</ele>
<time>2017-08-15T10:24:17Z</time>
</trkpt>
<trkpt lat="45.411366710" lon="6.956218390">
  <ele>2238.000000</ele>
<time>2017-08-15T10:24:21Z</time>
</trkpt>
<trkpt lat="45.411423370" lon="6.956370100">
  <ele>2235.200000</ele>
<time>2017-08-15T10:24:24Z</time>
</trkpt>
<trkpt lat="45.411428400" lon="6.956505050">
  <ele>2233.300000</ele>
<time>2017-08-15T10:24:26Z</time>
</trkpt>
<trkpt lat="45.411425050" lon="6.956675030">
  <ele>2230.300000</ele>
<time>2017-08-15T10:24:29Z</time>
</trkpt>
<trkpt lat="45.411416830" lon="6.956808470">
  <ele>2228.300000</ele>
<time>2017-08-15T10:24:31Z</time>
</trkpt>
<trkpt lat="45.411416830" lon="6.957000080">
  <ele>2224.900000</ele>
<time>2017-08-15T10:24:34Z</time>
</trkpt>
<trkpt lat="45.411421690" lon="6.957143410">
  <ele>2222.300000</ele>
<time>2017-08-15T10:24:36Z</time>
</trkpt>
<trkpt lat="45.411426720" lon="6.957318430">
  <ele>2219.700000</ele>
<time>2017-08-15T10:24:38Z</time>
</trkpt>
<trkpt lat="45.411426720" lon="6.957511720">
  <ele>2217.200000</ele>
<time>2017-08-15T10:24:40Z</time>
</trkpt>
<trkpt lat="45.411433430" lon="6.957676670">
  <ele>2214.600000</ele>
<time>2017-08-15T10:24:42Z</time>
</trkpt>
<trkpt lat="45.411411800" lon="6.957823350">
  <ele>2211.900000</ele>
<time>2017-08-15T10:24:44Z</time>
</trkpt>
<trkpt lat="45.411390010" lon="6.957971710">
  <ele>2209.400000</ele>
<time>2017-08-15T10:24:46Z</time>
</trkpt>
<trkpt lat="45.411398390" lon="6.958126780">
  <ele>2207.200000</ele>
<time>2017-08-15T10:24:48Z</time>
</trkpt>
<trkpt lat="45.411405100" lon="6.958288380">
  <ele>2204.800000</ele>
<time>2017-08-15T10:24:50Z</time>
</trkpt>
<trkpt lat="45.411418340" lon="6.958478480">
  <ele>2201.600000</ele>
<time>2017-08-15T10:24:53Z</time>
</trkpt>
<trkpt lat="45.411435100" lon="6.958630030">
  <ele>2199.500000</ele>
<time>2017-08-15T10:24:55Z</time>
</trkpt>
<trkpt lat="45.411451700" lon="6.958766820">
  <ele>2197.300000</ele>
<time>2017-08-15T10:24:57Z</time>
</trkpt>
<trkpt lat="45.411473490" lon="6.958893390">
  <ele>2195.200000</ele>
<time>2017-08-15T10:24:59Z</time>
</trkpt>
<trkpt lat="45.411496800" lon="6.959025150">
  <ele>2192.900000</ele>
<time>2017-08-15T10:25:01Z</time>
</trkpt>
<trkpt lat="45.411535020" lon="6.959203350">
  <ele>2189.600000</ele>
<time>2017-08-15T10:25:04Z</time>
</trkpt>
<trkpt lat="45.411540050" lon="6.959388420">
  <ele>2186.000000</ele>
<time>2017-08-15T10:25:07Z</time>
</trkpt>
<trkpt lat="45.411578440" lon="6.959545170">
  <ele>2182.800000</ele>
<time>2017-08-15T10:25:10Z</time>
</trkpt>
<trkpt lat="45.411581790" lon="6.959678440">
  <ele>2179.800000</ele>
<time>2017-08-15T10:25:13Z</time>
</trkpt>
<trkpt lat="45.411591680" lon="6.959836690">
  <ele>2175.900000</ele>
<time>2017-08-15T10:25:17Z</time>
</trkpt>
<trkpt lat="45.411640130" lon="6.960005160">
  <ele>2172.100000</ele>
<time>2017-08-15T10:25:21Z</time>
</trkpt>
<trkpt lat="45.411690080" lon="6.960175150">
  <ele>2168.800000</ele>
<time>2017-08-15T10:25:24Z</time>
</trkpt>
<trkpt lat="45.411726800" lon="6.960301720">
  <ele>2166.600000</ele>
<time>2017-08-15T10:25:26Z</time>
</trkpt>
<trkpt lat="45.411783460" lon="6.960443370">
  <ele>2164.400000</ele>
<time>2017-08-15T10:25:28Z</time>
</trkpt>
<trkpt lat="45.411805080" lon="6.960635150">
  <ele>2161.900000</ele>
<time>2017-08-15T10:25:30Z</time>
</trkpt>
<trkpt lat="45.411833410" lon="6.960823410">
  <ele>2159.700000</ele>
<time>2017-08-15T10:25:32Z</time>
</trkpt>
<trkpt lat="45.411896780" lon="6.961003450">
  <ele>2157.100000</ele>
<time>2017-08-15T10:25:34Z</time>
</trkpt>
<trkpt lat="45.411953440" lon="6.961191710">
  <ele>2154.900000</ele>
<time>2017-08-15T10:25:36Z</time>
</trkpt>
<trkpt lat="45.411983450" lon="6.961415000">
  <ele>2152.400000</ele>
<time>2017-08-15T10:25:38Z</time>
</trkpt>
<trkpt lat="45.412018490" lon="6.961626730">
  <ele>2149.800000</ele>
<time>2017-08-15T10:25:40Z</time>
</trkpt>
<trkpt lat="45.412071790" lon="6.961818340">
  <ele>2147.200000</ele>
<time>2017-08-15T10:25:42Z</time>
</trkpt>
<trkpt lat="45.412165000" lon="6.962023360">
  <ele>2144.200000</ele>
<time>2017-08-15T10:25:44Z</time>
</trkpt>
<trkpt lat="45.412213450" lon="6.962140030">
  <ele>2142.800000</ele>
<time>2017-08-15T10:25:45Z</time>
</trkpt>
<trkpt lat="45.412255020" lon="6.962265090">
  <ele>2141.400000</ele>
<time>2017-08-15T10:25:46Z</time>
</trkpt>
<trkpt lat="45.412296760" lon="6.962396690">
  <ele>2139.900000</ele>
<time>2017-08-15T10:25:47Z</time>
</trkpt>
<trkpt lat="45.412341690" lon="6.962530130">
  <ele>2138.500000</ele>
<time>2017-08-15T10:25:48Z</time>
</trkpt>
<trkpt lat="45.412385110" lon="6.962651830">
  <ele>2137.100000</ele>
<time>2017-08-15T10:25:49Z</time>
</trkpt>
<trkpt lat="45.412451830" lon="6.962866750">
  <ele>2134.300000</ele>
<time>2017-08-15T10:25:51Z</time>
</trkpt>
<trkpt lat="45.412495080" lon="6.963108480">
  <ele>2131.700000</ele>
<time>2017-08-15T10:25:53Z</time>
</trkpt>
<trkpt lat="45.412525090" lon="6.963355080">
  <ele>2128.700000</ele>
<time>2017-08-15T10:25:55Z</time>
</trkpt>
<trkpt lat="45.412538500" lon="6.963483490">
  <ele>2127.300000</ele>
<time>2017-08-15T10:25:56Z</time>
</trkpt>
<trkpt lat="45.412568340" lon="6.963608380">
  <ele>2125.900000</ele>
<time>2017-08-15T10:25:57Z</time>
</trkpt>
<trkpt lat="45.412665740" lon="6.963900910">
  <ele>2122.000000</ele>
<time>2017-08-15T10:25:59Z</time>
</trkpt>
<trkpt lat="45.412756760" lon="6.964148340">
  <ele>2119.600000</ele>
<time>2017-08-15T10:26:02Z</time>
</trkpt>
<trkpt lat="45.412853490" lon="6.964315140">
  <ele>2117.100000</ele>
<time>2017-08-15T10:26:04Z</time>
</trkpt>
<trkpt lat="45.412963460" lon="6.964506750">
  <ele>2114.900000</ele>
<time>2017-08-15T10:26:06Z</time>
</trkpt>
<trkpt lat="45.413086680" lon="6.964701710">
  <ele>2112.500000</ele>
<time>2017-08-15T10:26:08Z</time>
</trkpt>
<trkpt lat="45.413151720" lon="6.964805140">
  <ele>2111.300000</ele>
<time>2017-08-15T10:26:09Z</time>
</trkpt>
<trkpt lat="45.413218440" lon="6.964905060">
  <ele>2110.100000</ele>
<time>2017-08-15T10:26:10Z</time>
</trkpt>
<trkpt lat="45.413275100" lon="6.965008490">
  <ele>2108.900000</ele>
<time>2017-08-15T10:26:11Z</time>
</trkpt>
<trkpt lat="45.413381720" lon="6.965208480">
  <ele>2106.400000</ele>
<time>2017-08-15T10:26:13Z</time>
</trkpt>
<trkpt lat="45.413488340" lon="6.965413340">
  <ele>2104.200000</ele>
<time>2017-08-15T10:26:15Z</time>
</trkpt>
<trkpt lat="45.413571820" lon="6.965601760">
  <ele>2102.200000</ele>
<time>2017-08-15T10:26:17Z</time>
</trkpt>
<trkpt lat="45.413631830" lon="6.965721790">
  <ele>2100.200000</ele>
<time>2017-08-15T10:26:19Z</time>
</trkpt>
<trkpt lat="45.413681790" lon="6.965830080">
  <ele>2094.300000</ele>
<time>2017-08-15T10:26:27Z</time>
</trkpt>
<trkpt lat="45.413776670" lon="6.965843490">
  <ele>2084.000000</ele>
<time>2017-08-15T10:32:11Z</time>
</trkpt>
<trkpt lat="45.413813390" lon="6.965963360">
  <ele>2083.500000</ele>
<time>2017-08-15T10:32:50Z</time>
</trkpt>
<trkpt lat="45.413885140" lon="6.966058410">
  <ele>2083.500000</ele>
<time>2017-08-15T10:32:54Z</time>
</trkpt>
<trkpt lat="45.413975160" lon="6.966171730">
  <ele>2083.200000</ele>
<time>2017-08-15T10:32:57Z</time>
</trkpt>
<trkpt lat="45.414051770" lon="6.966258400">
  <ele>2083.100000</ele>
<time>2017-08-15T10:32:59Z</time>
</trkpt>
<trkpt lat="45.414138440" lon="6.966360160">
  <ele>2082.900000</ele>
<time>2017-08-15T10:33:01Z</time>
</trkpt>
<trkpt lat="45.414238350" lon="6.966478340">
  <ele>2082.500000</ele>
<time>2017-08-15T10:33:03Z</time>
</trkpt>
<trkpt lat="45.414350160" lon="6.966598370">
  <ele>2082.200000</ele>
<time>2017-08-15T10:33:05Z</time>
</trkpt>
<trkpt lat="45.414476730" lon="6.966720070">
  <ele>2081.800000</ele>
<time>2017-08-15T10:33:07Z</time>
</trkpt>
<trkpt lat="45.414620060" lon="6.966841780">
  <ele>2081.400000</ele>
<time>2017-08-15T10:33:09Z</time>
</trkpt>
<trkpt lat="45.414773450" lon="6.966973380">
  <ele>2080.500000</ele>
<time>2017-08-15T10:33:11Z</time>
</trkpt>
<trkpt lat="45.414921810" lon="6.967098430">
  <ele>2079.900000</ele>
<time>2017-08-15T10:33:13Z</time>
</trkpt>
<trkpt lat="45.415071680" lon="6.967195160">
  <ele>2079.200000</ele>
<time>2017-08-15T10:33:15Z</time>
</trkpt>
<trkpt lat="45.415218360" lon="6.967313350">
  <ele>2078.600000</ele>
<time>2017-08-15T10:33:17Z</time>
</trkpt>
<trkpt lat="45.415373430" lon="6.967443430">
  <ele>2078.000000</ele>
<time>2017-08-15T10:33:19Z</time>
</trkpt>
<trkpt lat="45.415451710" lon="6.967506800">
  <ele>2077.600000</ele>
<time>2017-08-15T10:33:20Z</time>
</trkpt>
<trkpt lat="45.415528490" lon="6.967576700">
  <ele>2077.300000</ele>
<time>2017-08-15T10:33:21Z</time>
</trkpt>
<trkpt lat="45.415666790" lon="6.967691700">
  <ele>2076.500000</ele>
<time>2017-08-15T10:33:23Z</time>
</trkpt>
<trkpt lat="45.415776760" lon="6.967750040">
  <ele>2075.400000</ele>
<time>2017-08-15T10:33:25Z</time>
</trkpt>
<trkpt lat="45.415922270" lon="6.967775360">
  <ele>2073.000000</ele>
<time>2017-08-15T10:33:27Z</time>
</trkpt>
<trkpt lat="45.416101810" lon="6.967831680">
  <ele>2073.100000</ele>
<time>2017-08-15T10:33:30Z</time>
</trkpt>
<trkpt lat="45.416250010" lon="6.967910140">
  <ele>2072.000000</ele>
<time>2017-08-15T10:33:32Z</time>
</trkpt>
<trkpt lat="45.416410100" lon="6.967993450">
  <ele>2071.000000</ele>
<time>2017-08-15T10:33:34Z</time>
</trkpt>
<trkpt lat="45.416578410" lon="6.968018430">
  <ele>2070.000000</ele>
<time>2017-08-15T10:33:36Z</time>
</trkpt>
<trkpt lat="45.416738340" lon="6.967970150">
  <ele>2069.000000</ele>
<time>2017-08-15T10:33:38Z</time>
</trkpt>
<trkpt lat="45.416860040" lon="6.967845090">
  <ele>2067.900000</ele>
<time>2017-08-15T10:33:40Z</time>
</trkpt>
<trkpt lat="45.416931790" lon="6.967658340">
  <ele>2066.500000</ele>
<time>2017-08-15T10:33:42Z</time>
</trkpt>
<trkpt lat="45.417003370" lon="6.967486680">
  <ele>2065.100000</ele>
<time>2017-08-15T10:33:44Z</time>
</trkpt>
<trkpt lat="45.417131780" lon="6.967390120">
  <ele>2063.600000</ele>
<time>2017-08-15T10:33:46Z</time>
</trkpt>
<trkpt lat="45.417221800" lon="6.967361790">
  <ele>2062.700000</ele>
<time>2017-08-15T10:33:47Z</time>
</trkpt>
<trkpt lat="45.417323390" lon="6.967333460">
  <ele>2061.800000</ele>
<time>2017-08-15T10:33:48Z</time>
</trkpt>
<trkpt lat="45.417578870" lon="6.967358610">
  <ele>2059.000000</ele>
<time>2017-08-15T10:33:50Z</time>
</trkpt>
<trkpt lat="45.417845080" lon="6.967470090">
  <ele>2057.300000</ele>
<time>2017-08-15T10:33:53Z</time>
</trkpt>
<trkpt lat="45.418132080" lon="6.967510490">
  <ele>2054.000000</ele>
<time>2017-08-15T10:33:55Z</time>
</trkpt>
<trkpt lat="45.418421760" lon="6.967563460">
  <ele>2052.900000</ele>
<time>2017-08-15T10:33:58Z</time>
</trkpt>
<trkpt lat="45.418538430" lon="6.967608390">
  <ele>2052.100000</ele>
<time>2017-08-15T10:33:59Z</time>
</trkpt>
<trkpt lat="45.418650080" lon="6.967656670">
  <ele>2051.300000</ele>
<time>2017-08-15T10:34:00Z</time>
</trkpt>
<trkpt lat="45.418748480" lon="6.967700090">
  <ele>2050.300000</ele>
<time>2017-08-15T10:34:01Z</time>
</trkpt>
<trkpt lat="45.418850070" lon="6.967740150">
  <ele>2049.400000</ele>
<time>2017-08-15T10:34:02Z</time>
</trkpt>
<trkpt lat="45.418953340" lon="6.967773340">
  <ele>2048.600000</ele>
<time>2017-08-15T10:34:03Z</time>
</trkpt>
<trkpt lat="45.419046710" lon="6.967805030">
  <ele>2047.800000</ele>
<time>2017-08-15T10:34:04Z</time>
</trkpt>
<trkpt lat="45.419180150" lon="6.967878450">
  <ele>2046.200000</ele>
<time>2017-08-15T10:34:06Z</time>
</trkpt>
<trkpt lat="45.419261790" lon="6.967980040">
  <ele>2044.000000</ele>
<time>2017-08-15T10:34:08Z</time>
</trkpt>
<trkpt lat="45.419376790" lon="6.968103420">
  <ele>2042.200000</ele>
<time>2017-08-15T10:34:10Z</time>
</trkpt>
<trkpt lat="45.419501680" lon="6.968245080">
  <ele>2040.500000</ele>
<time>2017-08-15T10:34:12Z</time>
</trkpt>
<trkpt lat="45.419636800" lon="6.968385060">
  <ele>2039.100000</ele>
<time>2017-08-15T10:34:14Z</time>
</trkpt>
<trkpt lat="45.419760010" lon="6.968531740">
  <ele>2037.200000</ele>
<time>2017-08-15T10:34:16Z</time>
</trkpt>
<trkpt lat="45.419905020" lon="6.968655120">
  <ele>2035.500000</ele>
<time>2017-08-15T10:34:18Z</time>
</trkpt>
<trkpt lat="45.419995040" lon="6.968696690">
  <ele>2034.800000</ele>
<time>2017-08-15T10:34:19Z</time>
</trkpt>
<trkpt lat="45.420091770" lon="6.968733410">
  <ele>2034.000000</ele>
<time>2017-08-15T10:34:20Z</time>
</trkpt>
<trkpt lat="45.420185140" lon="6.968776830">
  <ele>2033.300000</ele>
<time>2017-08-15T10:34:21Z</time>
</trkpt>
<trkpt lat="45.420281700" lon="6.968815050">
  <ele>2032.500000</ele>
<time>2017-08-15T10:34:22Z</time>
</trkpt>
<trkpt lat="45.420378430" lon="6.968850080">
  <ele>2031.800000</ele>
<time>2017-08-15T10:34:23Z</time>
</trkpt>
<trkpt lat="45.420475160" lon="6.968886800">
  <ele>2031.100000</ele>
<time>2017-08-15T10:34:24Z</time>
</trkpt>
<trkpt lat="45.420571710" lon="6.968928370">
  <ele>2030.300000</ele>
<time>2017-08-15T10:34:25Z</time>
</trkpt>
<trkpt lat="45.420666770" lon="6.968968440">
  <ele>2029.600000</ele>
<time>2017-08-15T10:34:26Z</time>
</trkpt>
<trkpt lat="45.420763490" lon="6.969003470">
  <ele>2028.800000</ele>
<time>2017-08-15T10:34:27Z</time>
</trkpt>
<trkpt lat="45.420860050" lon="6.969031800">
  <ele>2028.100000</ele>
<time>2017-08-15T10:34:28Z</time>
</trkpt>
<trkpt lat="45.420958460" lon="6.969050080">
  <ele>2027.200000</ele>
<time>2017-08-15T10:34:29Z</time>
</trkpt>
<trkpt lat="45.421056690" lon="6.969058460">
  <ele>2026.400000</ele>
<time>2017-08-15T10:34:30Z</time>
</trkpt>
<trkpt lat="45.421156770" lon="6.969060130">
  <ele>2025.600000</ele>
<time>2017-08-15T10:34:31Z</time>
</trkpt>
<trkpt lat="45.421258360" lon="6.969053430">
  <ele>2024.900000</ele>
<time>2017-08-15T10:34:32Z</time>
</trkpt>
<trkpt lat="45.421361790" lon="6.969043370">
  <ele>2024.200000</ele>
<time>2017-08-15T10:34:33Z</time>
</trkpt>
<trkpt lat="45.421465060" lon="6.969036830">
  <ele>2023.500000</ele>
<time>2017-08-15T10:34:34Z</time>
</trkpt>
<trkpt lat="45.421570170" lon="6.969038340">
  <ele>2022.800000</ele>
<time>2017-08-15T10:34:35Z</time>
</trkpt>
<trkpt lat="45.421671760" lon="6.969053430">
  <ele>2022.200000</ele>
<time>2017-08-15T10:34:36Z</time>
</trkpt>
<trkpt lat="45.421763450" lon="6.969083440">
  <ele>2021.600000</ele>
<time>2017-08-15T10:34:37Z</time>
</trkpt>
<trkpt lat="45.421848450" lon="6.969136740">
  <ele>2020.700000</ele>
<time>2017-08-15T10:34:38Z</time>
</trkpt>
<trkpt lat="45.421926730" lon="6.969208490">
  <ele>2019.700000</ele>
<time>2017-08-15T10:34:39Z</time>
</trkpt>
<trkpt lat="45.422061680" lon="6.969373450">
  <ele>2017.500000</ele>
<time>2017-08-15T10:34:41Z</time>
</trkpt>
<trkpt lat="45.422131750" lon="6.969458440">
  <ele>2016.600000</ele>
<time>2017-08-15T10:34:42Z</time>
</trkpt>
<trkpt lat="45.422208370" lon="6.969536730">
  <ele>2015.800000</ele>
<time>2017-08-15T10:34:43Z</time>
</trkpt>
<trkpt lat="45.422283470" lon="6.969621720">
  <ele>2014.900000</ele>
<time>2017-08-15T10:34:44Z</time>
</trkpt>
<trkpt lat="45.422356720" lon="6.969713420">
  <ele>2013.900000</ele>
<time>2017-08-15T10:34:45Z</time>
</trkpt>
<trkpt lat="45.422433340" lon="6.969803440">
  <ele>2013.000000</ele>
<time>2017-08-15T10:34:46Z</time>
</trkpt>
<trkpt lat="45.422513470" lon="6.969888430">
  <ele>2011.900000</ele>
<time>2017-08-15T10:34:47Z</time>
</trkpt>
<trkpt lat="45.422595110" lon="6.969971750">
  <ele>2010.800000</ele>
<time>2017-08-15T10:34:48Z</time>
</trkpt>
<trkpt lat="45.422670040" lon="6.970063450">
  <ele>2009.800000</ele>
<time>2017-08-15T10:34:49Z</time>
</trkpt>
<trkpt lat="45.422741790" lon="6.970160010">
  <ele>2008.900000</ele>
<time>2017-08-15T10:34:50Z</time>
</trkpt>
<trkpt lat="45.422815050" lon="6.970240140">
  <ele>2008.000000</ele>
<time>2017-08-15T10:34:51Z</time>
</trkpt>
<trkpt lat="45.422896690" lon="6.970301830">
  <ele>2007.100000</ele>
<time>2017-08-15T10:34:52Z</time>
</trkpt>
<trkpt lat="45.423046720" lon="6.970396710">
  <ele>2005.100000</ele>
<time>2017-08-15T10:34:54Z</time>
</trkpt>
<trkpt lat="45.423176810" lon="6.970475170">
  <ele>2003.300000</ele>
<time>2017-08-15T10:34:56Z</time>
</trkpt>
<trkpt lat="45.423288460" lon="6.970575080">
  <ele>2001.400000</ele>
<time>2017-08-15T10:34:58Z</time>
</trkpt>
<trkpt lat="45.423385020" lon="6.970700140">
  <ele>1999.000000</ele>
<time>2017-08-15T10:35:00Z</time>
</trkpt>
<trkpt lat="45.423491800" lon="6.970810110">
  <ele>1997.000000</ele>
<time>2017-08-15T10:35:02Z</time>
</trkpt>
<trkpt lat="45.423628430" lon="6.970905160">
  <ele>1995.100000</ele>
<time>2017-08-15T10:35:04Z</time>
</trkpt>
<trkpt lat="45.423805120" lon="6.970975060">
  <ele>1993.200000</ele>
<time>2017-08-15T10:35:06Z</time>
</trkpt>
<trkpt lat="45.423900000" lon="6.971015130">
  <ele>1992.200000</ele>
<time>2017-08-15T10:35:07Z</time>
</trkpt>
<trkpt lat="45.423993380" lon="6.971061730">
  <ele>1991.200000</ele>
<time>2017-08-15T10:35:08Z</time>
</trkpt>
<trkpt lat="45.424085070" lon="6.971110010">
  <ele>1990.300000</ele>
<time>2017-08-15T10:35:09Z</time>
</trkpt>
<trkpt lat="45.424178450" lon="6.971158460">
  <ele>1989.400000</ele>
<time>2017-08-15T10:35:10Z</time>
</trkpt>
<trkpt lat="45.424271820" lon="6.971201710">
  <ele>1988.500000</ele>
<time>2017-08-15T10:35:11Z</time>
</trkpt>
<trkpt lat="45.424370060" lon="6.971243450">
  <ele>1987.700000</ele>
<time>2017-08-15T10:35:12Z</time>
</trkpt>
<trkpt lat="45.424471810" lon="6.971278490">
  <ele>1986.800000</ele>
<time>2017-08-15T10:35:13Z</time>
</trkpt>
<trkpt lat="45.424575080" lon="6.971311680">
  <ele>1986.000000</ele>
<time>2017-08-15T10:35:14Z</time>
</trkpt>
<trkpt lat="45.424676670" lon="6.971351750">
  <ele>1985.200000</ele>
<time>2017-08-15T10:35:15Z</time>
</trkpt>
<trkpt lat="45.424780100" lon="6.971396670">
  <ele>1984.200000</ele>
<time>2017-08-15T10:35:16Z</time>
</trkpt>
<trkpt lat="45.424886720" lon="6.971441770">
  <ele>1983.300000</ele>
<time>2017-08-15T10:35:17Z</time>
</trkpt>
<trkpt lat="45.424993340" lon="6.971486700">
  <ele>1982.400000</ele>
<time>2017-08-15T10:35:18Z</time>
</trkpt>
<trkpt lat="45.425101800" lon="6.971538500">
  <ele>1981.600000</ele>
<time>2017-08-15T10:35:19Z</time>
</trkpt>
<trkpt lat="45.425210090" lon="6.971591800">
  <ele>1980.800000</ele>
<time>2017-08-15T10:35:20Z</time>
</trkpt>
<trkpt lat="45.425313360" lon="6.971646790">
  <ele>1980.000000</ele>
<time>2017-08-15T10:35:21Z</time>
</trkpt>
<trkpt lat="45.425403380" lon="6.971696750">
  <ele>1979.100000</ele>
<time>2017-08-15T10:35:22Z</time>
</trkpt>
<trkpt lat="45.425505140" lon="6.971758440">
  <ele>1977.300000</ele>
<time>2017-08-15T10:35:24Z</time>
</trkpt>
<trkpt lat="45.425515030" lon="6.971940160">
  <ele>1963.300000</ele>
<time>2017-08-15T10:36:34Z</time>
</trkpt>
<trkpt lat="45.425568330" lon="6.972101760">
  <ele>1963.200000</ele>
<time>2017-08-15T10:36:36Z</time>
</trkpt>
<trkpt lat="45.425656680" lon="6.972270070">
  <ele>1962.800000</ele>
<time>2017-08-15T10:36:38Z</time>
</trkpt>
<trkpt lat="45.425786770" lon="6.972393450">
  <ele>1962.300000</ele>
<time>2017-08-15T10:36:40Z</time>
</trkpt>
<trkpt lat="45.425930100" lon="6.972493360">
  <ele>1961.700000</ele>
<time>2017-08-15T10:36:42Z</time>
</trkpt>
<trkpt lat="45.426081810" lon="6.972583380">
  <ele>1961.300000</ele>
<time>2017-08-15T10:36:44Z</time>
</trkpt>
<trkpt lat="45.426231680" lon="6.972665020">
  <ele>1960.800000</ele>
<time>2017-08-15T10:36:46Z</time>
</trkpt>
<trkpt lat="45.426373500" lon="6.972741800">
  <ele>1960.100000</ele>
<time>2017-08-15T10:36:48Z</time>
</trkpt>
<trkpt lat="45.426516830" lon="6.972813380">
  <ele>1959.300000</ele>
<time>2017-08-15T10:36:50Z</time>
</trkpt>
<trkpt lat="45.426660160" lon="6.972886810">
  <ele>1958.600000</ele>
<time>2017-08-15T10:36:52Z</time>
</trkpt>
<trkpt lat="45.426806680" lon="6.972941790">
  <ele>1957.700000</ele>
<time>2017-08-15T10:36:54Z</time>
</trkpt>
<trkpt lat="45.426955040" lon="6.972988400">
  <ele>1957.000000</ele>
<time>2017-08-15T10:36:56Z</time>
</trkpt>
<trkpt lat="45.427098370" lon="6.973051760">
  <ele>1956.300000</ele>
<time>2017-08-15T10:36:58Z</time>
</trkpt>
<trkpt lat="45.427240020" lon="6.973125020">
  <ele>1955.700000</ele>
<time>2017-08-15T10:37:00Z</time>
</trkpt>
<trkpt lat="45.427388380" lon="6.973186710">
  <ele>1955.000000</ele>
<time>2017-08-15T10:37:02Z</time>
</trkpt>
<trkpt lat="45.427540090" lon="6.973235160">
  <ele>1954.300000</ele>
<time>2017-08-15T10:37:04Z</time>
</trkpt>
<trkpt lat="45.427695160" lon="6.973256790">
  <ele>1953.800000</ele>
<time>2017-08-15T10:37:06Z</time>
</trkpt>
<trkpt lat="45.427838490" lon="6.973245050">
  <ele>1953.200000</ele>
<time>2017-08-15T10:37:08Z</time>
</trkpt>
<trkpt lat="45.427955170" lon="6.973240020">
  <ele>1952.800000</ele>
<time>2017-08-15T10:37:10Z</time>
</trkpt>
<trkpt lat="45.428056750" lon="6.973291820">
  <ele>1952.300000</ele>
<time>2017-08-15T10:37:12Z</time>
</trkpt>
<trkpt lat="45.428158340" lon="6.973331720">
  <ele>1951.900000</ele>
<time>2017-08-15T10:37:14Z</time>
</trkpt>
<trkpt lat="45.428266800" lon="6.973370110">
  <ele>1951.400000</ele>
<time>2017-08-15T10:37:16Z</time>
</trkpt>
<trkpt lat="45.428368390" lon="6.973328370">
  <ele>1951.000000</ele>
<time>2017-08-15T10:37:18Z</time>
</trkpt>
<trkpt lat="45.428443500" lon="6.973233480">
  <ele>1950.600000</ele>
<time>2017-08-15T10:37:20Z</time>
</trkpt>
<trkpt lat="45.428550110" lon="6.973131730">
  <ele>1950.200000</ele>
<time>2017-08-15T10:37:23Z</time>
</trkpt>
<trkpt lat="45.428635110" lon="6.973078420">
  <ele>1950.100000</ele>
<time>2017-08-15T10:37:25Z</time>
</trkpt>
<trkpt lat="45.428721770" lon="6.973018400">
  <ele>1950.000000</ele>
<time>2017-08-15T10:37:27Z</time>
</trkpt>
<trkpt lat="45.428818330" lon="6.972946820">
  <ele>1950.000000</ele>
<time>2017-08-15T10:37:30Z</time>
</trkpt>
<trkpt lat="45.428936690" lon="6.972908430">
  <ele>1950.200000</ele>
<time>2017-08-15T10:37:33Z</time>
</trkpt>
<trkpt lat="45.429030060" lon="6.972881780">
  <ele>1950.300000</ele>
<time>2017-08-15T10:37:35Z</time>
</trkpt>
<trkpt lat="45.429123440" lon="6.972840040">
  <ele>1950.400000</ele>
<time>2017-08-15T10:37:37Z</time>
</trkpt>
<trkpt lat="45.429228380" lon="6.972805000">
  <ele>1950.500000</ele>
<time>2017-08-15T10:37:39Z</time>
</trkpt>
<trkpt lat="45.429335160" lon="6.972780020">
  <ele>1950.600000</ele>
<time>2017-08-15T10:37:41Z</time>
</trkpt>
<trkpt lat="45.429448490" lon="6.972768460">
  <ele>1950.600000</ele>
<time>2017-08-15T10:37:43Z</time>
</trkpt>
<trkpt lat="45.429565160" lon="6.972761750">
  <ele>1950.600000</ele>
<time>2017-08-15T10:37:45Z</time>
</trkpt>
<trkpt lat="45.429681670" lon="6.972756720">
  <ele>1950.600000</ele>
<time>2017-08-15T10:37:47Z</time>
</trkpt>
<trkpt lat="45.429793480" lon="6.972750020">
  <ele>1950.600000</ele>
<time>2017-08-15T10:37:49Z</time>
</trkpt>
<trkpt lat="45.429900100" lon="6.972743480">
  <ele>1950.600000</ele>
<time>2017-08-15T10:37:51Z</time>
</trkpt>
<trkpt lat="45.429996830" lon="6.972723360">
  <ele>1950.400000</ele>
<time>2017-08-15T10:37:53Z</time>
</trkpt>
<trkpt lat="45.430091710" lon="6.972686820">
  <ele>1950.300000</ele>
<time>2017-08-15T10:37:55Z</time>
</trkpt>
<trkpt lat="45.430183410" lon="6.972638370">
  <ele>1950.300000</ele>
<time>2017-08-15T10:37:57Z</time>
</trkpt>
<trkpt lat="45.430276790" lon="6.972596790">
  <ele>1950.300000</ele>
<time>2017-08-15T10:37:59Z</time>
</trkpt>
<trkpt lat="45.430371670" lon="6.972561760">
  <ele>1950.300000</ele>
<time>2017-08-15T10:38:01Z</time>
</trkpt>
<trkpt lat="45.430471750" lon="6.972528400">
  <ele>1950.200000</ele>
<time>2017-08-15T10:38:03Z</time>
</trkpt>
<trkpt lat="45.430576690" lon="6.972486820">
  <ele>1950.000000</ele>
<time>2017-08-15T10:38:05Z</time>
</trkpt>
<trkpt lat="45.430690010" lon="6.972448430">
  <ele>1949.900000</ele>
<time>2017-08-15T10:38:07Z</time>
</trkpt>
<trkpt lat="45.430801830" lon="6.972428490">
  <ele>1949.800000</ele>
<time>2017-08-15T10:38:09Z</time>
</trkpt>
<trkpt lat="45.430906770" lon="6.972430160">
  <ele>1949.700000</ele>
<time>2017-08-15T10:38:11Z</time>
</trkpt>
<trkpt lat="45.431008360" lon="6.972413400">
  <ele>1949.500000</ele>
<time>2017-08-15T10:38:13Z</time>
</trkpt>
<trkpt lat="45.431103410" lon="6.972375010">
  <ele>1949.300000</ele>
<time>2017-08-15T10:38:15Z</time>
</trkpt>
<trkpt lat="45.431196780" lon="6.972328410">
  <ele>1949.200000</ele>
<time>2017-08-15T10:38:17Z</time>
</trkpt>
<trkpt lat="45.431290160" lon="6.972281800">
  <ele>1949.000000</ele>
<time>2017-08-15T10:38:19Z</time>
</trkpt>
<trkpt lat="45.431378330" lon="6.972238380">
  <ele>1948.900000</ele>
<time>2017-08-15T10:38:21Z</time>
</trkpt>
<trkpt lat="45.431490150" lon="6.972155070">
  <ele>1948.700000</ele>
<time>2017-08-15T10:38:24Z</time>
</trkpt>
<trkpt lat="45.431563410" lon="6.972061690">
  <ele>1948.700000</ele>
<time>2017-08-15T10:38:27Z</time>
</trkpt>
<trkpt lat="45.431611690" lon="6.971951720">
  <ele>1948.800000</ele>
<time>2017-08-15T10:38:31Z</time>
</trkpt>
<trkpt lat="45.431593410" lon="6.971823480">
  <ele>1949.600000</ele>
<time>2017-08-15T10:38:37Z</time>
</trkpt>
<trkpt lat="45.431593410" lon="6.971690040">
  <ele>1951.100000</ele>
<time>2017-08-15T10:38:45Z</time>
</trkpt>
<trkpt lat="45.431681760" lon="6.971645110">
  <ele>1952.100000</ele>
<time>2017-08-15T10:38:50Z</time>
</trkpt>
<trkpt lat="45.431775130" lon="6.971621810">
  <ele>1952.900000</ele>
<time>2017-08-15T10:38:54Z</time>
</trkpt>
<trkpt lat="45.431898350" lon="6.971611750">
  <ele>1953.600000</ele>
<time>2017-08-15T10:38:58Z</time>
</trkpt>
<trkpt lat="45.432001780" lon="6.971611750">
  <ele>1954.000000</ele>
<time>2017-08-15T10:39:01Z</time>
</trkpt>
<trkpt lat="45.432116780" lon="6.971610080">
  <ele>1954.400000</ele>
<time>2017-08-15T10:39:04Z</time>
</trkpt>
<trkpt lat="45.432235130" lon="6.971610080">
  <ele>1954.800000</ele>
<time>2017-08-15T10:39:07Z</time>
</trkpt>
<trkpt lat="45.432368410" lon="6.971601690">
  <ele>1955.100000</ele>
<time>2017-08-15T10:39:10Z</time>
</trkpt>
<trkpt lat="45.432466810" lon="6.971593480">
  <ele>1955.400000</ele>
<time>2017-08-15T10:39:12Z</time>
</trkpt>
<trkpt lat="45.432568400" lon="6.971581750">
  <ele>1955.500000</ele>
<time>2017-08-15T10:39:14Z</time>
</trkpt>
<trkpt lat="45.432675020" lon="6.971573360">
  <ele>1955.700000</ele>
<time>2017-08-15T10:39:16Z</time>
</trkpt>
<trkpt lat="45.432775100" lon="6.971603370">
  <ele>1955.800000</ele>
<time>2017-08-15T10:39:18Z</time>
</trkpt>
<trkpt lat="45.432878360" lon="6.971690040">
  <ele>1955.600000</ele>
<time>2017-08-15T10:39:20Z</time>
</trkpt>
<trkpt lat="45.432990010" lon="6.971820130">
  <ele>1955.300000</ele>
<time>2017-08-15T10:39:22Z</time>
</trkpt>
<trkpt lat="45.433041810" lon="6.971973350">
  <ele>1954.700000</ele>
<time>2017-08-15T10:39:24Z</time>
</trkpt>
<trkpt lat="45.433046670" lon="6.972165130">
  <ele>1953.900000</ele>
<time>2017-08-15T10:39:26Z</time>
</trkpt>
<trkpt lat="45.433030070" lon="6.972393450">
  <ele>1953.000000</ele>
<time>2017-08-15T10:39:28Z</time>
</trkpt>
<trkpt lat="45.432965030" lon="6.972608360">
  <ele>1952.200000</ele>
<time>2017-08-15T10:39:30Z</time>
</trkpt>
<trkpt lat="45.432928480" lon="6.972813380">
  <ele>1951.300000</ele>
<time>2017-08-15T10:39:32Z</time>
</trkpt>
<trkpt lat="45.433016830" lon="6.972951680">
  <ele>1950.400000</ele>
<time>2017-08-15T10:39:34Z</time>
</trkpt>
<trkpt lat="45.433148430" lon="6.973010020">
  <ele>1949.700000</ele>
<time>2017-08-15T10:39:36Z</time>
</trkpt>
<trkpt lat="45.433285050" lon="6.973056790">
  <ele>1949.000000</ele>
<time>2017-08-15T10:39:38Z</time>
</trkpt>
<trkpt lat="45.433425030" lon="6.973116810">
  <ele>1948.400000</ele>
<time>2017-08-15T10:39:40Z</time>
</trkpt>
<trkpt lat="45.433553440" lon="6.973185040">
  <ele>1947.800000</ele>
<time>2017-08-15T10:39:42Z</time>
</trkpt>
<trkpt lat="45.433681680" lon="6.973238350">
  <ele>1947.300000</ele>
<time>2017-08-15T10:39:44Z</time>
</trkpt>
<trkpt lat="45.433805060" lon="6.973241700">
  <ele>1946.600000</ele>
<time>2017-08-15T10:39:46Z</time>
</trkpt>
<trkpt lat="45.433913360" lon="6.973261810">
  <ele>1946.000000</ele>
<time>2017-08-15T10:39:48Z</time>
</trkpt>
<trkpt lat="45.434013440" lon="6.973301710">
  <ele>1945.500000</ele>
<time>2017-08-15T10:39:50Z</time>
</trkpt>
<trkpt lat="45.434111670" lon="6.973335070">
  <ele>1945.100000</ele>
<time>2017-08-15T10:39:52Z</time>
</trkpt>
<trkpt lat="45.434196830" lon="6.973381680">
  <ele>1944.700000</ele>
<time>2017-08-15T10:39:54Z</time>
</trkpt>
<trkpt lat="45.434320050" lon="6.973445040">
  <ele>1944.200000</ele>
<time>2017-08-15T10:39:57Z</time>
</trkpt>
<trkpt lat="45.434450130" lon="6.973485110">
  <ele>1943.700000</ele>
<time>2017-08-15T10:40:00Z</time>
</trkpt>
<trkpt lat="45.434543340" lon="6.973516790">
  <ele>1943.400000</ele>
<time>2017-08-15T10:40:02Z</time>
</trkpt>
<trkpt lat="45.434650130" lon="6.973555010">
  <ele>1943.100000</ele>
<time>2017-08-15T10:40:04Z</time>
</trkpt>
<trkpt lat="45.434766800" lon="6.973586700">
  <ele>1942.800000</ele>
<time>2017-08-15T10:40:06Z</time>
</trkpt>
<trkpt lat="45.434888340" lon="6.973626760">
  <ele>1942.500000</ele>
<time>2017-08-15T10:40:08Z</time>
</trkpt>
<trkpt lat="45.435021780" lon="6.973668340">
  <ele>1942.100000</ele>
<time>2017-08-15T10:40:10Z</time>
</trkpt>
<trkpt lat="45.435163430" lon="6.973708400">
  <ele>1941.600000</ele>
<time>2017-08-15T10:40:12Z</time>
</trkpt>
<trkpt lat="45.435310120" lon="6.973745120">
  <ele>1941.200000</ele>
<time>2017-08-15T10:40:14Z</time>
</trkpt>
<trkpt lat="45.435465020" lon="6.973783340">
  <ele>1940.700000</ele>
<time>2017-08-15T10:40:16Z</time>
</trkpt>
<trkpt lat="45.435623430" lon="6.973816700">
  <ele>1940.100000</ele>
<time>2017-08-15T10:40:18Z</time>
</trkpt>
<trkpt lat="45.435788390" lon="6.973840170">
  <ele>1939.500000</ele>
<time>2017-08-15T10:40:20Z</time>
</trkpt>
<trkpt lat="45.435956700" lon="6.973860110">
  <ele>1938.800000</ele>
<time>2017-08-15T10:40:22Z</time>
</trkpt>
<trkpt lat="45.436133390" lon="6.973883420">
  <ele>1937.900000</ele>
<time>2017-08-15T10:40:24Z</time>
</trkpt>
<trkpt lat="45.436225090" lon="6.973890120">
  <ele>1937.500000</ele>
<time>2017-08-15T10:40:25Z</time>
</trkpt>
<trkpt lat="45.436316780" lon="6.973895150">
  <ele>1937.100000</ele>
<time>2017-08-15T10:40:26Z</time>
</trkpt>
<trkpt lat="45.436411670" lon="6.973900010">
  <ele>1936.700000</ele>
<time>2017-08-15T10:40:27Z</time>
</trkpt>
<trkpt lat="45.436505040" lon="6.973903370">
  <ele>1936.300000</ele>
<time>2017-08-15T10:40:28Z</time>
</trkpt>
<trkpt lat="45.436600090" lon="6.973911750">
  <ele>1935.800000</ele>
<time>2017-08-15T10:40:29Z</time>
</trkpt>
<trkpt lat="45.436695140" lon="6.973928340">
  <ele>1935.400000</ele>
<time>2017-08-15T10:40:30Z</time>
</trkpt>
<trkpt lat="45.436785170" lon="6.973965060">
  <ele>1935.000000</ele>
<time>2017-08-15T10:40:31Z</time>
</trkpt>
<trkpt lat="45.436868480" lon="6.974025070">
  <ele>1934.500000</ele>
<time>2017-08-15T10:40:32Z</time>
</trkpt>
<trkpt lat="45.436943420" lon="6.974101680">
  <ele>1934.100000</ele>
<time>2017-08-15T10:40:33Z</time>
</trkpt>
<trkpt lat="45.437066800" lon="6.974288430">
  <ele>1933.200000</ele>
<time>2017-08-15T10:40:35Z</time>
</trkpt>
<trkpt lat="45.437118430" lon="6.974393370">
  <ele>1932.700000</ele>
<time>2017-08-15T10:40:36Z</time>
</trkpt>
<trkpt lat="45.437173410" lon="6.974495130">
  <ele>1932.200000</ele>
<time>2017-08-15T10:40:37Z</time>
</trkpt>
<trkpt lat="45.437296800" lon="6.974678360">
  <ele>1931.400000</ele>
<time>2017-08-15T10:40:39Z</time>
</trkpt>
<trkpt lat="45.437456720" lon="6.974780110">
  <ele>1930.600000</ele>
<time>2017-08-15T10:40:41Z</time>
</trkpt>
<trkpt lat="45.437628380" lon="6.974803410">
  <ele>1929.800000</ele>
<time>2017-08-15T10:40:43Z</time>
</trkpt>
<trkpt lat="45.437773390" lon="6.974796710">
  <ele>1928.900000</ele>
<time>2017-08-15T10:40:45Z</time>
</trkpt>
<trkpt lat="45.437893420" lon="6.974785140">
  <ele>1928.100000</ele>
<time>2017-08-15T10:40:47Z</time>
</trkpt>
<trkpt lat="45.438011770" lon="6.974780110">
  <ele>1926.900000</ele>
<time>2017-08-15T10:40:50Z</time>
</trkpt>
<trkpt lat="45.438108500" lon="6.974773410">
  <ele>1925.600000</ele>
<time>2017-08-15T10:40:54Z</time>
</trkpt>
<trkpt lat="45.438223500" lon="6.974766700">
  <ele>1923.500000</ele>
<time>2017-08-15T10:41:02Z</time>
</trkpt>
<trkpt lat="45.438341680" lon="6.974781790">
  <ele>1922.800000</ele>
<time>2017-08-15T10:41:05Z</time>
</trkpt>
<trkpt lat="45.438441760" lon="6.974801740">
  <ele>1922.400000</ele>
<time>2017-08-15T10:41:07Z</time>
</trkpt>
<trkpt lat="45.438556760" lon="6.974818330">
  <ele>1922.000000</ele>
<time>2017-08-15T10:41:09Z</time>
</trkpt>
<trkpt lat="45.438685010" lon="6.974835100">
  <ele>1921.500000</ele>
<time>2017-08-15T10:41:11Z</time>
</trkpt>
<trkpt lat="45.438800010" lon="6.974855050">
  <ele>1921.000000</ele>
<time>2017-08-15T10:41:13Z</time>
</trkpt>
<trkpt lat="45.438848450" lon="6.975001730">
  <ele>1920.200000</ele>
<time>2017-08-15T10:41:16Z</time>
</trkpt>
<trkpt lat="45.438835040" lon="6.975190160">
  <ele>1919.600000</ele>
<time>2017-08-15T10:41:19Z</time>
</trkpt>
<trkpt lat="45.438836720" lon="6.975345050">
  <ele>1919.200000</ele>
<time>2017-08-15T10:41:21Z</time>
</trkpt>
<trkpt lat="45.438846780" lon="6.975500120">
  <ele>1918.800000</ele>
<time>2017-08-15T10:41:23Z</time>
</trkpt>
<trkpt lat="45.438881810" lon="6.975643450">
  <ele>1918.400000</ele>
<time>2017-08-15T10:41:25Z</time>
</trkpt>
<trkpt lat="45.438930090" lon="6.975770020">
  <ele>1918.100000</ele>
<time>2017-08-15T10:41:27Z</time>
</trkpt>
<trkpt lat="45.438993460" lon="6.975883340">
  <ele>1917.700000</ele>
<time>2017-08-15T10:41:29Z</time>
</trkpt>
<trkpt lat="45.439086670" lon="6.975973360">
  <ele>1917.400000</ele>
<time>2017-08-15T10:41:31Z</time>
</trkpt>
<trkpt lat="45.439190100" lon="6.976041760">
  <ele>1917.000000</ele>
<time>2017-08-15T10:41:33Z</time>
</trkpt>
<trkpt lat="45.439291690" lon="6.976098420">
  <ele>1916.800000</ele>
<time>2017-08-15T10:41:35Z</time>
</trkpt>
<trkpt lat="45.439390090" lon="6.976146700">
  <ele>1916.500000</ele>
<time>2017-08-15T10:41:37Z</time>
</trkpt>
<trkpt lat="45.439488500" lon="6.976170170">
  <ele>1916.300000</ele>
<time>2017-08-15T10:41:39Z</time>
</trkpt>
<trkpt lat="45.439591760" lon="6.976181730">
  <ele>1916.100000</ele>
<time>2017-08-15T10:41:41Z</time>
</trkpt>
<trkpt lat="45.439703410" lon="6.976183410">
  <ele>1915.800000</ele>
<time>2017-08-15T10:41:43Z</time>
</trkpt>
<trkpt lat="45.439820080" lon="6.976178380">
  <ele>1915.600000</ele>
<time>2017-08-15T10:41:45Z</time>
</trkpt>
<trkpt lat="45.439936760" lon="6.976171680">
  <ele>1915.500000</ele>
<time>2017-08-15T10:41:47Z</time>
</trkpt>
<trkpt lat="45.440058470" lon="6.976171680">
  <ele>1915.400000</ele>
<time>2017-08-15T10:41:49Z</time>
</trkpt>
<trkpt lat="45.440181680" lon="6.976180060">
  <ele>1915.200000</ele>
<time>2017-08-15T10:41:51Z</time>
</trkpt>
<trkpt lat="45.440310090" lon="6.976198500">
  <ele>1914.900000</ele>
<time>2017-08-15T10:41:53Z</time>
</trkpt>
<trkpt lat="45.440431800" lon="6.976198500">
  <ele>1914.800000</ele>
<time>2017-08-15T10:41:55Z</time>
</trkpt>
<trkpt lat="45.440550150" lon="6.976206710">
  <ele>1914.700000</ele>
<time>2017-08-15T10:41:57Z</time>
</trkpt>
<trkpt lat="45.440671690" lon="6.976243430">
  <ele>1914.500000</ele>
<time>2017-08-15T10:41:59Z</time>
</trkpt>
<trkpt lat="45.440780150" lon="6.976246780">
  <ele>1914.400000</ele>
<time>2017-08-15T10:42:01Z</time>
</trkpt>
<trkpt lat="45.440878380" lon="6.976243430">
  <ele>1914.300000</ele>
<time>2017-08-15T10:42:03Z</time>
</trkpt>
<trkpt lat="45.440976790" lon="6.976205040">
  <ele>1914.200000</ele>
<time>2017-08-15T10:42:05Z</time>
</trkpt>
<trkpt lat="45.441088430" lon="6.976161790">
  <ele>1914.100000</ele>
<time>2017-08-15T10:42:07Z</time>
</trkpt>
<trkpt lat="45.441203430" lon="6.976158430">
  <ele>1914.000000</ele>
<time>2017-08-15T10:42:09Z</time>
</trkpt>
<trkpt lat="45.441315080" lon="6.976213420">
  <ele>1913.900000</ele>
<time>2017-08-15T10:42:11Z</time>
</trkpt>
<trkpt lat="45.441405100" lon="6.976255160">
  <ele>1913.700000</ele>
<time>2017-08-15T10:42:13Z</time>
</trkpt>
<trkpt lat="45.441468470" lon="6.976123400">
  <ele>1913.000000</ele>
<time>2017-08-15T10:42:18Z</time>
</trkpt>
<trkpt lat="45.441550110" lon="6.976061710">
  <ele>1912.500000</ele>
<time>2017-08-15T10:42:20Z</time>
</trkpt>
<trkpt lat="45.441656730" lon="6.976030020">
  <ele>1912.000000</ele>
<time>2017-08-15T10:42:22Z</time>
</trkpt>
<trkpt lat="45.441761670" lon="6.976030020">
  <ele>1911.500000</ele>
<time>2017-08-15T10:42:24Z</time>
</trkpt>
<trkpt lat="45.441860070" lon="6.976023480">
  <ele>1911.100000</ele>
<time>2017-08-15T10:42:26Z</time>
</trkpt>
<trkpt lat="45.441998370" lon="6.976006720">
  <ele>1910.500000</ele>
<time>2017-08-15T10:42:28Z</time>
</trkpt>
<trkpt lat="45.442163500" lon="6.976006720">
  <ele>1909.700000</ele>
<time>2017-08-15T10:42:30Z</time>
</trkpt>
<trkpt lat="45.442346730" lon="6.976003370">
  <ele>1909.000000</ele>
<time>2017-08-15T10:42:32Z</time>
</trkpt>
<trkpt lat="45.442438420" lon="6.976011750">
  <ele>1908.700000</ele>
<time>2017-08-15T10:42:33Z</time>
</trkpt>
<trkpt lat="45.442531800" lon="6.976026670">
  <ele>1908.300000</ele>
<time>2017-08-15T10:42:34Z</time>
</trkpt>
<trkpt lat="45.442621820" lon="6.976043430">
  <ele>1907.900000</ele>
<time>2017-08-15T10:42:35Z</time>
</trkpt>
<trkpt lat="45.442801700" lon="6.976096740">
  <ele>1907.100000</ele>
<time>2017-08-15T10:42:37Z</time>
</trkpt>
<trkpt lat="45.442968500" lon="6.976168490">
  <ele>1906.100000</ele>
<time>2017-08-15T10:42:39Z</time>
</trkpt>
<trkpt lat="45.443051810" lon="6.976216770">
  <ele>1905.500000</ele>
<time>2017-08-15T10:42:40Z</time>
</trkpt>
<trkpt lat="45.443205030" lon="6.976343340">
  <ele>1904.600000</ele>
<time>2017-08-15T10:42:42Z</time>
</trkpt>
<trkpt lat="45.443285160" lon="6.976411730">
  <ele>1904.200000</ele>
<time>2017-08-15T10:42:43Z</time>
</trkpt>
<trkpt lat="45.443366800" lon="6.976478450">
  <ele>1903.800000</ele>
<time>2017-08-15T10:42:44Z</time>
</trkpt>
<trkpt lat="45.443450120" lon="6.976538470">
  <ele>1903.300000</ele>
<time>2017-08-15T10:42:45Z</time>
</trkpt>
<trkpt lat="45.443535110" lon="6.976601670">
  <ele>1902.900000</ele>
<time>2017-08-15T10:42:46Z</time>
</trkpt>
<trkpt lat="45.443618430" lon="6.976673420">
  <ele>1902.300000</ele>
<time>2017-08-15T10:42:47Z</time>
</trkpt>
<trkpt lat="45.443698390" lon="6.976755060">
  <ele>1901.800000</ele>
<time>2017-08-15T10:42:48Z</time>
</trkpt>
<trkpt lat="45.443775000" lon="6.976845080">
  <ele>1901.300000</ele>
<time>2017-08-15T10:42:49Z</time>
</trkpt>
<trkpt lat="45.443846750" lon="6.976933420">
  <ele>1900.800000</ele>
<time>2017-08-15T10:42:50Z</time>
</trkpt>
<trkpt lat="45.443920010" lon="6.977010030">
  <ele>1900.300000</ele>
<time>2017-08-15T10:42:51Z</time>
</trkpt>
<trkpt lat="45.444048420" lon="6.977133420">
  <ele>1899.400000</ele>
<time>2017-08-15T10:42:53Z</time>
</trkpt>
<trkpt lat="45.444125030" lon="6.977276750">
  <ele>1898.600000</ele>
<time>2017-08-15T10:42:55Z</time>
</trkpt>
<trkpt lat="45.444191750" lon="6.977380010">
  <ele>1897.800000</ele>
<time>2017-08-15T10:42:57Z</time>
</trkpt>
<trkpt lat="45.444285120" lon="6.977356710">
  <ele>1892.600000</ele>
<time>2017-08-15T10:43:48Z</time>
</trkpt>
<trkpt lat="45.444380010" lon="6.977201810">
  <ele>1892.200000</ele>
<time>2017-08-15T10:43:51Z</time>
</trkpt>
<trkpt lat="45.444470030" lon="6.977053450">
  <ele>1891.700000</ele>
<time>2017-08-15T10:43:53Z</time>
</trkpt>
<trkpt lat="45.444561730" lon="6.976895030">
  <ele>1890.800000</ele>
<time>2017-08-15T10:43:55Z</time>
</trkpt>
<trkpt lat="45.444631800" lon="6.976785060">
  <ele>1889.800000</ele>
<time>2017-08-15T10:43:57Z</time>
</trkpt>
<trkpt lat="45.444703380" lon="6.976683480">
  <ele>1888.000000</ele>
<time>2017-08-15T10:44:00Z</time>
</trkpt>
<trkpt lat="45.444791730" lon="6.976740140">
  <ele>1885.500000</ele>
<time>2017-08-15T10:44:05Z</time>
</trkpt>
<trkpt lat="45.444883420" lon="6.976836700">
  <ele>1883.900000</ele>
<time>2017-08-15T10:44:09Z</time>
</trkpt>
<trkpt lat="45.444968420" lon="6.976935100">
  <ele>1883.000000</ele>
<time>2017-08-15T10:44:12Z</time>
</trkpt>
<trkpt lat="45.445066820" lon="6.977050100">
  <ele>1882.100000</ele>
<time>2017-08-15T10:44:15Z</time>
</trkpt>
<trkpt lat="45.445171760" lon="6.977165100">
  <ele>1881.500000</ele>
<time>2017-08-15T10:44:18Z</time>
</trkpt>
<trkpt lat="45.445265140" lon="6.977286800">
  <ele>1880.900000</ele>
<time>2017-08-15T10:44:21Z</time>
</trkpt>
<trkpt lat="45.445370080" lon="6.977393420">
  <ele>1880.500000</ele>
<time>2017-08-15T10:44:24Z</time>
</trkpt>
<trkpt lat="45.445470160" lon="6.977513450">
  <ele>1880.100000</ele>
<time>2017-08-15T10:44:27Z</time>
</trkpt>
<trkpt lat="45.445533360" lon="6.977625100">
  <ele>1879.900000</ele>
<time>2017-08-15T10:44:29Z</time>
</trkpt>
<trkpt lat="45.445588340" lon="6.977758370">
  <ele>1879.700000</ele>
<time>2017-08-15T10:44:31Z</time>
</trkpt>
<trkpt lat="45.445640140" lon="6.977906730">
  <ele>1879.600000</ele>
<time>2017-08-15T10:44:33Z</time>
</trkpt>
<trkpt lat="45.445690100" lon="6.978060120">
  <ele>1879.400000</ele>
<time>2017-08-15T10:44:35Z</time>
</trkpt>
<trkpt lat="45.445750110" lon="6.978163380">
  <ele>1879.300000</ele>
<time>2017-08-15T10:44:37Z</time>
</trkpt>
<trkpt lat="45.445853380" lon="6.978206800">
  <ele>1879.200000</ele>
<time>2017-08-15T10:44:40Z</time>
</trkpt>
<trkpt lat="45.445943400" lon="6.978230100">
  <ele>1879.200000</ele>
<time>2017-08-15T10:44:44Z</time>
</trkpt>
<trkpt lat="45.446015150" lon="6.978311740">
  <ele>1879.300000</ele>
<time>2017-08-15T10:44:51Z</time>
</trkpt>
<trkpt lat="45.446108360" lon="6.978233460">
  <ele>1879.600000</ele>
<time>2017-08-15T10:46:48Z</time>
</trkpt>
<trkpt lat="45.446170050" lon="6.978108400">
  <ele>1879.600000</ele>
<time>2017-08-15T10:46:51Z</time>
</trkpt>
<trkpt lat="45.446250010" lon="6.977933380">
  <ele>1879.300000</ele>
<time>2017-08-15T10:46:54Z</time>
</trkpt>
<trkpt lat="45.446308350" lon="6.977770110">
  <ele>1879.000000</ele>
<time>2017-08-15T10:46:56Z</time>
</trkpt>
<trkpt lat="45.446401720" lon="6.977628450">
  <ele>1878.600000</ele>
<time>2017-08-15T10:46:58Z</time>
</trkpt>
<trkpt lat="45.446535160" lon="6.977468360">
  <ele>1878.100000</ele>
<time>2017-08-15T10:47:00Z</time>
</trkpt>
<trkpt lat="45.446601710" lon="6.977373470">
  <ele>1877.600000</ele>
<time>2017-08-15T10:47:01Z</time>
</trkpt>
<trkpt lat="45.446706820" lon="6.977221760">
  <ele>1876.700000</ele>
<time>2017-08-15T10:47:03Z</time>
</trkpt>
<trkpt lat="45.446800030" lon="6.977175160">
  <ele>1875.900000</ele>
<time>2017-08-15T10:47:05Z</time>
</trkpt>
<trkpt lat="45.446906820" lon="6.977201810">
  <ele>1874.700000</ele>
<time>2017-08-15T10:47:08Z</time>
</trkpt>
<trkpt lat="45.446921740" lon="6.977275070">
  <ele>1869.300000</ele>
<time>2017-08-15T10:47:57Z</time>
</trkpt>
<trkpt lat="45.446896760" lon="6.977138440">
  <ele>1840.200000</ele>
<time>2017-08-15T11:10:46Z</time>
</trkpt>
<trkpt lat="45.446828360" lon="6.977053450">
  <ele>1840.200000</ele>
<time>2017-08-15T11:10:50Z</time>
</trkpt>
<trkpt lat="45.446780080" lon="6.976898390">
  <ele>1840.500000</ele>
<time>2017-08-15T11:10:56Z</time>
</trkpt>
<trkpt lat="45.446736830" lon="6.976770140">
  <ele>1840.900000</ele>
<time>2017-08-15T11:11:01Z</time>
</trkpt>
<trkpt lat="45.446688380" lon="6.976638380">
  <ele>1841.300000</ele>
<time>2017-08-15T11:11:05Z</time>
</trkpt>
<trkpt lat="45.446666760" lon="6.976460010">
  <ele>1842.300000</ele>
<time>2017-08-15T11:11:30Z</time>
</trkpt>
<trkpt lat="45.446625020" lon="6.976586750">
  <ele>1842.100000</ele>
<time>2017-08-15T11:12:05Z</time>
</trkpt>
<trkpt lat="45.446804890" lon="6.976115010">
  <ele>1839.000000</ele>
<time>2017-08-15T11:15:03Z</time>
</trkpt>
<trkpt lat="45.446745050" lon="6.975753420">
  <ele>1840.000000</ele>
<time>2017-08-15T11:15:08Z</time>
</trkpt>
<trkpt lat="45.446716710" lon="6.975620150">
  <ele>1840.800000</ele>
<time>2017-08-15T11:15:10Z</time>
</trkpt>
<trkpt lat="45.446698440" lon="6.975490060">
  <ele>1842.000000</ele>
<time>2017-08-15T11:15:12Z</time>
</trkpt>
<trkpt lat="45.446680000" lon="6.975336670">
  <ele>1843.400000</ele>
<time>2017-08-15T11:15:14Z</time>
</trkpt>
<trkpt lat="45.446661730" lon="6.975198370">
  <ele>1845.100000</ele>
<time>2017-08-15T11:15:16Z</time>
</trkpt>
<trkpt lat="45.446648490" lon="6.975038440">
  <ele>1846.900000</ele>
<time>2017-08-15T11:15:18Z</time>
</trkpt>
<trkpt lat="45.446628370" lon="6.974903490">
  <ele>1848.800000</ele>
<time>2017-08-15T11:15:20Z</time>
</trkpt>
<trkpt lat="45.446606740" lon="6.974738370">
  <ele>1850.800000</ele>
<time>2017-08-15T11:15:22Z</time>
</trkpt>
<trkpt lat="45.446578410" lon="6.974571740">
  <ele>1853.100000</ele>
<time>2017-08-15T11:15:24Z</time>
</trkpt>
<trkpt lat="45.446550080" lon="6.974440140">
  <ele>1855.500000</ele>
<time>2017-08-15T11:15:26Z</time>
</trkpt>
<trkpt lat="45.446521750" lon="6.974313410">
  <ele>1858.000000</ele>
<time>2017-08-15T11:15:28Z</time>
</trkpt>
<trkpt lat="45.446498450" lon="6.974186670">
  <ele>1860.600000</ele>
<time>2017-08-15T11:15:30Z</time>
</trkpt>
<trkpt lat="45.446473470" lon="6.974055080">
  <ele>1863.300000</ele>
<time>2017-08-15T11:15:32Z</time>
</trkpt>
<trkpt lat="45.446453360" lon="6.973905040">
  <ele>1866.000000</ele>
<time>2017-08-15T11:15:34Z</time>
</trkpt>
<trkpt lat="45.446435080" lon="6.973716780">
  <ele>1870.200000</ele>
<time>2017-08-15T11:15:37Z</time>
</trkpt>
<trkpt lat="45.446418490" lon="6.973570100">
  <ele>1874.600000</ele>
<time>2017-08-15T11:15:40Z</time>
</trkpt>
<trkpt lat="45.446385130" lon="6.973391730">
  <ele>1879.100000</ele>
<time>2017-08-15T11:15:43Z</time>
</trkpt>
<trkpt lat="45.446353440" lon="6.973261810">
  <ele>1882.300000</ele>
<time>2017-08-15T11:15:45Z</time>
</trkpt>
<trkpt lat="45.446326790" lon="6.973135080">
  <ele>1885.500000</ele>
<time>2017-08-15T11:15:47Z</time>
</trkpt>
<trkpt lat="45.446290080" lon="6.972950010">
  <ele>1890.400000</ele>
<time>2017-08-15T11:15:50Z</time>
</trkpt>
<trkpt lat="45.446253360" lon="6.972766780">
  <ele>1895.400000</ele>
<time>2017-08-15T11:15:53Z</time>
</trkpt>
<trkpt lat="45.446220000" lon="6.972583380">
  <ele>1900.600000</ele>
<time>2017-08-15T11:15:56Z</time>
</trkpt>
<trkpt lat="45.446188490" lon="6.972403340">
  <ele>1905.900000</ele>
<time>2017-08-15T11:15:59Z</time>
</trkpt>
<trkpt lat="45.446156800" lon="6.972221790">
  <ele>1911.300000</ele>
<time>2017-08-15T11:16:02Z</time>
</trkpt>
<trkpt lat="45.446123440" lon="6.972041740">
  <ele>1916.700000</ele>
<time>2017-08-15T11:16:05Z</time>
</trkpt>
<trkpt lat="45.446090080" lon="6.971855160">
  <ele>1922.300000</ele>
<time>2017-08-15T11:16:08Z</time>
</trkpt>
<trkpt lat="45.446061750" lon="6.971670090">
  <ele>1928.000000</ele>
<time>2017-08-15T11:16:11Z</time>
</trkpt>
<trkpt lat="45.446035100" lon="6.971490050">
  <ele>1933.800000</ele>
<time>2017-08-15T11:16:14Z</time>
</trkpt>
<trkpt lat="45.446003410" lon="6.971301790">
  <ele>1939.600000</ele>
<time>2017-08-15T11:16:17Z</time>
</trkpt>
<trkpt lat="45.445975080" lon="6.971113370">
  <ele>1945.600000</ele>
<time>2017-08-15T11:16:20Z</time>
</trkpt>
<trkpt lat="45.445945080" lon="6.970926780">
  <ele>1951.800000</ele>
<time>2017-08-15T11:16:23Z</time>
</trkpt>
<trkpt lat="45.445918420" lon="6.970741710">
  <ele>1958.000000</ele>
<time>2017-08-15T11:16:26Z</time>
</trkpt>
<trkpt lat="45.445890090" lon="6.970560160">
  <ele>1964.200000</ele>
<time>2017-08-15T11:16:29Z</time>
</trkpt>
<trkpt lat="45.445860080" lon="6.970378440">
  <ele>1970.500000</ele>
<time>2017-08-15T11:16:32Z</time>
</trkpt>
<trkpt lat="45.445831750" lon="6.970198400">
  <ele>1976.900000</ele>
<time>2017-08-15T11:16:35Z</time>
</trkpt>
<trkpt lat="45.445803420" lon="6.970031760">
  <ele>1983.400000</ele>
<time>2017-08-15T11:16:38Z</time>
</trkpt>
<trkpt lat="45.445785150" lon="6.969900000">
  <ele>1987.700000</ele>
<time>2017-08-15T11:16:40Z</time>
</trkpt>
<trkpt lat="45.445765030" lon="6.969751810">
  <ele>1992.000000</ele>
<time>2017-08-15T11:16:42Z</time>
</trkpt>
<trkpt lat="45.445748440" lon="6.969620050">
  <ele>1996.300000</ele>
<time>2017-08-15T11:16:44Z</time>
</trkpt>
<trkpt lat="45.445723460" lon="6.969446710">
  <ele>2002.900000</ele>
<time>2017-08-15T11:16:47Z</time>
</trkpt>
<trkpt lat="45.445700160" lon="6.969275050">
  <ele>2009.600000</ele>
<time>2017-08-15T11:16:50Z</time>
</trkpt>
<trkpt lat="45.445675010" lon="6.969105060">
  <ele>2016.400000</ele>
<time>2017-08-15T11:16:53Z</time>
</trkpt>
<trkpt lat="45.445658420" lon="6.968938430">
  <ele>2023.300000</ele>
<time>2017-08-15T11:16:56Z</time>
</trkpt>
<trkpt lat="45.445646680" lon="6.968778330">
  <ele>2030.200000</ele>
<time>2017-08-15T11:16:59Z</time>
</trkpt>
<trkpt lat="45.445618350" lon="6.968593430">
  <ele>2037.200000</ele>
<time>2017-08-15T11:17:02Z</time>
</trkpt>
<trkpt lat="45.445590020" lon="6.968410030">
  <ele>2044.300000</ele>
<time>2017-08-15T11:17:05Z</time>
</trkpt>
<trkpt lat="45.445563360" lon="6.968226810">
  <ele>2051.400000</ele>
<time>2017-08-15T11:17:08Z</time>
</trkpt>
<trkpt lat="45.445545090" lon="6.968056820">
  <ele>2058.800000</ele>
<time>2017-08-15T11:17:11Z</time>
</trkpt>
<trkpt lat="45.445531680" lon="6.967890020">
  <ele>2066.400000</ele>
<time>2017-08-15T11:17:14Z</time>
</trkpt>
<trkpt lat="45.445513410" lon="6.967718360">
  <ele>2073.900000</ele>
<time>2017-08-15T11:17:17Z</time>
</trkpt>
<trkpt lat="45.445478370" lon="6.967536810">
  <ele>2081.300000</ele>
<time>2017-08-15T11:17:20Z</time>
</trkpt>
<trkpt lat="45.445456750" lon="6.967398340">
  <ele>2086.200000</ele>
<time>2017-08-15T11:17:22Z</time>
</trkpt>
<trkpt lat="45.445436800" lon="6.967258360">
  <ele>2090.900000</ele>
<time>2017-08-15T11:17:24Z</time>
</trkpt>
<trkpt lat="45.445410140" lon="6.967113350">
  <ele>2095.500000</ele>
<time>2017-08-15T11:17:26Z</time>
</trkpt>
<trkpt lat="45.445378460" lon="6.966925100">
  <ele>2102.300000</ele>
<time>2017-08-15T11:17:29Z</time>
</trkpt>
<trkpt lat="45.445356670" lon="6.966796690">
  <ele>2106.700000</ele>
<time>2017-08-15T11:17:31Z</time>
</trkpt>
<trkpt lat="45.445336720" lon="6.966668440">
  <ele>2111.200000</ele>
<time>2017-08-15T11:17:33Z</time>
</trkpt>
<trkpt lat="45.445316770" lon="6.966535000">
  <ele>2115.700000</ele>
<time>2017-08-15T11:17:35Z</time>
</trkpt>
<trkpt lat="45.445295140" lon="6.966406760">
  <ele>2120.200000</ele>
<time>2017-08-15T11:17:37Z</time>
</trkpt>
<trkpt lat="45.445273350" lon="6.966275160">
  <ele>2124.600000</ele>
<time>2017-08-15T11:17:39Z</time>
</trkpt>
<trkpt lat="45.445251730" lon="6.966143400">
  <ele>2129.100000</ele>
<time>2017-08-15T11:17:41Z</time>
</trkpt>
<trkpt lat="45.445230100" lon="6.966011800">
  <ele>2133.500000</ele>
<time>2017-08-15T11:17:43Z</time>
</trkpt>
<trkpt lat="45.445211830" lon="6.965880040">
  <ele>2138.000000</ele>
<time>2017-08-15T11:17:45Z</time>
</trkpt>
<trkpt lat="45.445193390" lon="6.965753470">
  <ele>2142.500000</ele>
<time>2017-08-15T11:17:47Z</time>
</trkpt>
<trkpt lat="45.445166730" lon="6.965565050">
  <ele>2149.200000</ele>
<time>2017-08-15T11:17:50Z</time>
</trkpt>
<trkpt lat="45.445151810" lon="6.965438480">
  <ele>2153.700000</ele>
<time>2017-08-15T11:17:52Z</time>
</trkpt>
<trkpt lat="45.445133370" lon="6.965270010">
  <ele>2160.400000</ele>
<time>2017-08-15T11:17:55Z</time>
</trkpt>
<trkpt lat="45.445121810" lon="6.965111750">
  <ele>2167.200000</ele>
<time>2017-08-15T11:17:58Z</time>
</trkpt>
<trkpt lat="45.445105040" lon="6.964951830">
  <ele>2174.000000</ele>
<time>2017-08-15T11:18:01Z</time>
</trkpt>
<trkpt lat="45.445083420" lon="6.964780170">
  <ele>2180.800000</ele>
<time>2017-08-15T11:18:04Z</time>
</trkpt>
<trkpt lat="45.445060120" lon="6.964605150">
  <ele>2187.700000</ele>
<time>2017-08-15T11:18:07Z</time>
</trkpt>
<trkpt lat="45.445040170" lon="6.964478420">
  <ele>2192.500000</ele>
<time>2017-08-15T11:18:09Z</time>
</trkpt>
<trkpt lat="45.445023400" lon="6.964348500">
  <ele>2197.200000</ele>
<time>2017-08-15T11:18:11Z</time>
</trkpt>
<trkpt lat="45.445000100" lon="6.964161750">
  <ele>2204.300000</ele>
<time>2017-08-15T11:18:14Z</time>
</trkpt>
<trkpt lat="45.444980150" lon="6.963983380">
  <ele>2211.500000</ele>
<time>2017-08-15T11:18:17Z</time>
</trkpt>
<trkpt lat="45.444961710" lon="6.963803340">
  <ele>2218.700000</ele>
<time>2017-08-15T11:18:20Z</time>
</trkpt>
<trkpt lat="45.444941760" lon="6.963676770">
  <ele>2223.500000</ele>
<time>2017-08-15T11:18:22Z</time>
</trkpt>
<trkpt lat="45.444915110" lon="6.963495050">
  <ele>2230.900000</ele>
<time>2017-08-15T11:18:25Z</time>
</trkpt>
<trkpt lat="45.444896670" lon="6.963363460">
  <ele>2235.800000</ele>
<time>2017-08-15T11:18:27Z</time>
</trkpt>
<trkpt lat="45.444880070" lon="6.963236720">
  <ele>2240.700000</ele>
<time>2017-08-15T11:18:29Z</time>
</trkpt>
<trkpt lat="45.444853420" lon="6.963058360">
  <ele>2248.200000</ele>
<time>2017-08-15T11:18:32Z</time>
</trkpt>
<trkpt lat="45.444833470" lon="6.962901780">
  <ele>2255.700000</ele>
<time>2017-08-15T11:18:35Z</time>
</trkpt>
<trkpt lat="45.444810170" lon="6.962736830">
  <ele>2263.300000</ele>
<time>2017-08-15T11:18:38Z</time>
</trkpt>
<trkpt lat="45.444783340" lon="6.962561810">
  <ele>2270.900000</ele>
<time>2017-08-15T11:18:41Z</time>
</trkpt>
<trkpt lat="45.444753340" lon="6.962386800">
  <ele>2278.700000</ele>
<time>2017-08-15T11:18:44Z</time>
</trkpt>
<trkpt lat="45.444730040" lon="6.962208430">
  <ele>2286.400000</ele>
<time>2017-08-15T11:18:47Z</time>
</trkpt>
<trkpt lat="45.444710090" lon="6.962035090">
  <ele>2294.200000</ele>
<time>2017-08-15T11:18:50Z</time>
</trkpt>
<trkpt lat="45.444691810" lon="6.961875170">
  <ele>2302.000000</ele>
<time>2017-08-15T11:18:53Z</time>
</trkpt>
<trkpt lat="45.444673370" lon="6.961706690">
  <ele>2310.000000</ele>
<time>2017-08-15T11:18:56Z</time>
</trkpt>
<trkpt lat="45.444655100" lon="6.961533350">
  <ele>2318.000000</ele>
<time>2017-08-15T11:18:59Z</time>
</trkpt>
<trkpt lat="45.444635150" lon="6.961366720">
  <ele>2326.100000</ele>
<time>2017-08-15T11:19:02Z</time>
</trkpt>
<trkpt lat="45.444613360" lon="6.961201760">
  <ele>2334.200000</ele>
<time>2017-08-15T11:19:05Z</time>
</trkpt>
<trkpt lat="45.444601790" lon="6.961071680">
  <ele>2339.500000</ele>
<time>2017-08-15T11:19:07Z</time>
</trkpt>
<trkpt lat="45.444581680" lon="6.960901690">
  <ele>2347.700000</ele>
<time>2017-08-15T11:19:10Z</time>
</trkpt>
<trkpt lat="45.444561730" lon="6.960733380">
  <ele>2356.000000</ele>
<time>2017-08-15T11:19:13Z</time>
</trkpt>
<trkpt lat="45.444553350" lon="6.960576810">
  <ele>2364.300000</ele>
<time>2017-08-15T11:19:16Z</time>
</trkpt>
<trkpt lat="45.444555020" lon="6.960398440">
  <ele>2375.500000</ele>
<time>2017-08-15T11:19:20Z</time>
</trkpt>
<trkpt lat="45.444538430" lon="6.960243380">
  <ele>2384.000000</ele>
<time>2017-08-15T11:19:23Z</time>
</trkpt>
<trkpt lat="45.444513450" lon="6.960080100">
  <ele>2392.400000</ele>
<time>2017-08-15T11:19:26Z</time>
</trkpt>
<trkpt lat="45.444490150" lon="6.959913470">
  <ele>2401.000000</ele>
<time>2017-08-15T11:19:29Z</time>
</trkpt>
<trkpt lat="45.444470030" lon="6.959748340">
  <ele>2409.600000</ele>
<time>2017-08-15T11:19:32Z</time>
</trkpt>
<trkpt lat="45.444445050" lon="6.959580030">
  <ele>2418.300000</ele>
<time>2017-08-15T11:19:35Z</time>
</trkpt>
<trkpt lat="45.444418400" lon="6.959415080">
  <ele>2427.100000</ele>
<time>2017-08-15T11:19:38Z</time>
</trkpt>
<trkpt lat="45.444391740" lon="6.959250120">
  <ele>2435.900000</ele>
<time>2017-08-15T11:19:41Z</time>
</trkpt>
<trkpt lat="45.444365090" lon="6.959086680">
  <ele>2444.800000</ele>
<time>2017-08-15T11:19:44Z</time>
</trkpt>
<trkpt lat="45.444338430" lon="6.958920040">
  <ele>2453.800000</ele>
<time>2017-08-15T11:19:47Z</time>
</trkpt>
<trkpt lat="45.444306750" lon="6.958751730">
  <ele>2462.900000</ele>
<time>2017-08-15T11:19:50Z</time>
</trkpt>
<trkpt lat="45.444281770" lon="6.958576720">
  <ele>2472.100000</ele>
<time>2017-08-15T11:19:53Z</time>
</trkpt>
<trkpt lat="45.444251760" lon="6.958398350">
  <ele>2481.200000</ele>
<time>2017-08-15T11:19:56Z</time>
</trkpt>
<trkpt lat="45.444236680" lon="6.958256700">
  <ele>2487.000000</ele>
<time>2017-08-15T11:19:58Z</time>
</trkpt>
<trkpt lat="45.444220080" lon="6.958125100">
  <ele>2492.700000</ele>
<time>2017-08-15T11:20:00Z</time>
</trkpt>
<trkpt lat="45.444195100" lon="6.957940030">
  <ele>2500.700000</ele>
<time>2017-08-15T11:20:03Z</time>
</trkpt>
<trkpt lat="45.444176830" lon="6.957808430">
  <ele>2505.700000</ele>
<time>2017-08-15T11:20:05Z</time>
</trkpt>
<trkpt lat="45.444153360" lon="6.957636770">
  <ele>2512.900000</ele>
<time>2017-08-15T11:20:08Z</time>
</trkpt>
<trkpt lat="45.444126710" lon="6.957455050">
  <ele>2520.000000</ele>
<time>2017-08-15T11:20:11Z</time>
</trkpt>
<trkpt lat="45.444103400" lon="6.957321780">
  <ele>2524.500000</ele>
<time>2017-08-15T11:20:13Z</time>
</trkpt>
<trkpt lat="45.444085130" lon="6.957190020">
  <ele>2529.000000</ele>
<time>2017-08-15T11:20:15Z</time>
</trkpt>
<trkpt lat="45.444066690" lon="6.957058420">
  <ele>2533.400000</ele>
<time>2017-08-15T11:20:17Z</time>
</trkpt>
<trkpt lat="45.444040040" lon="6.956878380">
  <ele>2539.900000</ele>
<time>2017-08-15T11:20:20Z</time>
</trkpt>
<trkpt lat="45.444011710" lon="6.956696830">
  <ele>2546.200000</ele>
<time>2017-08-15T11:20:23Z</time>
</trkpt>
<trkpt lat="45.443991760" lon="6.956571770">
  <ele>2550.400000</ele>
<time>2017-08-15T11:20:25Z</time>
</trkpt>
<trkpt lat="45.443971810" lon="6.956446710">
  <ele>2554.500000</ele>
<time>2017-08-15T11:20:27Z</time>
</trkpt>
<trkpt lat="45.443945150" lon="6.956261810">
  <ele>2560.900000</ele>
<time>2017-08-15T11:20:30Z</time>
</trkpt>
<trkpt lat="45.443923360" lon="6.956136750">
  <ele>2565.000000</ele>
<time>2017-08-15T11:20:32Z</time>
</trkpt>
<trkpt lat="45.443891680" lon="6.955948490">
  <ele>2571.400000</ele>
<time>2017-08-15T11:20:35Z</time>
</trkpt>
<trkpt lat="45.443870050" lon="6.955820080">
  <ele>2575.600000</ele>
<time>2017-08-15T11:20:37Z</time>
</trkpt>
<trkpt lat="45.443848430" lon="6.955686810">
  <ele>2579.800000</ele>
<time>2017-08-15T11:20:39Z</time>
</trkpt>
<trkpt lat="45.443830150" lon="6.955556720">
  <ele>2584.100000</ele>
<time>2017-08-15T11:20:41Z</time>
</trkpt>
<trkpt lat="45.443806690" lon="6.955425120">
  <ele>2588.300000</ele>
<time>2017-08-15T11:20:43Z</time>
</trkpt>
<trkpt lat="45.443776680" lon="6.955240050">
  <ele>2594.600000</ele>
<time>2017-08-15T11:20:46Z</time>
</trkpt>
<trkpt lat="45.443755050" lon="6.955113490">
  <ele>2598.900000</ele>
<time>2017-08-15T11:20:48Z</time>
</trkpt>
<trkpt lat="45.443731750" lon="6.954941820">
  <ele>2605.400000</ele>
<time>2017-08-15T11:20:51Z</time>
</trkpt>
<trkpt lat="45.443708450" lon="6.954773350">
  <ele>2611.900000</ele>
<time>2017-08-15T11:20:54Z</time>
</trkpt>
<trkpt lat="45.443696710" lon="6.954643430">
  <ele>2616.200000</ele>
<time>2017-08-15T11:20:56Z</time>
</trkpt>
<trkpt lat="45.443678440" lon="6.954498420">
  <ele>2620.500000</ele>
<time>2017-08-15T11:20:58Z</time>
</trkpt>
<trkpt lat="45.443660000" lon="6.954368330">
  <ele>2624.900000</ele>
<time>2017-08-15T11:21:00Z</time>
</trkpt>
<trkpt lat="45.443626810" lon="6.954191810">
  <ele>2631.400000</ele>
<time>2017-08-15T11:21:03Z</time>
</trkpt>
<trkpt lat="45.443606690" lon="6.954063400">
  <ele>2635.600000</ele>
<time>2017-08-15T11:21:05Z</time>
</trkpt>
<trkpt lat="45.443583390" lon="6.953938340">
  <ele>2639.400000</ele>
<time>2017-08-15T11:21:07Z</time>
</trkpt>
<trkpt lat="45.443558410" lon="6.953798360">
  <ele>2642.900000</ele>
<time>2017-08-15T11:21:09Z</time>
</trkpt>
<trkpt lat="45.443530080" lon="6.953670120">
  <ele>2645.800000</ele>
<time>2017-08-15T11:21:11Z</time>
</trkpt>
<trkpt lat="45.443505100" lon="6.953540030">
  <ele>2648.100000</ele>
<time>2017-08-15T11:21:13Z</time>
</trkpt>
<trkpt lat="45.443475100" lon="6.953408440">
  <ele>2649.800000</ele>
<time>2017-08-15T11:21:15Z</time>
</trkpt>
<trkpt lat="45.443448440" lon="6.953270140">
  <ele>2651.100000</ele>
<time>2017-08-15T11:21:17Z</time>
</trkpt>
<trkpt lat="45.443421790" lon="6.953135020">
  <ele>2652.000000</ele>
<time>2017-08-15T11:21:19Z</time>
</trkpt>
<trkpt lat="45.443398490" lon="6.952995040">
  <ele>2652.500000</ele>
<time>2017-08-15T11:21:21Z</time>
</trkpt>
<trkpt lat="45.443373340" lon="6.952870150">
  <ele>2652.700000</ele>
<time>2017-08-15T11:21:23Z</time>
</trkpt>
<trkpt lat="45.443345010" lon="6.952746770">
  <ele>2652.700000</ele>
<time>2017-08-15T11:21:25Z</time>
</trkpt>
<trkpt lat="45.443318360" lon="6.952618360">
  <ele>2652.500000</ele>
<time>2017-08-15T11:21:27Z</time>
</trkpt>
<trkpt lat="45.443293380" lon="6.952490120">
  <ele>2652.000000</ele>
<time>2017-08-15T11:21:29Z</time>
</trkpt>
<trkpt lat="45.443268400" lon="6.952363380">
  <ele>2651.300000</ele>
<time>2017-08-15T11:21:31Z</time>
</trkpt>
<trkpt lat="45.443240070" lon="6.952230110">
  <ele>2650.500000</ele>
<time>2017-08-15T11:21:33Z</time>
</trkpt>
<trkpt lat="45.443213410" lon="6.952091810">
  <ele>2649.700000</ele>
<time>2017-08-15T11:21:35Z</time>
</trkpt>
<trkpt lat="45.443185080" lon="6.951956690">
  <ele>2648.800000</ele>
<time>2017-08-15T11:21:37Z</time>
</trkpt>
<trkpt lat="45.443166810" lon="6.951801800">
  <ele>2647.600000</ele>
<time>2017-08-15T11:21:40Z</time>
</trkpt>
<trkpt lat="45.443111830" lon="6.951685120">
  <ele>2646.000000</ele>
<time>2017-08-15T11:21:45Z</time>
</trkpt>
<trkpt lat="45.443043430" lon="6.951595100">
  <ele>2642.800000</ele>
<time>2017-08-15T11:22:08Z</time>
</trkpt>
<trkpt lat="45.442956090" lon="6.950922200">
  <ele>2642.000000</ele>
<time>2017-08-15T11:22:32Z</time>
</trkpt>
<trkpt lat="45.442926750" lon="6.950793450">
  <ele>2641.800000</ele>
<time>2017-08-15T11:22:42Z</time>
</trkpt>
<trkpt lat="45.442861710" lon="6.950703430">
  <ele>2640.800000</ele>
<time>2017-08-15T11:22:55Z</time>
</trkpt>
<trkpt lat="45.442800020" lon="6.950566810">
  <ele>2640.400000</ele>
<time>2017-08-15T11:22:59Z</time>
</trkpt>
<trkpt lat="45.442760120" lon="6.950441750">
  <ele>2640.000000</ele>
<time>2017-08-15T11:23:01Z</time>
</trkpt>
<trkpt lat="45.442771690" lon="6.950283500">
  <ele>2639.600000</ele>
<time>2017-08-15T11:23:03Z</time>
</trkpt>
<trkpt lat="45.442835060" lon="6.950101780">
  <ele>2639.100000</ele>
<time>2017-08-15T11:23:05Z</time>
</trkpt>
<trkpt lat="45.442910160" lon="6.949941680">
  <ele>2638.600000</ele>
<time>2017-08-15T11:23:07Z</time>
</trkpt>
<trkpt lat="45.442965140" lon="6.949801710">
  <ele>2638.000000</ele>
<time>2017-08-15T11:23:09Z</time>
</trkpt>
<trkpt lat="45.443005040" lon="6.949680000">
  <ele>2637.200000</ele>
<time>2017-08-15T11:23:12Z</time>
</trkpt>
<trkpt lat="45.442893390" lon="6.949705150">
  <ele>2636.300000</ele>
<time>2017-08-15T11:23:15Z</time>
</trkpt>
<trkpt lat="45.442785100" lon="6.949818470">
  <ele>2635.100000</ele>
<time>2017-08-15T11:23:18Z</time>
</trkpt>
<trkpt lat="45.442711670" lon="6.949906810">
  <ele>2634.000000</ele>
<time>2017-08-15T11:23:20Z</time>
</trkpt>
<trkpt lat="45.442640090" lon="6.949988450">
  <ele>2633.100000</ele>
<time>2017-08-15T11:23:22Z</time>
</trkpt>
<trkpt lat="45.442561810" lon="6.950070090">
  <ele>2632.300000</ele>
<time>2017-08-15T11:23:24Z</time>
</trkpt>
<trkpt lat="45.442496760" lon="6.950195150">
  <ele>2631.500000</ele>
<time>2017-08-15T11:23:26Z</time>
</trkpt>
<trkpt lat="45.442471780" lon="6.950361780">
  <ele>2630.700000</ele>
<time>2017-08-15T11:23:28Z</time>
</trkpt>
<trkpt lat="45.442433390" lon="6.950511820">
  <ele>2629.500000</ele>
<time>2017-08-15T11:23:31Z</time>
</trkpt>
<trkpt lat="45.442355110" lon="6.950368490">
  <ele>2627.600000</ele>
<time>2017-08-15T11:23:35Z</time>
</trkpt>
<trkpt lat="45.442300120" lon="6.950215100">
  <ele>2626.400000</ele>
<time>2017-08-15T11:23:37Z</time>
</trkpt>
<trkpt lat="45.442203400" lon="6.950056680">
  <ele>2625.200000</ele>
<time>2017-08-15T11:23:39Z</time>
</trkpt>
<trkpt lat="45.442055040" lon="6.949915030">
  <ele>2623.800000</ele>
<time>2017-08-15T11:23:41Z</time>
</trkpt>
<trkpt lat="45.441953450" lon="6.949846800">
  <ele>2623.000000</ele>
<time>2017-08-15T11:23:42Z</time>
</trkpt>
<trkpt lat="45.441838450" lon="6.949793490">
  <ele>2622.100000</ele>
<time>2017-08-15T11:23:43Z</time>
</trkpt>
<trkpt lat="45.441723450" lon="6.949755100">
  <ele>2621.300000</ele>
<time>2017-08-15T11:23:44Z</time>
</trkpt>
<trkpt lat="45.441608450" lon="6.949718390">
  <ele>2620.500000</ele>
<time>2017-08-15T11:23:45Z</time>
</trkpt>
<trkpt lat="45.441501830" lon="6.949688380">
  <ele>2619.700000</ele>
<time>2017-08-15T11:23:46Z</time>
</trkpt>
<trkpt lat="45.441405100" lon="6.949666760">
  <ele>2619.100000</ele>
<time>2017-08-15T11:23:47Z</time>
</trkpt>
<trkpt lat="45.441240150" lon="6.949653350">
  <ele>2618.000000</ele>
<time>2017-08-15T11:23:49Z</time>
</trkpt>
<trkpt lat="45.441100000" lon="6.949665080">
  <ele>2616.900000</ele>
<time>2017-08-15T11:23:51Z</time>
</trkpt>
<trkpt lat="45.440991710" lon="6.949675140">
  <ele>2616.000000</ele>
<time>2017-08-15T11:23:53Z</time>
</trkpt>
<trkpt lat="45.440885090" lon="6.949681680">
  <ele>2615.200000</ele>
<time>2017-08-15T11:23:55Z</time>
</trkpt>
<trkpt lat="45.440776800" lon="6.949671790">
  <ele>2614.500000</ele>
<time>2017-08-15T11:23:57Z</time>
</trkpt>
<trkpt lat="45.440676720" lon="6.949655020">
  <ele>2613.800000</ele>
<time>2017-08-15T11:23:59Z</time>
</trkpt>
<trkpt lat="45.440565070" lon="6.949653350">
  <ele>2612.500000</ele>
<time>2017-08-15T11:24:02Z</time>
</trkpt>
<trkpt lat="45.440473370" lon="6.949543380">
  <ele>2611.400000</ele>
<time>2017-08-15T11:24:05Z</time>
</trkpt>
<trkpt lat="45.440355020" lon="6.949580090">
  <ele>2609.900000</ele>
<time>2017-08-15T11:24:08Z</time>
</trkpt>
<trkpt lat="45.440291820" lon="6.949486710">
  <ele>2609.100000</ele>
<time>2017-08-15T11:24:10Z</time>
</trkpt>
<trkpt lat="45.440201800" lon="6.949406750">
  <ele>2608.400000</ele>
<time>2017-08-15T11:24:12Z</time>
</trkpt>
<trkpt lat="45.440080090" lon="6.949385130">
  <ele>2607.800000</ele>
<time>2017-08-15T11:24:14Z</time>
</trkpt>
<trkpt lat="45.439963420" lon="6.949371710">
  <ele>2607.200000</ele>
<time>2017-08-15T11:24:16Z</time>
</trkpt>
<trkpt lat="45.439873390" lon="6.949375070">
  <ele>2606.700000</ele>
<time>2017-08-15T11:24:18Z</time>
</trkpt>
<trkpt lat="45.439748340" lon="6.949326790">
  <ele>2605.600000</ele>
<time>2017-08-15T11:24:21Z</time>
</trkpt>
<trkpt lat="45.439673400" lon="6.949200050">
  <ele>2604.300000</ele>
<time>2017-08-15T11:24:24Z</time>
</trkpt>
<trkpt lat="45.439615060" lon="6.949101820">
  <ele>2603.300000</ele>
<time>2017-08-15T11:24:26Z</time>
</trkpt>
<trkpt lat="45.439583380" lon="6.948961670">
  <ele>2602.400000</ele>
<time>2017-08-15T11:24:28Z</time>
</trkpt>
<trkpt lat="45.439456810" lon="6.948943400">
  <ele>2601.000000</ele>
<time>2017-08-15T11:24:31Z</time>
</trkpt>
<trkpt lat="45.439506770" lon="6.948783470">
  <ele>2599.400000</ele>
<time>2017-08-15T11:24:34Z</time>
</trkpt>
<trkpt lat="45.439566780" lon="6.948680040">
  <ele>2598.500000</ele>
<time>2017-08-15T11:24:36Z</time>
</trkpt>
<trkpt lat="45.439478440" lon="6.948568390">
  <ele>2596.700000</ele>
<time>2017-08-15T11:24:39Z</time>
</trkpt>
<trkpt lat="45.439390090" lon="6.948630080">
  <ele>2595.400000</ele>
<time>2017-08-15T11:24:41Z</time>
</trkpt>
<trkpt lat="45.439310130" lon="6.948690100">
  <ele>2594.300000</ele>
<time>2017-08-15T11:24:43Z</time>
</trkpt>
<trkpt lat="45.439240060" lon="6.948833430">
  <ele>2592.600000</ele>
<time>2017-08-15T11:24:46Z</time>
</trkpt>
<trkpt lat="45.439151710" lon="6.948873490">
  <ele>2590.500000</ele>
<time>2017-08-15T11:24:49Z</time>
</trkpt>
<trkpt lat="45.439133440" lon="6.948736700">
  <ele>2589.300000</ele>
<time>2017-08-15T11:24:51Z</time>
</trkpt>
<trkpt lat="45.439051800" lon="6.948816830">
  <ele>2587.100000</ele>
<time>2017-08-15T11:24:55Z</time>
</trkpt>
<trkpt lat="45.438975020" lon="6.948716750">
  <ele>2585.600000</ele>
<time>2017-08-15T11:24:58Z</time>
</trkpt>
<trkpt lat="45.438936800" lon="6.948593370">
  <ele>2584.600000</ele>
<time>2017-08-15T11:25:00Z</time>
</trkpt>
<trkpt lat="45.438841750" lon="6.948503350">
  <ele>2582.700000</ele>
<time>2017-08-15T11:25:03Z</time>
</trkpt>
<trkpt lat="45.438773350" lon="6.948370080">
  <ele>2581.000000</ele>
<time>2017-08-15T11:25:06Z</time>
</trkpt>
<trkpt lat="45.438680150" lon="6.948223390">
  <ele>2579.100000</ele>
<time>2017-08-15T11:25:09Z</time>
</trkpt>
<trkpt lat="45.438671760" lon="6.948088440">
  <ele>2577.800000</ele>
<time>2017-08-15T11:25:11Z</time>
</trkpt>
<trkpt lat="45.438651820" lon="6.947923490">
  <ele>2575.800000</ele>
<time>2017-08-15T11:25:14Z</time>
</trkpt>
<trkpt lat="45.438683500" lon="6.947746800">
  <ele>2573.800000</ele>
<time>2017-08-15T11:25:17Z</time>
</trkpt>
<trkpt lat="45.438736810" lon="6.947625090">
  <ele>2572.600000</ele>
<time>2017-08-15T11:25:19Z</time>
</trkpt>
<trkpt lat="45.438831690" lon="6.947528370">
  <ele>2571.400000</ele>
<time>2017-08-15T11:25:21Z</time>
</trkpt>
<trkpt lat="45.438738480" lon="6.947441700">
  <ele>2568.600000</ele>
<time>2017-08-15T11:25:26Z</time>
</trkpt>
<trkpt lat="45.438750050" lon="6.947258470">
  <ele>2566.700000</ele>
<time>2017-08-15T11:25:29Z</time>
</trkpt>
<trkpt lat="45.438655000" lon="6.947096700">
  <ele>2564.800000</ele>
<time>2017-08-15T11:25:32Z</time>
</trkpt>
<trkpt lat="45.438565150" lon="6.946995110">
  <ele>2563.500000</ele>
<time>2017-08-15T11:25:34Z</time>
</trkpt>
<trkpt lat="45.438481830" lon="6.946883460">
  <ele>2562.400000</ele>
<time>2017-08-15T11:25:36Z</time>
</trkpt>
<trkpt lat="45.438388460" lon="6.946761760">
  <ele>2561.100000</ele>
<time>2017-08-15T11:25:38Z</time>
</trkpt>
<trkpt lat="45.438295080" lon="6.946653460">
  <ele>2560.000000</ele>
<time>2017-08-15T11:25:40Z</time>
</trkpt>
<trkpt lat="45.438185110" lon="6.946583390">
  <ele>2558.800000</ele>
<time>2017-08-15T11:25:42Z</time>
</trkpt>
<trkpt lat="45.438091740" lon="6.946513490">
  <ele>2557.700000</ele>
<time>2017-08-15T11:25:44Z</time>
</trkpt>
<trkpt lat="45.437985120" lon="6.946431680">
  <ele>2556.600000</ele>
<time>2017-08-15T11:25:46Z</time>
</trkpt>
<trkpt lat="45.437856710" lon="6.946335120">
  <ele>2555.300000</ele>
<time>2017-08-15T11:25:48Z</time>
</trkpt>
<trkpt lat="45.437710020" lon="6.946250130">
  <ele>2554.100000</ele>
<time>2017-08-15T11:25:50Z</time>
</trkpt>
<trkpt lat="45.437601730" lon="6.946133450">
  <ele>2552.900000</ele>
<time>2017-08-15T11:25:52Z</time>
</trkpt>
<trkpt lat="45.437508360" lon="6.946051810">
  <ele>2552.000000</ele>
<time>2017-08-15T11:25:54Z</time>
</trkpt>
<trkpt lat="45.437480020" lon="6.945881820">
  <ele>2551.000000</ele>
<time>2017-08-15T11:25:57Z</time>
</trkpt>
<trkpt lat="45.437505000" lon="6.945748390">
  <ele>2550.200000</ele>
<time>2017-08-15T11:25:59Z</time>
</trkpt>
<trkpt lat="45.437521770" lon="6.945581750">
  <ele>2549.500000</ele>
<time>2017-08-15T11:26:01Z</time>
</trkpt>
<trkpt lat="45.437570050" lon="6.945425010">
  <ele>2548.600000</ele>
<time>2017-08-15T11:26:03Z</time>
</trkpt>
<trkpt lat="45.437571720" lon="6.945263410">
  <ele>2547.700000</ele>
<time>2017-08-15T11:26:05Z</time>
</trkpt>
<trkpt lat="45.437643470" lon="6.945145060">
  <ele>2546.800000</ele>
<time>2017-08-15T11:26:07Z</time>
</trkpt>
<trkpt lat="45.437591670" lon="6.945028380">
  <ele>2545.400000</ele>
<time>2017-08-15T11:26:10Z</time>
</trkpt>
<trkpt lat="45.437491760" lon="6.945113370">
  <ele>2544.500000</ele>
<time>2017-08-15T11:26:12Z</time>
</trkpt>
<trkpt lat="45.437381790" lon="6.945148410">
  <ele>2543.700000</ele>
<time>2017-08-15T11:26:14Z</time>
</trkpt>
<trkpt lat="45.437325130" lon="6.945045140">
  <ele>2542.800000</ele>
<time>2017-08-15T11:26:16Z</time>
</trkpt>
<trkpt lat="45.437235110" lon="6.945030060">
  <ele>2542.000000</ele>
<time>2017-08-15T11:26:18Z</time>
</trkpt>
<trkpt lat="45.437126810" lon="6.945016810">
  <ele>2540.900000</ele>
<time>2017-08-15T11:26:20Z</time>
</trkpt>
<trkpt lat="45.437123460" lon="6.944878340">
  <ele>2539.700000</ele>
<time>2017-08-15T11:26:22Z</time>
</trkpt>
<trkpt lat="45.437220020" lon="6.944775080">
  <ele>2538.600000</ele>
<time>2017-08-15T11:26:24Z</time>
</trkpt>
<trkpt lat="45.437328480" lon="6.944663430">
  <ele>2537.700000</ele>
<time>2017-08-15T11:26:26Z</time>
</trkpt>
<trkpt lat="45.437453370" lon="6.944568380">
  <ele>2536.700000</ele>
<time>2017-08-15T11:26:28Z</time>
</trkpt>
<trkpt lat="45.437570050" lon="6.944451700">
  <ele>2535.800000</ele>
<time>2017-08-15T11:26:30Z</time>
</trkpt>
<trkpt lat="45.437686720" lon="6.944350120">
  <ele>2534.800000</ele>
<time>2017-08-15T11:26:32Z</time>
</trkpt>
<trkpt lat="45.437796690" lon="6.944296810">
  <ele>2533.900000</ele>
<time>2017-08-15T11:26:34Z</time>
</trkpt>
<trkpt lat="45.437900130" lon="6.944225060">
  <ele>2532.900000</ele>
<time>2017-08-15T11:26:36Z</time>
</trkpt>
<trkpt lat="45.438013450" lon="6.944113410">
  <ele>2531.900000</ele>
<time>2017-08-15T11:26:38Z</time>
</trkpt>
<trkpt lat="45.438120070" lon="6.944001760">
  <ele>2530.900000</ele>
<time>2017-08-15T11:26:40Z</time>
</trkpt>
<trkpt lat="45.438228360" lon="6.943908390">
  <ele>2530.100000</ele>
<time>2017-08-15T11:26:42Z</time>
</trkpt>
<trkpt lat="45.438320060" lon="6.943831780">
  <ele>2529.200000</ele>
<time>2017-08-15T11:26:44Z</time>
</trkpt>
<trkpt lat="45.438413430" lon="6.943766740">
  <ele>2528.200000</ele>
<time>2017-08-15T11:26:46Z</time>
</trkpt>
<trkpt lat="45.438498430" lon="6.943703370">
  <ele>2527.200000</ele>
<time>2017-08-15T11:26:48Z</time>
</trkpt>
<trkpt lat="45.438598340" lon="6.943668500">
  <ele>2526.200000</ele>
<time>2017-08-15T11:26:50Z</time>
</trkpt>
<trkpt lat="45.438701770" lon="6.943621730">
  <ele>2525.200000</ele>
<time>2017-08-15T11:26:52Z</time>
</trkpt>
<trkpt lat="45.438790120" lon="6.943553500">
  <ele>2524.300000</ele>
<time>2017-08-15T11:26:54Z</time>
</trkpt>
<trkpt lat="45.438898410" lon="6.943460130">
  <ele>2523.200000</ele>
<time>2017-08-15T11:26:57Z</time>
</trkpt>
<trkpt lat="45.439023470" lon="6.943411680">
  <ele>2521.800000</ele>
<time>2017-08-15T11:27:01Z</time>
</trkpt>
<trkpt lat="45.439143500" lon="6.943456770">
  <ele>2521.000000</ele>
<time>2017-08-15T11:27:03Z</time>
</trkpt>
<trkpt lat="45.439275090" lon="6.943521820">
  <ele>2520.300000</ele>
<time>2017-08-15T11:27:05Z</time>
</trkpt>
<trkpt lat="45.439411720" lon="6.943550150">
  <ele>2519.700000</ele>
<time>2017-08-15T11:27:07Z</time>
</trkpt>
<trkpt lat="45.439546670" lon="6.943513430">
  <ele>2519.200000</ele>
<time>2017-08-15T11:27:09Z</time>
</trkpt>
<trkpt lat="45.439656810" lon="6.943426770">
  <ele>2518.700000</ele>
<time>2017-08-15T11:27:11Z</time>
</trkpt>
<trkpt lat="45.439738440" lon="6.943301710">
  <ele>2518.100000</ele>
<time>2017-08-15T11:27:14Z</time>
</trkpt>
<trkpt lat="45.439795110" lon="6.943135080">
  <ele>2517.600000</ele>
<time>2017-08-15T11:27:17Z</time>
</trkpt>
<trkpt lat="45.439828470" lon="6.943013370">
  <ele>2517.300000</ele>
<time>2017-08-15T11:27:19Z</time>
</trkpt>
<trkpt lat="45.439863340" lon="6.942886800">
  <ele>2517.100000</ele>
<time>2017-08-15T11:27:21Z</time>
</trkpt>
<trkpt lat="45.439918490" lon="6.942756720">
  <ele>2516.900000</ele>
<time>2017-08-15T11:27:23Z</time>
</trkpt>
<trkpt lat="45.439991750" lon="6.942650100">
  <ele>2516.700000</ele>
<time>2017-08-15T11:27:25Z</time>
</trkpt>
<trkpt lat="45.440063500" lon="6.942558400">
  <ele>2516.400000</ele>
<time>2017-08-15T11:27:27Z</time>
</trkpt>
<trkpt lat="45.440138430" lon="6.942466700">
  <ele>2516.200000</ele>
<time>2017-08-15T11:27:29Z</time>
</trkpt>
<trkpt lat="45.440211690" lon="6.942360080">
  <ele>2516.100000</ele>
<time>2017-08-15T11:27:31Z</time>
</trkpt>
<trkpt lat="45.440283440" lon="6.942250110">
  <ele>2515.800000</ele>
<time>2017-08-15T11:27:33Z</time>
</trkpt>
<trkpt lat="45.440353340" lon="6.942153390">
  <ele>2515.600000</ele>
<time>2017-08-15T11:27:35Z</time>
</trkpt>
<trkpt lat="45.440425090" lon="6.942068390">
  <ele>2515.500000</ele>
<time>2017-08-15T11:27:37Z</time>
</trkpt>
<trkpt lat="45.440520140" lon="6.942003350">
  <ele>2515.300000</ele>
<time>2017-08-15T11:27:39Z</time>
</trkpt>
<trkpt lat="45.440625080" lon="6.941933450">
  <ele>2515.200000</ele>
<time>2017-08-15T11:27:41Z</time>
</trkpt>
<trkpt lat="45.440720130" lon="6.941850130">
  <ele>2515.200000</ele>
<time>2017-08-15T11:27:43Z</time>
</trkpt>
<trkpt lat="45.440810160" lon="6.941765140">
  <ele>2514.900000</ele>
<time>2017-08-15T11:27:45Z</time>
</trkpt>
<trkpt lat="45.440901690" lon="6.941670090">
  <ele>2514.700000</ele>
<time>2017-08-15T11:27:47Z</time>
</trkpt>
<trkpt lat="45.440985000" lon="6.941580060">
  <ele>2514.300000</ele>
<time>2017-08-15T11:27:49Z</time>
</trkpt>
<trkpt lat="45.441086760" lon="6.941485010">
  <ele>2513.900000</ele>
<time>2017-08-15T11:27:51Z</time>
</trkpt>
<trkpt lat="45.441193380" lon="6.941440090">
  <ele>2513.500000</ele>
<time>2017-08-15T11:27:53Z</time>
</trkpt>
<trkpt lat="45.441318430" lon="6.941401700">
  <ele>2513.000000</ele>
<time>2017-08-15T11:27:55Z</time>
</trkpt>
<trkpt lat="45.441448350" lon="6.941376720">
  <ele>2512.200000</ele>
<time>2017-08-15T11:27:57Z</time>
</trkpt>
<trkpt lat="45.441550110" lon="6.941263400">
  <ele>2511.400000</ele>
<time>2017-08-15T11:27:59Z</time>
</trkpt>
<trkpt lat="45.441635100" lon="6.941135150">
  <ele>2510.600000</ele>
<time>2017-08-15T11:28:01Z</time>
</trkpt>
<trkpt lat="45.441738370" lon="6.941015120">
  <ele>2509.500000</ele>
<time>2017-08-15T11:28:03Z</time>
</trkpt>
<trkpt lat="45.441863430" lon="6.940955110">
  <ele>2508.600000</ele>
<time>2017-08-15T11:28:05Z</time>
</trkpt>
<trkpt lat="45.441966690" lon="6.940901800">
  <ele>2507.700000</ele>
<time>2017-08-15T11:28:07Z</time>
</trkpt>
<trkpt lat="45.442081690" lon="6.940830050">
  <ele>2506.800000</ele>
<time>2017-08-15T11:28:09Z</time>
</trkpt>
<trkpt lat="45.442186800" lon="6.940728460">
  <ele>2505.900000</ele>
<time>2017-08-15T11:28:11Z</time>
</trkpt>
<trkpt lat="45.442291740" lon="6.940611790">
  <ele>2504.600000</ele>
<time>2017-08-15T11:28:13Z</time>
</trkpt>
<trkpt lat="45.442393500" lon="6.940591670">
  <ele>2503.500000</ele>
<time>2017-08-15T11:28:15Z</time>
</trkpt>
<trkpt lat="45.442473460" lon="6.940520090">
  <ele>2502.400000</ele>
<time>2017-08-15T11:28:17Z</time>
</trkpt>
<trkpt lat="45.442475140" lon="6.940383460">
  <ele>2501.200000</ele>
<time>2017-08-15T11:28:19Z</time>
</trkpt>
<trkpt lat="45.442360140" lon="6.940371730">
  <ele>2500.000000</ele>
<time>2017-08-15T11:28:21Z</time>
</trkpt>
<trkpt lat="45.442248490" lon="6.940466780">
  <ele>2499.000000</ele>
<time>2017-08-15T11:28:23Z</time>
</trkpt>
<trkpt lat="45.442198370" lon="6.940343400">
  <ele>2497.300000</ele>
<time>2017-08-15T11:28:26Z</time>
</trkpt>
<trkpt lat="45.442305150" lon="6.940243490">
  <ele>2496.100000</ele>
<time>2017-08-15T11:28:28Z</time>
</trkpt>
<trkpt lat="45.442348400" lon="6.940105020">
  <ele>2494.600000</ele>
<time>2017-08-15T11:28:30Z</time>
</trkpt>
<trkpt lat="45.442393500" lon="6.939926820">
  <ele>2493.400000</ele>
<time>2017-08-15T11:28:32Z</time>
</trkpt>
<trkpt lat="45.442461730" lon="6.939785160">
  <ele>2492.500000</ele>
<time>2017-08-15T11:28:34Z</time>
</trkpt>
<trkpt lat="45.442538340" lon="6.939615010">
  <ele>2491.500000</ele>
<time>2017-08-15T11:28:36Z</time>
</trkpt>
<trkpt lat="45.442643440" lon="6.939491800">
  <ele>2490.600000</ele>
<time>2017-08-15T11:28:38Z</time>
</trkpt>
<trkpt lat="45.442751740" lon="6.939375120">
  <ele>2489.800000</ele>
<time>2017-08-15T11:28:40Z</time>
</trkpt>
<trkpt lat="45.442868420" lon="6.939245030">
  <ele>2489.000000</ele>
<time>2017-08-15T11:28:42Z</time>
</trkpt>
<trkpt lat="45.442990120" lon="6.939106730">
  <ele>2488.000000</ele>
<time>2017-08-15T11:28:44Z</time>
</trkpt>
<trkpt lat="45.443090030" lon="6.938928370">
  <ele>2487.100000</ele>
<time>2017-08-15T11:28:46Z</time>
</trkpt>
<trkpt lat="45.443175030" lon="6.938733400">
  <ele>2486.400000</ele>
<time>2017-08-15T11:28:48Z</time>
</trkpt>
<trkpt lat="45.443220120" lon="6.938540120">
  <ele>2485.600000</ele>
<time>2017-08-15T11:28:50Z</time>
</trkpt>
<trkpt lat="45.443255160" lon="6.938371810">
  <ele>2484.700000</ele>
<time>2017-08-15T11:28:52Z</time>
</trkpt>
<trkpt lat="45.443288350" lon="6.938211710">
  <ele>2483.800000</ele>
<time>2017-08-15T11:28:54Z</time>
</trkpt>
<trkpt lat="45.443366800" lon="6.938053460">
  <ele>2482.900000</ele>
<time>2017-08-15T11:28:56Z</time>
</trkpt>
<trkpt lat="45.443470070" lon="6.937975010">
  <ele>2482.000000</ele>
<time>2017-08-15T11:28:58Z</time>
</trkpt>
<trkpt lat="45.443495050" lon="6.937820110">
  <ele>2480.700000</ele>
<time>2017-08-15T11:29:00Z</time>
</trkpt>
<trkpt lat="45.443576690" lon="6.937730090">
  <ele>2479.500000</ele>
<time>2017-08-15T11:29:02Z</time>
</trkpt>
<trkpt lat="45.443641730" lon="6.937623470">
  <ele>2478.200000</ele>
<time>2017-08-15T11:29:04Z</time>
</trkpt>
<trkpt lat="45.443645080" lon="6.937463380">
  <ele>2476.900000</ele>
<time>2017-08-15T11:29:06Z</time>
</trkpt>
<trkpt lat="45.443780030" lon="6.937433370">
  <ele>2474.800000</ele>
<time>2017-08-15T11:29:09Z</time>
</trkpt>
<trkpt lat="45.443833340" lon="6.937303450">
  <ele>2473.200000</ele>
<time>2017-08-15T11:29:11Z</time>
</trkpt>
<trkpt lat="45.443778350" lon="6.937136820">
  <ele>2471.800000</ele>
<time>2017-08-15T11:29:13Z</time>
</trkpt>
<trkpt lat="45.443858490" lon="6.937061720">
  <ele>2468.700000</ele>
<time>2017-08-15T11:29:17Z</time>
</trkpt>
<trkpt lat="45.443951690" lon="6.937096750">
  <ele>2466.500000</ele>
<time>2017-08-15T11:29:20Z</time>
</trkpt>
<trkpt lat="45.443911790" lon="6.936951750">
  <ele>2465.100000</ele>
<time>2017-08-15T11:29:22Z</time>
</trkpt>
<trkpt lat="45.443985050" lon="6.936858370">
  <ele>2463.200000</ele>
<time>2017-08-15T11:29:25Z</time>
</trkpt>
<trkpt lat="45.444035010" lon="6.937010080">
  <ele>2461.900000</ele>
<time>2017-08-15T11:29:27Z</time>
</trkpt>
<trkpt lat="45.444076750" lon="6.937143360">
  <ele>2460.700000</ele>
<time>2017-08-15T11:29:29Z</time>
</trkpt>
<trkpt lat="45.444171800" lon="6.937070100">
  <ele>2459.300000</ele>
<time>2017-08-15T11:29:31Z</time>
</trkpt>
<trkpt lat="45.444238350" lon="6.936951750">
  <ele>2458.000000</ele>
<time>2017-08-15T11:29:33Z</time>
</trkpt>
<trkpt lat="45.444318480" lon="6.936863400">
  <ele>2456.900000</ele>
<time>2017-08-15T11:29:35Z</time>
</trkpt>
<trkpt lat="45.444393420" lon="6.937005050">
  <ele>2455.200000</ele>
<time>2017-08-15T11:29:38Z</time>
</trkpt>
<trkpt lat="45.444481760" lon="6.936966830">
  <ele>2454.100000</ele>
<time>2017-08-15T11:29:40Z</time>
</trkpt>
<trkpt lat="45.444456790" lon="6.936818470">
  <ele>2453.100000</ele>
<time>2017-08-15T11:29:42Z</time>
</trkpt>
<trkpt lat="45.444463490" lon="6.936683360">
  <ele>2452.000000</ele>
<time>2017-08-15T11:29:44Z</time>
</trkpt>
<trkpt lat="45.444553350" lon="6.936755110">
  <ele>2450.900000</ele>
<time>2017-08-15T11:29:46Z</time>
</trkpt>
<trkpt lat="45.444633480" lon="6.936873460">
  <ele>2449.900000</ele>
<time>2017-08-15T11:29:48Z</time>
</trkpt>
<trkpt lat="45.444638340" lon="6.937066750">
  <ele>2448.600000</ele>
<time>2017-08-15T11:29:51Z</time>
</trkpt>
<trkpt lat="45.444631800" lon="6.937211750">
  <ele>2447.700000</ele>
<time>2017-08-15T11:29:53Z</time>
</trkpt>
<trkpt lat="45.444598440" lon="6.937358440">
  <ele>2446.900000</ele>
<time>2017-08-15T11:29:55Z</time>
</trkpt>
<trkpt lat="45.444660130" lon="6.937493380">
  <ele>2445.900000</ele>
<time>2017-08-15T11:29:57Z</time>
</trkpt>
<trkpt lat="45.444755010" lon="6.937418450">
  <ele>2444.700000</ele>
<time>2017-08-15T11:29:59Z</time>
</trkpt>
<trkpt lat="45.444848390" lon="6.937388440">
  <ele>2443.600000</ele>
<time>2017-08-15T11:30:01Z</time>
</trkpt>
<trkpt lat="45.444898340" lon="6.937546690">
  <ele>2442.500000</ele>
<time>2017-08-15T11:30:03Z</time>
</trkpt>
<trkpt lat="45.445003450" lon="6.937521710">
  <ele>2441.100000</ele>
<time>2017-08-15T11:30:05Z</time>
</trkpt>
<trkpt lat="45.445100010" lon="6.937601680">
  <ele>2439.300000</ele>
<time>2017-08-15T11:30:08Z</time>
</trkpt>
<trkpt lat="45.445123480" lon="6.937768480">
  <ele>2438.300000</ele>
<time>2017-08-15T11:30:10Z</time>
</trkpt>
<trkpt lat="45.445171760" lon="6.937925050">
  <ele>2437.300000</ele>
<time>2017-08-15T11:30:12Z</time>
</trkpt>
<trkpt lat="45.445280060" lon="6.937970150">
  <ele>2436.100000</ele>
<time>2017-08-15T11:30:14Z</time>
</trkpt>
<trkpt lat="45.445365050" lon="6.938118340">
  <ele>2434.600000</ele>
<time>2017-08-15T11:30:17Z</time>
</trkpt>
<trkpt lat="45.445460100" lon="6.938138460">
  <ele>2433.700000</ele>
<time>2017-08-15T11:30:19Z</time>
</trkpt>
<trkpt lat="45.445563360" lon="6.938146670">
  <ele>2432.800000</ele>
<time>2017-08-15T11:30:21Z</time>
</trkpt>
<trkpt lat="45.445658420" lon="6.938236690">
  <ele>2432.000000</ele>
<time>2017-08-15T11:30:23Z</time>
</trkpt>
<trkpt lat="45.445720110" lon="6.938340120">
  <ele>2431.300000</ele>
<time>2017-08-15T11:30:25Z</time>
</trkpt>
<trkpt lat="45.445810130" lon="6.938351690">
  <ele>2430.400000</ele>
<time>2017-08-15T11:30:27Z</time>
</trkpt>
<trkpt lat="45.445875000" lon="6.938241720">
  <ele>2429.400000</ele>
<time>2017-08-15T11:30:29Z</time>
</trkpt>
<trkpt lat="45.445988490" lon="6.938241720">
  <ele>2428.300000</ele>
<time>2017-08-15T11:30:31Z</time>
</trkpt>
<trkpt lat="45.446096790" lon="6.938331740">
  <ele>2427.000000</ele>
<time>2017-08-15T11:30:33Z</time>
</trkpt>
<trkpt lat="45.446181780" lon="6.938436680">
  <ele>2425.800000</ele>
<time>2017-08-15T11:30:35Z</time>
</trkpt>
<trkpt lat="45.446285050" lon="6.938456800">
  <ele>2424.000000</ele>
<time>2017-08-15T11:30:38Z</time>
</trkpt>
<trkpt lat="45.446346740" lon="6.938355040">
  <ele>2421.900000</ele>
<time>2017-08-15T11:30:41Z</time>
</trkpt>
<trkpt lat="45.446415130" lon="6.938441710">
  <ele>2420.500000</ele>
<time>2017-08-15T11:30:43Z</time>
</trkpt>
<trkpt lat="45.446493420" lon="6.938531730">
  <ele>2418.500000</ele>
<time>2017-08-15T11:30:46Z</time>
</trkpt>
<trkpt lat="45.446553440" lon="6.938431820">
  <ele>2417.000000</ele>
<time>2017-08-15T11:30:48Z</time>
</trkpt>
<trkpt lat="45.446663410" lon="6.938386730">
  <ele>2415.100000</ele>
<time>2017-08-15T11:30:50Z</time>
</trkpt>
<trkpt lat="45.446748400" lon="6.938280110">
  <ele>2413.200000</ele>
<time>2017-08-15T11:30:52Z</time>
</trkpt>
<trkpt lat="45.446836740" lon="6.938181710">
  <ele>2411.400000</ele>
<time>2017-08-15T11:30:54Z</time>
</trkpt>
<trkpt lat="45.446953420" lon="6.938098390">
  <ele>2409.800000</ele>
<time>2017-08-15T11:30:56Z</time>
</trkpt>
<trkpt lat="45.447063390" lon="6.938011720">
  <ele>2408.300000</ele>
<time>2017-08-15T11:30:58Z</time>
</trkpt>
<trkpt lat="45.447181740" lon="6.937986740">
  <ele>2406.700000</ele>
<time>2017-08-15T11:31:00Z</time>
</trkpt>
<trkpt lat="45.447300100" lon="6.937971820">
  <ele>2405.300000</ele>
<time>2017-08-15T11:31:02Z</time>
</trkpt>
<trkpt lat="45.447395150" lon="6.937846760">
  <ele>2403.300000</ele>
<time>2017-08-15T11:31:05Z</time>
</trkpt>
<trkpt lat="45.447521710" lon="6.937898400">
  <ele>2401.900000</ele>
<time>2017-08-15T11:31:07Z</time>
</trkpt>
<trkpt lat="45.447621790" lon="6.937915160">
  <ele>2400.600000</ele>
<time>2017-08-15T11:31:09Z</time>
</trkpt>
<trkpt lat="45.447736790" lon="6.937896720">
  <ele>2399.200000</ele>
<time>2017-08-15T11:31:11Z</time>
</trkpt>
<trkpt lat="45.447818430" lon="6.937796810">
  <ele>2397.000000</ele>
<time>2017-08-15T11:31:14Z</time>
</trkpt>
<trkpt lat="45.447888340" lon="6.937656830">
  <ele>2394.700000</ele>
<time>2017-08-15T11:31:17Z</time>
</trkpt>
<trkpt lat="45.448025130" lon="6.937671750">
  <ele>2392.900000</ele>
<time>2017-08-15T11:31:19Z</time>
</trkpt>
<trkpt lat="45.448183380" lon="6.937671750">
  <ele>2391.400000</ele>
<time>2017-08-15T11:31:21Z</time>
</trkpt>
<trkpt lat="45.448330060" lon="6.937680130">
  <ele>2390.000000</ele>
<time>2017-08-15T11:31:23Z</time>
</trkpt>
<trkpt lat="45.448468360" lon="6.937720030">
  <ele>2388.500000</ele>
<time>2017-08-15T11:31:25Z</time>
</trkpt>
<trkpt lat="45.448595100" lon="6.937755070">
  <ele>2387.400000</ele>
<time>2017-08-15T11:31:27Z</time>
</trkpt>
<trkpt lat="45.448701720" lon="6.937815080">
  <ele>2386.500000</ele>
<time>2017-08-15T11:31:29Z</time>
</trkpt>
<trkpt lat="45.448791740" lon="6.937923380">
  <ele>2385.600000</ele>
<time>2017-08-15T11:31:31Z</time>
</trkpt>
<trkpt lat="45.448881760" lon="6.938045080">
  <ele>2384.700000</ele>
<time>2017-08-15T11:31:33Z</time>
</trkpt>
<trkpt lat="45.448971780" lon="6.938163430">
  <ele>2383.600000</ele>
<time>2017-08-15T11:31:35Z</time>
</trkpt>
<trkpt lat="45.449060130" lon="6.938246750">
  <ele>2382.800000</ele>
<time>2017-08-15T11:31:37Z</time>
</trkpt>
<trkpt lat="45.449138410" lon="6.938330070">
  <ele>2382.000000</ele>
<time>2017-08-15T11:31:39Z</time>
</trkpt>
<trkpt lat="45.449206810" lon="6.938413380">
  <ele>2381.300000</ele>
<time>2017-08-15T11:31:41Z</time>
</trkpt>
<trkpt lat="45.449311750" lon="6.938403490">
  <ele>2380.400000</ele>
<time>2017-08-15T11:31:44Z</time>
</trkpt>
<trkpt lat="45.449311750" lon="6.938268370">
  <ele>2377.600000</ele>
<time>2017-08-15T11:32:03Z</time>
</trkpt>
<trkpt lat="45.449228440" lon="6.938195120">
  <ele>2377.000000</ele>
<time>2017-08-15T11:32:15Z</time>
</trkpt>
<trkpt lat="45.449138410" lon="6.938130070">
  <ele>2376.900000</ele>
<time>2017-08-15T11:32:18Z</time>
</trkpt>
<trkpt lat="45.449060130" lon="6.938065030">
  <ele>2376.800000</ele>
<time>2017-08-15T11:32:21Z</time>
</trkpt>
<trkpt lat="45.448981670" lon="6.938000150">
  <ele>2377.100000</ele>
<time>2017-08-15T11:32:24Z</time>
</trkpt>
<trkpt lat="45.448878410" lon="6.937911810">
  <ele>2378.000000</ele>
<time>2017-08-15T11:32:28Z</time>
</trkpt>
<trkpt lat="45.448798440" lon="6.937846760">
  <ele>2378.800000</ele>
<time>2017-08-15T11:32:31Z</time>
</trkpt>
<trkpt lat="45.448718480" lon="6.937783400">
  <ele>2379.800000</ele>
<time>2017-08-15T11:32:34Z</time>
</trkpt>
<trkpt lat="45.448633490" lon="6.937716680">
  <ele>2380.800000</ele>
<time>2017-08-15T11:32:37Z</time>
</trkpt>
<trkpt lat="45.448551680" lon="6.937651800">
  <ele>2381.900000</ele>
<time>2017-08-15T11:32:40Z</time>
</trkpt>
<trkpt lat="45.448470040" lon="6.937585080">
  <ele>2383.100000</ele>
<time>2017-08-15T11:32:43Z</time>
</trkpt>
<trkpt lat="45.448366780" lon="6.937506790">
  <ele>2384.700000</ele>
<time>2017-08-15T11:32:47Z</time>
</trkpt>
<trkpt lat="45.448286810" lon="6.937441750">
  <ele>2385.900000</ele>
<time>2017-08-15T11:32:50Z</time>
</trkpt>
<trkpt lat="45.448208360" lon="6.937378380">
  <ele>2386.900000</ele>
<time>2017-08-15T11:32:53Z</time>
</trkpt>
<trkpt lat="45.448128390" lon="6.937315020">
  <ele>2387.900000</ele>
<time>2017-08-15T11:32:56Z</time>
</trkpt>
<trkpt lat="45.448050110" lon="6.937250140">
  <ele>2388.900000</ele>
<time>2017-08-15T11:32:59Z</time>
</trkpt>
<trkpt lat="45.447966790" lon="6.937183420">
  <ele>2389.900000</ele>
<time>2017-08-15T11:33:02Z</time>
</trkpt>
<trkpt lat="45.447881800" lon="6.937113350">
  <ele>2391.000000</ele>
<time>2017-08-15T11:33:05Z</time>
</trkpt>
<trkpt lat="45.447803340" lon="6.937050150">
  <ele>2392.200000</ele>
<time>2017-08-15T11:33:08Z</time>
</trkpt>
<trkpt lat="45.447720030" lon="6.936985110">
  <ele>2393.400000</ele>
<time>2017-08-15T11:33:11Z</time>
</trkpt>
<trkpt lat="45.447613410" lon="6.936900110">
  <ele>2395.300000</ele>
<time>2017-08-15T11:33:15Z</time>
</trkpt>
<trkpt lat="45.447510150" lon="6.936815120">
  <ele>2397.500000</ele>
<time>2017-08-15T11:33:19Z</time>
</trkpt>
<trkpt lat="45.447411740" lon="6.936735160">
  <ele>2399.900000</ele>
<time>2017-08-15T11:33:23Z</time>
</trkpt>
<trkpt lat="45.447310150" lon="6.936655030">
  <ele>2402.400000</ele>
<time>2017-08-15T11:33:27Z</time>
</trkpt>
<trkpt lat="45.447206720" lon="6.936576740">
  <ele>2404.900000</ele>
<time>2017-08-15T11:33:31Z</time>
</trkpt>
<trkpt lat="45.447128430" lon="6.936511700">
  <ele>2406.700000</ele>
<time>2017-08-15T11:33:34Z</time>
</trkpt>
<trkpt lat="45.447045120" lon="6.936440110">
  <ele>2408.500000</ele>
<time>2017-08-15T11:33:37Z</time>
</trkpt>
<trkpt lat="45.446963480" lon="6.936373390">
  <ele>2410.300000</ele>
<time>2017-08-15T11:33:40Z</time>
</trkpt>
<trkpt lat="45.446858370" lon="6.936296780">
  <ele>2412.600000</ele>
<time>2017-08-15T11:33:44Z</time>
</trkpt>
<trkpt lat="45.446756780" lon="6.936216820">
  <ele>2414.800000</ele>
<time>2017-08-15T11:33:48Z</time>
</trkpt>
<trkpt lat="45.446653350" lon="6.936131830">
  <ele>2416.700000</ele>
<time>2017-08-15T11:33:52Z</time>
</trkpt>
<trkpt lat="45.446551760" lon="6.936055050">
  <ele>2418.300000</ele>
<time>2017-08-15T11:33:56Z</time>
</trkpt>
<trkpt lat="45.446470120" lon="6.935991680">
  <ele>2419.500000</ele>
<time>2017-08-15T11:33:59Z</time>
</trkpt>
<trkpt lat="45.446390160" lon="6.935926810">
  <ele>2420.800000</ele>
<time>2017-08-15T11:34:02Z</time>
</trkpt>
<trkpt lat="45.446290080" lon="6.935850030">
  <ele>2422.400000</ele>
<time>2017-08-15T11:34:06Z</time>
</trkpt>
<trkpt lat="45.446193350" lon="6.935786830">
  <ele>2424.200000</ele>
<time>2017-08-15T11:34:10Z</time>
</trkpt>
<trkpt lat="45.446115060" lon="6.935723460">
  <ele>2425.600000</ele>
<time>2017-08-15T11:34:13Z</time>
</trkpt>
<trkpt lat="45.446013470" lon="6.935646680">
  <ele>2427.600000</ele>
<time>2017-08-15T11:34:17Z</time>
</trkpt>
<trkpt lat="45.445931830" lon="6.935581810">
  <ele>2429.100000</ele>
<time>2017-08-15T11:34:20Z</time>
</trkpt>
<trkpt lat="45.445851700" lon="6.935521790">
  <ele>2430.500000</ele>
<time>2017-08-15T11:34:23Z</time>
</trkpt>
<trkpt lat="45.445770060" lon="6.935460100">
  <ele>2431.800000</ele>
<time>2017-08-15T11:34:26Z</time>
</trkpt>
<trkpt lat="45.445686750" lon="6.935391710">
  <ele>2432.900000</ele>
<time>2017-08-15T11:34:29Z</time>
</trkpt>
<trkpt lat="45.445583480" lon="6.935313420">
  <ele>2434.200000</ele>
<time>2017-08-15T11:34:33Z</time>
</trkpt>
<trkpt lat="45.445505030" lon="6.935250050">
  <ele>2435.300000</ele>
<time>2017-08-15T11:34:36Z</time>
</trkpt>
<trkpt lat="45.445423390" lon="6.935186680">
  <ele>2436.400000</ele>
<time>2017-08-15T11:34:39Z</time>
</trkpt>
<trkpt lat="45.445345100" lon="6.935123480">
  <ele>2437.600000</ele>
<time>2017-08-15T11:34:42Z</time>
</trkpt>
<trkpt lat="45.445240160" lon="6.935041680">
  <ele>2439.200000</ele>
<time>2017-08-15T11:34:46Z</time>
</trkpt>
<trkpt lat="45.445133370" lon="6.934956680">
  <ele>2441.000000</ele>
<time>2017-08-15T11:34:50Z</time>
</trkpt>
<trkpt lat="45.445028430" lon="6.934876720">
  <ele>2443.000000</ele>
<time>2017-08-15T11:34:54Z</time>
</trkpt>
<trkpt lat="45.444925170" lon="6.934796760">
  <ele>2444.600000</ele>
<time>2017-08-15T11:34:58Z</time>
</trkpt>
<trkpt lat="45.444845040" lon="6.934735070">
  <ele>2445.600000</ele>
<time>2017-08-15T11:35:01Z</time>
</trkpt>
<trkpt lat="45.444765070" lon="6.934673380">
  <ele>2446.400000</ele>
<time>2017-08-15T11:35:04Z</time>
</trkpt>
<trkpt lat="45.444661810" lon="6.934593410">
  <ele>2447.500000</ele>
<time>2017-08-15T11:35:08Z</time>
</trkpt>
<trkpt lat="45.444580170" lon="6.934528370">
  <ele>2448.300000</ele>
<time>2017-08-15T11:35:11Z</time>
</trkpt>
<trkpt lat="45.444476730" lon="6.934445050">
  <ele>2449.500000</ele>
<time>2017-08-15T11:35:15Z</time>
</trkpt>
<trkpt lat="45.444373470" lon="6.934363410">
  <ele>2450.600000</ele>
<time>2017-08-15T11:35:19Z</time>
</trkpt>
<trkpt lat="45.444270040" lon="6.934281770">
  <ele>2452.000000</ele>
<time>2017-08-15T11:35:23Z</time>
</trkpt>
<trkpt lat="45.444165100" lon="6.934200130">
  <ele>2453.500000</ele>
<time>2017-08-15T11:35:27Z</time>
</trkpt>
<trkpt lat="45.444085130" lon="6.934135090">
  <ele>2454.600000</ele>
<time>2017-08-15T11:35:30Z</time>
</trkpt>
<trkpt lat="45.444005000" lon="6.934070050">
  <ele>2455.700000</ele>
<time>2017-08-15T11:35:33Z</time>
</trkpt>
<trkpt lat="45.443923360" lon="6.934006680">
  <ele>2456.700000</ele>
<time>2017-08-15T11:35:36Z</time>
</trkpt>
<trkpt lat="45.443843400" lon="6.933945160">
  <ele>2457.700000</ele>
<time>2017-08-15T11:35:39Z</time>
</trkpt>
<trkpt lat="45.443741810" lon="6.933873410">
  <ele>2459.100000</ele>
<time>2017-08-15T11:35:43Z</time>
</trkpt>
<trkpt lat="45.443660000" lon="6.933806690">
  <ele>2460.300000</ele>
<time>2017-08-15T11:35:46Z</time>
</trkpt>
<trkpt lat="45.443555060" lon="6.933726720">
  <ele>2462.000000</ele>
<time>2017-08-15T11:35:50Z</time>
</trkpt>
<trkpt lat="45.443446770" lon="6.933641730">
  <ele>2463.800000</ele>
<time>2017-08-15T11:35:54Z</time>
</trkpt>
<trkpt lat="45.443343330" lon="6.933561770">
  <ele>2465.700000</ele>
<time>2017-08-15T11:35:58Z</time>
</trkpt>
<trkpt lat="45.443240070" lon="6.933485160">
  <ele>2467.800000</ele>
<time>2017-08-15T11:36:02Z</time>
</trkpt>
<trkpt lat="45.443133450" lon="6.933406700">
  <ele>2469.400000</ele>
<time>2017-08-15T11:36:06Z</time>
</trkpt>
<trkpt lat="45.443030020" lon="6.933325060">
  <ele>2470.700000</ele>
<time>2017-08-15T11:36:10Z</time>
</trkpt>
<trkpt lat="45.442926750" lon="6.933245100">
  <ele>2471.500000</ele>
<time>2017-08-15T11:36:14Z</time>
</trkpt>
<trkpt lat="45.442843440" lon="6.933178380">
  <ele>2472.000000</ele>
<time>2017-08-15T11:36:17Z</time>
</trkpt>
<trkpt lat="45.442761800" lon="6.933115010">
  <ele>2472.300000</ele>
<time>2017-08-15T11:36:20Z</time>
</trkpt>
<trkpt lat="45.442658360" lon="6.933038400">
  <ele>2472.600000</ele>
<time>2017-08-15T11:36:24Z</time>
</trkpt>
<trkpt lat="45.442580080" lon="6.932975040">
  <ele>2472.800000</ele>
<time>2017-08-15T11:36:27Z</time>
</trkpt>
<trkpt lat="45.442496760" lon="6.932910160">
  <ele>2473.000000</ele>
<time>2017-08-15T11:36:30Z</time>
</trkpt>
<trkpt lat="45.442415120" lon="6.932845120">
  <ele>2473.100000</ele>
<time>2017-08-15T11:36:33Z</time>
</trkpt>
<trkpt lat="45.442308340" lon="6.932766830">
  <ele>2473.200000</ele>
<time>2017-08-15T11:36:37Z</time>
</trkpt>
<trkpt lat="45.442228370" lon="6.932705140">
  <ele>2473.300000</ele>
<time>2017-08-15T11:36:40Z</time>
</trkpt>
<trkpt lat="45.442121760" lon="6.932620150">
  <ele>2473.300000</ele>
<time>2017-08-15T11:36:44Z</time>
</trkpt>
<trkpt lat="45.442016810" lon="6.932540010">
  <ele>2473.200000</ele>
<time>2017-08-15T11:36:48Z</time>
</trkpt>
<trkpt lat="45.441915060" lon="6.932463400">
  <ele>2472.900000</ele>
<time>2017-08-15T11:36:52Z</time>
</trkpt>
<trkpt lat="45.441810120" lon="6.932381760">
  <ele>2472.600000</ele>
<time>2017-08-15T11:36:56Z</time>
</trkpt>
<trkpt lat="45.441705010" lon="6.932301800">
  <ele>2472.400000</ele>
<time>2017-08-15T11:37:00Z</time>
</trkpt>
<trkpt lat="45.441626720" lon="6.932238430">
  <ele>2472.300000</ele>
<time>2017-08-15T11:37:03Z</time>
</trkpt>
<trkpt lat="45.441521780" lon="6.932156790">
  <ele>2472.100000</ele>
<time>2017-08-15T11:37:07Z</time>
</trkpt>
<trkpt lat="45.441441820" lon="6.932093430">
  <ele>2472.200000</ele>
<time>2017-08-15T11:37:10Z</time>
</trkpt>
<trkpt lat="45.441356820" lon="6.932028380">
  <ele>2472.300000</ele>
<time>2017-08-15T11:37:13Z</time>
</trkpt>
<trkpt lat="45.441271830" lon="6.931960150">
  <ele>2472.400000</ele>
<time>2017-08-15T11:37:16Z</time>
</trkpt>
<trkpt lat="45.441188350" lon="6.931898460">
  <ele>2472.600000</ele>
<time>2017-08-15T11:37:19Z</time>
</trkpt>
<trkpt lat="45.441106710" lon="6.931840130">
  <ele>2472.700000</ele>
<time>2017-08-15T11:37:22Z</time>
</trkpt>
<trkpt lat="45.441003440" lon="6.931758490">
  <ele>2472.800000</ele>
<time>2017-08-15T11:37:26Z</time>
</trkpt>
<trkpt lat="45.440903360" lon="6.931673490">
  <ele>2472.800000</ele>
<time>2017-08-15T11:37:30Z</time>
</trkpt>
<trkpt lat="45.440800100" lon="6.931591690">
  <ele>2472.900000</ele>
<time>2017-08-15T11:37:34Z</time>
</trkpt>
<trkpt lat="45.440720130" lon="6.931526810">
  <ele>2473.000000</ele>
<time>2017-08-15T11:37:37Z</time>
</trkpt>
<trkpt lat="45.440615020" lon="6.931446680">
  <ele>2473.400000</ele>
<time>2017-08-15T11:37:41Z</time>
</trkpt>
<trkpt lat="45.440515110" lon="6.931361690">
  <ele>2474.100000</ele>
<time>2017-08-15T11:37:45Z</time>
</trkpt>
<trkpt lat="45.440413360" lon="6.931283400">
  <ele>2475.200000</ele>
<time>2017-08-15T11:37:49Z</time>
</trkpt>
<trkpt lat="45.440311770" lon="6.931203440">
  <ele>2476.800000</ele>
<time>2017-08-15T11:37:53Z</time>
</trkpt>
<trkpt lat="45.440231800" lon="6.931141750">
  <ele>2478.100000</ele>
<time>2017-08-15T11:37:56Z</time>
</trkpt>
<trkpt lat="45.440128370" lon="6.931063460">
  <ele>2480.300000</ele>
<time>2017-08-15T11:38:00Z</time>
</trkpt>
<trkpt lat="45.440023430" lon="6.930981820">
  <ele>2482.700000</ele>
<time>2017-08-15T11:38:04Z</time>
</trkpt>
<trkpt lat="45.439920160" lon="6.930901690">
  <ele>2485.400000</ele>
<time>2017-08-15T11:38:08Z</time>
</trkpt>
<trkpt lat="45.439820080" lon="6.930823400">
  <ele>2488.400000</ele>
<time>2017-08-15T11:38:12Z</time>
</trkpt>
<trkpt lat="45.439720000" lon="6.930741760">
  <ele>2491.700000</ele>
<time>2017-08-15T11:38:16Z</time>
</trkpt>
<trkpt lat="45.439638370" lon="6.930666830">
  <ele>2494.300000</ele>
<time>2017-08-15T11:38:19Z</time>
</trkpt>
<trkpt lat="45.439536780" lon="6.930583340">
  <ele>2497.700000</ele>
<time>2017-08-15T11:38:23Z</time>
</trkpt>
<trkpt lat="45.439435020" lon="6.930506730">
  <ele>2500.700000</ele>
<time>2017-08-15T11:38:27Z</time>
</trkpt>
<trkpt lat="45.439331760" lon="6.930431800">
  <ele>2503.700000</ele>
<time>2017-08-15T11:38:31Z</time>
</trkpt>
<trkpt lat="45.439226810" lon="6.930353340">
  <ele>2506.400000</ele>
<time>2017-08-15T11:38:35Z</time>
</trkpt>
<trkpt lat="45.439146680" lon="6.930288470">
  <ele>2508.400000</ele>
<time>2017-08-15T11:38:38Z</time>
</trkpt>
<trkpt lat="45.439066720" lon="6.930225100">
  <ele>2510.400000</ele>
<time>2017-08-15T11:38:41Z</time>
</trkpt>
<trkpt lat="45.438986760" lon="6.930160060">
  <ele>2512.600000</ele>
<time>2017-08-15T11:38:44Z</time>
</trkpt>
<trkpt lat="45.438886680" lon="6.930078420">
  <ele>2515.500000</ele>
<time>2017-08-15T11:38:48Z</time>
</trkpt>
<trkpt lat="45.438806710" lon="6.930016730">
  <ele>2517.800000</ele>
<time>2017-08-15T11:38:51Z</time>
</trkpt>
<trkpt lat="45.438728430" lon="6.929953360">
  <ele>2520.200000</ele>
<time>2017-08-15T11:38:54Z</time>
</trkpt>
<trkpt lat="45.438628350" lon="6.929880100">
  <ele>2523.400000</ele>
<time>2017-08-15T11:38:58Z</time>
</trkpt>
<trkpt lat="45.438523400" lon="6.929800140">
  <ele>2526.400000</ele>
<time>2017-08-15T11:39:02Z</time>
</trkpt>
<trkpt lat="45.438418460" lon="6.929718500">
  <ele>2529.500000</ele>
<time>2017-08-15T11:39:06Z</time>
</trkpt>
<trkpt lat="45.438313350" lon="6.929638370">
  <ele>2532.400000</ele>
<time>2017-08-15T11:39:10Z</time>
</trkpt>
<trkpt lat="45.438210090" lon="6.929556730">
  <ele>2535.400000</ele>
<time>2017-08-15T11:39:14Z</time>
</trkpt>
<trkpt lat="45.438105150" lon="6.929468380">
  <ele>2538.300000</ele>
<time>2017-08-15T11:39:18Z</time>
</trkpt>
<trkpt lat="45.438025020" lon="6.929403340">
  <ele>2540.300000</ele>
<time>2017-08-15T11:39:21Z</time>
</trkpt>
<trkpt lat="45.437943380" lon="6.929341820">
  <ele>2542.100000</ele>
<time>2017-08-15T11:39:24Z</time>
</trkpt>
<trkpt lat="45.437863410" lon="6.929281800">
  <ele>2543.800000</ele>
<time>2017-08-15T11:39:27Z</time>
</trkpt>
<trkpt lat="45.437783450" lon="6.929221790">
  <ele>2545.300000</ele>
<time>2017-08-15T11:39:30Z</time>
</trkpt>
<trkpt lat="45.437678340" lon="6.929140150">
  <ele>2547.200000</ele>
<time>2017-08-15T11:39:34Z</time>
</trkpt>
<trkpt lat="45.437573400" lon="6.929058340">
  <ele>2549.000000</ele>
<time>2017-08-15T11:39:38Z</time>
</trkpt>
<trkpt lat="45.437470130" lon="6.928978380">
  <ele>2550.900000</ele>
<time>2017-08-15T11:39:42Z</time>
</trkpt>
<trkpt lat="45.437366700" lon="6.928896740">
  <ele>2552.900000</ele>
<time>2017-08-15T11:39:46Z</time>
</trkpt>
<trkpt lat="45.437288410" lon="6.928833370">
  <ele>2554.400000</ele>
<time>2017-08-15T11:39:49Z</time>
</trkpt>
<trkpt lat="45.437186830" lon="6.928755080">
  <ele>2556.500000</ele>
<time>2017-08-15T11:39:53Z</time>
</trkpt>
<trkpt lat="45.437086750" lon="6.928678470">
  <ele>2558.800000</ele>
<time>2017-08-15T11:39:57Z</time>
</trkpt>
<trkpt lat="45.436986830" lon="6.928600020">
  <ele>2561.400000</ele>
<time>2017-08-15T11:40:01Z</time>
</trkpt>
<trkpt lat="45.436885080" lon="6.928520050">
  <ele>2564.300000</ele>
<time>2017-08-15T11:40:05Z</time>
</trkpt>
<trkpt lat="45.436785170" lon="6.928441770">
  <ele>2567.500000</ele>
<time>2017-08-15T11:40:09Z</time>
</trkpt>
<trkpt lat="45.436685090" lon="6.928366830">
  <ele>2570.700000</ele>
<time>2017-08-15T11:40:13Z</time>
</trkpt>
<trkpt lat="45.436586680" lon="6.928293410">
  <ele>2574.200000</ele>
<time>2017-08-15T11:40:17Z</time>
</trkpt>
<trkpt lat="45.436481740" lon="6.928213440">
  <ele>2578.000000</ele>
<time>2017-08-15T11:40:21Z</time>
</trkpt>
<trkpt lat="45.436388370" lon="6.928146720">
  <ele>2582.000000</ele>
<time>2017-08-15T11:40:25Z</time>
</trkpt>
<trkpt lat="45.436286780" lon="6.928068440">
  <ele>2586.000000</ele>
<time>2017-08-15T11:40:29Z</time>
</trkpt>
<trkpt lat="45.436185020" lon="6.927990150">
  <ele>2589.600000</ele>
<time>2017-08-15T11:40:33Z</time>
</trkpt>
<trkpt lat="45.436103380" lon="6.927923430">
  <ele>2592.000000</ele>
<time>2017-08-15T11:40:36Z</time>
</trkpt>
<trkpt lat="45.436000120" lon="6.927841790">
  <ele>2595.100000</ele>
<time>2017-08-15T11:40:40Z</time>
</trkpt>
<trkpt lat="45.435920150" lon="6.927776750">
  <ele>2597.300000</ele>
<time>2017-08-15T11:40:43Z</time>
</trkpt>
<trkpt lat="45.435840020" lon="6.927715060">
  <ele>2599.500000</ele>
<time>2017-08-15T11:40:46Z</time>
</trkpt>
<trkpt lat="45.435728370" lon="6.927628390">
  <ele>2602.300000</ele>
<time>2017-08-15T11:40:50Z</time>
</trkpt>
<trkpt lat="45.435648410" lon="6.927558480">
  <ele>2604.500000</ele>
<time>2017-08-15T11:40:53Z</time>
</trkpt>
<trkpt lat="45.435551680" lon="6.927488410">
  <ele>2607.400000</ele>
<time>2017-08-15T11:40:57Z</time>
</trkpt>
<trkpt lat="45.435450100" lon="6.927408450">
  <ele>2610.400000</ele>
<time>2017-08-15T11:41:01Z</time>
</trkpt>
<trkpt lat="45.435348340" lon="6.927330160">
  <ele>2613.300000</ele>
<time>2017-08-15T11:41:05Z</time>
</trkpt>
<trkpt lat="45.435246750" lon="6.927253380">
  <ele>2616.000000</ele>
<time>2017-08-15T11:41:09Z</time>
</trkpt>
<trkpt lat="45.435141810" lon="6.927173420">
  <ele>2618.700000</ele>
<time>2017-08-15T11:41:13Z</time>
</trkpt>
<trkpt lat="45.435063350" lon="6.927108370">
  <ele>2620.600000</ele>
<time>2017-08-15T11:41:16Z</time>
</trkpt>
<trkpt lat="45.434983390" lon="6.927046680">
  <ele>2622.700000</ele>
<time>2017-08-15T11:41:19Z</time>
</trkpt>
<trkpt lat="45.434905100" lon="6.926981810">
  <ele>2624.700000</ele>
<time>2017-08-15T11:41:22Z</time>
</trkpt>
<trkpt lat="45.434801670" lon="6.926901680">
  <ele>2627.600000</ele>
<time>2017-08-15T11:41:26Z</time>
</trkpt>
<trkpt lat="45.434696730" lon="6.926820040">
  <ele>2630.500000</ele>
<time>2017-08-15T11:41:30Z</time>
</trkpt>
<trkpt lat="45.434595140" lon="6.926746780">
  <ele>2633.600000</ele>
<time>2017-08-15T11:41:34Z</time>
</trkpt>
<trkpt lat="45.434496740" lon="6.926666810">
  <ele>2636.800000</ele>
<time>2017-08-15T11:41:38Z</time>
</trkpt>
<trkpt lat="45.434398330" lon="6.926590040">
  <ele>2640.100000</ele>
<time>2017-08-15T11:41:42Z</time>
</trkpt>
<trkpt lat="45.434300100" lon="6.926513430">
  <ele>2643.700000</ele>
<time>2017-08-15T11:41:46Z</time>
</trkpt>
<trkpt lat="45.434201700" lon="6.926436820">
  <ele>2647.400000</ele>
<time>2017-08-15T11:41:50Z</time>
</trkpt>
<trkpt lat="45.434103460" lon="6.926361710">
  <ele>2651.500000</ele>
<time>2017-08-15T11:41:54Z</time>
</trkpt>
<trkpt lat="45.434006730" lon="6.926281750">
  <ele>2655.700000</ele>
<time>2017-08-15T11:41:58Z</time>
</trkpt>
<trkpt lat="45.433910000" lon="6.926206820">
  <ele>2660.300000</ele>
<time>2017-08-15T11:42:02Z</time>
</trkpt>
<trkpt lat="45.433818470" lon="6.926136740">
  <ele>2665.400000</ele>
<time>2017-08-15T11:42:06Z</time>
</trkpt>
<trkpt lat="45.433728450" lon="6.926065160">
  <ele>2671.000000</ele>
<time>2017-08-15T11:42:10Z</time>
</trkpt>
<trkpt lat="45.433641780" lon="6.926000120">
  <ele>2676.900000</ele>
<time>2017-08-15T11:42:14Z</time>
</trkpt>
<trkpt lat="45.433556790" lon="6.925935070">
  <ele>2683.200000</ele>
<time>2017-08-15T11:42:18Z</time>
</trkpt>
<trkpt lat="45.433471800" lon="6.925871710">
  <ele>2689.700000</ele>
<time>2017-08-15T11:42:22Z</time>
</trkpt>
<trkpt lat="45.433388480" lon="6.925815050">
  <ele>2696.700000</ele>
<time>2017-08-15T11:42:26Z</time>
</trkpt>
<trkpt lat="45.433306680" lon="6.925758380">
  <ele>2703.800000</ele>
<time>2017-08-15T11:42:30Z</time>
</trkpt>
<trkpt lat="45.433211790" lon="6.925690160">
  <ele>2710.800000</ele>
<time>2017-08-15T11:42:34Z</time>
</trkpt>
<trkpt lat="45.433130150" lon="6.925626790">
  <ele>2715.200000</ele>
<time>2017-08-15T11:42:37Z</time>
</trkpt>
<trkpt lat="45.433050020" lon="6.925561740">
  <ele>2718.800000</ele>
<time>2017-08-15T11:42:40Z</time>
</trkpt>
<trkpt lat="45.432951790" lon="6.925485130">
  <ele>2722.700000</ele>
<time>2017-08-15T11:42:44Z</time>
</trkpt>
<trkpt lat="45.432865120" lon="6.925450100">
  <ele>2731.000000</ele>
<time>2017-08-15T11:43:00Z</time>
</trkpt>
<trkpt lat="45.432775100" lon="6.925385050">
  <ele>2732.300000</ele>
<time>2017-08-15T11:43:06Z</time>
</trkpt>
<trkpt lat="45.432686750" lon="6.925331750">
  <ele>2732.800000</ele>
<time>2017-08-15T11:43:10Z</time>
</trkpt>
<trkpt lat="45.432593380" lon="6.925291680">
  <ele>2733.200000</ele>
<time>2017-08-15T11:44:35Z</time>
</trkpt>
<trkpt lat="45.432496820" lon="6.925256810">
  <ele>2733.000000</ele>
<time>2017-08-15T11:44:37Z</time>
</trkpt>
<trkpt lat="45.432381820" lon="6.925245080">
  <ele>2732.800000</ele>
<time>2017-08-15T11:44:39Z</time>
</trkpt>
<trkpt lat="45.432263460" lon="6.925275080">
  <ele>2732.500000</ele>
<time>2017-08-15T11:44:41Z</time>
</trkpt>
<trkpt lat="45.432145110" lon="6.925345160">
  <ele>2732.200000</ele>
<time>2017-08-15T11:44:43Z</time>
</trkpt>
<trkpt lat="45.432018380" lon="6.925418410">
  <ele>2731.400000</ele>
<time>2017-08-15T11:44:45Z</time>
</trkpt>
<trkpt lat="45.431941770" lon="6.925503410">
  <ele>2730.900000</ele>
<time>2017-08-15T11:44:47Z</time>
</trkpt>
<trkpt lat="45.431851740" lon="6.925653440">
  <ele>2730.100000</ele>
<time>2017-08-15T11:44:50Z</time>
</trkpt>
<trkpt lat="45.431738420" lon="6.925670040">
  <ele>2729.200000</ele>
<time>2017-08-15T11:44:52Z</time>
</trkpt>
<trkpt lat="45.431655110" lon="6.925720160">
  <ele>2728.400000</ele>
<time>2017-08-15T11:44:54Z</time>
</trkpt>
<trkpt lat="45.431583360" lon="6.925848410">
  <ele>2727.000000</ele>
<time>2017-08-15T11:44:56Z</time>
</trkpt>
<trkpt lat="45.431470030" lon="6.925856790">
  <ele>2725.500000</ele>
<time>2017-08-15T11:44:58Z</time>
</trkpt>
<trkpt lat="45.431465000" lon="6.926003470">
  <ele>2722.700000</ele>
<time>2017-08-15T11:45:02Z</time>
</trkpt>
<trkpt lat="45.431385040" lon="6.926153340">
  <ele>2718.800000</ele>
<time>2017-08-15T11:45:07Z</time>
</trkpt>
<trkpt lat="45.431275070" lon="6.926218380">
  <ele>2717.300000</ele>
<time>2017-08-15T11:45:09Z</time>
</trkpt>
<trkpt lat="45.431345140" lon="6.926356680">
  <ele>2715.300000</ele>
<time>2017-08-15T11:45:12Z</time>
</trkpt>
<trkpt lat="45.431366770" lon="6.926500010">
  <ele>2711.900000</ele>
<time>2017-08-15T11:45:16Z</time>
</trkpt>
<trkpt lat="45.431470030" lon="6.926581820">
  <ele>2708.000000</ele>
<time>2017-08-15T11:45:21Z</time>
</trkpt>
<trkpt lat="45.431470030" lon="6.926711740">
  <ele>2704.800000</ele>
<time>2017-08-15T11:45:25Z</time>
</trkpt>
<trkpt lat="45.431436670" lon="6.926843340">
  <ele>2702.700000</ele>
<time>2017-08-15T11:45:28Z</time>
</trkpt>
<trkpt lat="45.431533400" lon="6.926870160">
  <ele>2701.200000</ele>
<time>2017-08-15T11:45:30Z</time>
</trkpt>
<trkpt lat="45.431596770" lon="6.927000080">
  <ele>2699.200000</ele>
<time>2017-08-15T11:45:32Z</time>
</trkpt>
<trkpt lat="45.431668350" lon="6.927145090">
  <ele>2697.500000</ele>
<time>2017-08-15T11:45:34Z</time>
</trkpt>
<trkpt lat="45.431741770" lon="6.927273500">
  <ele>2695.600000</ele>
<time>2017-08-15T11:45:36Z</time>
</trkpt>
<trkpt lat="45.431646720" lon="6.927378440">
  <ele>2693.200000</ele>
<time>2017-08-15T11:45:39Z</time>
</trkpt>
<trkpt lat="45.431546810" lon="6.927410120">
  <ele>2691.700000</ele>
<time>2017-08-15T11:45:41Z</time>
</trkpt>
<trkpt lat="45.431561730" lon="6.927558480">
  <ele>2689.100000</ele>
<time>2017-08-15T11:45:45Z</time>
</trkpt>
<trkpt lat="45.431646720" lon="6.927676830">
  <ele>2687.900000</ele>
<time>2017-08-15T11:45:47Z</time>
</trkpt>
<trkpt lat="45.431663490" lon="6.927815140">
  <ele>2686.400000</ele>
<time>2017-08-15T11:45:49Z</time>
</trkpt>
<trkpt lat="45.431566760" lon="6.927893420">
  <ele>2684.000000</ele>
<time>2017-08-15T11:45:52Z</time>
</trkpt>
<trkpt lat="45.431605150" lon="6.928040110">
  <ele>2681.600000</ele>
<time>2017-08-15T11:45:55Z</time>
</trkpt>
<trkpt lat="45.431508420" lon="6.928056700">
  <ele>2680.200000</ele>
<time>2017-08-15T11:45:57Z</time>
</trkpt>
<trkpt lat="45.431511770" lon="6.928188470">
  <ele>2678.800000</ele>
<time>2017-08-15T11:45:59Z</time>
</trkpt>
<trkpt lat="45.431595090" lon="6.928328440">
  <ele>2677.400000</ele>
<time>2017-08-15T11:46:01Z</time>
</trkpt>
<trkpt lat="45.431653430" lon="6.928448470">
  <ele>2676.000000</ele>
<time>2017-08-15T11:46:03Z</time>
</trkpt>
<trkpt lat="45.431680080" lon="6.928610080">
  <ele>2674.100000</ele>
<time>2017-08-15T11:46:06Z</time>
</trkpt>
<trkpt lat="45.431766750" lon="6.928665060">
  <ele>2672.800000</ele>
<time>2017-08-15T11:46:08Z</time>
</trkpt>
<trkpt lat="45.431870020" lon="6.928743350">
  <ele>2671.400000</ele>
<time>2017-08-15T11:46:10Z</time>
</trkpt>
<trkpt lat="45.431988370" lon="6.928826830">
  <ele>2669.600000</ele>
<time>2017-08-15T11:46:12Z</time>
</trkpt>
<trkpt lat="45.432110070" lon="6.928896740">
  <ele>2667.400000</ele>
<time>2017-08-15T11:46:14Z</time>
</trkpt>
<trkpt lat="45.432218370" lon="6.928898410">
  <ele>2665.700000</ele>
<time>2017-08-15T11:46:16Z</time>
</trkpt>
<trkpt lat="45.432315100" lon="6.928910150">
  <ele>2664.300000</ele>
<time>2017-08-15T11:46:18Z</time>
</trkpt>
<trkpt lat="45.432406790" lon="6.928965130">
  <ele>2663.000000</ele>
<time>2017-08-15T11:46:20Z</time>
</trkpt>
<trkpt lat="45.432505030" lon="6.928965130">
  <ele>2661.900000</ele>
<time>2017-08-15T11:46:22Z</time>
</trkpt>
<trkpt lat="45.432610140" lon="6.928975020">
  <ele>2660.900000</ele>
<time>2017-08-15T11:46:24Z</time>
</trkpt>
<trkpt lat="45.432708380" lon="6.928990110">
  <ele>2659.800000</ele>
<time>2017-08-15T11:46:26Z</time>
</trkpt>
<trkpt lat="45.432805100" lon="6.929021790">
  <ele>2658.500000</ele>
<time>2017-08-15T11:46:28Z</time>
</trkpt>
<trkpt lat="45.432920100" lon="6.929045100">
  <ele>2657.400000</ele>
<time>2017-08-15T11:46:30Z</time>
</trkpt>
<trkpt lat="45.433021690" lon="6.929036710">
  <ele>2656.000000</ele>
<time>2017-08-15T11:46:32Z</time>
</trkpt>
<trkpt lat="45.433121770" lon="6.929038390">
  <ele>2654.600000</ele>
<time>2017-08-15T11:46:34Z</time>
</trkpt>
<trkpt lat="45.433218500" lon="6.929058340">
  <ele>2653.200000</ele>
<time>2017-08-15T11:46:36Z</time>
</trkpt>
<trkpt lat="45.433321760" lon="6.929125060">
  <ele>2651.200000</ele>
<time>2017-08-15T11:46:39Z</time>
</trkpt>
<trkpt lat="45.433375070" lon="6.929246760">
  <ele>2649.100000</ele>
<time>2017-08-15T11:46:42Z</time>
</trkpt>
<trkpt lat="45.433468450" lon="6.929395120">
  <ele>2647.000000</ele>
<time>2017-08-15T11:46:45Z</time>
</trkpt>
<trkpt lat="45.433540030" lon="6.929505090">
  <ele>2645.500000</ele>
<time>2017-08-15T11:46:47Z</time>
</trkpt>
<trkpt lat="45.433631730" lon="6.929590090">
  <ele>2644.200000</ele>
<time>2017-08-15T11:46:49Z</time>
</trkpt>
<trkpt lat="45.433750080" lon="6.929578350">
  <ele>2643.000000</ele>
<time>2017-08-15T11:46:51Z</time>
</trkpt>
<trkpt lat="45.433873460" lon="6.929540130">
  <ele>2641.500000</ele>
<time>2017-08-15T11:46:53Z</time>
</trkpt>
<trkpt lat="45.433975050" lon="6.929475090">
  <ele>2640.000000</ele>
<time>2017-08-15T11:46:55Z</time>
</trkpt>
<trkpt lat="45.434043440" lon="6.929361760">
  <ele>2638.700000</ele>
<time>2017-08-15T11:46:57Z</time>
</trkpt>
<trkpt lat="45.434131790" lon="6.929263360">
  <ele>2637.300000</ele>
<time>2017-08-15T11:46:59Z</time>
</trkpt>
<trkpt lat="45.434208400" lon="6.929115000">
  <ele>2635.800000</ele>
<time>2017-08-15T11:47:01Z</time>
</trkpt>
<trkpt lat="45.434283330" lon="6.928986760">
  <ele>2634.500000</ele>
<time>2017-08-15T11:47:03Z</time>
</trkpt>
<trkpt lat="45.434338490" lon="6.928875110">
  <ele>2633.200000</ele>
<time>2017-08-15T11:47:05Z</time>
</trkpt>
<trkpt lat="45.434346700" lon="6.928715020">
  <ele>2631.800000</ele>
<time>2017-08-15T11:47:07Z</time>
</trkpt>
<trkpt lat="45.434343350" lon="6.928548380">
  <ele>2630.500000</ele>
<time>2017-08-15T11:47:09Z</time>
</trkpt>
<trkpt lat="45.434405040" lon="6.928433380">
  <ele>2629.700000</ele>
<time>2017-08-15T11:47:11Z</time>
</trkpt>
<trkpt lat="45.434506800" lon="6.928328440">
  <ele>2629.000000</ele>
<time>2017-08-15T11:47:13Z</time>
</trkpt>
<trkpt lat="45.434631690" lon="6.928246800">
  <ele>2628.000000</ele>
<time>2017-08-15T11:47:15Z</time>
</trkpt>
<trkpt lat="45.434733440" lon="6.928188470">
  <ele>2627.200000</ele>
<time>2017-08-15T11:47:17Z</time>
</trkpt>
<trkpt lat="45.434836710" lon="6.928156780">
  <ele>2626.300000</ele>
<time>2017-08-15T11:47:19Z</time>
</trkpt>
<trkpt lat="45.434938460" lon="6.928115040">
  <ele>2625.200000</ele>
<time>2017-08-15T11:47:21Z</time>
</trkpt>
<trkpt lat="45.435046760" lon="6.928196680">
  <ele>2623.500000</ele>
<time>2017-08-15T11:47:24Z</time>
</trkpt>
<trkpt lat="45.435098390" lon="6.928313360">
  <ele>2622.100000</ele>
<time>2017-08-15T11:47:26Z</time>
</trkpt>
<trkpt lat="45.435226800" lon="6.928240100">
  <ele>2619.800000</ele>
<time>2017-08-15T11:47:29Z</time>
</trkpt>
<trkpt lat="45.435316820" lon="6.928281670">
  <ele>2618.500000</ele>
<time>2017-08-15T11:47:31Z</time>
</trkpt>
<trkpt lat="45.435426790" lon="6.928293410">
  <ele>2616.400000</ele>
<time>2017-08-15T11:47:34Z</time>
</trkpt>
<trkpt lat="45.435508430" lon="6.928185110">
  <ele>2615.100000</ele>
<time>2017-08-15T11:47:36Z</time>
</trkpt>
<trkpt lat="45.435628460" lon="6.928110010">
  <ele>2613.800000</ele>
<time>2017-08-15T11:47:38Z</time>
</trkpt>
<trkpt lat="45.435753350" lon="6.927993330">
  <ele>2612.600000</ele>
<time>2017-08-15T11:47:40Z</time>
</trkpt>
<trkpt lat="45.435848400" lon="6.927838440">
  <ele>2611.500000</ele>
<time>2017-08-15T11:47:42Z</time>
</trkpt>
<trkpt lat="45.435888470" lon="6.927670130">
  <ele>2610.600000</ele>
<time>2017-08-15T11:47:44Z</time>
</trkpt>
<trkpt lat="45.435961730" lon="6.927571730">
  <ele>2609.800000</ele>
<time>2017-08-15T11:47:46Z</time>
</trkpt>
<trkpt lat="45.436080080" lon="6.927570050">
  <ele>2608.300000</ele>
<time>2017-08-15T11:47:49Z</time>
</trkpt>
<trkpt lat="45.436156690" lon="6.927495110">
  <ele>2601.000000</ele>
<time>2017-08-15T11:48:46Z</time>
</trkpt>
<trkpt lat="45.436230120" lon="6.927413470">
  <ele>2600.800000</ele>
<time>2017-08-15T11:48:48Z</time>
</trkpt>
<trkpt lat="45.436335060" lon="6.927303340">
  <ele>2600.300000</ele>
<time>2017-08-15T11:48:50Z</time>
</trkpt>
<trkpt lat="45.436470010" lon="6.927146760">
  <ele>2599.800000</ele>
<time>2017-08-15T11:48:52Z</time>
</trkpt>
<trkpt lat="45.436543430" lon="6.927065120">
  <ele>2599.600000</ele>
<time>2017-08-15T11:48:53Z</time>
</trkpt>
<trkpt lat="45.436620040" lon="6.926981810">
  <ele>2598.800000</ele>
<time>2017-08-15T11:48:54Z</time>
</trkpt>
<trkpt lat="45.436691790" lon="6.926895140">
  <ele>2598.300000</ele>
<time>2017-08-15T11:48:55Z</time>
</trkpt>
<trkpt lat="45.436811820" lon="6.926711740">
  <ele>2597.100000</ele>
<time>2017-08-15T11:48:57Z</time>
</trkpt>
<trkpt lat="45.436901670" lon="6.926480070">
  <ele>2595.600000</ele>
<time>2017-08-15T11:48:59Z</time>
</trkpt>
<trkpt lat="45.436945090" lon="6.926355010">
  <ele>2594.800000</ele>
<time>2017-08-15T11:49:00Z</time>
</trkpt>
<trkpt lat="45.436981800" lon="6.926226760">
  <ele>2594.200000</ele>
<time>2017-08-15T11:49:01Z</time>
</trkpt>
<trkpt lat="45.437018350" lon="6.926100030">
  <ele>2593.600000</ele>
<time>2017-08-15T11:49:02Z</time>
</trkpt>
<trkpt lat="45.437061770" lon="6.925981680">
  <ele>2593.000000</ele>
<time>2017-08-15T11:49:03Z</time>
</trkpt>
<trkpt lat="45.437110050" lon="6.925868350">
  <ele>2592.400000</ele>
<time>2017-08-15T11:49:04Z</time>
</trkpt>
<trkpt lat="45.437158500" lon="6.925753360">
  <ele>2591.800000</ele>
<time>2017-08-15T11:49:05Z</time>
</trkpt>
<trkpt lat="45.437206770" lon="6.925635000">
  <ele>2591.100000</ele>
<time>2017-08-15T11:49:06Z</time>
</trkpt>
<trkpt lat="45.437261760" lon="6.925518490">
  <ele>2590.500000</ele>
<time>2017-08-15T11:49:07Z</time>
</trkpt>
<trkpt lat="45.437328480" lon="6.925405000">
  <ele>2589.700000</ele>
<time>2017-08-15T11:49:08Z</time>
</trkpt>
<trkpt lat="45.437405090" lon="6.925308440">
  <ele>2588.900000</ele>
<time>2017-08-15T11:49:09Z</time>
</trkpt>
<trkpt lat="45.437478350" lon="6.925230160">
  <ele>2588.000000</ele>
<time>2017-08-15T11:49:10Z</time>
</trkpt>
<trkpt lat="45.437611790" lon="6.925145160">
  <ele>2586.200000</ele>
<time>2017-08-15T11:49:12Z</time>
</trkpt>
<trkpt lat="45.437753440" lon="6.925245080">
  <ele>2584.500000</ele>
<time>2017-08-15T11:49:14Z</time>
</trkpt>
<trkpt lat="45.437836760" lon="6.925298390">
  <ele>2583.800000</ele>
<time>2017-08-15T11:49:15Z</time>
</trkpt>
<trkpt lat="45.437921750" lon="6.925358400">
  <ele>2583.000000</ele>
<time>2017-08-15T11:49:16Z</time>
</trkpt>
<trkpt lat="45.438000040" lon="6.925428470">
  <ele>2582.200000</ele>
<time>2017-08-15T11:49:17Z</time>
</trkpt>
<trkpt lat="45.438118390" lon="6.925563420">
  <ele>2580.600000</ele>
<time>2017-08-15T11:49:19Z</time>
</trkpt>
<trkpt lat="45.438226680" lon="6.925661820">
  <ele>2579.100000</ele>
<time>2017-08-15T11:49:21Z</time>
</trkpt>
<trkpt lat="45.438363480" lon="6.925633490">
  <ele>2577.300000</ele>
<time>2017-08-15T11:49:23Z</time>
</trkpt>
<trkpt lat="45.438521730" lon="6.925621760">
  <ele>2575.600000</ele>
<time>2017-08-15T11:49:25Z</time>
</trkpt>
<trkpt lat="45.438613430" lon="6.925643380">
  <ele>2574.600000</ele>
<time>2017-08-15T11:49:26Z</time>
</trkpt>
<trkpt lat="45.438705120" lon="6.925665010">
  <ele>2573.600000</ele>
<time>2017-08-15T11:49:27Z</time>
</trkpt>
<trkpt lat="45.438798500" lon="6.925686800">
  <ele>2572.600000</ele>
<time>2017-08-15T11:49:28Z</time>
</trkpt>
<trkpt lat="45.438948370" lon="6.925768440">
  <ele>2570.900000</ele>
<time>2017-08-15T11:49:30Z</time>
</trkpt>
<trkpt lat="45.439075100" lon="6.925925020">
  <ele>2569.500000</ele>
<time>2017-08-15T11:49:32Z</time>
</trkpt>
<trkpt lat="45.439195130" lon="6.926075050">
  <ele>2568.300000</ele>
<time>2017-08-15T11:49:34Z</time>
</trkpt>
<trkpt lat="45.439313480" lon="6.926208490">
  <ele>2567.000000</ele>
<time>2017-08-15T11:49:36Z</time>
</trkpt>
<trkpt lat="45.439448430" lon="6.926291810">
  <ele>2565.700000</ele>
<time>2017-08-15T11:49:38Z</time>
</trkpt>
<trkpt lat="45.439583380" lon="6.926338410">
  <ele>2564.500000</ele>
<time>2017-08-15T11:49:40Z</time>
</trkpt>
<trkpt lat="45.439685140" lon="6.926383340">
  <ele>2563.100000</ele>
<time>2017-08-15T11:49:42Z</time>
</trkpt>
<trkpt lat="45.439820080" lon="6.926420050">
  <ele>2561.700000</ele>
<time>2017-08-15T11:49:44Z</time>
</trkpt>
<trkpt lat="45.439953360" lon="6.926431790">
  <ele>2560.000000</ele>
<time>2017-08-15T11:49:46Z</time>
</trkpt>
<trkpt lat="45.440058470" lon="6.926421730">
  <ele>2558.300000</ele>
<time>2017-08-15T11:49:48Z</time>
</trkpt>
<trkpt lat="45.440173470" lon="6.926395070">
  <ele>2555.500000</ele>
<time>2017-08-15T11:49:51Z</time>
</trkpt>
<trkpt lat="45.440235160" lon="6.926255100">
  <ele>2552.900000</ele>
<time>2017-08-15T11:49:54Z</time>
</trkpt>
<trkpt lat="45.440325010" lon="6.926185020">
  <ele>2550.400000</ele>
<time>2017-08-15T11:49:57Z</time>
</trkpt>
<trkpt lat="45.440420060" lon="6.926221740">
  <ele>2548.900000</ele>
<time>2017-08-15T11:49:59Z</time>
</trkpt>
<trkpt lat="45.440503380" lon="6.926110090">
  <ele>2546.500000</ele>
<time>2017-08-15T11:50:02Z</time>
</trkpt>
<trkpt lat="45.440478400" lon="6.925963410">
  <ele>2544.500000</ele>
<time>2017-08-15T11:50:05Z</time>
</trkpt>
<trkpt lat="45.440391730" lon="6.925870030">
  <ele>2534.800000</ele>
<time>2017-08-15T11:53:15Z</time>
</trkpt>
<trkpt lat="45.440315120" lon="6.925761740">
  <ele>2534.200000</ele>
<time>2017-08-15T11:53:21Z</time>
</trkpt>
<trkpt lat="45.440226770" lon="6.925718490">
  <ele>2533.300000</ele>
<time>2017-08-15T11:53:24Z</time>
</trkpt>
<trkpt lat="45.440208330" lon="6.925590080">
  <ele>2532.100000</ele>
<time>2017-08-15T11:53:27Z</time>
</trkpt>
<trkpt lat="45.440106750" lon="6.925525030">
  <ele>2530.500000</ele>
<time>2017-08-15T11:53:30Z</time>
</trkpt>
<trkpt lat="45.440135080" lon="6.925381700">
  <ele>2528.600000</ele>
<time>2017-08-15T11:53:33Z</time>
</trkpt>
<trkpt lat="45.440010020" lon="6.925283470">
  <ele>2526.500000</ele>
<time>2017-08-15T11:53:36Z</time>
</trkpt>
<trkpt lat="45.440031810" lon="6.925128400">
  <ele>2524.500000</ele>
<time>2017-08-15T11:53:39Z</time>
</trkpt>
<trkpt lat="45.439915140" lon="6.925035030">
  <ele>2522.200000</ele>
<time>2017-08-15T11:53:42Z</time>
</trkpt>
<trkpt lat="45.439926700" lon="6.924876780">
  <ele>2519.900000</ele>
<time>2017-08-15T11:53:45Z</time>
</trkpt>
<trkpt lat="45.439833500" lon="6.924775020">
  <ele>2517.500000</ele>
<time>2017-08-15T11:53:48Z</time>
</trkpt>
<trkpt lat="45.439831820" lon="6.924636720">
  <ele>2514.700000</ele>
<time>2017-08-15T11:53:51Z</time>
</trkpt>
<trkpt lat="45.439740120" lon="6.924498420">
  <ele>2512.000000</ele>
<time>2017-08-15T11:53:54Z</time>
</trkpt>
<trkpt lat="45.439640040" lon="6.924408390">
  <ele>2510.400000</ele>
<time>2017-08-15T11:53:56Z</time>
</trkpt>
<trkpt lat="45.439586730" lon="6.924251820">
  <ele>2507.700000</ele>
<time>2017-08-15T11:53:59Z</time>
</trkpt>
<trkpt lat="45.439543480" lon="6.924125090">
  <ele>2505.900000</ele>
<time>2017-08-15T11:54:01Z</time>
</trkpt>
<trkpt lat="45.439660160" lon="6.924166830">
  <ele>2503.500000</ele>
<time>2017-08-15T11:54:04Z</time>
</trkpt>
<trkpt lat="45.439750010" lon="6.924241760">
  <ele>2502.200000</ele>
<time>2017-08-15T11:54:06Z</time>
</trkpt>
<trkpt lat="45.439835000" lon="6.924325080">
  <ele>2501.000000</ele>
<time>2017-08-15T11:54:08Z</time>
</trkpt>
<trkpt lat="45.439928380" lon="6.924440080">
  <ele>2499.800000</ele>
<time>2017-08-15T11:54:10Z</time>
</trkpt>
<trkpt lat="45.440023430" lon="6.924530100">
  <ele>2498.700000</ele>
<time>2017-08-15T11:54:12Z</time>
</trkpt>
<trkpt lat="45.440116800" lon="6.924610060">
  <ele>2497.800000</ele>
<time>2017-08-15T11:54:14Z</time>
</trkpt>
<trkpt lat="45.440215040" lon="6.924731770">
  <ele>2496.700000</ele>
<time>2017-08-15T11:54:16Z</time>
</trkpt>
<trkpt lat="45.440335070" lon="6.924828500">
  <ele>2495.800000</ele>
<time>2017-08-15T11:54:18Z</time>
</trkpt>
<trkpt lat="45.440461800" lon="6.924858340">
  <ele>2495.000000</ele>
<time>2017-08-15T11:54:20Z</time>
</trkpt>
<trkpt lat="45.440588370" lon="6.924865040">
  <ele>2494.200000</ele>
<time>2017-08-15T11:54:22Z</time>
</trkpt>
<trkpt lat="45.440716780" lon="6.924856830">
  <ele>2493.600000</ele>
<time>2017-08-15T11:54:24Z</time>
</trkpt>
<trkpt lat="45.440845020" lon="6.924845090">
  <ele>2493.000000</ele>
<time>2017-08-15T11:54:26Z</time>
</trkpt>
<trkpt lat="45.440973430" lon="6.924826820">
  <ele>2492.300000</ele>
<time>2017-08-15T11:54:28Z</time>
</trkpt>
<trkpt lat="45.441105030" lon="6.924798490">
  <ele>2491.700000</ele>
<time>2017-08-15T11:54:30Z</time>
</trkpt>
<trkpt lat="45.441228410" lon="6.924770160">
  <ele>2491.100000</ele>
<time>2017-08-15T11:54:32Z</time>
</trkpt>
<trkpt lat="45.441358500" lon="6.924736800">
  <ele>2490.500000</ele>
<time>2017-08-15T11:54:34Z</time>
</trkpt>
<trkpt lat="45.441486740" lon="6.924693380">
  <ele>2489.900000</ele>
<time>2017-08-15T11:54:36Z</time>
</trkpt>
<trkpt lat="45.441620010" lon="6.924631690">
  <ele>2489.100000</ele>
<time>2017-08-15T11:54:38Z</time>
</trkpt>
<trkpt lat="45.441761670" lon="6.924576700">
  <ele>2488.300000</ele>
<time>2017-08-15T11:54:40Z</time>
</trkpt>
<trkpt lat="45.441885050" lon="6.924501770">
  <ele>2487.600000</ele>
<time>2017-08-15T11:54:42Z</time>
</trkpt>
<trkpt lat="45.442003400" lon="6.924420130">
  <ele>2486.900000</ele>
<time>2017-08-15T11:54:44Z</time>
</trkpt>
<trkpt lat="45.442123430" lon="6.924363470">
  <ele>2486.100000</ele>
<time>2017-08-15T11:54:46Z</time>
</trkpt>
<trkpt lat="45.442251670" lon="6.924288370">
  <ele>2485.000000</ele>
<time>2017-08-15T11:54:48Z</time>
</trkpt>
<trkpt lat="45.442386790" lon="6.924226680">
  <ele>2484.100000</ele>
<time>2017-08-15T11:54:50Z</time>
</trkpt>
<trkpt lat="45.442520060" lon="6.924156770">
  <ele>2483.200000</ele>
<time>2017-08-15T11:54:52Z</time>
</trkpt>
<trkpt lat="45.442663390" lon="6.924103460">
  <ele>2482.300000</ele>
<time>2017-08-15T11:54:54Z</time>
</trkpt>
<trkpt lat="45.442811750" lon="6.924061720">
  <ele>2481.400000</ele>
<time>2017-08-15T11:54:56Z</time>
</trkpt>
<trkpt lat="45.442958440" lon="6.924026680">
  <ele>2480.500000</ele>
<time>2017-08-15T11:54:58Z</time>
</trkpt>
<trkpt lat="45.443063380" lon="6.924043450">
  <ele>2479.600000</ele>
<time>2017-08-15T11:55:00Z</time>
</trkpt>
<trkpt lat="45.443191790" lon="6.924078480">
  <ele>2478.800000</ele>
<time>2017-08-15T11:55:02Z</time>
</trkpt>
<trkpt lat="45.443311820" lon="6.924090050">
  <ele>2478.000000</ele>
<time>2017-08-15T11:55:04Z</time>
</trkpt>
<trkpt lat="45.443435030" lon="6.924075130">
  <ele>2477.200000</ele>
<time>2017-08-15T11:55:06Z</time>
</trkpt>
<trkpt lat="45.443553380" lon="6.924030040">
  <ele>2476.200000</ele>
<time>2017-08-15T11:55:08Z</time>
</trkpt>
<trkpt lat="45.443696710" lon="6.924001700">
  <ele>2475.100000</ele>
<time>2017-08-15T11:55:10Z</time>
</trkpt>
<trkpt lat="45.443801820" lon="6.923938340">
  <ele>2474.000000</ele>
<time>2017-08-15T11:55:12Z</time>
</trkpt>
<trkpt lat="45.443906770" lon="6.923893410">
  <ele>2473.000000</ele>
<time>2017-08-15T11:55:14Z</time>
</trkpt>
<trkpt lat="45.444028470" lon="6.923886710">
  <ele>2472.200000</ele>
<time>2017-08-15T11:55:16Z</time>
</trkpt>
<trkpt lat="45.444146820" lon="6.923891730">
  <ele>2471.200000</ele>
<time>2017-08-15T11:55:18Z</time>
</trkpt>
<trkpt lat="45.444255120" lon="6.923875140">
  <ele>2470.300000</ele>
<time>2017-08-15T11:55:20Z</time>
</trkpt>
<trkpt lat="45.444331730" lon="6.923778410">
  <ele>2469.300000</ele>
<time>2017-08-15T11:55:22Z</time>
</trkpt>
<trkpt lat="45.444440020" lon="6.923665090">
  <ele>2468.200000</ele>
<time>2017-08-15T11:55:24Z</time>
</trkpt>
<trkpt lat="45.444553350" lon="6.923560150">
  <ele>2467.200000</ele>
<time>2017-08-15T11:55:26Z</time>
</trkpt>
<trkpt lat="45.444683430" lon="6.923456710">
  <ele>2466.300000</ele>
<time>2017-08-15T11:55:28Z</time>
</trkpt>
<trkpt lat="45.444788370" lon="6.923355120">
  <ele>2465.500000</ele>
<time>2017-08-15T11:55:30Z</time>
</trkpt>
<trkpt lat="45.444873370" lon="6.923218500">
  <ele>2464.800000</ele>
<time>2017-08-15T11:55:32Z</time>
</trkpt>
<trkpt lat="45.444950140" lon="6.923120100">
  <ele>2464.200000</ele>
<time>2017-08-15T11:55:34Z</time>
</trkpt>
<trkpt lat="45.445031780" lon="6.923033430">
  <ele>2463.600000</ele>
<time>2017-08-15T11:55:36Z</time>
</trkpt>
<trkpt lat="45.445125160" lon="6.922978440">
  <ele>2463.100000</ele>
<time>2017-08-15T11:55:38Z</time>
</trkpt>
<trkpt lat="45.445235130" lon="6.922836790">
  <ele>2462.400000</ele>
<time>2017-08-15T11:55:41Z</time>
</trkpt>
<trkpt lat="45.445306710" lon="6.922631770">
  <ele>2461.700000</ele>
<time>2017-08-15T11:55:43Z</time>
</trkpt>
<trkpt lat="45.445368400" lon="6.922433450">
  <ele>2461.000000</ele>
<time>2017-08-15T11:55:45Z</time>
</trkpt>
<trkpt lat="45.445406790" lon="6.922293470">
  <ele>2460.400000</ele>
<time>2017-08-15T11:55:47Z</time>
</trkpt>
<trkpt lat="45.445496810" lon="6.922181830">
  <ele>2459.400000</ele>
<time>2017-08-15T11:55:49Z</time>
</trkpt>
<trkpt lat="45.445638470" lon="6.922065150">
  <ele>2458.200000</ele>
<time>2017-08-15T11:55:51Z</time>
</trkpt>
<trkpt lat="45.445713400" lon="6.921988370">
  <ele>2457.500000</ele>
<time>2017-08-15T11:55:52Z</time>
</trkpt>
<trkpt lat="45.445840140" lon="6.921856780">
  <ele>2456.300000</ele>
<time>2017-08-15T11:55:54Z</time>
</trkpt>
<trkpt lat="45.445948430" lon="6.921721830">
  <ele>2455.000000</ele>
<time>2017-08-15T11:55:56Z</time>
</trkpt>
<trkpt lat="45.446028390" lon="6.921536750">
  <ele>2453.900000</ele>
<time>2017-08-15T11:55:58Z</time>
</trkpt>
<trkpt lat="45.446136690" lon="6.921360060">
  <ele>2452.800000</ele>
<time>2017-08-15T11:56:00Z</time>
</trkpt>
<trkpt lat="45.446240120" lon="6.921203490">
  <ele>2451.600000</ele>
<time>2017-08-15T11:56:02Z</time>
</trkpt>
<trkpt lat="45.446345060" lon="6.921050100">
  <ele>2450.400000</ele>
<time>2017-08-15T11:56:04Z</time>
</trkpt>
<trkpt lat="45.446450000" lon="6.920905090">
  <ele>2449.300000</ele>
<time>2017-08-15T11:56:06Z</time>
</trkpt>
<trkpt lat="45.446528460" lon="6.920735110">
  <ele>2448.300000</ele>
<time>2017-08-15T11:56:08Z</time>
</trkpt>
<trkpt lat="45.446633400" lon="6.920673420">
  <ele>2447.400000</ele>
<time>2017-08-15T11:56:10Z</time>
</trkpt>
<trkpt lat="45.446730130" lon="6.920656820">
  <ele>2446.800000</ele>
<time>2017-08-15T11:56:12Z</time>
</trkpt>
<trkpt lat="45.446846800" lon="6.920618430">
  <ele>2445.900000</ele>
<time>2017-08-15T11:56:15Z</time>
</trkpt>
<trkpt lat="45.446938500" lon="6.920590100">
  <ele>2445.300000</ele>
<time>2017-08-15T11:56:18Z</time>
</trkpt>
<trkpt lat="45.447060040" lon="6.920611730">
  <ele>2444.800000</ele>
<time>2017-08-15T11:56:21Z</time>
</trkpt>
<trkpt lat="45.447171680" lon="6.920648440">
  <ele>2444.600000</ele>
<time>2017-08-15T11:56:23Z</time>
</trkpt>
<trkpt lat="45.447328430" lon="6.920688340">
  <ele>2444.300000</ele>
<time>2017-08-15T11:56:25Z</time>
</trkpt>
<trkpt lat="45.447483490" lon="6.920713480">
  <ele>2444.000000</ele>
<time>2017-08-15T11:56:27Z</time>
</trkpt>
<trkpt lat="45.447630010" lon="6.920686830">
  <ele>2443.700000</ele>
<time>2017-08-15T11:56:29Z</time>
</trkpt>
<trkpt lat="45.447756740" lon="6.920648440">
  <ele>2443.400000</ele>
<time>2017-08-15T11:56:31Z</time>
</trkpt>
<trkpt lat="45.447888340" lon="6.920573340">
  <ele>2443.100000</ele>
<time>2017-08-15T11:56:33Z</time>
</trkpt>
<trkpt lat="45.448010040" lon="6.920505110">
  <ele>2442.600000</ele>
<time>2017-08-15T11:56:35Z</time>
</trkpt>
<trkpt lat="45.448135100" lon="6.920393460">
  <ele>2442.200000</ele>
<time>2017-08-15T11:56:37Z</time>
</trkpt>
<trkpt lat="45.448258480" lon="6.920266730">
  <ele>2441.500000</ele>
<time>2017-08-15T11:56:39Z</time>
</trkpt>
<trkpt lat="45.448360070" lon="6.920120050">
  <ele>2440.800000</ele>
<time>2017-08-15T11:56:41Z</time>
</trkpt>
<trkpt lat="45.448443390" lon="6.919965150">
  <ele>2440.200000</ele>
<time>2017-08-15T11:56:43Z</time>
</trkpt>
<trkpt lat="45.448526700" lon="6.919781750">
  <ele>2439.400000</ele>
<time>2017-08-15T11:56:45Z</time>
</trkpt>
<trkpt lat="45.448568440" lon="6.919595000">
  <ele>2438.700000</ele>
<time>2017-08-15T11:56:47Z</time>
</trkpt>
<trkpt lat="45.448686800" lon="6.919521750">
  <ele>2438.100000</ele>
<time>2017-08-15T11:56:49Z</time>
</trkpt>
<trkpt lat="45.448791740" lon="6.919423340">
  <ele>2437.500000</ele>
<time>2017-08-15T11:56:51Z</time>
</trkpt>
<trkpt lat="45.448880080" lon="6.919306830">
  <ele>2436.800000</ele>
<time>2017-08-15T11:56:53Z</time>
</trkpt>
<trkpt lat="45.448958370" lon="6.919171720">
  <ele>2436.000000</ele>
<time>2017-08-15T11:56:55Z</time>
</trkpt>
<trkpt lat="45.449021740" lon="6.919005080">
  <ele>2435.100000</ele>
<time>2017-08-15T11:56:57Z</time>
</trkpt>
<trkpt lat="45.449085110" lon="6.918851700">
  <ele>2434.300000</ele>
<time>2017-08-15T11:56:59Z</time>
</trkpt>
<trkpt lat="45.449111760" lon="6.918671820">
  <ele>2433.600000</ele>
<time>2017-08-15T11:57:01Z</time>
</trkpt>
<trkpt lat="45.449156690" lon="6.918518430">
  <ele>2432.900000</ele>
<time>2017-08-15T11:57:03Z</time>
</trkpt>
<trkpt lat="45.449216700" lon="6.918418350">
  <ele>2432.000000</ele>
<time>2017-08-15T11:57:05Z</time>
</trkpt>
<trkpt lat="45.449315100" lon="6.918345090">
  <ele>2430.700000</ele>
<time>2017-08-15T11:57:08Z</time>
</trkpt>
<trkpt lat="45.449436810" lon="6.918303350">
  <ele>2429.800000</ele>
<time>2017-08-15T11:57:10Z</time>
</trkpt>
<trkpt lat="45.449453410" lon="6.918141750">
  <ele>2428.600000</ele>
<time>2017-08-15T11:57:12Z</time>
</trkpt>
<trkpt lat="45.449491800" lon="6.917985010">
  <ele>2427.500000</ele>
<time>2017-08-15T11:57:14Z</time>
</trkpt>
<trkpt lat="45.449578460" lon="6.917888450">
  <ele>2426.300000</ele>
<time>2017-08-15T11:57:16Z</time>
</trkpt>
<trkpt lat="45.449616690" lon="6.917751820">
  <ele>2424.900000</ele>
<time>2017-08-15T11:57:18Z</time>
</trkpt>
<trkpt lat="45.449735040" lon="6.917708400">
  <ele>2423.300000</ele>
<time>2017-08-15T11:57:20Z</time>
</trkpt>
<trkpt lat="45.449893460" lon="6.917685100">
  <ele>2421.800000</ele>
<time>2017-08-15T11:57:22Z</time>
</trkpt>
<trkpt lat="45.450016670" lon="6.917658450">
  <ele>2420.100000</ele>
<time>2017-08-15T11:57:24Z</time>
</trkpt>
<trkpt lat="45.450121780" lon="6.917560040">
  <ele>2418.800000</ele>
<time>2017-08-15T11:57:26Z</time>
</trkpt>
<trkpt lat="45.450223370" lon="6.917405150">
  <ele>2417.500000</ele>
<time>2017-08-15T11:57:28Z</time>
</trkpt>
<trkpt lat="45.450288410" lon="6.917231810">
  <ele>2416.500000</ele>
<time>2017-08-15T11:57:30Z</time>
</trkpt>
<trkpt lat="45.450366700" lon="6.917096690">
  <ele>2415.300000</ele>
<time>2017-08-15T11:57:32Z</time>
</trkpt>
<trkpt lat="45.450460070" lon="6.916975160">
  <ele>2414.100000</ele>
<time>2017-08-15T11:57:34Z</time>
</trkpt>
<trkpt lat="45.450471810" lon="6.916796790">
  <ele>2412.900000</ele>
<time>2017-08-15T11:57:36Z</time>
</trkpt>
<trkpt lat="45.450426710" lon="6.916640050">
  <ele>2411.800000</ele>
<time>2017-08-15T11:57:38Z</time>
</trkpt>
<trkpt lat="45.450475160" lon="6.916511800">
  <ele>2410.600000</ele>
<time>2017-08-15T11:57:40Z</time>
</trkpt>
<trkpt lat="45.450568370" lon="6.916440050">
  <ele>2409.300000</ele>
<time>2017-08-15T11:57:42Z</time>
</trkpt>
<trkpt lat="45.450688400" lon="6.916363440">
  <ele>2407.900000</ele>
<time>2017-08-15T11:57:44Z</time>
</trkpt>
<trkpt lat="45.450803400" lon="6.916293370">
  <ele>2406.400000</ele>
<time>2017-08-15T11:57:46Z</time>
</trkpt>
<trkpt lat="45.450888390" lon="6.916170160">
  <ele>2405.100000</ele>
<time>2017-08-15T11:57:48Z</time>
</trkpt>
<trkpt lat="45.450881680" lon="6.915981730">
  <ele>2404.100000</ele>
<time>2017-08-15T11:57:50Z</time>
</trkpt>
<trkpt lat="45.450866760" lon="6.915776710">
  <ele>2402.900000</ele>
<time>2017-08-15T11:57:52Z</time>
</trkpt>
<trkpt lat="45.450841780" lon="6.915546710">
  <ele>2401.600000</ele>
<time>2017-08-15T11:57:54Z</time>
</trkpt>
<trkpt lat="45.450840110" lon="6.915336830">
  <ele>2400.400000</ele>
<time>2017-08-15T11:57:56Z</time>
</trkpt>
<trkpt lat="45.450885040" lon="6.915153430">
  <ele>2399.400000</ele>
<time>2017-08-15T11:57:58Z</time>
</trkpt>
<trkpt lat="45.450951760" lon="6.915001720">
  <ele>2398.400000</ele>
<time>2017-08-15T11:58:00Z</time>
</trkpt>
<trkpt lat="45.451026690" lon="6.914891750">
  <ele>2397.600000</ele>
<time>2017-08-15T11:58:02Z</time>
</trkpt>
<trkpt lat="45.451158450" lon="6.914781780">
  <ele>2396.200000</ele>
<time>2017-08-15T11:58:05Z</time>
</trkpt>
<trkpt lat="45.451296750" lon="6.914735010">
  <ele>2395.300000</ele>
<time>2017-08-15T11:58:07Z</time>
</trkpt>
<trkpt lat="45.451426670" lon="6.914698460">
  <ele>2394.200000</ele>
<time>2017-08-15T11:58:09Z</time>
</trkpt>
<trkpt lat="45.451556760" lon="6.914663430">
  <ele>2393.000000</ele>
<time>2017-08-15T11:58:11Z</time>
</trkpt>
<trkpt lat="45.451668410" lon="6.914628390">
  <ele>2391.800000</ele>
<time>2017-08-15T11:58:13Z</time>
</trkpt>
<trkpt lat="45.451790110" lon="6.914590000">
  <ele>2390.500000</ele>
<time>2017-08-15T11:58:15Z</time>
</trkpt>
<trkpt lat="45.451898410" lon="6.914453380">
  <ele>2389.200000</ele>
<time>2017-08-15T11:58:17Z</time>
</trkpt>
<trkpt lat="45.452001670" lon="6.914303340">
  <ele>2387.800000</ele>
<time>2017-08-15T11:58:19Z</time>
</trkpt>
<trkpt lat="45.452106780" lon="6.914216670">
  <ele>2386.300000</ele>
<time>2017-08-15T11:58:21Z</time>
</trkpt>
<trkpt lat="45.452210050" lon="6.914155150">
  <ele>2384.300000</ele>
<time>2017-08-15T11:58:23Z</time>
</trkpt>
<trkpt lat="45.452243410" lon="6.913986670">
  <ele>2382.700000</ele>
<time>2017-08-15T11:58:25Z</time>
</trkpt>
<trkpt lat="45.452246760" lon="6.913798410">
  <ele>2381.300000</ele>
<time>2017-08-15T11:58:27Z</time>
</trkpt>
<trkpt lat="45.452346670" lon="6.913655080">
  <ele>2379.900000</ele>
<time>2017-08-15T11:58:29Z</time>
</trkpt>
<trkpt lat="45.452463350" lon="6.913538410">
  <ele>2378.500000</ele>
<time>2017-08-15T11:58:31Z</time>
</trkpt>
<trkpt lat="45.452505090" lon="6.913353340">
  <ele>2377.300000</ele>
<time>2017-08-15T11:58:33Z</time>
</trkpt>
<trkpt lat="45.452516820" lon="6.913163400">
  <ele>2376.300000</ele>
<time>2017-08-15T11:58:35Z</time>
</trkpt>
<trkpt lat="45.452488490" lon="6.912968440">
  <ele>2375.300000</ele>
<time>2017-08-15T11:58:37Z</time>
</trkpt>
<trkpt lat="45.452488490" lon="6.912776830">
  <ele>2374.200000</ele>
<time>2017-08-15T11:58:39Z</time>
</trkpt>
<trkpt lat="45.452496710" lon="6.912591760">
  <ele>2372.900000</ele>
<time>2017-08-15T11:58:41Z</time>
</trkpt>
<trkpt lat="45.452505090" lon="6.912435010">
  <ele>2371.500000</ele>
<time>2017-08-15T11:58:43Z</time>
</trkpt>
<trkpt lat="45.452531740" lon="6.912256810">
  <ele>2370.000000</ele>
<time>2017-08-15T11:58:45Z</time>
</trkpt>
<trkpt lat="45.452610030" lon="6.912068390">
  <ele>2368.200000</ele>
<time>2017-08-15T11:58:47Z</time>
</trkpt>
<trkpt lat="45.452723350" lon="6.911916680">
  <ele>2366.400000</ele>
<time>2017-08-15T11:58:49Z</time>
</trkpt>
<trkpt lat="45.452845060" lon="6.911766810">
  <ele>2364.700000</ele>
<time>2017-08-15T11:58:51Z</time>
</trkpt>
<trkpt lat="45.452920160" lon="6.911638400">
  <ele>2363.200000</ele>
<time>2017-08-15T11:58:53Z</time>
</trkpt>
<trkpt lat="45.452973470" lon="6.911523400">
  <ele>2353.000000</ele>
<time>2017-08-15T11:59:33Z</time>
</trkpt>
<trkpt lat="45.453023430" lon="6.911391800">
  <ele>2352.800000</ele>
<time>2017-08-15T11:59:37Z</time>
</trkpt>
<trkpt lat="45.453058460" lon="6.911263390">
  <ele>2352.700000</ele>
<time>2017-08-15T11:59:39Z</time>
</trkpt>
<trkpt lat="45.453071710" lon="6.911110000">
  <ele>2352.500000</ele>
<time>2017-08-15T11:59:41Z</time>
</trkpt>
<trkpt lat="45.453076740" lon="6.910963490">
  <ele>2352.400000</ele>
<time>2017-08-15T11:59:43Z</time>
</trkpt>
<trkpt lat="45.453086790" lon="6.910820160">
  <ele>2352.300000</ele>
<time>2017-08-15T11:59:45Z</time>
</trkpt>
<trkpt lat="45.453106740" lon="6.910675150">
  <ele>2352.200000</ele>
<time>2017-08-15T11:59:47Z</time>
</trkpt>
<trkpt lat="45.453141780" lon="6.910533500">
  <ele>2351.900000</ele>
<time>2017-08-15T11:59:49Z</time>
</trkpt>
<trkpt lat="45.453200120" lon="6.910386810">
  <ele>2351.500000</ele>
<time>2017-08-15T11:59:51Z</time>
</trkpt>
<trkpt lat="45.453275050" lon="6.910241810">
  <ele>2351.100000</ele>
<time>2017-08-15T11:59:53Z</time>
</trkpt>
<trkpt lat="45.453253430" lon="6.910105010">
  <ele>2350.000000</ele>
<time>2017-08-15T11:59:56Z</time>
</trkpt>
<trkpt lat="45.453176820" lon="6.910033430">
  <ele>2348.900000</ele>
<time>2017-08-15T11:59:58Z</time>
</trkpt>
<trkpt lat="45.453221740" lon="6.909910050">
  <ele>2347.800000</ele>
<time>2017-08-15T12:00:00Z</time>
</trkpt>
<trkpt lat="45.453228450" lon="6.909765040">
  <ele>2346.700000</ele>
<time>2017-08-15T12:00:02Z</time>
</trkpt>
<trkpt lat="45.453215040" lon="6.909590030">
  <ele>2345.100000</ele>
<time>2017-08-15T12:00:04Z</time>
</trkpt>
<trkpt lat="45.453251750" lon="6.909428430">
  <ele>2343.800000</ele>
<time>2017-08-15T12:00:06Z</time>
</trkpt>
<trkpt lat="45.453340090" lon="6.909321810">
  <ele>2342.700000</ele>
<time>2017-08-15T12:00:08Z</time>
</trkpt>
<trkpt lat="45.453420060" lon="6.909216700">
  <ele>2341.300000</ele>
<time>2017-08-15T12:00:10Z</time>
</trkpt>
<trkpt lat="45.453468340" lon="6.909105050">
  <ele>2338.600000</ele>
<time>2017-08-15T12:00:15Z</time>
</trkpt>
<trkpt lat="45.453561710" lon="6.909050070">
  <ele>2332.800000</ele>
<time>2017-08-15T12:00:41Z</time>
</trkpt>
<trkpt lat="45.453471690" lon="6.909071690">
  <ele>2333.100000</ele>
<time>2017-08-15T12:02:21Z</time>
</trkpt>
<trkpt lat="45.453350150" lon="6.909061800">
  <ele>2332.600000</ele>
<time>2017-08-15T12:02:23Z</time>
</trkpt>
<trkpt lat="45.453240010" lon="6.909048390">
  <ele>2332.300000</ele>
<time>2017-08-15T12:02:25Z</time>
</trkpt>
<trkpt lat="45.453136750" lon="6.909110080">
  <ele>2331.900000</ele>
<time>2017-08-15T12:02:27Z</time>
</trkpt>
<trkpt lat="45.453043380" lon="6.909241680">
  <ele>2331.700000</ele>
<time>2017-08-15T12:02:29Z</time>
</trkpt>
<trkpt lat="45.452955030" lon="6.909371760">
  <ele>2330.900000</ele>
<time>2017-08-15T12:02:31Z</time>
</trkpt>
<trkpt lat="45.452896690" lon="6.909523480">
  <ele>2330.300000</ele>
<time>2017-08-15T12:02:33Z</time>
</trkpt>
<trkpt lat="45.452830140" lon="6.909648370">
  <ele>2329.500000</ele>
<time>2017-08-15T12:02:35Z</time>
</trkpt>
<trkpt lat="45.452751680" lon="6.909806780">
  <ele>2328.800000</ele>
<time>2017-08-15T12:02:37Z</time>
</trkpt>
<trkpt lat="45.452661830" lon="6.909925140">
  <ele>2327.800000</ele>
<time>2017-08-15T12:02:39Z</time>
</trkpt>
<trkpt lat="45.452561750" lon="6.910001750">
  <ele>2326.800000</ele>
<time>2017-08-15T12:02:41Z</time>
</trkpt>
<trkpt lat="45.452478430" lon="6.910103340">
  <ele>2326.000000</ele>
<time>2017-08-15T12:02:43Z</time>
</trkpt>
<trkpt lat="45.452403500" lon="6.910200060">
  <ele>2325.400000</ele>
<time>2017-08-15T12:02:45Z</time>
</trkpt>
<trkpt lat="45.452315160" lon="6.910280030">
  <ele>2324.500000</ele>
<time>2017-08-15T12:02:47Z</time>
</trkpt>
<trkpt lat="45.452243410" lon="6.910360160">
  <ele>2323.700000</ele>
<time>2017-08-15T12:02:49Z</time>
</trkpt>
<trkpt lat="45.452190100" lon="6.910251700">
  <ele>2320.200000</ele>
<time>2017-08-15T12:02:56Z</time>
</trkpt>
<trkpt lat="45.452068390" lon="6.910333340">
  <ele>2318.400000</ele>
<time>2017-08-15T12:02:59Z</time>
</trkpt>
<trkpt lat="45.451951720" lon="6.910363340">
  <ele>2317.000000</ele>
<time>2017-08-15T12:03:01Z</time>
</trkpt>
<trkpt lat="45.451843420" lon="6.910345070">
  <ele>2315.600000</ele>
<time>2017-08-15T12:03:03Z</time>
</trkpt>
<trkpt lat="45.451731770" lon="6.910318420">
  <ele>2313.900000</ele>
<time>2017-08-15T12:03:05Z</time>
</trkpt>
<trkpt lat="45.451635050" lon="6.910326800">
  <ele>2312.300000</ele>
<time>2017-08-15T12:03:07Z</time>
</trkpt>
<trkpt lat="45.451521720" lon="6.910383460">
  <ele>2309.800000</ele>
<time>2017-08-15T12:03:10Z</time>
</trkpt>
<trkpt lat="45.451411750" lon="6.910420000">
  <ele>2308.400000</ele>
<time>2017-08-15T12:03:12Z</time>
</trkpt>
<trkpt lat="45.451298430" lon="6.910525110">
  <ele>2306.600000</ele>
<time>2017-08-15T12:03:15Z</time>
</trkpt>
<trkpt lat="45.451191810" lon="6.910565010">
  <ele>2305.500000</ele>
<time>2017-08-15T12:03:17Z</time>
</trkpt>
<trkpt lat="45.451096760" lon="6.910601720">
  <ele>2304.400000</ele>
<time>2017-08-15T12:03:19Z</time>
</trkpt>
<trkpt lat="45.450976730" lon="6.910661740">
  <ele>2303.300000</ele>
<time>2017-08-15T12:03:21Z</time>
</trkpt>
<trkpt lat="45.450841780" lon="6.910758470">
  <ele>2302.000000</ele>
<time>2017-08-15T12:03:23Z</time>
</trkpt>
<trkpt lat="45.450688400" lon="6.910818480">
  <ele>2300.500000</ele>
<time>2017-08-15T12:03:25Z</time>
</trkpt>
<trkpt lat="45.450543390" lon="6.910881680">
  <ele>2299.100000</ele>
<time>2017-08-15T12:03:27Z</time>
</trkpt>
<trkpt lat="45.450440120" lon="6.910956780">
  <ele>2297.900000</ele>
<time>2017-08-15T12:03:29Z</time>
</trkpt>
<trkpt lat="45.450498460" lon="6.910853350">
  <ele>2295.400000</ele>
<time>2017-08-15T12:03:33Z</time>
</trkpt>
<trkpt lat="45.450430070" lon="6.910748410">
  <ele>2292.800000</ele>
<time>2017-08-15T12:03:37Z</time>
</trkpt>
<trkpt lat="45.450506680" lon="6.910618490">
  <ele>2291.300000</ele>
<time>2017-08-15T12:03:39Z</time>
</trkpt>
<trkpt lat="45.450606760" lon="6.910521760">
  <ele>2289.800000</ele>
<time>2017-08-15T12:03:41Z</time>
</trkpt>
<trkpt lat="45.450651680" lon="6.910393350">
  <ele>2288.000000</ele>
<time>2017-08-15T12:03:43Z</time>
</trkpt>
<trkpt lat="45.450718400" lon="6.910255050">
  <ele>2286.100000</ele>
<time>2017-08-15T12:03:45Z</time>
</trkpt>
<trkpt lat="45.450803400" lon="6.910158490">
  <ele>2284.300000</ele>
<time>2017-08-15T12:03:47Z</time>
</trkpt>
<trkpt lat="45.450873470" lon="6.910065110">
  <ele>2282.000000</ele>
<time>2017-08-15T12:03:50Z</time>
</trkpt>
<trkpt lat="45.450928450" lon="6.909951790">
  <ele>2279.300000</ele>
<time>2017-08-15T12:03:55Z</time>
</trkpt>
<trkpt lat="45.450826700" lon="6.910005100">
  <ele>2277.900000</ele>
<time>2017-08-15T12:03:58Z</time>
</trkpt>
<trkpt lat="45.450720080" lon="6.910073500">
  <ele>2276.600000</ele>
<time>2017-08-15T12:04:00Z</time>
</trkpt>
<trkpt lat="45.450618490" lon="6.910136700">
  <ele>2275.400000</ele>
<time>2017-08-15T12:04:02Z</time>
</trkpt>
<trkpt lat="45.450508350" lon="6.910171730">
  <ele>2274.000000</ele>
<time>2017-08-15T12:04:04Z</time>
</trkpt>
<trkpt lat="45.450543390" lon="6.910003420">
  <ele>2270.800000</ele>
<time>2017-08-15T12:04:09Z</time>
</trkpt>
<trkpt lat="45.450650010" lon="6.909923460">
  <ele>2269.400000</ele>
<time>2017-08-15T12:04:11Z</time>
</trkpt>
<trkpt lat="45.450720080" lon="6.909811810">
  <ele>2268.100000</ele>
<time>2017-08-15T12:04:13Z</time>
</trkpt>
<trkpt lat="45.450660060" lon="6.909683400">
  <ele>2266.500000</ele>
<time>2017-08-15T12:04:15Z</time>
</trkpt>
<trkpt lat="45.450521760" lon="6.909656750">
  <ele>2265.000000</ele>
<time>2017-08-15T12:04:17Z</time>
</trkpt>
<trkpt lat="45.450385140" lon="6.909683400">
  <ele>2263.500000</ele>
<time>2017-08-15T12:04:19Z</time>
</trkpt>
<trkpt lat="45.450266790" lon="6.909711730">
  <ele>2262.200000</ele>
<time>2017-08-15T12:04:21Z</time>
</trkpt>
<trkpt lat="45.450163350" lon="6.909766720">
  <ele>2260.600000</ele>
<time>2017-08-15T12:04:23Z</time>
</trkpt>
<trkpt lat="45.450051710" lon="6.909845010">
  <ele>2258.600000</ele>
<time>2017-08-15T12:04:26Z</time>
</trkpt>
<trkpt lat="45.450028400" lon="6.909703350">
  <ele>2255.700000</ele>
<time>2017-08-15T12:04:31Z</time>
</trkpt>
<trkpt lat="45.450058410" lon="6.909570080">
  <ele>2254.400000</ele>
<time>2017-08-15T12:04:33Z</time>
</trkpt>
<trkpt lat="45.450093450" lon="6.909415010">
  <ele>2253.100000</ele>
<time>2017-08-15T12:04:35Z</time>
</trkpt>
<trkpt lat="45.450161680" lon="6.909281740">
  <ele>2251.700000</ele>
<time>2017-08-15T12:04:37Z</time>
</trkpt>
<trkpt lat="45.450221690" lon="6.909160040">
  <ele>2250.400000</ele>
<time>2017-08-15T12:04:39Z</time>
</trkpt>
<trkpt lat="45.450291760" lon="6.909056770">
  <ele>2249.100000</ele>
<time>2017-08-15T12:04:41Z</time>
</trkpt>
<trkpt lat="45.450365020" lon="6.908965070">
  <ele>2247.900000</ele>
<time>2017-08-15T12:04:43Z</time>
</trkpt>
<trkpt lat="45.450443480" lon="6.908888460">
  <ele>2246.700000</ele>
<time>2017-08-15T12:04:45Z</time>
</trkpt>
<trkpt lat="45.450500140" lon="6.908776820">
  <ele>2245.400000</ele>
<time>2017-08-15T12:04:47Z</time>
</trkpt>
<trkpt lat="45.450570040" lon="6.908666680">
  <ele>2243.900000</ele>
<time>2017-08-15T12:04:49Z</time>
</trkpt>
<trkpt lat="45.450643470" lon="6.908541790">
  <ele>2242.400000</ele>
<time>2017-08-15T12:04:51Z</time>
</trkpt>
<trkpt lat="45.450703480" lon="6.908443380">
  <ele>2241.000000</ele>
<time>2017-08-15T12:04:53Z</time>
</trkpt>
<trkpt lat="45.450776740" lon="6.908348500">
  <ele>2239.100000</ele>
<time>2017-08-15T12:04:56Z</time>
</trkpt>
<trkpt lat="45.450863410" lon="6.908221770">
  <ele>2237.400000</ele>
<time>2017-08-15T12:04:59Z</time>
</trkpt>
<trkpt lat="45.450933480" lon="6.908136770">
  <ele>2236.200000</ele>
<time>2017-08-15T12:05:01Z</time>
</trkpt>
<trkpt lat="45.450985120" lon="6.908011720">
  <ele>2233.800000</ele>
<time>2017-08-15T12:05:05Z</time>
</trkpt>
<trkpt lat="45.450841780" lon="6.907991770">
  <ele>2231.900000</ele>
<time>2017-08-15T12:05:08Z</time>
</trkpt>
<trkpt lat="45.450751760" lon="6.907931750">
  <ele>2230.600000</ele>
<time>2017-08-15T12:05:10Z</time>
</trkpt>
<trkpt lat="45.450723430" lon="6.907795130">
  <ele>2228.600000</ele>
<time>2017-08-15T12:05:13Z</time>
</trkpt>
<trkpt lat="45.450821670" lon="6.907685160">
  <ele>2227.300000</ele>
<time>2017-08-15T12:05:15Z</time>
</trkpt>
<trkpt lat="45.450926780" lon="6.907576700">
  <ele>2226.000000</ele>
<time>2017-08-15T12:05:17Z</time>
</trkpt>
<trkpt lat="45.450975060" lon="6.907438390">
  <ele>2224.700000</ele>
<time>2017-08-15T12:05:19Z</time>
</trkpt>
<trkpt lat="45.450970030" lon="6.907291710">
  <ele>2222.900000</ele>
<time>2017-08-15T12:05:21Z</time>
</trkpt>
<trkpt lat="45.450938340" lon="6.907146700">
  <ele>2220.100000</ele>
<time>2017-08-15T12:05:24Z</time>
</trkpt>
<trkpt lat="45.450900120" lon="6.907020140">
  <ele>2216.500000</ele>
<time>2017-08-15T12:05:29Z</time>
</trkpt>
<trkpt lat="45.450808420" lon="6.906970010">
  <ele>2214.600000</ele>
<time>2017-08-15T12:05:32Z</time>
</trkpt>
<trkpt lat="45.450801720" lon="6.906840090">
  <ele>2212.400000</ele>
<time>2017-08-15T12:05:36Z</time>
</trkpt>
<trkpt lat="45.450893420" lon="6.906736830">
  <ele>2211.200000</ele>
<time>2017-08-15T12:05:38Z</time>
</trkpt>
<trkpt lat="45.450995010" lon="6.906611770">
  <ele>2210.000000</ele>
<time>2017-08-15T12:05:40Z</time>
</trkpt>
<trkpt lat="45.451086700" lon="6.906520070">
  <ele>2208.800000</ele>
<time>2017-08-15T12:05:42Z</time>
</trkpt>
<trkpt lat="45.451146720" lon="6.906386800">
  <ele>2207.000000</ele>
<time>2017-08-15T12:05:45Z</time>
</trkpt>
<trkpt lat="45.451028370" lon="6.906360150">
  <ele>2204.300000</ele>
<time>2017-08-15T12:05:49Z</time>
</trkpt>
<trkpt lat="45.451060050" lon="6.906168370">
  <ele>2202.400000</ele>
<time>2017-08-15T12:05:52Z</time>
</trkpt>
<trkpt lat="45.451040100" lon="6.905981790">
  <ele>2199.700000</ele>
<time>2017-08-15T12:05:55Z</time>
</trkpt>
<trkpt lat="45.450973380" lon="6.905810130">
  <ele>2197.700000</ele>
<time>2017-08-15T12:05:58Z</time>
</trkpt>
<trkpt lat="45.450946730" lon="6.905641820">
  <ele>2196.500000</ele>
<time>2017-08-15T12:06:00Z</time>
</trkpt>
<trkpt lat="45.450940020" lon="6.905481720">
  <ele>2195.100000</ele>
<time>2017-08-15T12:06:02Z</time>
</trkpt>
<trkpt lat="45.450895090" lon="6.905348450">
  <ele>2193.400000</ele>
<time>2017-08-15T12:06:05Z</time>
</trkpt>
<trkpt lat="45.450876820" lon="6.905165050">
  <ele>2191.400000</ele>
<time>2017-08-15T12:06:08Z</time>
</trkpt>
<trkpt lat="45.450881680" lon="6.905035130">
  <ele>2190.000000</ele>
<time>2017-08-15T12:06:10Z</time>
</trkpt>
<trkpt lat="45.450890060" lon="6.904901690">
  <ele>2188.500000</ele>
<time>2017-08-15T12:06:12Z</time>
</trkpt>
<trkpt lat="45.450933480" lon="6.904748470">
  <ele>2186.200000</ele>
<time>2017-08-15T12:06:15Z</time>
</trkpt>
<trkpt lat="45.450845140" lon="6.904721820">
  <ele>2182.700000</ele>
<time>2017-08-15T12:06:20Z</time>
</trkpt>
<trkpt lat="45.450870120" lon="6.904550160">
  <ele>2179.600000</ele>
<time>2017-08-15T12:06:24Z</time>
</trkpt>
<trkpt lat="45.450903480" lon="6.904430130">
  <ele>2177.400000</ele>
<time>2017-08-15T12:06:27Z</time>
</trkpt>
<trkpt lat="45.450930130" lon="6.904293340">
  <ele>2175.900000</ele>
<time>2017-08-15T12:06:29Z</time>
</trkpt>
<trkpt lat="45.450965170" lon="6.904146820">
  <ele>2174.400000</ele>
<time>2017-08-15T12:06:31Z</time>
</trkpt>
<trkpt lat="45.450986790" lon="6.903963420">
  <ele>2172.400000</ele>
<time>2017-08-15T12:06:34Z</time>
</trkpt>
<trkpt lat="45.450953430" lon="6.903835010">
  <ele>2169.100000</ele>
<time>2017-08-15T12:06:39Z</time>
</trkpt>
<trkpt lat="45.451005060" lon="6.903711800">
  <ele>2166.500000</ele>
<time>2017-08-15T12:06:43Z</time>
</trkpt>
<trkpt lat="45.450968350" lon="6.903591770">
  <ele>2164.500000</ele>
<time>2017-08-15T12:06:46Z</time>
</trkpt>
<trkpt lat="45.450871790" lon="6.903550030">
  <ele>2162.500000</ele>
<time>2017-08-15T12:06:49Z</time>
</trkpt>
<trkpt lat="45.450791830" lon="6.903445090">
  <ele>2159.600000</ele>
<time>2017-08-15T12:06:53Z</time>
</trkpt>
<trkpt lat="45.450878500" lon="6.903370150">
  <ele>2157.800000</ele>
<time>2017-08-15T12:06:55Z</time>
</trkpt>
<trkpt lat="45.450958460" lon="6.903295050">
  <ele>2156.200000</ele>
<time>2017-08-15T12:06:57Z</time>
</trkpt>
<trkpt lat="45.451055020" lon="6.903270070">
  <ele>2154.900000</ele>
<time>2017-08-15T12:06:59Z</time>
</trkpt>
<trkpt lat="45.451171700" lon="6.903203350">
  <ele>2153.300000</ele>
<time>2017-08-15T12:07:02Z</time>
</trkpt>
<trkpt lat="45.451251830" lon="6.903085000">
  <ele>2151.400000</ele>
<time>2017-08-15T12:07:05Z</time>
</trkpt>
<trkpt lat="45.451315030" lon="6.902923400">
  <ele>2149.800000</ele>
<time>2017-08-15T12:07:08Z</time>
</trkpt>
<trkpt lat="45.451346710" lon="6.902786770">
  <ele>2148.400000</ele>
<time>2017-08-15T12:07:10Z</time>
</trkpt>
<trkpt lat="45.451346710" lon="6.902621820">
  <ele>2147.200000</ele>
<time>2017-08-15T12:07:12Z</time>
</trkpt>
<trkpt lat="45.451345030" lon="6.902490050">
  <ele>2146.000000</ele>
<time>2017-08-15T12:07:14Z</time>
</trkpt>
<trkpt lat="45.451375040" lon="6.902328450">
  <ele>2143.700000</ele>
<time>2017-08-15T12:07:18Z</time>
</trkpt>
<trkpt lat="45.451440080" lon="6.902238430">
  <ele>2142.700000</ele>
<time>2017-08-15T12:07:20Z</time>
</trkpt>
<trkpt lat="45.451530110" lon="6.902176740">
  <ele>2141.700000</ele>
<time>2017-08-15T12:07:22Z</time>
</trkpt>
<trkpt lat="45.451633370" lon="6.902125110">
  <ele>2140.600000</ele>
<time>2017-08-15T12:07:24Z</time>
</trkpt>
<trkpt lat="45.451745020" lon="6.902068440">
  <ele>2139.700000</ele>
<time>2017-08-15T12:07:26Z</time>
</trkpt>
<trkpt lat="45.451875110" lon="6.901993340">
  <ele>2138.600000</ele>
<time>2017-08-15T12:07:28Z</time>
</trkpt>
<trkpt lat="45.452010050" lon="6.901931820">
  <ele>2137.500000</ele>
<time>2017-08-15T12:07:30Z</time>
</trkpt>
<trkpt lat="45.452150030" lon="6.901880020">
  <ele>2136.500000</ele>
<time>2017-08-15T12:07:32Z</time>
</trkpt>
<trkpt lat="45.452268380" lon="6.901800060">
  <ele>2135.600000</ele>
<time>2017-08-15T12:07:34Z</time>
</trkpt>
<trkpt lat="45.452390090" lon="6.901701820">
  <ele>2134.600000</ele>
<time>2017-08-15T12:07:36Z</time>
</trkpt>
<trkpt lat="45.452523360" lon="6.901610120">
  <ele>2133.600000</ele>
<time>2017-08-15T12:07:38Z</time>
</trkpt>
<trkpt lat="45.452660150" lon="6.901525130">
  <ele>2132.700000</ele>
<time>2017-08-15T12:07:40Z</time>
</trkpt>
<trkpt lat="45.452780020" lon="6.901463440">
  <ele>2131.600000</ele>
<time>2017-08-15T12:07:42Z</time>
</trkpt>
<trkpt lat="45.452878420" lon="6.901416670">
  <ele>2130.500000</ele>
<time>2017-08-15T12:07:44Z</time>
</trkpt>
<trkpt lat="45.452956710" lon="6.901331670">
  <ele>2129.100000</ele>
<time>2017-08-15T12:07:47Z</time>
</trkpt>
<trkpt lat="45.453033480" lon="6.901233440">
  <ele>2127.400000</ele>
<time>2017-08-15T12:07:51Z</time>
</trkpt>
<trkpt lat="45.453131720" lon="6.901100170">
  <ele>2126.300000</ele>
<time>2017-08-15T12:07:54Z</time>
</trkpt>
<trkpt lat="45.453221740" lon="6.901078370">
  <ele>2125.600000</ele>
<time>2017-08-15T12:07:56Z</time>
</trkpt>
<trkpt lat="45.453343450" lon="6.901101670">
  <ele>2124.700000</ele>
<time>2017-08-15T12:07:59Z</time>
</trkpt>
<trkpt lat="45.453450070" lon="6.901135030">
  <ele>2123.800000</ele>
<time>2017-08-15T12:08:02Z</time>
</trkpt>
<trkpt lat="45.453541760" lon="6.901145090">
  <ele>2123.100000</ele>
<time>2017-08-15T12:08:05Z</time>
</trkpt>
<trkpt lat="45.453645030" lon="6.901073340">
  <ele>2119.700000</ele>
<time>2017-08-15T12:08:45Z</time>
</trkpt>
<trkpt lat="45.453750140" lon="6.901046690">
  <ele>2119.700000</ele>
<time>2017-08-15T12:08:48Z</time>
</trkpt>
<trkpt lat="45.453846700" lon="6.901060100">
  <ele>2119.600000</ele>
<time>2017-08-15T12:08:50Z</time>
</trkpt>
<trkpt lat="45.453945100" lon="6.901093460">
  <ele>2119.600000</ele>
<time>2017-08-15T12:08:52Z</time>
</trkpt>
<trkpt lat="45.454065130" lon="6.901123470">
  <ele>2119.600000</ele>
<time>2017-08-15T12:08:55Z</time>
</trkpt>
<trkpt lat="45.454175100" lon="6.901141740">
  <ele>2119.500000</ele>
<time>2017-08-15T12:08:57Z</time>
</trkpt>
<trkpt lat="45.454300160" lon="6.901138390">
  <ele>2119.500000</ele>
<time>2017-08-15T12:08:59Z</time>
</trkpt>
<trkpt lat="45.454403420" lon="6.901048370">
  <ele>2119.400000</ele>
<time>2017-08-15T12:09:01Z</time>
</trkpt>
<trkpt lat="45.454513390" lon="6.900955160">
  <ele>2119.300000</ele>
<time>2017-08-15T12:09:03Z</time>
</trkpt>
<trkpt lat="45.454646830" lon="6.900913420">
  <ele>2119.000000</ele>
<time>2017-08-15T12:09:05Z</time>
</trkpt>
<trkpt lat="45.454780110" lon="6.900885090">
  <ele>2118.600000</ele>
<time>2017-08-15T12:09:07Z</time>
</trkpt>
<trkpt lat="45.454911700" lon="6.900895140">
  <ele>2118.200000</ele>
<time>2017-08-15T12:09:09Z</time>
</trkpt>
<trkpt lat="45.455015130" lon="6.900913420">
  <ele>2117.800000</ele>
<time>2017-08-15T12:09:11Z</time>
</trkpt>
<trkpt lat="45.455100130" lon="6.900868490">
  <ele>2117.400000</ele>
<time>2017-08-15T12:09:13Z</time>
</trkpt>
<trkpt lat="45.455166680" lon="6.900765060">
  <ele>2117.000000</ele>
<time>2017-08-15T12:09:15Z</time>
</trkpt>
<trkpt lat="45.455238430" lon="6.900620050">
  <ele>2116.300000</ele>
<time>2017-08-15T12:09:17Z</time>
</trkpt>
<trkpt lat="45.455286710" lon="6.900401790">
  <ele>2115.500000</ele>
<time>2017-08-15T12:09:19Z</time>
</trkpt>
<trkpt lat="45.455283350" lon="6.900141780">
  <ele>2114.500000</ele>
<time>2017-08-15T12:09:21Z</time>
</trkpt>
<trkpt lat="45.455268440" lon="6.900015040">
  <ele>2114.000000</ele>
<time>2017-08-15T12:09:22Z</time>
</trkpt>
<trkpt lat="45.455221830" lon="6.899793430">
  <ele>2113.000000</ele>
<time>2017-08-15T12:09:24Z</time>
</trkpt>
<trkpt lat="45.455121750" lon="6.899656800">
  <ele>2112.000000</ele>
<time>2017-08-15T12:09:26Z</time>
</trkpt>
<trkpt lat="45.454971720" lon="6.899595110">
  <ele>2111.100000</ele>
<time>2017-08-15T12:09:28Z</time>
</trkpt>
<trkpt lat="45.454820000" lon="6.899476760">
  <ele>2110.200000</ele>
<time>2017-08-15T12:09:30Z</time>
</trkpt>
<trkpt lat="45.454746750" lon="6.899395120">
  <ele>2109.700000</ele>
<time>2017-08-15T12:09:31Z</time>
</trkpt>
<trkpt lat="45.454671810" lon="6.899315160">
  <ele>2109.200000</ele>
<time>2017-08-15T12:09:32Z</time>
</trkpt>
<trkpt lat="45.454586820" lon="6.899271740">
  <ele>2108.700000</ele>
<time>2017-08-15T12:09:33Z</time>
</trkpt>
<trkpt lat="45.454496800" lon="6.899246760">
  <ele>2108.200000</ele>
<time>2017-08-15T12:09:34Z</time>
</trkpt>
<trkpt lat="45.454401750" lon="6.899228490">
  <ele>2107.800000</ele>
<time>2017-08-15T12:09:35Z</time>
</trkpt>
<trkpt lat="45.454311720" lon="6.899206690">
  <ele>2107.300000</ele>
<time>2017-08-15T12:09:36Z</time>
</trkpt>
<trkpt lat="45.454136710" lon="6.899168470">
  <ele>2106.400000</ele>
<time>2017-08-15T12:09:38Z</time>
</trkpt>
<trkpt lat="45.453966730" lon="6.899131760">
  <ele>2105.600000</ele>
<time>2017-08-15T12:09:40Z</time>
</trkpt>
<trkpt lat="45.453791710" lon="6.899096720">
  <ele>2104.600000</ele>
<time>2017-08-15T12:09:42Z</time>
</trkpt>
<trkpt lat="45.453701690" lon="6.899088340">
  <ele>2104.200000</ele>
<time>2017-08-15T12:09:43Z</time>
</trkpt>
<trkpt lat="45.453525170" lon="6.899055150">
  <ele>2103.300000</ele>
<time>2017-08-15T12:09:45Z</time>
</trkpt>
<trkpt lat="45.453348480" lon="6.899026820">
  <ele>2102.600000</ele>
<time>2017-08-15T12:09:47Z</time>
</trkpt>
<trkpt lat="45.453176820" lon="6.898991780">
  <ele>2101.900000</ele>
<time>2017-08-15T12:09:49Z</time>
</trkpt>
<trkpt lat="45.453050080" lon="6.898905110">
  <ele>2101.000000</ele>
<time>2017-08-15T12:09:51Z</time>
</trkpt>
<trkpt lat="45.453005150" lon="6.898740160">
  <ele>2100.100000</ele>
<time>2017-08-15T12:09:53Z</time>
</trkpt>
<trkpt lat="45.453010020" lon="6.898591800">
  <ele>2099.100000</ele>
<time>2017-08-15T12:09:55Z</time>
</trkpt>
<trkpt lat="45.453036670" lon="6.898466740">
  <ele>2098.500000</ele>
<time>2017-08-15T12:09:57Z</time>
</trkpt>
<trkpt lat="45.453078410" lon="6.898315030">
  <ele>2097.600000</ele>
<time>2017-08-15T12:10:00Z</time>
</trkpt>
<trkpt lat="45.453148480" lon="6.898225010">
  <ele>2096.800000</ele>
<time>2017-08-15T12:10:03Z</time>
</trkpt>
<trkpt lat="45.453258450" lon="6.898235060">
  <ele>2096.200000</ele>
<time>2017-08-15T12:10:06Z</time>
</trkpt>
<trkpt lat="45.453356690" lon="6.898281670">
  <ele>2095.500000</ele>
<time>2017-08-15T12:10:09Z</time>
</trkpt>
<trkpt lat="45.453440010" lon="6.898390130">
  <ele>2094.600000</ele>
<time>2017-08-15T12:10:14Z</time>
</trkpt>
<trkpt lat="45.453511760" lon="6.898488370">
  <ele>2094.200000</ele>
<time>2017-08-15T12:10:17Z</time>
</trkpt>
<trkpt lat="45.453588370" lon="6.898583420">
  <ele>2093.800000</ele>
<time>2017-08-15T12:10:20Z</time>
</trkpt>
<trkpt lat="45.453676710" lon="6.898635050">
  <ele>2093.500000</ele>
<time>2017-08-15T12:10:23Z</time>
</trkpt>
<trkpt lat="45.453780140" lon="6.898655160">
  <ele>2093.200000</ele>
<time>2017-08-15T12:10:27Z</time>
</trkpt>
<trkpt lat="45.453871670" lon="6.898668410">
  <ele>2092.800000</ele>
<time>2017-08-15T12:10:36Z</time>
</trkpt>
<trkpt lat="45.453870170" lon="6.898605040">
  <ele>2093.100000</ele>
<time>2017-08-15T12:10:46Z</time>
</trkpt>
<trkpt lat="45.453978460" lon="6.898160130">
  <ele>2315.200000</ele>
<time>2017-08-15T13:20:04Z</time>
</trkpt>
<trkpt lat="45.453852560" lon="6.898383090">
  <ele>2312.000000</ele>
<time>2017-08-15T13:20:14Z</time>
</trkpt>
<trkpt lat="45.453845190" lon="6.898722890">
  <ele>2310.000000</ele>
<time>2017-08-15T13:20:25Z</time>
</trkpt>
<trkpt lat="45.453916770" lon="6.898823470">
  <ele>2309.200000</ele>
<time>2017-08-15T13:20:31Z</time>
</trkpt>
<trkpt lat="45.454005110" lon="6.898873430">
  <ele>2308.400000</ele>
<time>2017-08-15T13:20:35Z</time>
</trkpt>
<trkpt lat="45.454108380" lon="6.898798500">
  <ele>2307.800000</ele>
<time>2017-08-15T13:20:38Z</time>
</trkpt>
<trkpt lat="45.454185160" lon="6.898723390">
  <ele>2307.400000</ele>
<time>2017-08-15T13:20:40Z</time>
</trkpt>
<trkpt lat="45.454261770" lon="6.898628340">
  <ele>2307.000000</ele>
<time>2017-08-15T13:20:42Z</time>
</trkpt>
<trkpt lat="45.454368390" lon="6.898596830">
  <ele>2306.400000</ele>
<time>2017-08-15T13:20:45Z</time>
</trkpt>
<trkpt lat="45.454490090" lon="6.898593470">
  <ele>2305.800000</ele>
<time>2017-08-15T13:20:48Z</time>
</trkpt>
<trkpt lat="45.454590000" lon="6.898496750">
  <ele>2305.400000</ele>
<time>2017-08-15T13:20:50Z</time>
</trkpt>
<trkpt lat="45.454650020" lon="6.898383420">
  <ele>2305.200000</ele>
<time>2017-08-15T13:20:51Z</time>
</trkpt>
<trkpt lat="45.454713390" lon="6.898251830">
  <ele>2305.000000</ele>
<time>2017-08-15T13:20:52Z</time>
</trkpt>
<trkpt lat="45.454780110" lon="6.898090060">
  <ele>2304.800000</ele>
<time>2017-08-15T13:20:53Z</time>
</trkpt>
<trkpt lat="45.454848330" lon="6.897900120">
  <ele>2304.600000</ele>
<time>2017-08-15T13:20:54Z</time>
</trkpt>
<trkpt lat="45.454920080" lon="6.897698450">
  <ele>2304.400000</ele>
<time>2017-08-15T13:20:55Z</time>
</trkpt>
<trkpt lat="45.454995020" lon="6.897490080">
  <ele>2304.200000</ele>
<time>2017-08-15T13:20:56Z</time>
</trkpt>
<trkpt lat="45.455071800" lon="6.897273490">
  <ele>2304.000000</ele>
<time>2017-08-15T13:20:57Z</time>
</trkpt>
<trkpt lat="45.455151760" lon="6.897030080">
  <ele>2303.800000</ele>
<time>2017-08-15T13:20:58Z</time>
</trkpt>
<trkpt lat="45.455601700" lon="6.895334930">
  <ele>2302.000000</ele>
<time>2017-08-15T13:21:03Z</time>
</trkpt>
<trkpt lat="45.456045100" lon="6.893870100">
  <ele>2302.000000</ele>
<time>2017-08-15T13:21:08Z</time>
</trkpt>
<trkpt lat="45.456128420" lon="6.893658380">
  <ele>2301.800000</ele>
<time>2017-08-15T13:21:09Z</time>
</trkpt>
<trkpt lat="45.456213410" lon="6.893438440">
  <ele>2301.600000</ele>
<time>2017-08-15T13:21:10Z</time>
</trkpt>
<trkpt lat="45.456295050" lon="6.893218490">
  <ele>2301.400000</ele>
<time>2017-08-15T13:21:11Z</time>
</trkpt>
<trkpt lat="45.456381720" lon="6.892985140">
  <ele>2301.200000</ele>
<time>2017-08-15T13:21:12Z</time>
</trkpt>
<trkpt lat="45.456463360" lon="6.892773420">
  <ele>2301.000000</ele>
<time>2017-08-15T13:21:13Z</time>
</trkpt>
<trkpt lat="45.456466710" lon="6.892588340">
  <ele>2300.800000</ele>
<time>2017-08-15T13:21:14Z</time>
</trkpt>
<trkpt lat="45.455846120" lon="6.893689050">
  <ele>2299.000000</ele>
<time>2017-08-15T13:21:19Z</time>
</trkpt>
<trkpt lat="45.455546710" lon="6.894361790">
  <ele>2298.900000</ele>
<time>2017-08-15T13:21:24Z</time>
</trkpt>
<trkpt lat="45.454804250" lon="6.896140260">
  <ele>2296.000000</ele>
<time>2017-08-15T13:21:35Z</time>
</trkpt>
<trkpt lat="45.454676670" lon="6.896466820">
  <ele>2296.000000</ele>
<time>2017-08-15T13:21:40Z</time>
</trkpt>
<trkpt lat="45.454600060" lon="6.896535050">
  <ele>2289.300000</ele>
<time>2017-08-15T13:22:15Z</time>
</trkpt>
<trkpt lat="45.454508360" lon="6.896598410">
  <ele>2288.700000</ele>
<time>2017-08-15T13:22:18Z</time>
</trkpt>
<trkpt lat="45.454410130" lon="6.896578460">
  <ele>2288.000000</ele>
<time>2017-08-15T13:22:23Z</time>
</trkpt>
<trkpt lat="45.454483390" lon="6.896708380">
  <ele>2287.000000</ele>
<time>2017-08-15T13:22:29Z</time>
</trkpt>
<trkpt lat="45.454571730" lon="6.896818350">
  <ele>2286.500000</ele>
<time>2017-08-15T13:22:32Z</time>
</trkpt>
<trkpt lat="45.454660080" lon="6.896898490">
  <ele>2285.900000</ele>
<time>2017-08-15T13:22:35Z</time>
</trkpt>
<trkpt lat="45.454758480" lon="6.897003430">
  <ele>2285.400000</ele>
<time>2017-08-15T13:22:38Z</time>
</trkpt>
<trkpt lat="45.454856720" lon="6.897108370">
  <ele>2284.800000</ele>
<time>2017-08-15T13:22:41Z</time>
</trkpt>
<trkpt lat="45.454970040" lon="6.897198390">
  <ele>2284.300000</ele>
<time>2017-08-15T13:22:44Z</time>
</trkpt>
<trkpt lat="45.455056710" lon="6.897253380">
  <ele>2283.900000</ele>
<time>2017-08-15T13:22:46Z</time>
</trkpt>
<trkpt lat="45.455146730" lon="6.897308360">
  <ele>2283.500000</ele>
<time>2017-08-15T13:22:48Z</time>
</trkpt>
<trkpt lat="45.455230050" lon="6.897383460">
  <ele>2283.100000</ele>
<time>2017-08-15T13:22:50Z</time>
</trkpt>
<trkpt lat="45.455321740" lon="6.897435100">
  <ele>2282.600000</ele>
<time>2017-08-15T13:22:52Z</time>
</trkpt>
<trkpt lat="45.455416790" lon="6.897490080">
  <ele>2282.100000</ele>
<time>2017-08-15T13:22:54Z</time>
</trkpt>
<trkpt lat="45.455513350" lon="6.897545070">
  <ele>2281.600000</ele>
<time>2017-08-15T13:22:56Z</time>
</trkpt>
<trkpt lat="45.455606730" lon="6.897615140">
  <ele>2281.200000</ele>
<time>2017-08-15T13:22:58Z</time>
</trkpt>
<trkpt lat="45.455696080" lon="6.898301110">
  <ele>2279.000000</ele>
<time>2017-08-15T13:23:04Z</time>
</trkpt>
<trkpt lat="45.455970000" lon="6.898420140">
  <ele>2278.800000</ele>
<time>2017-08-15T13:23:09Z</time>
</trkpt>
<trkpt lat="45.456090030" lon="6.898441760">
  <ele>2278.400000</ele>
<time>2017-08-15T13:23:11Z</time>
</trkpt>
<trkpt lat="45.456210060" lon="6.898471770">
  <ele>2278.000000</ele>
<time>2017-08-15T13:23:13Z</time>
</trkpt>
<trkpt lat="45.456333440" lon="6.898508480">
  <ele>2277.600000</ele>
<time>2017-08-15T13:23:15Z</time>
</trkpt>
<trkpt lat="45.456460010" lon="6.898546700">
  <ele>2277.100000</ele>
<time>2017-08-15T13:23:17Z</time>
</trkpt>
<trkpt lat="45.456581710" lon="6.898581740">
  <ele>2276.700000</ele>
<time>2017-08-15T13:23:19Z</time>
</trkpt>
<trkpt lat="45.456705090" lon="6.898613420">
  <ele>2276.200000</ele>
<time>2017-08-15T13:23:21Z</time>
</trkpt>
<trkpt lat="45.456823450" lon="6.898643430">
  <ele>2275.700000</ele>
<time>2017-08-15T13:23:23Z</time>
</trkpt>
<trkpt lat="45.456964090" lon="6.898679640">
  <ele>2275.000000</ele>
<time>2017-08-15T13:23:25Z</time>
</trkpt>
<trkpt lat="45.457101730" lon="6.898713340">
  <ele>2274.500000</ele>
<time>2017-08-15T13:23:28Z</time>
</trkpt>
<trkpt lat="45.457213370" lon="6.898738480">
  <ele>2274.000000</ele>
<time>2017-08-15T13:23:30Z</time>
</trkpt>
<trkpt lat="45.457323340" lon="6.898768490">
  <ele>2273.600000</ele>
<time>2017-08-15T13:23:32Z</time>
</trkpt>
<trkpt lat="45.457430130" lon="6.898796820">
  <ele>2273.100000</ele>
<time>2017-08-15T13:23:34Z</time>
</trkpt>
<trkpt lat="45.457543450" lon="6.898825150">
  <ele>2272.700000</ele>
<time>2017-08-15T13:23:36Z</time>
</trkpt>
<trkpt lat="45.457656770" lon="6.898853480">
  <ele>2272.200000</ele>
<time>2017-08-15T13:23:38Z</time>
</trkpt>
<trkpt lat="45.457763390" lon="6.898880140">
  <ele>2271.800000</ele>
<time>2017-08-15T13:23:40Z</time>
</trkpt>
<trkpt lat="45.457868330" lon="6.898910140">
  <ele>2271.400000</ele>
<time>2017-08-15T13:23:42Z</time>
</trkpt>
<trkpt lat="45.457968410" lon="6.898936800">
  <ele>2271.000000</ele>
<time>2017-08-15T13:23:44Z</time>
</trkpt>
<trkpt lat="45.458138900" lon="6.898987420">
  <ele>2270.000000</ele>
<time>2017-08-15T13:23:47Z</time>
</trkpt>
<trkpt lat="45.458245020" lon="6.899061690">
  <ele>2269.700000</ele>
<time>2017-08-15T13:23:50Z</time>
</trkpt>
<trkpt lat="45.458333360" lon="6.899210050">
  <ele>2269.100000</ele>
<time>2017-08-15T13:23:53Z</time>
</trkpt>
<trkpt lat="45.458443500" lon="6.899288330">
  <ele>2268.500000</ele>
<time>2017-08-15T13:23:56Z</time>
</trkpt>
<trkpt lat="45.458565040" lon="6.899213400">
  <ele>2267.900000</ele>
<time>2017-08-15T13:23:59Z</time>
</trkpt>
<trkpt lat="45.458719600" lon="6.899235190">
  <ele>2267.000000</ele>
<time>2017-08-15T13:24:02Z</time>
</trkpt>
<trkpt lat="45.458813480" lon="6.899276770">
  <ele>2266.800000</ele>
<time>2017-08-15T13:24:05Z</time>
</trkpt>
<trkpt lat="45.459003910" lon="6.899321690">
  <ele>2265.000000</ele>
<time>2017-08-15T13:24:11Z</time>
</trkpt>
<trkpt lat="45.459131650" lon="6.899370980">
  <ele>2264.000000</ele>
<time>2017-08-15T13:24:15Z</time>
</trkpt>
<trkpt lat="45.459226710" lon="6.899418420">
  <ele>2264.100000</ele>
<time>2017-08-15T13:24:18Z</time>
</trkpt>
<trkpt lat="45.459348410" lon="6.899495030">
  <ele>2263.400000</ele>
<time>2017-08-15T13:24:21Z</time>
</trkpt>
<trkpt lat="45.459430050" lon="6.899556720">
  <ele>2262.800000</ele>
<time>2017-08-15T13:24:23Z</time>
</trkpt>
<trkpt lat="45.459533480" lon="6.899630150">
  <ele>2262.200000</ele>
<time>2017-08-15T13:24:25Z</time>
</trkpt>
<trkpt lat="45.459656700" lon="6.899721680">
  <ele>2261.600000</ele>
<time>2017-08-15T13:24:27Z</time>
</trkpt>
<trkpt lat="45.459798350" lon="6.899825110">
  <ele>2261.000000</ele>
<time>2017-08-15T13:24:29Z</time>
</trkpt>
<trkpt lat="45.459936820" lon="6.899933410">
  <ele>2260.400000</ele>
<time>2017-08-15T13:24:31Z</time>
</trkpt>
<trkpt lat="45.460078470" lon="6.900040020">
  <ele>2259.700000</ele>
<time>2017-08-15T13:24:33Z</time>
</trkpt>
<trkpt lat="45.460216780" lon="6.900143460">
  <ele>2259.000000</ele>
<time>2017-08-15T13:24:35Z</time>
</trkpt>
<trkpt lat="45.460326750" lon="6.900253430">
  <ele>2258.200000</ele>
<time>2017-08-15T13:24:37Z</time>
</trkpt>
<trkpt lat="45.460428330" lon="6.900368430">
  <ele>2257.400000</ele>
<time>2017-08-15T13:24:39Z</time>
</trkpt>
<trkpt lat="45.460556750" lon="6.900441680">
  <ele>2256.600000</ele>
<time>2017-08-15T13:24:41Z</time>
</trkpt>
<trkpt lat="45.460681800" lon="6.900515110">
  <ele>2255.700000</ele>
<time>2017-08-15T13:24:43Z</time>
</trkpt>
<trkpt lat="45.460776690" lon="6.900575120">
  <ele>2254.800000</ele>
<time>2017-08-15T13:24:45Z</time>
</trkpt>
<trkpt lat="45.460868380" lon="6.900623400">
  <ele>2253.900000</ele>
<time>2017-08-15T13:24:47Z</time>
</trkpt>
<trkpt lat="45.460960080" lon="6.900650060">
  <ele>2253.000000</ele>
<time>2017-08-15T13:24:49Z</time>
</trkpt>
<trkpt lat="45.461110450" lon="6.900669170">
  <ele>2251.000000</ele>
<time>2017-08-15T13:24:52Z</time>
</trkpt>
<trkpt lat="45.461268030" lon="6.900674200">
  <ele>2249.000000</ele>
<time>2017-08-15T13:24:56Z</time>
</trkpt>
<trkpt lat="45.461361740" lon="6.900666820">
  <ele>2248.900000</ele>
<time>2017-08-15T13:24:59Z</time>
</trkpt>
<trkpt lat="45.461529210" lon="6.900591720">
  <ele>2247.000000</ele>
<time>2017-08-15T13:25:03Z</time>
</trkpt>
<trkpt lat="45.461631810" lon="6.900498350">
  <ele>2246.400000</ele>
<time>2017-08-15T13:25:06Z</time>
</trkpt>
<trkpt lat="45.461723340" lon="6.900440010">
  <ele>2245.700000</ele>
<time>2017-08-15T13:25:08Z</time>
</trkpt>
<trkpt lat="45.461811680" lon="6.900401790">
  <ele>2244.900000</ele>
<time>2017-08-15T13:25:10Z</time>
</trkpt>
<trkpt lat="45.461986200" lon="6.900396590">
  <ele>2243.000000</ele>
<time>2017-08-15T13:25:13Z</time>
</trkpt>
<trkpt lat="45.462130030" lon="6.900448390">
  <ele>2242.600000</ele>
<time>2017-08-15T13:25:16Z</time>
</trkpt>
<trkpt lat="45.462248380" lon="6.900535060">
  <ele>2242.000000</ele>
<time>2017-08-15T13:25:18Z</time>
</trkpt>
<trkpt lat="45.462363380" lon="6.900623400">
  <ele>2241.300000</ele>
<time>2017-08-15T13:25:20Z</time>
</trkpt>
<trkpt lat="45.462478380" lon="6.900693480">
  <ele>2240.500000</ele>
<time>2017-08-15T13:25:22Z</time>
</trkpt>
<trkpt lat="45.462598410" lon="6.900743430">
  <ele>2239.800000</ele>
<time>2017-08-15T13:25:24Z</time>
</trkpt>
<trkpt lat="45.462710060" lon="6.900823400">
  <ele>2239.200000</ele>
<time>2017-08-15T13:25:26Z</time>
</trkpt>
<trkpt lat="45.462816670" lon="6.900901680">
  <ele>2238.500000</ele>
<time>2017-08-15T13:25:28Z</time>
</trkpt>
<trkpt lat="45.462901670" lon="6.900993380">
  <ele>2237.900000</ele>
<time>2017-08-15T13:25:30Z</time>
</trkpt>
<trkpt lat="45.462941730" lon="6.901128500">
  <ele>2236.700000</ele>
<time>2017-08-15T13:25:33Z</time>
</trkpt>
<trkpt lat="45.462903340" lon="6.901270150">
  <ele>2235.600000</ele>
<time>2017-08-15T13:25:36Z</time>
</trkpt>
<trkpt lat="45.462853390" lon="6.901380120">
  <ele>2234.300000</ele>
<time>2017-08-15T13:25:39Z</time>
</trkpt>
<trkpt lat="45.462895130" lon="6.901521780">
  <ele>2232.800000</ele>
<time>2017-08-15T13:25:43Z</time>
</trkpt>
<trkpt lat="45.462936700" lon="6.901643480">
  <ele>2232.200000</ele>
<time>2017-08-15T13:25:45Z</time>
</trkpt>
<trkpt lat="45.462993360" lon="6.901755130">
  <ele>2231.500000</ele>
<time>2017-08-15T13:25:47Z</time>
</trkpt>
<trkpt lat="45.463091770" lon="6.901871800">
  <ele>2230.500000</ele>
<time>2017-08-15T13:25:50Z</time>
</trkpt>
<trkpt lat="45.463186820" lon="6.901980100">
  <ele>2229.600000</ele>
<time>2017-08-15T13:25:53Z</time>
</trkpt>
<trkpt lat="45.463218340" lon="6.902118400">
  <ele>2228.800000</ele>
<time>2017-08-15T13:25:56Z</time>
</trkpt>
<trkpt lat="45.463231750" lon="6.902266760">
  <ele>2228.100000</ele>
<time>2017-08-15T13:25:59Z</time>
</trkpt>
<trkpt lat="45.463301820" lon="6.902435070">
  <ele>2227.400000</ele>
<time>2017-08-15T13:26:02Z</time>
</trkpt>
<trkpt lat="45.463348420" lon="6.902555100">
  <ele>2226.900000</ele>
<time>2017-08-15T13:26:04Z</time>
</trkpt>
<trkpt lat="45.463383460" lon="6.902683340">
  <ele>2226.500000</ele>
<time>2017-08-15T13:26:06Z</time>
</trkpt>
<trkpt lat="45.463401730" lon="6.902821810">
  <ele>2226.100000</ele>
<time>2017-08-15T13:26:08Z</time>
</trkpt>
<trkpt lat="45.463431740" lon="6.902953400">
  <ele>2225.700000</ele>
<time>2017-08-15T13:26:10Z</time>
</trkpt>
<trkpt lat="45.463478340" lon="6.903075110">
  <ele>2225.300000</ele>
<time>2017-08-15T13:26:12Z</time>
</trkpt>
<trkpt lat="45.463523440" lon="6.903193460">
  <ele>2225.000000</ele>
<time>2017-08-15T13:26:14Z</time>
</trkpt>
<trkpt lat="45.463563330" lon="6.903315000">
  <ele>2224.600000</ele>
<time>2017-08-15T13:26:16Z</time>
</trkpt>
<trkpt lat="45.463591830" lon="6.903441730">
  <ele>2224.300000</ele>
<time>2017-08-15T13:26:18Z</time>
</trkpt>
<trkpt lat="45.463625030" lon="6.903621780">
  <ele>2223.800000</ele>
<time>2017-08-15T13:26:21Z</time>
</trkpt>
<trkpt lat="45.463606750" lon="6.903801820">
  <ele>2223.300000</ele>
<time>2017-08-15T13:26:24Z</time>
</trkpt>
<trkpt lat="45.463590160" lon="6.903970130">
  <ele>2222.900000</ele>
<time>2017-08-15T13:26:27Z</time>
</trkpt>
<trkpt lat="45.463581770" lon="6.904123350">
  <ele>2222.800000</ele>
<time>2017-08-15T13:26:30Z</time>
</trkpt>
<trkpt lat="45.463598370" lon="6.904265010">
  <ele>2222.800000</ele>
<time>2017-08-15T13:26:33Z</time>
</trkpt>
<trkpt lat="45.463646820" lon="6.904415040">
  <ele>2222.800000</ele>
<time>2017-08-15T13:26:36Z</time>
</trkpt>
<trkpt lat="45.463678330" lon="6.904565080">
  <ele>2222.700000</ele>
<time>2017-08-15T13:26:39Z</time>
</trkpt>
<trkpt lat="45.463705160" lon="6.904716790">
  <ele>2222.700000</ele>
<time>2017-08-15T13:26:42Z</time>
</trkpt>
<trkpt lat="45.463740020" lon="6.904863470">
  <ele>2222.700000</ele>
<time>2017-08-15T13:26:45Z</time>
</trkpt>
<trkpt lat="45.463801720" lon="6.904998420">
  <ele>2222.700000</ele>
<time>2017-08-15T13:26:48Z</time>
</trkpt>
<trkpt lat="45.463911690" lon="6.905110070">
  <ele>2222.500000</ele>
<time>2017-08-15T13:26:51Z</time>
</trkpt>
<trkpt lat="45.464025010" lon="6.905163380">
  <ele>2222.300000</ele>
<time>2017-08-15T13:26:53Z</time>
</trkpt>
<trkpt lat="45.464158450" lon="6.905203440">
  <ele>2221.900000</ele>
<time>2017-08-15T13:26:55Z</time>
</trkpt>
<trkpt lat="45.464283340" lon="6.905238480">
  <ele>2221.000000</ele>
<time>2017-08-15T13:26:57Z</time>
</trkpt>
<trkpt lat="45.464376710" lon="6.905330010">
  <ele>2220.000000</ele>
<time>2017-08-15T13:26:59Z</time>
</trkpt>
<trkpt lat="45.464390130" lon="6.905465130">
  <ele>2219.300000</ele>
<time>2017-08-15T13:27:01Z</time>
</trkpt>
<trkpt lat="45.464356770" lon="6.905591690">
  <ele>2218.600000</ele>
<time>2017-08-15T13:27:03Z</time>
</trkpt>
<trkpt lat="45.464335140" lon="6.905723460">
  <ele>2217.900000</ele>
<time>2017-08-15T13:27:05Z</time>
</trkpt>
<trkpt lat="45.464310160" lon="6.905856730">
  <ele>2217.300000</ele>
<time>2017-08-15T13:27:07Z</time>
</trkpt>
<trkpt lat="45.464270100" lon="6.905976760">
  <ele>2216.700000</ele>
<time>2017-08-15T13:27:09Z</time>
</trkpt>
<trkpt lat="45.464210080" lon="6.906090080">
  <ele>2216.100000</ele>
<time>2017-08-15T13:27:11Z</time>
</trkpt>
<trkpt lat="45.464151740" lon="6.906253360">
  <ele>2215.200000</ele>
<time>2017-08-15T13:27:14Z</time>
</trkpt>
<trkpt lat="45.464070100" lon="6.906395010">
  <ele>2214.600000</ele>
<time>2017-08-15T13:27:17Z</time>
</trkpt>
<trkpt lat="45.464005060" lon="6.906561810">
  <ele>2214.100000</ele>
<time>2017-08-15T13:27:20Z</time>
</trkpt>
<trkpt lat="45.463983440" lon="6.906686700">
  <ele>2213.800000</ele>
<time>2017-08-15T13:27:22Z</time>
</trkpt>
<trkpt lat="45.463966670" lon="6.906863400">
  <ele>2213.400000</ele>
<time>2017-08-15T13:27:25Z</time>
</trkpt>
<trkpt lat="45.463958460" lon="6.906991810">
  <ele>2213.100000</ele>
<time>2017-08-15T13:27:27Z</time>
</trkpt>
<trkpt lat="45.463955100" lon="6.907156760">
  <ele>2212.800000</ele>
<time>2017-08-15T13:27:29Z</time>
</trkpt>
<trkpt lat="45.463970020" lon="6.907350050">
  <ele>2212.400000</ele>
<time>2017-08-15T13:27:31Z</time>
</trkpt>
<trkpt lat="45.464015120" lon="6.907551720">
  <ele>2212.000000</ele>
<time>2017-08-15T13:27:33Z</time>
</trkpt>
<trkpt lat="45.464073460" lon="6.907713490">
  <ele>2211.500000</ele>
<time>2017-08-15T13:27:35Z</time>
</trkpt>
<trkpt lat="45.464121740" lon="6.907855140">
  <ele>2210.900000</ele>
<time>2017-08-15T13:27:37Z</time>
</trkpt>
<trkpt lat="45.464161800" lon="6.908000150">
  <ele>2210.300000</ele>
<time>2017-08-15T13:27:39Z</time>
</trkpt>
<trkpt lat="45.464198350" lon="6.908133420">
  <ele>2209.700000</ele>
<time>2017-08-15T13:27:41Z</time>
</trkpt>
<trkpt lat="45.464258360" lon="6.908250100">
  <ele>2209.100000</ele>
<time>2017-08-15T13:27:43Z</time>
</trkpt>
<trkpt lat="45.464331790" lon="6.908346820">
  <ele>2208.500000</ele>
<time>2017-08-15T13:27:45Z</time>
</trkpt>
<trkpt lat="45.464425160" lon="6.908468360">
  <ele>2207.600000</ele>
<time>2017-08-15T13:27:48Z</time>
</trkpt>
<trkpt lat="45.464510150" lon="6.908590070">
  <ele>2206.800000</ele>
<time>2017-08-15T13:27:51Z</time>
</trkpt>
<trkpt lat="45.464578380" lon="6.908706740">
  <ele>2206.100000</ele>
<time>2017-08-15T13:27:54Z</time>
</trkpt>
<trkpt lat="45.464640070" lon="6.908821740">
  <ele>2205.600000</ele>
<time>2017-08-15T13:27:57Z</time>
</trkpt>
<trkpt lat="45.464713500" lon="6.908933390">
  <ele>2205.100000</ele>
<time>2017-08-15T13:28:00Z</time>
</trkpt>
<trkpt lat="45.464793460" lon="6.909026760">
  <ele>2204.800000</ele>
<time>2017-08-15T13:28:03Z</time>
</trkpt>
<trkpt lat="45.464893370" lon="6.909086780">
  <ele>2204.400000</ele>
<time>2017-08-15T13:28:07Z</time>
</trkpt>
<trkpt lat="45.464980040" lon="6.909130030">
  <ele>2204.200000</ele>
<time>2017-08-15T13:28:10Z</time>
</trkpt>
<trkpt lat="45.465093370" lon="6.909175120">
  <ele>2203.900000</ele>
<time>2017-08-15T13:28:14Z</time>
</trkpt>
<trkpt lat="45.465198480" lon="6.909210160">
  <ele>2203.800000</ele>
<time>2017-08-15T13:28:18Z</time>
</trkpt>
<trkpt lat="45.465298390" lon="6.909241680">
  <ele>2204.000000</ele>
<time>2017-08-15T13:28:23Z</time>
</trkpt>
<trkpt lat="45.465391760" lon="6.909276710">
  <ele>2204.500000</ele>
<time>2017-08-15T13:28:28Z</time>
</trkpt>
<trkpt lat="45.465483460" lon="6.909293480">
  <ele>2204.800000</ele>
<time>2017-08-15T13:28:32Z</time>
</trkpt>
<trkpt lat="45.465581700" lon="6.909320130">
  <ele>2099.300000</ele>
<time>2017-08-15T13:43:21Z</time>
</trkpt>
<trkpt lat="45.465690160" lon="6.909261790">
  <ele>2098.800000</ele>
<time>2017-08-15T13:43:25Z</time>
</trkpt>
<trkpt lat="45.465761740" lon="6.909161710">
  <ele>2098.300000</ele>
<time>2017-08-15T13:43:29Z</time>
</trkpt>
<trkpt lat="45.465801810" lon="6.909011680">
  <ele>2097.800000</ele>
<time>2017-08-15T13:43:34Z</time>
</trkpt>
<trkpt lat="45.465850090" lon="6.908863480">
  <ele>2097.500000</ele>
<time>2017-08-15T13:43:38Z</time>
</trkpt>
<trkpt lat="45.465931720" lon="6.908796760">
  <ele>2096.800000</ele>
<time>2017-08-15T13:43:47Z</time>
</trkpt>
<trkpt lat="45.466041700" lon="6.908806820">
  <ele>2096.400000</ele>
<time>2017-08-15T13:43:51Z</time>
</trkpt>
<trkpt lat="45.466145130" lon="6.908861810">
  <ele>2096.000000</ele>
<time>2017-08-15T13:43:54Z</time>
</trkpt>
<trkpt lat="45.466271690" lon="6.908898350">
  <ele>2095.600000</ele>
<time>2017-08-15T13:43:57Z</time>
</trkpt>
<trkpt lat="45.466371770" lon="6.908885110">
  <ele>2095.300000</ele>
<time>2017-08-15T13:43:59Z</time>
</trkpt>
<trkpt lat="45.466466830" lon="6.908861810">
  <ele>2095.000000</ele>
<time>2017-08-15T13:44:01Z</time>
</trkpt>
<trkpt lat="45.466556680" lon="6.908891820">
  <ele>2094.700000</ele>
<time>2017-08-15T13:44:03Z</time>
</trkpt>
<trkpt lat="45.466636810" lon="6.908955020">
  <ele>2094.400000</ele>
<time>2017-08-15T13:44:05Z</time>
</trkpt>
<trkpt lat="45.466718450" lon="6.909076720">
  <ele>2094.100000</ele>
<time>2017-08-15T13:44:08Z</time>
</trkpt>
<trkpt lat="45.466796740" lon="6.909145120">
  <ele>2093.800000</ele>
<time>2017-08-15T13:44:11Z</time>
</trkpt>
<trkpt lat="45.466900000" lon="6.909215020">
  <ele>2093.600000</ele>
<time>2017-08-15T13:44:15Z</time>
</trkpt>
<trkpt lat="45.466990020" lon="6.909273360">
  <ele>2093.400000</ele>
<time>2017-08-15T13:44:18Z</time>
</trkpt>
<trkpt lat="45.467091780" lon="6.909353490">
  <ele>2093.300000</ele>
<time>2017-08-15T13:44:22Z</time>
</trkpt>
<trkpt lat="45.467191690" lon="6.909323480">
  <ele>2093.300000</ele>
<time>2017-08-15T13:44:28Z</time>
</trkpt>
<trkpt lat="45.467256740" lon="6.909181830">
  <ele>2093.200000</ele>
<time>2017-08-15T13:44:31Z</time>
</trkpt>
<trkpt lat="45.467310040" lon="6.909065150">
  <ele>2093.100000</ele>
<time>2017-08-15T13:44:33Z</time>
</trkpt>
<trkpt lat="45.467375090" lon="6.908921820">
  <ele>2092.900000</ele>
<time>2017-08-15T13:44:35Z</time>
</trkpt>
<trkpt lat="45.467488410" lon="6.908776820">
  <ele>2092.700000</ele>
<time>2017-08-15T13:44:37Z</time>
</trkpt>
<trkpt lat="45.467583460" lon="6.908633490">
  <ele>2092.400000</ele>
<time>2017-08-15T13:44:39Z</time>
</trkpt>
<trkpt lat="45.467623360" lon="6.908460150">
  <ele>2092.100000</ele>
<time>2017-08-15T13:44:41Z</time>
</trkpt>
<trkpt lat="45.467666780" lon="6.908320000">
  <ele>2091.700000</ele>
<time>2017-08-15T13:44:43Z</time>
</trkpt>
<trkpt lat="45.467703490" lon="6.908191760">
  <ele>2091.300000</ele>
<time>2017-08-15T13:44:45Z</time>
</trkpt>
<trkpt lat="45.467743390" lon="6.908030160">
  <ele>2090.800000</ele>
<time>2017-08-15T13:44:48Z</time>
</trkpt>
<trkpt lat="45.467785130" lon="6.907911800">
  <ele>2090.300000</ele>
<time>2017-08-15T13:44:52Z</time>
</trkpt>
<trkpt lat="45.467871800" lon="6.907791770">
  <ele>2089.800000</ele>
<time>2017-08-15T13:44:56Z</time>
</trkpt>
<trkpt lat="45.467956790" lon="6.907733440">
  <ele>2089.600000</ele>
<time>2017-08-15T13:44:59Z</time>
</trkpt>
<trkpt lat="45.468055030" lon="6.907745000">
  <ele>2089.300000</ele>
<time>2017-08-15T13:45:02Z</time>
</trkpt>
<trkpt lat="45.468153430" lon="6.907698400">
  <ele>2089.200000</ele>
<time>2017-08-15T13:45:05Z</time>
</trkpt>
<trkpt lat="45.468243450" lon="6.907615080">
  <ele>2089.000000</ele>
<time>2017-08-15T13:45:08Z</time>
</trkpt>
<trkpt lat="45.468326770" lon="6.907528420">
  <ele>2088.900000</ele>
<time>2017-08-15T13:45:11Z</time>
</trkpt>
<trkpt lat="45.468403380" lon="6.907446780">
  <ele>2088.800000</ele>
<time>2017-08-15T13:45:14Z</time>
</trkpt>
<trkpt lat="45.468480160" lon="6.907356750">
  <ele>2088.700000</ele>
<time>2017-08-15T13:45:17Z</time>
</trkpt>
<trkpt lat="45.468561800" lon="6.907275110">
  <ele>2089.100000</ele>
<time>2017-08-15T13:45:21Z</time>
</trkpt>
<trkpt lat="45.468633380" lon="6.907163470">
  <ele>2089.800000</ele>
<time>2017-08-15T13:45:26Z</time>
</trkpt>
<trkpt lat="45.468703450" lon="6.907060030">
  <ele>2090.200000</ele>
<time>2017-08-15T13:45:30Z</time>
</trkpt>
<trkpt lat="45.468778390" lon="6.906973370">
  <ele>2092.400000</ele>
<time>2017-08-15T13:46:41Z</time>
</trkpt>
<trkpt lat="45.468873440" lon="6.906951740">
  <ele>2092.400000</ele>
<time>2017-08-15T13:46:46Z</time>
</trkpt>
<trkpt lat="45.468961780" lon="6.906878480">
  <ele>2092.500000</ele>
<time>2017-08-15T13:46:51Z</time>
</trkpt>
<trkpt lat="45.469041750" lon="6.906800030">
  <ele>2092.500000</ele>
<time>2017-08-15T13:46:55Z</time>
</trkpt>
<trkpt lat="45.469126740" lon="6.906751750">
  <ele>2092.600000</ele>
<time>2017-08-15T13:46:59Z</time>
</trkpt>
<trkpt lat="45.469200160" lon="6.906661730">
  <ele>2092.600000</ele>
<time>2017-08-15T13:47:04Z</time>
</trkpt>
<trkpt lat="45.469216760" lon="6.906533480">
  <ele>2092.700000</ele>
<time>2017-08-15T13:47:09Z</time>
</trkpt>
<trkpt lat="45.469188430" lon="6.906388480">
  <ele>2093.400000</ele>
<time>2017-08-15T13:48:18Z</time>
</trkpt>
<trkpt lat="45.469240060" lon="6.906276830">
  <ele>2093.900000</ele>
<time>2017-08-15T13:48:59Z</time>
</trkpt>
<trkpt lat="45.469295050" lon="6.906175070">
  <ele>2094.000000</ele>
<time>2017-08-15T13:49:04Z</time>
</trkpt>
<trkpt lat="45.469346680" lon="6.906043480">
  <ele>2094.100000</ele>
<time>2017-08-15T13:49:08Z</time>
</trkpt>
<trkpt lat="45.469423460" lon="6.905935020">
  <ele>2095.400000</ele>
<time>2017-08-15T13:49:13Z</time>
</trkpt>
<trkpt lat="45.469498390" lon="6.905825040">
  <ele>2098.100000</ele>
<time>2017-08-15T13:49:18Z</time>
</trkpt>
<trkpt lat="45.469558410" lon="6.905720100">
  <ele>2100.600000</ele>
<time>2017-08-15T13:49:22Z</time>
</trkpt>
<trkpt lat="45.469620100" lon="6.905616670">
  <ele>2102.900000</ele>
<time>2017-08-15T13:49:26Z</time>
</trkpt>
<trkpt lat="45.469681790" lon="6.905513410">
  <ele>2105.100000</ele>
<time>2017-08-15T13:49:30Z</time>
</trkpt>
<trkpt lat="45.469741800" lon="6.905408460">
  <ele>2107.200000</ele>
<time>2017-08-15T13:49:34Z</time>
</trkpt>
<trkpt lat="45.469798460" lon="6.905300000">
  <ele>2109.300000</ele>
<time>2017-08-15T13:49:38Z</time>
</trkpt>
<trkpt lat="45.469856800" lon="6.905195060">
  <ele>2111.600000</ele>
<time>2017-08-15T13:49:42Z</time>
</trkpt>
<trkpt lat="45.469916820" lon="6.905090120">
  <ele>2113.900000</ele>
<time>2017-08-15T13:49:46Z</time>
</trkpt>
<trkpt lat="45.469976830" lon="6.904983330">
  <ele>2116.200000</ele>
<time>2017-08-15T13:49:50Z</time>
</trkpt>
<trkpt lat="45.470035000" lon="6.904878390">
  <ele>2118.600000</ele>
<time>2017-08-15T13:49:54Z</time>
</trkpt>
<trkpt lat="45.470093340" lon="6.904776800">
  <ele>2121.100000</ele>
<time>2017-08-15T13:49:58Z</time>
</trkpt>
<trkpt lat="45.470151680" lon="6.904675050">
  <ele>2123.800000</ele>
<time>2017-08-15T13:50:02Z</time>
</trkpt>
<trkpt lat="45.470211690" lon="6.904578490">
  <ele>2126.600000</ele>
<time>2017-08-15T13:50:06Z</time>
</trkpt>
<trkpt lat="45.470270030" lon="6.904466670">
  <ele>2129.100000</ele>
<time>2017-08-15T13:50:10Z</time>
</trkpt>
<trkpt lat="45.470328370" lon="6.904355030">
  <ele>2131.400000</ele>
<time>2017-08-15T13:50:14Z</time>
</trkpt>
<trkpt lat="45.470385030" lon="6.904248410">
  <ele>2133.500000</ele>
<time>2017-08-15T13:50:18Z</time>
</trkpt>
<trkpt lat="45.470445040" lon="6.904141790">
  <ele>2135.500000</ele>
<time>2017-08-15T13:50:22Z</time>
</trkpt>
<trkpt lat="45.470505060" lon="6.904031820">
  <ele>2137.500000</ele>
<time>2017-08-15T13:50:26Z</time>
</trkpt>
<trkpt lat="45.470563400" lon="6.903926710">
  <ele>2139.600000</ele>
<time>2017-08-15T13:50:30Z</time>
</trkpt>
<trkpt lat="45.470620060" lon="6.903823450">
  <ele>2141.500000</ele>
<time>2017-08-15T13:50:34Z</time>
</trkpt>
<trkpt lat="45.470675040" lon="6.903711800">
  <ele>2143.500000</ele>
<time>2017-08-15T13:50:38Z</time>
</trkpt>
<trkpt lat="45.470736730" lon="6.903605010">
  <ele>2145.500000</ele>
<time>2017-08-15T13:50:42Z</time>
</trkpt>
<trkpt lat="45.470795070" lon="6.903496720">
  <ele>2147.500000</ele>
<time>2017-08-15T13:50:46Z</time>
</trkpt>
<trkpt lat="45.470851730" lon="6.903390100">
  <ele>2149.700000</ele>
<time>2017-08-15T13:50:50Z</time>
</trkpt>
<trkpt lat="45.470911750" lon="6.903285160">
  <ele>2151.900000</ele>
<time>2017-08-15T13:50:54Z</time>
</trkpt>
<trkpt lat="45.470968410" lon="6.903176700">
  <ele>2154.400000</ele>
<time>2017-08-15T13:50:58Z</time>
</trkpt>
<trkpt lat="45.471023400" lon="6.903071760">
  <ele>2157.100000</ele>
<time>2017-08-15T13:51:02Z</time>
</trkpt>
<trkpt lat="45.471081730" lon="6.902970000">
  <ele>2159.800000</ele>
<time>2017-08-15T13:51:06Z</time>
</trkpt>
<trkpt lat="45.471136720" lon="6.902866740">
  <ele>2162.600000</ele>
<time>2017-08-15T13:51:10Z</time>
</trkpt>
<trkpt lat="45.471193380" lon="6.902760120">
  <ele>2165.600000</ele>
<time>2017-08-15T13:51:14Z</time>
</trkpt>
<trkpt lat="45.471251720" lon="6.902660040">
  <ele>2168.700000</ele>
<time>2017-08-15T13:51:18Z</time>
</trkpt>
<trkpt lat="45.471308380" lon="6.902560130">
  <ele>2171.900000</ele>
<time>2017-08-15T13:51:22Z</time>
</trkpt>
<trkpt lat="45.471361690" lon="6.902455020">
  <ele>2175.200000</ele>
<time>2017-08-15T13:51:26Z</time>
</trkpt>
<trkpt lat="45.471431760" lon="6.902333480">
  <ele>2179.800000</ele>
<time>2017-08-15T13:51:31Z</time>
</trkpt>
<trkpt lat="45.471508370" lon="6.902213450">
  <ele>2184.700000</ele>
<time>2017-08-15T13:51:36Z</time>
</trkpt>
<trkpt lat="45.471586830" lon="6.902100130">
  <ele>2189.900000</ele>
<time>2017-08-15T13:51:41Z</time>
</trkpt>
<trkpt lat="45.471651700" lon="6.901978420">
  <ele>2195.300000</ele>
<time>2017-08-15T13:51:46Z</time>
</trkpt>
<trkpt lat="45.471718420" lon="6.901860070">
  <ele>2201.000000</ele>
<time>2017-08-15T13:51:51Z</time>
</trkpt>
<trkpt lat="45.471785140" lon="6.901745070">
  <ele>2206.800000</ele>
<time>2017-08-15T13:51:56Z</time>
</trkpt>
<trkpt lat="45.471850020" lon="6.901626720">
  <ele>2212.800000</ele>
<time>2017-08-15T13:52:01Z</time>
</trkpt>
<trkpt lat="45.471908360" lon="6.901525130">
  <ele>2217.400000</ele>
<time>2017-08-15T13:52:05Z</time>
</trkpt>
<trkpt lat="45.471978430" lon="6.901401750">
  <ele>2222.900000</ele>
<time>2017-08-15T13:52:10Z</time>
</trkpt>
<trkpt lat="45.472046830" lon="6.901278370">
  <ele>2228.200000</ele>
<time>2017-08-15T13:52:15Z</time>
</trkpt>
<trkpt lat="45.472105160" lon="6.901178450">
  <ele>2232.400000</ele>
<time>2017-08-15T13:52:19Z</time>
</trkpt>
<trkpt lat="45.472173390" lon="6.901055070">
  <ele>2237.800000</ele>
<time>2017-08-15T13:52:24Z</time>
</trkpt>
<trkpt lat="45.472241790" lon="6.900931690">
  <ele>2243.300000</ele>
<time>2017-08-15T13:52:29Z</time>
</trkpt>
<trkpt lat="45.472310020" lon="6.900808480">
  <ele>2248.700000</ele>
<time>2017-08-15T13:52:34Z</time>
</trkpt>
<trkpt lat="45.472375060" lon="6.900686770">
  <ele>2254.500000</ele>
<time>2017-08-15T13:52:39Z</time>
</trkpt>
<trkpt lat="45.472435080" lon="6.900566740">
  <ele>2260.500000</ele>
<time>2017-08-15T13:52:44Z</time>
</trkpt>
<trkpt lat="45.472501800" lon="6.900448390">
  <ele>2266.300000</ele>
<time>2017-08-15T13:52:49Z</time>
</trkpt>
<trkpt lat="45.472571700" lon="6.900335070">
  <ele>2272.400000</ele>
<time>2017-08-15T13:52:54Z</time>
</trkpt>
<trkpt lat="45.472636740" lon="6.900215040">
  <ele>2278.700000</ele>
<time>2017-08-15T13:52:59Z</time>
</trkpt>
<trkpt lat="45.472700110" lon="6.900100040">
  <ele>2285.100000</ele>
<time>2017-08-15T13:53:04Z</time>
</trkpt>
<trkpt lat="45.472761800" lon="6.899983360">
  <ele>2291.500000</ele>
<time>2017-08-15T13:53:09Z</time>
</trkpt>
<trkpt lat="45.472823490" lon="6.899865010">
  <ele>2298.600000</ele>
<time>2017-08-15T13:53:14Z</time>
</trkpt>
<trkpt lat="45.472883340" lon="6.899756710">
  <ele>2305.600000</ele>
<time>2017-08-15T13:53:19Z</time>
</trkpt>
<trkpt lat="45.472948380" lon="6.899648420">
  <ele>2312.700000</ele>
<time>2017-08-15T13:53:24Z</time>
</trkpt>
<trkpt lat="45.473010070" lon="6.899541800">
  <ele>2319.900000</ele>
<time>2017-08-15T13:53:29Z</time>
</trkpt>
<trkpt lat="45.473083500" lon="6.899420100">
  <ele>2326.900000</ele>
<time>2017-08-15T13:53:34Z</time>
</trkpt>
<trkpt lat="45.473153400" lon="6.899298390">
  <ele>2333.800000</ele>
<time>2017-08-15T13:53:39Z</time>
</trkpt>
<trkpt lat="45.473220120" lon="6.899173330">
  <ele>2340.200000</ele>
<time>2017-08-15T13:53:44Z</time>
</trkpt>
<trkpt lat="45.473278460" lon="6.899066720">
  <ele>2352.400000</ele>
<time>2017-08-15T13:53:57Z</time>
</trkpt>
<trkpt lat="45.473343340" lon="6.898956750">
  <ele>2358.100000</ele>
<time>2017-08-15T13:54:05Z</time>
</trkpt>
<trkpt lat="45.473408380" lon="6.898841750">
  <ele>2362.400000</ele>
<time>2017-08-15T13:54:10Z</time>
</trkpt>
<trkpt lat="45.473471750" lon="6.898721720">
  <ele>2367.300000</ele>
<time>2017-08-15T13:54:15Z</time>
</trkpt>
<trkpt lat="45.473540150" lon="6.898601690">
  <ele>2372.400000</ele>
<time>2017-08-15T13:54:20Z</time>
</trkpt>
<trkpt lat="45.473595130" lon="6.898500100">
  <ele>2376.400000</ele>
<time>2017-08-15T13:54:24Z</time>
</trkpt>
<trkpt lat="45.473665040" lon="6.898376720">
  <ele>2381.200000</ele>
<time>2017-08-15T13:54:29Z</time>
</trkpt>
<trkpt lat="45.473726730" lon="6.898270100">
  <ele>2384.700000</ele>
<time>2017-08-15T13:54:33Z</time>
</trkpt>
<trkpt lat="45.473785070" lon="6.898163480">
  <ele>2387.900000</ele>
<time>2017-08-15T13:54:37Z</time>
</trkpt>
<trkpt lat="45.473843400" lon="6.898056700">
  <ele>2390.800000</ele>
<time>2017-08-15T13:54:41Z</time>
</trkpt>
<trkpt lat="45.473898390" lon="6.897946730">
  <ele>2393.600000</ele>
<time>2017-08-15T13:54:45Z</time>
</trkpt>
<trkpt lat="45.473960080" lon="6.897838430">
  <ele>2396.300000</ele>
<time>2017-08-15T13:54:49Z</time>
</trkpt>
<trkpt lat="45.474021770" lon="6.897731810">
  <ele>2398.900000</ele>
<time>2017-08-15T13:54:53Z</time>
</trkpt>
<trkpt lat="45.474083460" lon="6.897626710">
  <ele>2401.300000</ele>
<time>2017-08-15T13:54:57Z</time>
</trkpt>
<trkpt lat="45.474143480" lon="6.897521760">
  <ele>2403.800000</ele>
<time>2017-08-15T13:55:01Z</time>
</trkpt>
<trkpt lat="45.474203490" lon="6.897416820">
  <ele>2406.300000</ele>
<time>2017-08-15T13:55:05Z</time>
</trkpt>
<trkpt lat="45.474263340" lon="6.897311710">
  <ele>2408.800000</ele>
<time>2017-08-15T13:55:09Z</time>
</trkpt>
<trkpt lat="45.474321670" lon="6.897203420">
  <ele>2411.400000</ele>
<time>2017-08-15T13:55:13Z</time>
</trkpt>
<trkpt lat="45.474375150" lon="6.897098480">
  <ele>2414.100000</ele>
<time>2017-08-15T13:55:17Z</time>
</trkpt>
<trkpt lat="45.474431810" lon="6.896998400">
  <ele>2416.700000</ele>
<time>2017-08-15T13:55:21Z</time>
</trkpt>
<trkpt lat="45.474488470" lon="6.896893460">
  <ele>2419.500000</ele>
<time>2017-08-15T13:55:25Z</time>
</trkpt>
<trkpt lat="45.474548490" lon="6.896790020">
  <ele>2422.500000</ele>
<time>2017-08-15T13:55:29Z</time>
</trkpt>
<trkpt lat="45.474605150" lon="6.896688440">
  <ele>2425.700000</ele>
<time>2017-08-15T13:55:33Z</time>
</trkpt>
<trkpt lat="45.474660140" lon="6.896585000">
  <ele>2428.800000</ele>
<time>2017-08-15T13:55:37Z</time>
</trkpt>
<trkpt lat="45.474715120" lon="6.896480060">
  <ele>2432.100000</ele>
<time>2017-08-15T13:55:41Z</time>
</trkpt>
<trkpt lat="45.474771780" lon="6.896378470">
  <ele>2435.400000</ele>
<time>2017-08-15T13:55:45Z</time>
</trkpt>
<trkpt lat="45.474831800" lon="6.896276720">
  <ele>2438.800000</ele>
<time>2017-08-15T13:55:49Z</time>
</trkpt>
<trkpt lat="45.474898350" lon="6.896146800">
  <ele>2443.300000</ele>
<time>2017-08-15T13:55:54Z</time>
</trkpt>
<trkpt lat="45.474966750" lon="6.896020060">
  <ele>2447.900000</ele>
<time>2017-08-15T13:55:59Z</time>
</trkpt>
<trkpt lat="45.475025080" lon="6.895920150">
  <ele>2451.800000</ele>
<time>2017-08-15T13:56:03Z</time>
</trkpt>
<trkpt lat="45.475095160" lon="6.895795090">
  <ele>2456.800000</ele>
<time>2017-08-15T13:56:08Z</time>
</trkpt>
<trkpt lat="45.475165060" lon="6.895675060">
  <ele>2461.900000</ele>
<time>2017-08-15T13:56:13Z</time>
</trkpt>
<trkpt lat="45.475233460" lon="6.895550010">
  <ele>2467.200000</ele>
<time>2017-08-15T13:56:18Z</time>
</trkpt>
<trkpt lat="45.475291800" lon="6.895451770">
  <ele>2471.500000</ele>
<time>2017-08-15T13:56:22Z</time>
</trkpt>
<trkpt lat="45.475360020" lon="6.895330060">
  <ele>2477.100000</ele>
<time>2017-08-15T13:56:27Z</time>
</trkpt>
<trkpt lat="45.475423390" lon="6.895210040">
  <ele>2482.700000</ele>
<time>2017-08-15T13:56:32Z</time>
</trkpt>
<trkpt lat="45.475488440" lon="6.895091680">
  <ele>2488.700000</ele>
<time>2017-08-15T13:56:37Z</time>
</trkpt>
<trkpt lat="45.475551800" lon="6.894970150">
  <ele>2494.800000</ele>
<time>2017-08-15T13:56:42Z</time>
</trkpt>
<trkpt lat="45.475615000" lon="6.894850120">
  <ele>2501.100000</ele>
<time>2017-08-15T13:56:47Z</time>
</trkpt>
<trkpt lat="45.475683400" lon="6.894728410">
  <ele>2507.200000</ele>
<time>2017-08-15T13:56:52Z</time>
</trkpt>
<trkpt lat="45.475751790" lon="6.894605030">
  <ele>2512.800000</ele>
<time>2017-08-15T13:56:57Z</time>
</trkpt>
<trkpt lat="45.475808460" lon="6.894503440">
  <ele>2517.300000</ele>
<time>2017-08-15T13:57:01Z</time>
</trkpt>
<trkpt lat="45.475866790" lon="6.894401680">
  <ele>2521.400000</ele>
<time>2017-08-15T13:57:05Z</time>
</trkpt>
<trkpt lat="45.475926810" lon="6.894295070">
  <ele>2525.200000</ele>
<time>2017-08-15T13:57:09Z</time>
</trkpt>
<trkpt lat="45.475988500" lon="6.894185100">
  <ele>2528.400000</ele>
<time>2017-08-15T13:57:13Z</time>
</trkpt>
<trkpt lat="45.476046670" lon="6.894073450">
  <ele>2530.900000</ele>
<time>2017-08-15T13:57:17Z</time>
</trkpt>
<trkpt lat="45.476108360" lon="6.893970020">
  <ele>2532.900000</ele>
<time>2017-08-15T13:57:21Z</time>
</trkpt>
<trkpt lat="45.476171730" lon="6.893878490">
  <ele>2535.400000</ele>
<time>2017-08-15T13:57:28Z</time>
</trkpt>
<trkpt lat="45.476228390" lon="6.893756780">
  <ele>2537.800000</ele>
<time>2017-08-15T13:57:40Z</time>
</trkpt>
<trkpt lat="45.476316740" lon="6.893788460">
  <ele>2537.700000</ele>
<time>2017-08-15T14:00:56Z</time>
</trkpt>
<trkpt lat="45.476311710" lon="6.893936820">
  <ele>2537.800000</ele>
<time>2017-08-15T14:01:15Z</time>
</trkpt>
<trkpt lat="45.476255040" lon="6.894045120">
  <ele>2537.800000</ele>
<time>2017-08-15T14:01:18Z</time>
</trkpt>
<trkpt lat="45.476208440" lon="6.894223490">
  <ele>2537.500000</ele>
<time>2017-08-15T14:01:21Z</time>
</trkpt>
<trkpt lat="45.476246830" lon="6.894360110">
  <ele>2537.200000</ele>
<time>2017-08-15T14:01:23Z</time>
</trkpt>
<trkpt lat="45.476343390" lon="6.894496740">
  <ele>2536.900000</ele>
<time>2017-08-15T14:01:25Z</time>
</trkpt>
<trkpt lat="45.476468450" lon="6.894631680">
  <ele>2536.600000</ele>
<time>2017-08-15T14:01:27Z</time>
</trkpt>
<trkpt lat="45.476575070" lon="6.894678450">
  <ele>2535.800000</ele>
<time>2017-08-15T14:01:29Z</time>
</trkpt>
<trkpt lat="45.476663410" lon="6.894616760">
  <ele>2535.200000</ele>
<time>2017-08-15T14:01:31Z</time>
</trkpt>
<trkpt lat="45.476793500" lon="6.894610060">
  <ele>2534.400000</ele>
<time>2017-08-15T14:01:34Z</time>
</trkpt>
<trkpt lat="45.476883350" lon="6.894621790">
  <ele>2534.000000</ele>
<time>2017-08-15T14:01:36Z</time>
</trkpt>
<trkpt lat="45.476971700" lon="6.894596820">
  <ele>2533.400000</ele>
<time>2017-08-15T14:01:38Z</time>
</trkpt>
<trkpt lat="45.477065070" lon="6.894616760">
  <ele>2532.700000</ele>
<time>2017-08-15T14:01:40Z</time>
</trkpt>
<trkpt lat="45.477143360" lon="6.894525070">
  <ele>2532.100000</ele>
<time>2017-08-15T14:01:43Z</time>
</trkpt>
<trkpt lat="45.477140010" lon="6.894385090">
  <ele>2531.700000</ele>
<time>2017-08-15T14:01:45Z</time>
</trkpt>
<trkpt lat="45.477200020" lon="6.894266740">
  <ele>2531.200000</ele>
<time>2017-08-15T14:01:47Z</time>
</trkpt>
<trkpt lat="45.477255010" lon="6.894150060">
  <ele>2530.600000</ele>
<time>2017-08-15T14:01:49Z</time>
</trkpt>
<trkpt lat="45.477343350" lon="6.894056690">
  <ele>2529.900000</ele>
<time>2017-08-15T14:01:52Z</time>
</trkpt>
<trkpt lat="45.477448460" lon="6.894026680">
  <ele>2529.300000</ele>
<time>2017-08-15T14:01:54Z</time>
</trkpt>
<trkpt lat="45.477556750" lon="6.893980070">
  <ele>2528.800000</ele>
<time>2017-08-15T14:01:56Z</time>
</trkpt>
<trkpt lat="45.477596820" lon="6.893793490">
  <ele>2527.800000</ele>
<time>2017-08-15T14:01:59Z</time>
</trkpt>
<trkpt lat="45.477630010" lon="6.893653350">
  <ele>2527.100000</ele>
<time>2017-08-15T14:02:01Z</time>
</trkpt>
<trkpt lat="45.477631690" lon="6.893511690">
  <ele>2526.500000</ele>
<time>2017-08-15T14:02:03Z</time>
</trkpt>
<trkpt lat="45.477623470" lon="6.893356800">
  <ele>2525.900000</ele>
<time>2017-08-15T14:02:05Z</time>
</trkpt>
<trkpt lat="45.477690030" lon="6.893208440">
  <ele>2524.900000</ele>
<time>2017-08-15T14:02:08Z</time>
</trkpt>
<trkpt lat="45.477783400" lon="6.893140040">
  <ele>2524.300000</ele>
<time>2017-08-15T14:02:10Z</time>
</trkpt>
<trkpt lat="45.477881800" lon="6.893076670">
  <ele>2523.700000</ele>
<time>2017-08-15T14:02:12Z</time>
</trkpt>
<trkpt lat="45.477976690" lon="6.892995030">
  <ele>2522.700000</ele>
<time>2017-08-15T14:02:15Z</time>
</trkpt>
<trkpt lat="45.478061680" lon="6.892886740">
  <ele>2521.800000</ele>
<time>2017-08-15T14:02:18Z</time>
</trkpt>
<trkpt lat="45.478063360" lon="6.892750110">
  <ele>2521.100000</ele>
<time>2017-08-15T14:02:21Z</time>
</trkpt>
<trkpt lat="45.477958410" lon="6.892623380">
  <ele>2520.300000</ele>
<time>2017-08-15T14:02:24Z</time>
</trkpt>
<trkpt lat="45.478031670" lon="6.892495140">
  <ele>2519.500000</ele>
<time>2017-08-15T14:02:27Z</time>
</trkpt>
<trkpt lat="45.477966800" lon="6.892341750">
  <ele>2518.400000</ele>
<time>2017-08-15T14:02:31Z</time>
</trkpt>
<trkpt lat="45.477951710" lon="6.892198420">
  <ele>2517.700000</ele>
<time>2017-08-15T14:02:33Z</time>
</trkpt>
<trkpt lat="45.477948360" lon="6.892045030">
  <ele>2517.100000</ele>
<time>2017-08-15T14:02:35Z</time>
</trkpt>
<trkpt lat="45.477923380" lon="6.891888450">
  <ele>2516.500000</ele>
<time>2017-08-15T14:02:37Z</time>
</trkpt>
<trkpt lat="45.477883480" lon="6.891755010">
  <ele>2515.800000</ele>
<time>2017-08-15T14:02:39Z</time>
</trkpt>
<trkpt lat="45.477840060" lon="6.891640010">
  <ele>2515.200000</ele>
<time>2017-08-15T14:02:41Z</time>
</trkpt>
<trkpt lat="45.477795140" lon="6.891523340">
  <ele>2514.700000</ele>
<time>2017-08-15T14:02:43Z</time>
</trkpt>
<trkpt lat="45.477745010" lon="6.891413370">
  <ele>2514.300000</ele>
<time>2017-08-15T14:02:45Z</time>
</trkpt>
<trkpt lat="45.477775020" lon="6.891228460">
  <ele>2513.800000</ele>
<time>2017-08-15T14:02:48Z</time>
</trkpt>
<trkpt lat="45.477833360" lon="6.891123350">
  <ele>2513.500000</ele>
<time>2017-08-15T14:02:50Z</time>
</trkpt>
<trkpt lat="45.477898400" lon="6.890978350">
  <ele>2513.000000</ele>
<time>2017-08-15T14:02:53Z</time>
</trkpt>
<trkpt lat="45.477945000" lon="6.890808360">
  <ele>2512.800000</ele>
<time>2017-08-15T14:02:56Z</time>
</trkpt>
<trkpt lat="45.477990100" lon="6.890681800">
  <ele>2512.700000</ele>
<time>2017-08-15T14:02:59Z</time>
</trkpt>
<trkpt lat="45.478023460" lon="6.890523380">
  <ele>2512.600000</ele>
<time>2017-08-15T14:03:03Z</time>
</trkpt>
<trkpt lat="45.478060000" lon="6.890341830">
  <ele>2512.500000</ele>
<time>2017-08-15T14:03:06Z</time>
</trkpt>
<trkpt lat="45.478170140" lon="6.890273430">
  <ele>2512.400000</ele>
<time>2017-08-15T14:03:08Z</time>
</trkpt>
<trkpt lat="45.478246750" lon="6.890143340">
  <ele>2512.200000</ele>
<time>2017-08-15T14:03:10Z</time>
</trkpt>
<trkpt lat="45.478330070" lon="6.890063380">
  <ele>2511.800000</ele>
<time>2017-08-15T14:03:12Z</time>
</trkpt>
<trkpt lat="45.478438360" lon="6.890040080">
  <ele>2511.500000</ele>
<time>2017-08-15T14:03:14Z</time>
</trkpt>
<trkpt lat="45.478535090" lon="6.889961790">
  <ele>2511.200000</ele>
<time>2017-08-15T14:03:16Z</time>
</trkpt>
<trkpt lat="45.478633490" lon="6.890011750">
  <ele>2510.800000</ele>
<time>2017-08-15T14:03:18Z</time>
</trkpt>
<trkpt lat="45.478741790" lon="6.890006720">
  <ele>2510.200000</ele>
<time>2017-08-15T14:03:21Z</time>
</trkpt>
<trkpt lat="45.478826780" lon="6.889955080">
  <ele>2509.700000</ele>
<time>2017-08-15T14:03:23Z</time>
</trkpt>
<trkpt lat="45.478908420" lon="6.889885010">
  <ele>2509.300000</ele>
<time>2017-08-15T14:03:25Z</time>
</trkpt>
<trkpt lat="45.479013360" lon="6.889868420">
  <ele>2508.800000</ele>
<time>2017-08-15T14:03:27Z</time>
</trkpt>
<trkpt lat="45.478918480" lon="6.889800020">
  <ele>2507.900000</ele>
<time>2017-08-15T14:03:31Z</time>
</trkpt>
<trkpt lat="45.478816720" lon="6.889741680">
  <ele>2507.300000</ele>
<time>2017-08-15T14:03:34Z</time>
</trkpt>
<trkpt lat="45.478855110" lon="6.889586780">
  <ele>2507.000000</ele>
<time>2017-08-15T14:03:36Z</time>
</trkpt>
<trkpt lat="45.478873380" lon="6.889430040">
  <ele>2506.600000</ele>
<time>2017-08-15T14:03:38Z</time>
</trkpt>
<trkpt lat="45.478868350" lon="6.889261730">
  <ele>2506.100000</ele>
<time>2017-08-15T14:03:40Z</time>
</trkpt>
<trkpt lat="45.478810020" lon="6.889116730">
  <ele>2505.600000</ele>
<time>2017-08-15T14:03:42Z</time>
</trkpt>
<trkpt lat="45.478741790" lon="6.888986810">
  <ele>2505.200000</ele>
<time>2017-08-15T14:03:44Z</time>
</trkpt>
<trkpt lat="45.478665010" lon="6.888863430">
  <ele>2504.800000</ele>
<time>2017-08-15T14:03:46Z</time>
</trkpt>
<trkpt lat="45.478603490" lon="6.888721770">
  <ele>2504.400000</ele>
<time>2017-08-15T14:03:48Z</time>
</trkpt>
<trkpt lat="45.478540120" lon="6.888573410">
  <ele>2503.900000</ele>
<time>2017-08-15T14:03:50Z</time>
</trkpt>
<trkpt lat="45.478465020" lon="6.888420020">
  <ele>2503.500000</ele>
<time>2017-08-15T14:03:52Z</time>
</trkpt>
<trkpt lat="45.478421770" lon="6.888286750">
  <ele>2502.900000</ele>
<time>2017-08-15T14:03:54Z</time>
</trkpt>
<trkpt lat="45.478423440" lon="6.888141740">
  <ele>2502.300000</ele>
<time>2017-08-15T14:03:57Z</time>
</trkpt>
<trkpt lat="45.478395110" lon="6.888000090">
  <ele>2499.400000</ele>
<time>2017-08-15T14:04:42Z</time>
</trkpt>
<trkpt lat="45.478358400" lon="6.887805130">
  <ele>2499.300000</ele>
<time>2017-08-15T14:04:45Z</time>
</trkpt>
<trkpt lat="45.478336770" lon="6.887605130">
  <ele>2499.200000</ele>
<time>2017-08-15T14:04:47Z</time>
</trkpt>
<trkpt lat="45.478328390" lon="6.887376810">
  <ele>2498.900000</ele>
<time>2017-08-15T14:04:49Z</time>
</trkpt>
<trkpt lat="45.478336770" lon="6.887161730">
  <ele>2498.500000</ele>
<time>2017-08-15T14:04:51Z</time>
</trkpt>
<trkpt lat="45.478341800" lon="6.886950000">
  <ele>2498.400000</ele>
<time>2017-08-15T14:04:53Z</time>
</trkpt>
<trkpt lat="45.478358400" lon="6.886753370">
  <ele>2497.800000</ele>
<time>2017-08-15T14:04:55Z</time>
</trkpt>
<trkpt lat="45.478276760" lon="6.886840030">
  <ele>2495.400000</ele>
<time>2017-08-15T14:05:00Z</time>
</trkpt>
<trkpt lat="45.478226800" lon="6.887013370">
  <ele>2494.500000</ele>
<time>2017-08-15T14:05:02Z</time>
</trkpt>
<trkpt lat="45.478161760" lon="6.887173470">
  <ele>2493.600000</ele>
<time>2017-08-15T14:05:04Z</time>
</trkpt>
<trkpt lat="45.478081800" lon="6.887308420">
  <ele>2492.500000</ele>
<time>2017-08-15T14:05:06Z</time>
</trkpt>
<trkpt lat="45.478000160" lon="6.887418390">
  <ele>2491.300000</ele>
<time>2017-08-15T14:05:08Z</time>
</trkpt>
<trkpt lat="45.477881800" lon="6.887510080">
  <ele>2490.100000</ele>
<time>2017-08-15T14:05:10Z</time>
</trkpt>
<trkpt lat="45.477773340" lon="6.887518470">
  <ele>2488.900000</ele>
<time>2017-08-15T14:05:12Z</time>
</trkpt>
<trkpt lat="45.477825140" lon="6.887396760">
  <ele>2487.200000</ele>
<time>2017-08-15T14:05:15Z</time>
</trkpt>
<trkpt lat="45.477895050" lon="6.887291820">
  <ele>2486.200000</ele>
<time>2017-08-15T14:05:17Z</time>
</trkpt>
<trkpt lat="45.477940140" lon="6.887155030">
  <ele>2485.300000</ele>
<time>2017-08-15T14:05:19Z</time>
</trkpt>
<trkpt lat="45.477996800" lon="6.887013370">
  <ele>2484.500000</ele>
<time>2017-08-15T14:05:21Z</time>
</trkpt>
<trkpt lat="45.478038380" lon="6.886850090">
  <ele>2483.600000</ele>
<time>2017-08-15T14:05:23Z</time>
</trkpt>
<trkpt lat="45.478041730" lon="6.886666700">
  <ele>2482.600000</ele>
<time>2017-08-15T14:05:25Z</time>
</trkpt>
<trkpt lat="45.478035030" lon="6.886465030">
  <ele>2481.600000</ele>
<time>2017-08-15T14:05:27Z</time>
</trkpt>
<trkpt lat="45.478053470" lon="6.886236700">
  <ele>2480.400000</ele>
<time>2017-08-15T14:05:29Z</time>
</trkpt>
<trkpt lat="45.478070060" lon="6.886013410">
  <ele>2479.300000</ele>
<time>2017-08-15T14:05:31Z</time>
</trkpt>
<trkpt lat="45.478005020" lon="6.885850130">
  <ele>2478.300000</ele>
<time>2017-08-15T14:05:33Z</time>
</trkpt>
<trkpt lat="45.477908460" lon="6.885780060">
  <ele>2477.400000</ele>
<time>2017-08-15T14:05:35Z</time>
</trkpt>
<trkpt lat="45.477833360" lon="6.885646790">
  <ele>2476.400000</ele>
<time>2017-08-15T14:05:38Z</time>
</trkpt>
<trkpt lat="45.477720030" lon="6.885613430">
  <ele>2475.700000</ele>
<time>2017-08-15T14:05:41Z</time>
</trkpt>
<trkpt lat="45.477626830" lon="6.885568500">
  <ele>2475.200000</ele>
<time>2017-08-15T14:05:43Z</time>
</trkpt>
<trkpt lat="45.477605030" lon="6.885410080">
  <ele>2474.800000</ele>
<time>2017-08-15T14:05:45Z</time>
</trkpt>
<trkpt lat="45.477668400" lon="6.885271780">
  <ele>2474.300000</ele>
<time>2017-08-15T14:05:47Z</time>
</trkpt>
<trkpt lat="45.477780050" lon="6.885241770">
  <ele>2473.800000</ele>
<time>2017-08-15T14:05:49Z</time>
</trkpt>
<trkpt lat="45.477885160" lon="6.885180080">
  <ele>2473.300000</ele>
<time>2017-08-15T14:05:51Z</time>
</trkpt>
<trkpt lat="45.477961770" lon="6.885076820">
  <ele>2472.700000</ele>
<time>2017-08-15T14:05:53Z</time>
</trkpt>
<trkpt lat="45.478025130" lon="6.884958460">
  <ele>2472.200000</ele>
<time>2017-08-15T14:05:55Z</time>
</trkpt>
<trkpt lat="45.478103420" lon="6.884855030">
  <ele>2471.700000</ele>
<time>2017-08-15T14:05:57Z</time>
</trkpt>
<trkpt lat="45.478176680" lon="6.884780100">
  <ele>2471.200000</ele>
<time>2017-08-15T14:05:59Z</time>
</trkpt>
<trkpt lat="45.478100070" lon="6.884700130">
  <ele>2470.400000</ele>
<time>2017-08-15T14:06:03Z</time>
</trkpt>
<trkpt lat="45.477971830" lon="6.884708350">
  <ele>2469.700000</ele>
<time>2017-08-15T14:06:05Z</time>
</trkpt>
<trkpt lat="45.477826820" lon="6.884656720">
  <ele>2468.900000</ele>
<time>2017-08-15T14:06:07Z</time>
</trkpt>
<trkpt lat="45.477678460" lon="6.884616820">
  <ele>2468.000000</ele>
<time>2017-08-15T14:06:09Z</time>
</trkpt>
<trkpt lat="45.477560110" lon="6.884573400">
  <ele>2467.100000</ele>
<time>2017-08-15T14:06:11Z</time>
</trkpt>
<trkpt lat="45.477661700" lon="6.884506680">
  <ele>2465.900000</ele>
<time>2017-08-15T14:06:14Z</time>
</trkpt>
<trkpt lat="45.477783400" lon="6.884495110">
  <ele>2465.100000</ele>
<time>2017-08-15T14:06:16Z</time>
</trkpt>
<trkpt lat="45.477886830" lon="6.884435100">
  <ele>2464.500000</ele>
<time>2017-08-15T14:06:18Z</time>
</trkpt>
<trkpt lat="45.477931760" lon="6.884311720">
  <ele>2464.000000</ele>
<time>2017-08-15T14:06:20Z</time>
</trkpt>
<trkpt lat="45.477916670" lon="6.884163360">
  <ele>2463.500000</ele>
<time>2017-08-15T14:06:22Z</time>
</trkpt>
<trkpt lat="45.477873420" lon="6.884031760">
  <ele>2463.000000</ele>
<time>2017-08-15T14:06:24Z</time>
</trkpt>
<trkpt lat="45.477870070" lon="6.883876700">
  <ele>2462.600000</ele>
<time>2017-08-15T14:06:26Z</time>
</trkpt>
<trkpt lat="45.477906780" lon="6.883738390">
  <ele>2462.100000</ele>
<time>2017-08-15T14:06:28Z</time>
</trkpt>
<trkpt lat="45.477826820" lon="6.883668490">
  <ele>2461.600000</ele>
<time>2017-08-15T14:06:30Z</time>
</trkpt>
<trkpt lat="45.477726740" lon="6.883736720">
  <ele>2461.000000</ele>
<time>2017-08-15T14:06:32Z</time>
</trkpt>
<trkpt lat="45.477631690" lon="6.883843340">
  <ele>2460.200000</ele>
<time>2017-08-15T14:06:34Z</time>
</trkpt>
<trkpt lat="45.477540160" lon="6.883913410">
  <ele>2459.400000</ele>
<time>2017-08-15T14:06:36Z</time>
</trkpt>
<trkpt lat="45.477526750" lon="6.883785170">
  <ele>2458.600000</ele>
<time>2017-08-15T14:06:38Z</time>
</trkpt>
<trkpt lat="45.477538480" lon="6.883635130">
  <ele>2457.800000</ele>
<time>2017-08-15T14:06:40Z</time>
</trkpt>
<trkpt lat="45.477431700" lon="6.883640160">
  <ele>2456.800000</ele>
<time>2017-08-15T14:06:42Z</time>
</trkpt>
<trkpt lat="45.477310160" lon="6.883665140">
  <ele>2455.900000</ele>
<time>2017-08-15T14:06:44Z</time>
</trkpt>
<trkpt lat="45.477200020" lon="6.883643340">
  <ele>2454.900000</ele>
<time>2017-08-15T14:06:46Z</time>
</trkpt>
<trkpt lat="45.477091730" lon="6.883701680">
  <ele>2453.800000</ele>
<time>2017-08-15T14:06:48Z</time>
</trkpt>
<trkpt lat="45.476976730" lon="6.883766730">
  <ele>2452.800000</ele>
<time>2017-08-15T14:06:50Z</time>
</trkpt>
<trkpt lat="45.476878490" lon="6.883855070">
  <ele>2451.900000</ele>
<time>2017-08-15T14:06:52Z</time>
</trkpt>
<trkpt lat="45.476805060" lon="6.883966720">
  <ele>2451.000000</ele>
<time>2017-08-15T14:06:54Z</time>
</trkpt>
<trkpt lat="45.476760140" lon="6.884113400">
  <ele>2450.300000</ele>
<time>2017-08-15T14:06:56Z</time>
</trkpt>
<trkpt lat="45.476726780" lon="6.884295120">
  <ele>2449.400000</ele>
<time>2017-08-15T14:06:58Z</time>
</trkpt>
<trkpt lat="45.476700120" lon="6.884503490">
  <ele>2448.600000</ele>
<time>2017-08-15T14:07:00Z</time>
</trkpt>
<trkpt lat="45.476668440" lon="6.884718410">
  <ele>2447.700000</ele>
<time>2017-08-15T14:07:02Z</time>
</trkpt>
<trkpt lat="45.476620160" lon="6.884945050">
  <ele>2446.800000</ele>
<time>2017-08-15T14:07:04Z</time>
</trkpt>
<trkpt lat="45.476591830" lon="6.885180080">
  <ele>2445.800000</ele>
<time>2017-08-15T14:07:06Z</time>
</trkpt>
<trkpt lat="45.476573390" lon="6.885425000">
  <ele>2444.800000</ele>
<time>2017-08-15T14:07:08Z</time>
</trkpt>
<trkpt lat="45.476578420" lon="6.885666740">
  <ele>2443.800000</ele>
<time>2017-08-15T14:07:10Z</time>
</trkpt>
<trkpt lat="45.476588480" lon="6.885911820">
  <ele>2442.700000</ele>
<time>2017-08-15T14:07:12Z</time>
</trkpt>
<trkpt lat="45.476593340" lon="6.886040070">
  <ele>2442.100000</ele>
<time>2017-08-15T14:07:13Z</time>
</trkpt>
<trkpt lat="45.476575070" lon="6.886266710">
  <ele>2440.900000</ele>
<time>2017-08-15T14:07:15Z</time>
</trkpt>
<trkpt lat="45.476510020" lon="6.886473410">
  <ele>2439.700000</ele>
<time>2017-08-15T14:07:17Z</time>
</trkpt>
<trkpt lat="45.476416820" lon="6.886651780">
  <ele>2438.500000</ele>
<time>2017-08-15T14:07:19Z</time>
</trkpt>
<trkpt lat="45.476296790" lon="6.886780020">
  <ele>2437.000000</ele>
<time>2017-08-15T14:07:21Z</time>
</trkpt>
<trkpt lat="45.476191680" lon="6.886926700">
  <ele>2435.700000</ele>
<time>2017-08-15T14:07:23Z</time>
</trkpt>
<trkpt lat="45.476058400" lon="6.887030140">
  <ele>2434.400000</ele>
<time>2017-08-15T14:07:25Z</time>
</trkpt>
<trkpt lat="45.475966710" lon="6.887136750">
  <ele>2433.200000</ele>
<time>2017-08-15T14:07:27Z</time>
</trkpt>
<trkpt lat="45.475873500" lon="6.887178500">
  <ele>2432.000000</ele>
<time>2017-08-15T14:07:29Z</time>
</trkpt>
<trkpt lat="45.475773420" lon="6.887171790">
  <ele>2431.000000</ele>
<time>2017-08-15T14:07:31Z</time>
</trkpt>
<trkpt lat="45.475655070" lon="6.887155030">
  <ele>2430.100000</ele>
<time>2017-08-15T14:07:33Z</time>
</trkpt>
<trkpt lat="45.475530010" lon="6.887120160">
  <ele>2429.200000</ele>
<time>2017-08-15T14:07:35Z</time>
</trkpt>
<trkpt lat="45.475400090" lon="6.887111780">
  <ele>2428.400000</ele>
<time>2017-08-15T14:07:37Z</time>
</trkpt>
<trkpt lat="45.475256760" lon="6.887121830">
  <ele>2427.400000</ele>
<time>2017-08-15T14:07:39Z</time>
</trkpt>
<trkpt lat="45.475113430" lon="6.887126700">
  <ele>2426.500000</ele>
<time>2017-08-15T14:07:41Z</time>
</trkpt>
<trkpt lat="45.474966750" lon="6.887140110">
  <ele>2425.700000</ele>
<time>2017-08-15T14:07:43Z</time>
</trkpt>
<trkpt lat="45.474826770" lon="6.887176820">
  <ele>2424.900000</ele>
<time>2017-08-15T14:07:45Z</time>
</trkpt>
<trkpt lat="45.474688470" lon="6.887245050">
  <ele>2423.900000</ele>
<time>2017-08-15T14:07:47Z</time>
</trkpt>
<trkpt lat="45.474553350" lon="6.887330040">
  <ele>2422.800000</ele>
<time>2017-08-15T14:07:49Z</time>
</trkpt>
<trkpt lat="45.474411700" lon="6.887391730">
  <ele>2421.700000</ele>
<time>2017-08-15T14:07:51Z</time>
</trkpt>
<trkpt lat="45.474276750" lon="6.887443360">
  <ele>2420.700000</ele>
<time>2017-08-15T14:07:53Z</time>
</trkpt>
<trkpt lat="45.474156720" lon="6.887493490">
  <ele>2419.200000</ele>
<time>2017-08-15T14:07:55Z</time>
</trkpt>
<trkpt lat="45.474026800" lon="6.887575130">
  <ele>2418.200000</ele>
<time>2017-08-15T14:07:57Z</time>
</trkpt>
<trkpt lat="45.473915150" lon="6.887691800">
  <ele>2417.100000</ele>
<time>2017-08-15T14:07:59Z</time>
</trkpt>
<trkpt lat="45.473826810" lon="6.887811830">
  <ele>2416.300000</ele>
<time>2017-08-15T14:08:01Z</time>
</trkpt>
<trkpt lat="45.473728400" lon="6.887923480">
  <ele>2415.400000</ele>
<time>2017-08-15T14:08:03Z</time>
</trkpt>
<trkpt lat="45.473665040" lon="6.888035130">
  <ele>2414.700000</ele>
<time>2017-08-15T14:08:05Z</time>
</trkpt>
<trkpt lat="45.473648440" lon="6.888168400">
  <ele>2413.900000</ele>
<time>2017-08-15T14:08:07Z</time>
</trkpt>
<trkpt lat="45.473633350" lon="6.888296810">
  <ele>2413.200000</ele>
<time>2017-08-15T14:08:09Z</time>
</trkpt>
<trkpt lat="45.473621790" lon="6.888436790">
  <ele>2406.300000</ele>
<time>2017-08-15T14:09:52Z</time>
</trkpt>
<trkpt lat="45.473533440" lon="6.888528480">
  <ele>2406.200000</ele>
<time>2017-08-15T14:09:55Z</time>
</trkpt>
<trkpt lat="45.473438390" lon="6.888528480">
  <ele>2406.100000</ele>
<time>2017-08-15T14:09:57Z</time>
</trkpt>
<trkpt lat="45.473340150" lon="6.888528480">
  <ele>2405.800000</ele>
<time>2017-08-15T14:09:59Z</time>
</trkpt>
<trkpt lat="45.473235040" lon="6.888581790">
  <ele>2405.500000</ele>
<time>2017-08-15T14:10:01Z</time>
</trkpt>
<trkpt lat="45.473136810" lon="6.888688410">
  <ele>2405.200000</ele>
<time>2017-08-15T14:10:03Z</time>
</trkpt>
<trkpt lat="45.473040080" lon="6.888808440">
  <ele>2404.900000</ele>
<time>2017-08-15T14:10:05Z</time>
</trkpt>
<trkpt lat="45.472961790" lon="6.888953450">
  <ele>2404.300000</ele>
<time>2017-08-15T14:10:07Z</time>
</trkpt>
<trkpt lat="45.472873450" lon="6.888990160">
  <ele>2403.900000</ele>
<time>2017-08-15T14:10:09Z</time>
</trkpt>
<trkpt lat="45.472790130" lon="6.888890080">
  <ele>2403.400000</ele>
<time>2017-08-15T14:10:11Z</time>
</trkpt>
<trkpt lat="45.472696760" lon="6.888851690">
  <ele>2402.900000</ele>
<time>2017-08-15T14:10:13Z</time>
</trkpt>
<trkpt lat="45.472593490" lon="6.888836770">
  <ele>2402.300000</ele>
<time>2017-08-15T14:10:15Z</time>
</trkpt>
<trkpt lat="45.472491740" lon="6.888855040">
  <ele>2401.800000</ele>
<time>2017-08-15T14:10:17Z</time>
</trkpt>
<trkpt lat="45.472398360" lon="6.888911710">
  <ele>2401.200000</ele>
<time>2017-08-15T14:10:19Z</time>
</trkpt>
<trkpt lat="45.472298450" lon="6.889005080">
  <ele>2400.600000</ele>
<time>2017-08-15T14:10:21Z</time>
</trkpt>
<trkpt lat="45.472205080" lon="6.889076830">
  <ele>2399.900000</ele>
<time>2017-08-15T14:10:23Z</time>
</trkpt>
<trkpt lat="45.472155120" lon="6.888943390">
  <ele>2398.900000</ele>
<time>2017-08-15T14:10:26Z</time>
</trkpt>
<trkpt lat="45.472128470" lon="6.888805090">
  <ele>2398.000000</ele>
<time>2017-08-15T14:10:28Z</time>
</trkpt>
<trkpt lat="45.472030060" lon="6.888736690">
  <ele>2397.300000</ele>
<time>2017-08-15T14:10:30Z</time>
</trkpt>
<trkpt lat="45.471930150" lon="6.888783460">
  <ele>2396.500000</ele>
<time>2017-08-15T14:10:32Z</time>
</trkpt>
<trkpt lat="45.471841800" lon="6.888913380">
  <ele>2395.400000</ele>
<time>2017-08-15T14:10:34Z</time>
</trkpt>
<trkpt lat="45.471723450" lon="6.889058390">
  <ele>2394.100000</ele>
<time>2017-08-15T14:10:36Z</time>
</trkpt>
<trkpt lat="45.471600070" lon="6.889178420">
  <ele>2393.000000</ele>
<time>2017-08-15T14:10:38Z</time>
</trkpt>
<trkpt lat="45.471510050" lon="6.889323420">
  <ele>2392.000000</ele>
<time>2017-08-15T14:10:40Z</time>
</trkpt>
<trkpt lat="45.471400080" lon="6.889441780">
  <ele>2391.000000</ele>
<time>2017-08-15T14:10:42Z</time>
</trkpt>
<trkpt lat="45.471283400" lon="6.889535150">
  <ele>2389.900000</ele>
<time>2017-08-15T14:10:44Z</time>
</trkpt>
<trkpt lat="45.471168400" lon="6.889610090">
  <ele>2388.700000</ele>
<time>2017-08-15T14:10:46Z</time>
</trkpt>
<trkpt lat="45.471083410" lon="6.889691730">
  <ele>2387.700000</ele>
<time>2017-08-15T14:10:48Z</time>
</trkpt>
<trkpt lat="45.470993390" lon="6.889718380">
  <ele>2386.700000</ele>
<time>2017-08-15T14:10:50Z</time>
</trkpt>
<trkpt lat="45.471015010" lon="6.889895070">
  <ele>2385.400000</ele>
<time>2017-08-15T14:10:53Z</time>
</trkpt>
<trkpt lat="45.471023400" lon="6.890030020">
  <ele>2384.200000</ele>
<time>2017-08-15T14:10:56Z</time>
</trkpt>
<trkpt lat="45.470960030" lon="6.890171670">
  <ele>2380.300000</ele>
<time>2017-08-15T14:11:15Z</time>
</trkpt>
<trkpt lat="45.470858440" lon="6.890305110">
  <ele>2379.800000</ele>
<time>2017-08-15T14:11:18Z</time>
</trkpt>
<trkpt lat="45.470795070" lon="6.890403350">
  <ele>2379.400000</ele>
<time>2017-08-15T14:11:20Z</time>
</trkpt>
<trkpt lat="45.470701700" lon="6.890420110">
  <ele>2378.900000</ele>
<time>2017-08-15T14:11:22Z</time>
</trkpt>
<trkpt lat="45.470650070" lon="6.890530080">
  <ele>2378.500000</ele>
<time>2017-08-15T14:11:24Z</time>
</trkpt>
<trkpt lat="45.470585020" lon="6.890633350">
  <ele>2377.900000</ele>
<time>2017-08-15T14:11:26Z</time>
</trkpt>
<trkpt lat="45.470481760" lon="6.890621780">
  <ele>2377.300000</ele>
<time>2017-08-15T14:11:28Z</time>
</trkpt>
<trkpt lat="45.470386710" lon="6.890556740">
  <ele>2376.600000</ele>
<time>2017-08-15T14:11:30Z</time>
</trkpt>
<trkpt lat="45.470300040" lon="6.890500080">
  <ele>2375.800000</ele>
<time>2017-08-15T14:11:33Z</time>
</trkpt>
<trkpt lat="45.470325020" lon="6.890631670">
  <ele>2374.800000</ele>
<time>2017-08-15T14:11:37Z</time>
</trkpt>
<trkpt lat="45.470395090" lon="6.890720020">
  <ele>2373.700000</ele>
<time>2017-08-15T14:11:42Z</time>
</trkpt>
<trkpt lat="45.470491820" lon="6.890766790">
  <ele>2372.900000</ele>
<time>2017-08-15T14:11:47Z</time>
</trkpt>
<trkpt lat="45.470588370" lon="6.890805010">
  <ele>2372.500000</ele>
<time>2017-08-15T14:11:49Z</time>
</trkpt>
<trkpt lat="45.470618380" lon="6.890966780">
  <ele>2371.700000</ele>
<time>2017-08-15T14:11:52Z</time>
</trkpt>
<trkpt lat="45.470525010" lon="6.891066690">
  <ele>2371.000000</ele>
<time>2017-08-15T14:11:54Z</time>
</trkpt>
<trkpt lat="45.470463480" lon="6.891225110">
  <ele>2370.200000</ele>
<time>2017-08-15T14:11:56Z</time>
</trkpt>
<trkpt lat="45.470440020" lon="6.891410020">
  <ele>2368.900000</ele>
<time>2017-08-15T14:11:58Z</time>
</trkpt>
<trkpt lat="45.470440020" lon="6.891556700">
  <ele>2367.900000</ele>
<time>2017-08-15T14:12:00Z</time>
</trkpt>
<trkpt lat="45.470513440" lon="6.891456790">
  <ele>2366.500000</ele>
<time>2017-08-15T14:12:03Z</time>
</trkpt>
<trkpt lat="45.470555010" lon="6.891341790">
  <ele>2365.700000</ele>
<time>2017-08-15T14:12:05Z</time>
</trkpt>
<trkpt lat="45.470661800" lon="6.891341790">
  <ele>2364.900000</ele>
<time>2017-08-15T14:12:07Z</time>
</trkpt>
<trkpt lat="45.470751820" lon="6.891300040">
  <ele>2364.000000</ele>
<time>2017-08-15T14:12:09Z</time>
</trkpt>
<trkpt lat="45.470866820" lon="6.891260150">
  <ele>2363.200000</ele>
<time>2017-08-15T14:12:11Z</time>
</trkpt>
<trkpt lat="45.470986680" lon="6.891195100">
  <ele>2362.300000</ele>
<time>2017-08-15T14:12:13Z</time>
</trkpt>
<trkpt lat="45.471053400" lon="6.891285130">
  <ele>2361.500000</ele>
<time>2017-08-15T14:12:15Z</time>
</trkpt>
<trkpt lat="45.471081730" lon="6.891443380">
  <ele>2360.600000</ele>
<time>2017-08-15T14:12:17Z</time>
</trkpt>
<trkpt lat="45.471145100" lon="6.891635150">
  <ele>2359.600000</ele>
<time>2017-08-15T14:12:19Z</time>
</trkpt>
<trkpt lat="45.471198410" lon="6.891818380">
  <ele>2358.600000</ele>
<time>2017-08-15T14:12:21Z</time>
</trkpt>
<trkpt lat="45.471231770" lon="6.891971770">
  <ele>2357.200000</ele>
<time>2017-08-15T14:12:23Z</time>
</trkpt>
<trkpt lat="45.471278370" lon="6.892098340">
  <ele>2355.800000</ele>
<time>2017-08-15T14:12:25Z</time>
</trkpt>
<trkpt lat="45.471375100" lon="6.892201770">
  <ele>2354.300000</ele>
<time>2017-08-15T14:12:27Z</time>
</trkpt>
<trkpt lat="45.471475010" lon="6.892321800">
  <ele>2352.900000</ele>
<time>2017-08-15T14:12:29Z</time>
</trkpt>
<trkpt lat="45.471545090" lon="6.892465130">
  <ele>2351.400000</ele>
<time>2017-08-15T14:12:31Z</time>
</trkpt>
<trkpt lat="45.471618340" lon="6.892546770">
  <ele>2350.100000</ele>
<time>2017-08-15T14:12:33Z</time>
</trkpt>
<trkpt lat="45.471521780" lon="6.892525140">
  <ele>2346.500000</ele>
<time>2017-08-15T14:12:39Z</time>
</trkpt>
<trkpt lat="45.471535030" lon="6.892720110">
  <ele>2344.100000</ele>
<time>2017-08-15T14:12:43Z</time>
</trkpt>
<trkpt lat="45.471536700" lon="6.892860080">
  <ele>2342.800000</ele>
<time>2017-08-15T14:12:45Z</time>
</trkpt>
<trkpt lat="45.471535030" lon="6.892991680">
  <ele>2341.700000</ele>
<time>2017-08-15T14:12:47Z</time>
</trkpt>
<trkpt lat="45.471591690" lon="6.893106680">
  <ele>2340.800000</ele>
<time>2017-08-15T14:12:49Z</time>
</trkpt>
<trkpt lat="45.471653380" lon="6.893211790">
  <ele>2339.300000</ele>
<time>2017-08-15T14:12:51Z</time>
</trkpt>
<trkpt lat="45.471706690" lon="6.893351770">
  <ele>2337.200000</ele>
<time>2017-08-15T14:12:54Z</time>
</trkpt>
<trkpt lat="45.471761670" lon="6.893470120">
  <ele>2335.900000</ele>
<time>2017-08-15T14:12:56Z</time>
</trkpt>
<trkpt lat="45.471825040" lon="6.893586800">
  <ele>2334.700000</ele>
<time>2017-08-15T14:12:58Z</time>
</trkpt>
<trkpt lat="45.471878350" lon="6.893725100">
  <ele>2328.400000</ele>
<time>2017-08-15T14:13:16Z</time>
</trkpt>
<trkpt lat="45.471930150" lon="6.893903460">
  <ele>2327.800000</ele>
<time>2017-08-15T14:13:19Z</time>
</trkpt>
<trkpt lat="45.471943390" lon="6.894080150">
  <ele>2326.600000</ele>
<time>2017-08-15T14:13:21Z</time>
</trkpt>
<trkpt lat="45.471926800" lon="6.894260030">
  <ele>2325.900000</ele>
<time>2017-08-15T14:13:23Z</time>
</trkpt>
<trkpt lat="45.471935010" lon="6.894450130">
  <ele>2325.200000</ele>
<time>2017-08-15T14:13:25Z</time>
</trkpt>
<trkpt lat="45.471971720" lon="6.894623470">
  <ele>2324.300000</ele>
<time>2017-08-15T14:13:27Z</time>
</trkpt>
<trkpt lat="45.471976750" lon="6.894810050">
  <ele>2323.400000</ele>
<time>2017-08-15T14:13:29Z</time>
</trkpt>
<trkpt lat="45.471953450" lon="6.895015070">
  <ele>2322.300000</ele>
<time>2017-08-15T14:13:31Z</time>
</trkpt>
<trkpt lat="45.471938360" lon="6.895208360">
  <ele>2321.400000</ele>
<time>2017-08-15T14:13:33Z</time>
</trkpt>
<trkpt lat="45.471923440" lon="6.895408350">
  <ele>2320.400000</ele>
<time>2017-08-15T14:13:35Z</time>
</trkpt>
<trkpt lat="45.471928470" lon="6.895620080">
  <ele>2319.600000</ele>
<time>2017-08-15T14:13:37Z</time>
</trkpt>
<trkpt lat="45.471926800" lon="6.895816720">
  <ele>2318.900000</ele>
<time>2017-08-15T14:13:39Z</time>
</trkpt>
<trkpt lat="45.471903500" lon="6.895993410">
  <ele>2318.100000</ele>
<time>2017-08-15T14:13:41Z</time>
</trkpt>
<trkpt lat="45.471878350" lon="6.896166750">
  <ele>2317.500000</ele>
<time>2017-08-15T14:13:43Z</time>
</trkpt>
<trkpt lat="45.471863430" lon="6.896363390">
  <ele>2316.600000</ele>
<time>2017-08-15T14:13:45Z</time>
</trkpt>
<trkpt lat="45.471860080" lon="6.896563380">
  <ele>2315.800000</ele>
<time>2017-08-15T14:13:47Z</time>
</trkpt>
<trkpt lat="45.471826720" lon="6.896731690">
  <ele>2314.800000</ele>
<time>2017-08-15T14:13:49Z</time>
</trkpt>
<trkpt lat="45.471800060" lon="6.896911730">
  <ele>2313.900000</ele>
<time>2017-08-15T14:13:51Z</time>
</trkpt>
<trkpt lat="45.471765030" lon="6.897066790">
  <ele>2313.000000</ele>
<time>2017-08-15T14:13:53Z</time>
</trkpt>
<trkpt lat="45.471720100" lon="6.897210120">
  <ele>2312.200000</ele>
<time>2017-08-15T14:13:55Z</time>
</trkpt>
<trkpt lat="45.471703340" lon="6.897386820">
  <ele>2311.300000</ele>
<time>2017-08-15T14:13:57Z</time>
</trkpt>
<trkpt lat="45.471705010" lon="6.897548420">
  <ele>2310.300000</ele>
<time>2017-08-15T14:13:59Z</time>
</trkpt>
<trkpt lat="45.471773410" lon="6.897663420">
  <ele>2309.100000</ele>
<time>2017-08-15T14:14:01Z</time>
</trkpt>
<trkpt lat="45.471786820" lon="6.897796690">
  <ele>2308.000000</ele>
<time>2017-08-15T14:14:03Z</time>
</trkpt>
<trkpt lat="45.471770060" lon="6.897961810">
  <ele>2306.900000</ele>
<time>2017-08-15T14:14:05Z</time>
</trkpt>
<trkpt lat="45.471801740" lon="6.898145040">
  <ele>2305.800000</ele>
<time>2017-08-15T14:14:07Z</time>
</trkpt>
<trkpt lat="45.471843480" lon="6.898341680">
  <ele>2304.800000</ele>
<time>2017-08-15T14:14:09Z</time>
</trkpt>
<trkpt lat="45.471866780" lon="6.898558440">
  <ele>2303.600000</ele>
<time>2017-08-15T14:14:11Z</time>
</trkpt>
<trkpt lat="45.471933340" lon="6.898745020">
  <ele>2302.300000</ele>
<time>2017-08-15T14:14:13Z</time>
</trkpt>
<trkpt lat="45.471971720" lon="6.898910140">
  <ele>2300.900000</ele>
<time>2017-08-15T14:14:15Z</time>
</trkpt>
<trkpt lat="45.472006760" lon="6.899066720">
  <ele>2299.700000</ele>
<time>2017-08-15T14:14:17Z</time>
</trkpt>
<trkpt lat="45.472053360" lon="6.899255140">
  <ele>2298.300000</ele>
<time>2017-08-15T14:14:19Z</time>
</trkpt>
<trkpt lat="45.472096780" lon="6.899418420">
  <ele>2297.000000</ele>
<time>2017-08-15T14:14:21Z</time>
</trkpt>
<trkpt lat="45.472166690" lon="6.899543480">
  <ele>2295.700000</ele>
<time>2017-08-15T14:14:23Z</time>
</trkpt>
<trkpt lat="45.472071800" lon="6.899588410">
  <ele>2291.000000</ele>
<time>2017-08-15T14:14:31Z</time>
</trkpt>
<trkpt lat="45.472153440" lon="6.899738440">
  <ele>2289.200000</ele>
<time>2017-08-15T14:14:34Z</time>
</trkpt>
<trkpt lat="45.472196690" lon="6.899868360">
  <ele>2288.100000</ele>
<time>2017-08-15T14:14:36Z</time>
</trkpt>
<trkpt lat="45.472261740" lon="6.900003480">
  <ele>2287.100000</ele>
<time>2017-08-15T14:14:38Z</time>
</trkpt>
<trkpt lat="45.472320080" lon="6.900166760">
  <ele>2285.900000</ele>
<time>2017-08-15T14:14:40Z</time>
</trkpt>
<trkpt lat="45.472381770" lon="6.900333390">
  <ele>2284.700000</ele>
<time>2017-08-15T14:14:42Z</time>
</trkpt>
<trkpt lat="45.472456700" lon="6.900498350">
  <ele>2283.000000</ele>
<time>2017-08-15T14:14:44Z</time>
</trkpt>
<trkpt lat="45.472505150" lon="6.900696830">
  <ele>2281.300000</ele>
<time>2017-08-15T14:14:46Z</time>
</trkpt>
<trkpt lat="45.472563490" lon="6.900888440">
  <ele>2279.300000</ele>
<time>2017-08-15T14:14:48Z</time>
</trkpt>
<trkpt lat="45.472661720" lon="6.901061780">
  <ele>2277.800000</ele>
<time>2017-08-15T14:14:50Z</time>
</trkpt>
<trkpt lat="45.472751740" lon="6.901203430">
  <ele>2276.500000</ele>
<time>2017-08-15T14:14:52Z</time>
</trkpt>
<trkpt lat="45.472840090" lon="6.901298480">
  <ele>2275.300000</ele>
<time>2017-08-15T14:14:54Z</time>
</trkpt>
<trkpt lat="45.472768340" lon="6.901425050">
  <ele>2273.100000</ele>
<time>2017-08-15T14:14:58Z</time>
</trkpt>
<trkpt lat="45.472681670" lon="6.901370060">
  <ele>2272.000000</ele>
<time>2017-08-15T14:15:00Z</time>
</trkpt>
<trkpt lat="45.472563490" lon="6.901345090">
  <ele>2270.900000</ele>
<time>2017-08-15T14:15:02Z</time>
</trkpt>
<trkpt lat="45.472460050" lon="6.901305020">
  <ele>2269.400000</ele>
<time>2017-08-15T14:15:04Z</time>
</trkpt>
<trkpt lat="45.472363490" lon="6.901223380">
  <ele>2267.900000</ele>
<time>2017-08-15T14:15:06Z</time>
</trkpt>
<trkpt lat="45.472301800" lon="6.901115090">
  <ele>2266.500000</ele>
<time>2017-08-15T14:15:08Z</time>
</trkpt>
<trkpt lat="45.472221670" lon="6.901016680">
  <ele>2264.900000</ele>
<time>2017-08-15T14:15:10Z</time>
</trkpt>
<trkpt lat="45.472133490" lon="6.900916770">
  <ele>2263.200000</ele>
<time>2017-08-15T14:15:12Z</time>
</trkpt>
<trkpt lat="45.472050010" lon="6.900825070">
  <ele>2261.500000</ele>
<time>2017-08-15T14:15:14Z</time>
</trkpt>
<trkpt lat="45.471961830" lon="6.900745110">
  <ele>2259.700000</ele>
<time>2017-08-15T14:15:16Z</time>
</trkpt>
<trkpt lat="45.471841800" lon="6.900723480">
  <ele>2258.000000</ele>
<time>2017-08-15T14:15:18Z</time>
</trkpt>
<trkpt lat="45.471716750" lon="6.900723480">
  <ele>2256.300000</ele>
<time>2017-08-15T14:15:20Z</time>
</trkpt>
<trkpt lat="45.471598390" lon="6.900715100">
  <ele>2254.700000</ele>
<time>2017-08-15T14:15:22Z</time>
</trkpt>
<trkpt lat="45.471485070" lon="6.900670010">
  <ele>2252.900000</ele>
<time>2017-08-15T14:15:24Z</time>
</trkpt>
<trkpt lat="45.471388340" lon="6.900606810">
  <ele>2251.200000</ele>
<time>2017-08-15T14:15:26Z</time>
</trkpt>
<trkpt lat="45.471290110" lon="6.900535060">
  <ele>2249.400000</ele>
<time>2017-08-15T14:15:28Z</time>
</trkpt>
<trkpt lat="45.471201760" lon="6.900451740">
  <ele>2247.700000</ele>
<time>2017-08-15T14:15:30Z</time>
</trkpt>
<trkpt lat="45.471085090" lon="6.900420060">
  <ele>2245.200000</ele>
<time>2017-08-15T14:15:33Z</time>
</trkpt>
<trkpt lat="45.471003450" lon="6.900341770">
  <ele>2243.700000</ele>
<time>2017-08-15T14:15:35Z</time>
</trkpt>
<trkpt lat="45.470913430" lon="6.900236830">
  <ele>2241.800000</ele>
<time>2017-08-15T14:15:37Z</time>
</trkpt>
<trkpt lat="45.470823400" lon="6.900155020">
  <ele>2240.100000</ele>
<time>2017-08-15T14:15:39Z</time>
</trkpt>
<trkpt lat="45.470726680" lon="6.900065000">
  <ele>2238.300000</ele>
<time>2017-08-15T14:15:41Z</time>
</trkpt>
<trkpt lat="45.470638500" lon="6.899960060">
  <ele>2236.500000</ele>
<time>2017-08-15T14:15:43Z</time>
</trkpt>
<trkpt lat="45.470546800" lon="6.899830140">
  <ele>2234.500000</ele>
<time>2017-08-15T14:15:45Z</time>
</trkpt>
<trkpt lat="45.470456780" lon="6.899685130">
  <ele>2232.600000</ele>
<time>2017-08-15T14:15:47Z</time>
</trkpt>
<trkpt lat="45.470366760" lon="6.899548340">
  <ele>2230.600000</ele>
<time>2017-08-15T14:15:49Z</time>
</trkpt>
<trkpt lat="45.470285120" lon="6.899425130">
  <ele>2228.800000</ele>
<time>2017-08-15T14:15:51Z</time>
</trkpt>
<trkpt lat="45.470215040" lon="6.899306770">
  <ele>2227.100000</ele>
<time>2017-08-15T14:15:53Z</time>
</trkpt>
<trkpt lat="45.470140110" lon="6.899193450">
  <ele>2225.500000</ele>
<time>2017-08-15T14:15:55Z</time>
</trkpt>
<trkpt lat="45.470065010" lon="6.899106780">
  <ele>2223.800000</ele>
<time>2017-08-15T14:15:57Z</time>
</trkpt>
<trkpt lat="45.470001810" lon="6.899215080">
  <ele>2211.000000</ele>
<time>2017-08-15T14:18:02Z</time>
</trkpt>
<trkpt lat="45.469985050" lon="6.899398470">
  <ele>2210.200000</ele>
<time>2017-08-15T14:18:05Z</time>
</trkpt>
<trkpt lat="45.470003490" lon="6.899561750">
  <ele>2209.500000</ele>
<time>2017-08-15T14:18:07Z</time>
</trkpt>
<trkpt lat="45.470005160" lon="6.899726710">
  <ele>2208.800000</ele>
<time>2017-08-15T14:18:09Z</time>
</trkpt>
<trkpt lat="45.469953360" lon="6.899890150">
  <ele>2207.500000</ele>
<time>2017-08-15T14:18:12Z</time>
</trkpt>
<trkpt lat="45.469943470" lon="6.900033490">
  <ele>2206.300000</ele>
<time>2017-08-15T14:18:14Z</time>
</trkpt>
<trkpt lat="45.469948500" lon="6.900206820">
  <ele>2204.900000</ele>
<time>2017-08-15T14:18:16Z</time>
</trkpt>
<trkpt lat="45.469960070" lon="6.900365070">
  <ele>2203.300000</ele>
<time>2017-08-15T14:18:18Z</time>
</trkpt>
<trkpt lat="45.470001810" lon="6.900490130">
  <ele>2201.800000</ele>
<time>2017-08-15T14:18:20Z</time>
</trkpt>
<trkpt lat="45.470045060" lon="6.900636810">
  <ele>2200.400000</ele>
<time>2017-08-15T14:18:22Z</time>
</trkpt>
<trkpt lat="45.470101720" lon="6.900806800">
  <ele>2198.900000</ele>
<time>2017-08-15T14:18:24Z</time>
</trkpt>
<trkpt lat="45.470190070" lon="6.900958340">
  <ele>2197.500000</ele>
<time>2017-08-15T14:18:26Z</time>
</trkpt>
<trkpt lat="45.470280090" lon="6.901135030">
  <ele>2196.300000</ele>
<time>2017-08-15T14:18:28Z</time>
</trkpt>
<trkpt lat="45.470370110" lon="6.901345090">
  <ele>2195.000000</ele>
<time>2017-08-15T14:18:30Z</time>
</trkpt>
<trkpt lat="45.470468350" lon="6.901553460">
  <ele>2193.600000</ele>
<time>2017-08-15T14:18:32Z</time>
</trkpt>
<trkpt lat="45.470550150" lon="6.901743390">
  <ele>2192.000000</ele>
<time>2017-08-15T14:18:34Z</time>
</trkpt>
<trkpt lat="45.470623410" lon="6.901918410">
  <ele>2190.500000</ele>
<time>2017-08-15T14:18:36Z</time>
</trkpt>
<trkpt lat="45.470681750" lon="6.902063410">
  <ele>2189.000000</ele>
<time>2017-08-15T14:18:38Z</time>
</trkpt>
<trkpt lat="45.470743440" lon="6.902171710">
  <ele>2187.500000</ele>
<time>2017-08-15T14:18:40Z</time>
</trkpt>
<trkpt lat="45.470803450" lon="6.902341690">
  <ele>2185.400000</ele>
<time>2017-08-15T14:18:43Z</time>
</trkpt>
<trkpt lat="45.470846710" lon="6.902458370">
  <ele>2183.700000</ele>
<time>2017-08-15T14:18:45Z</time>
</trkpt>
<trkpt lat="45.470885090" lon="6.902595160">
  <ele>2181.800000</ele>
<time>2017-08-15T14:18:47Z</time>
</trkpt>
<trkpt lat="45.470951810" lon="6.902703460">
  <ele>2179.800000</ele>
<time>2017-08-15T14:18:49Z</time>
</trkpt>
<trkpt lat="45.470865150" lon="6.902768500">
  <ele>2175.200000</ele>
<time>2017-08-15T14:18:54Z</time>
</trkpt>
<trkpt lat="45.470746790" lon="6.902725080">
  <ele>2173.700000</ele>
<time>2017-08-15T14:18:56Z</time>
</trkpt>
<trkpt lat="45.470621730" lon="6.902760120">
  <ele>2172.000000</ele>
<time>2017-08-15T14:18:58Z</time>
</trkpt>
<trkpt lat="45.470538420" lon="6.902823490">
  <ele>2170.700000</ele>
<time>2017-08-15T14:19:00Z</time>
</trkpt>
<trkpt lat="45.470550150" lon="6.902980060">
  <ele>2168.500000</ele>
<time>2017-08-15T14:19:04Z</time>
</trkpt>
<trkpt lat="45.470636820" lon="6.903118360">
  <ele>2166.900000</ele>
<time>2017-08-15T14:19:07Z</time>
</trkpt>
<trkpt lat="45.470713430" lon="6.903231680">
  <ele>2165.700000</ele>
<time>2017-08-15T14:19:09Z</time>
</trkpt>
<trkpt lat="45.470803450" lon="6.903370150">
  <ele>2164.500000</ele>
<time>2017-08-15T14:19:11Z</time>
</trkpt>
<trkpt lat="45.470880070" lon="6.903575010">
  <ele>2163.300000</ele>
<time>2017-08-15T14:19:13Z</time>
</trkpt>
<trkpt lat="45.470956680" lon="6.903811710">
  <ele>2162.000000</ele>
<time>2017-08-15T14:19:15Z</time>
</trkpt>
<trkpt lat="45.471033450" lon="6.904028470">
  <ele>2159.800000</ele>
<time>2017-08-15T14:19:17Z</time>
</trkpt>
<trkpt lat="45.471088440" lon="6.904208340">
  <ele>2158.100000</ele>
<time>2017-08-15T14:19:19Z</time>
</trkpt>
<trkpt lat="45.471120120" lon="6.904356700">
  <ele>2156.600000</ele>
<time>2017-08-15T14:19:21Z</time>
</trkpt>
<trkpt lat="45.471090120" lon="6.904535070">
  <ele>2154.300000</ele>
<time>2017-08-15T14:19:24Z</time>
</trkpt>
<trkpt lat="45.470993390" lon="6.904605140">
  <ele>2152.500000</ele>
<time>2017-08-15T14:19:26Z</time>
</trkpt>
<trkpt lat="45.470883420" lon="6.904590060">
  <ele>2150.900000</ele>
<time>2017-08-15T14:19:28Z</time>
</trkpt>
<trkpt lat="45.470933370" lon="6.904708410">
  <ele>2145.900000</ele>
<time>2017-08-15T14:19:36Z</time>
</trkpt>
<trkpt lat="45.471045020" lon="6.904740090">
  <ele>2144.200000</ele>
<time>2017-08-15T14:19:40Z</time>
</trkpt>
<trkpt lat="45.471143420" lon="6.904755010">
  <ele>2143.100000</ele>
<time>2017-08-15T14:19:43Z</time>
</trkpt>
<trkpt lat="45.471241830" lon="6.904765070">
  <ele>2142.200000</ele>
<time>2017-08-15T14:19:46Z</time>
</trkpt>
<trkpt lat="45.471343420" lon="6.904801780">
  <ele>2141.200000</ele>
<time>2017-08-15T14:19:50Z</time>
</trkpt>
<trkpt lat="45.471426730" lon="6.904910080">
  <ele>2140.500000</ele>
<time>2017-08-15T14:19:53Z</time>
</trkpt>
<trkpt lat="45.471533350" lon="6.904976800">
  <ele>2140.200000</ele>
<time>2017-08-15T14:19:55Z</time>
</trkpt>
<trkpt lat="45.471638460" lon="6.904996750">
  <ele>2139.700000</ele>
<time>2017-08-15T14:19:57Z</time>
</trkpt>
<trkpt lat="45.471741720" lon="6.905021720">
  <ele>2139.100000</ele>
<time>2017-08-15T14:20:00Z</time>
</trkpt>
<trkpt lat="45.471841800" lon="6.905006800">
  <ele>2138.700000</ele>
<time>2017-08-15T14:20:04Z</time>
</trkpt>
<trkpt lat="45.471938360" lon="6.904983330">
  <ele>2138.700000</ele>
<time>2017-08-15T14:20:08Z</time>
</trkpt>
<trkpt lat="45.472031740" lon="6.904981830">
  <ele>2138.900000</ele>
<time>2017-08-15T14:20:13Z</time>
</trkpt>
<trkpt lat="45.472133490" lon="6.905008480">
  <ele>2139.800000</ele>
<time>2017-08-15T14:20:19Z</time>
</trkpt>
<trkpt lat="45.472223350" lon="6.905041670">
  <ele>2140.600000</ele>
<time>2017-08-15T14:20:24Z</time>
</trkpt>
<trkpt lat="45.472313370" lon="6.905096830">
  <ele>2141.400000</ele>
<time>2017-08-15T14:20:29Z</time>
</trkpt>
<trkpt lat="45.472398360" lon="6.905183490">
  <ele>2142.300000</ele>
<time>2017-08-15T14:20:34Z</time>
</trkpt>
<trkpt lat="45.472475140" lon="6.905285080">
  <ele>2143.300000</ele>
<time>2017-08-15T14:20:39Z</time>
</trkpt>
<trkpt lat="45.472543370" lon="6.905393380">
  <ele>2144.400000</ele>
<time>2017-08-15T14:20:44Z</time>
</trkpt>
<trkpt lat="45.472613440" lon="6.905486750">
  <ele>2145.400000</ele>
<time>2017-08-15T14:20:49Z</time>
</trkpt>
<trkpt lat="45.472693410" lon="6.905580130">
  <ele>2146.800000</ele>
<time>2017-08-15T14:20:55Z</time>
</trkpt>
<trkpt lat="45.472778400" lon="6.905663440">
  <ele>2150.300000</ele>
<time>2017-08-15T14:21:21Z</time>
</trkpt>
<trkpt lat="45.472871770" lon="6.905725130">
  <ele>2151.100000</ele>
<time>2017-08-15T14:21:27Z</time>
</trkpt>
<trkpt lat="45.472956770" lon="6.905785150">
  <ele>2152.000000</ele>
<time>2017-08-15T14:21:32Z</time>
</trkpt>
<trkpt lat="45.473048460" lon="6.905830070">
  <ele>2152.800000</ele>
<time>2017-08-15T14:21:37Z</time>
</trkpt>
<trkpt lat="45.473131780" lon="6.905891760">
  <ele>2153.700000</ele>
<time>2017-08-15T14:21:42Z</time>
</trkpt>
<trkpt lat="45.473228340" lon="6.905950100">
  <ele>2155.000000</ele>
<time>2017-08-15T14:21:48Z</time>
</trkpt>
<trkpt lat="45.473318360" lon="6.906011790">
  <ele>2156.300000</ele>
<time>2017-08-15T14:21:54Z</time>
</trkpt>
<trkpt lat="45.473408380" lon="6.906088400">
  <ele>2157.800000</ele>
<time>2017-08-15T14:22:00Z</time>
</trkpt>
<trkpt lat="45.473483480" lon="6.906170040">
  <ele>2159.100000</ele>
<time>2017-08-15T14:22:06Z</time>
</trkpt>
<trkpt lat="45.473576690" lon="6.906235090">
  <ele>2160.500000</ele>
<time>2017-08-15T14:22:12Z</time>
</trkpt>
<trkpt lat="45.473661680" lon="6.906300130">
  <ele>2161.600000</ele>
<time>2017-08-15T14:22:17Z</time>
</trkpt>
<trkpt lat="45.473746680" lon="6.906375070">
  <ele>2162.800000</ele>
<time>2017-08-15T14:22:22Z</time>
</trkpt>
<trkpt lat="45.473823450" lon="6.906443460">
  <ele>2163.800000</ele>
<time>2017-08-15T14:22:27Z</time>
</trkpt>
<trkpt lat="45.473903420" lon="6.906535160">
  <ele>2165.200000</ele>
<time>2017-08-15T14:22:33Z</time>
</trkpt>
<trkpt lat="45.473988410" lon="6.906625010">
  <ele>2166.500000</ele>
<time>2017-08-15T14:22:39Z</time>
</trkpt>
<trkpt lat="45.474048420" lon="6.906723420">
  <ele>2167.500000</ele>
<time>2017-08-15T14:22:44Z</time>
</trkpt>
<trkpt lat="45.474116820" lon="6.906810090">
  <ele>2168.400000</ele>
<time>2017-08-15T14:22:49Z</time>
</trkpt>
<trkpt lat="45.474190080" lon="6.906913350">
  <ele>2169.600000</ele>
<time>2017-08-15T14:22:55Z</time>
</trkpt>
<trkpt lat="45.474256800" lon="6.907011750">
  <ele>2170.400000</ele>
<time>2017-08-15T14:23:00Z</time>
</trkpt>
<trkpt lat="45.474315140" lon="6.907118370">
  <ele>2171.300000</ele>
<time>2017-08-15T14:23:05Z</time>
</trkpt>
<trkpt lat="45.474373470" lon="6.907228340">
  <ele>2172.200000</ele>
<time>2017-08-15T14:23:10Z</time>
</trkpt>
<trkpt lat="45.474428460" lon="6.907350050">
  <ele>2173.000000</ele>
<time>2017-08-15T14:23:15Z</time>
</trkpt>
<trkpt lat="45.474485120" lon="6.907476780">
  <ele>2173.800000</ele>
<time>2017-08-15T14:23:20Z</time>
</trkpt>
<trkpt lat="45.474553350" lon="6.907596810">
  <ele>2174.600000</ele>
<time>2017-08-15T14:23:25Z</time>
</trkpt>
<trkpt lat="45.474630130" lon="6.907713490">
  <ele>2175.300000</ele>
<time>2017-08-15T14:23:29Z</time>
</trkpt>
<trkpt lat="45.474698360" lon="6.907800160">
  <ele>2175.900000</ele>
<time>2017-08-15T14:23:32Z</time>
</trkpt>
<trkpt lat="45.474788380" lon="6.907803340">
  <ele>2176.600000</ele>
<time>2017-08-15T14:23:36Z</time>
</trkpt>
<trkpt lat="45.474805140" lon="6.907676780">
  <ele>2177.500000</ele>
<time>2017-08-15T14:23:41Z</time>
</trkpt>
<trkpt lat="45.474751830" lon="6.907568480">
  <ele>2178.400000</ele>
<time>2017-08-15T14:23:46Z</time>
</trkpt>
<trkpt lat="45.474733390" lon="6.907411740">
  <ele>2179.400000</ele>
<time>2017-08-15T14:23:51Z</time>
</trkpt>
<trkpt lat="45.474735070" lon="6.907268410">
  <ele>2180.400000</ele>
<time>2017-08-15T14:23:55Z</time>
</trkpt>
<trkpt lat="45.474746800" lon="6.907133460">
  <ele>2181.500000</ele>
<time>2017-08-15T14:23:59Z</time>
</trkpt>
<trkpt lat="45.474801790" lon="6.907000020">
  <ele>2182.900000</ele>
<time>2017-08-15T14:24:04Z</time>
</trkpt>
<trkpt lat="45.474891810" lon="6.907036730">
  <ele>2184.200000</ele>
<time>2017-08-15T14:24:09Z</time>
</trkpt>
<trkpt lat="45.474985020" lon="6.907116700">
  <ele>2185.800000</ele>
<time>2017-08-15T14:24:14Z</time>
</trkpt>
<trkpt lat="45.475081750" lon="6.907200010">
  <ele>2187.100000</ele>
<time>2017-08-15T14:24:18Z</time>
</trkpt>
<trkpt lat="45.475153490" lon="6.907281820">
  <ele>2188.100000</ele>
<time>2017-08-15T14:24:21Z</time>
</trkpt>
<trkpt lat="45.475226750" lon="6.907373350">
  <ele>2188.900000</ele>
<time>2017-08-15T14:24:24Z</time>
</trkpt>
<trkpt lat="45.475306720" lon="6.907493380">
  <ele>2190.200000</ele>
<time>2017-08-15T14:24:28Z</time>
</trkpt>
<trkpt lat="45.475370080" lon="6.907598490">
  <ele>2191.500000</ele>
<time>2017-08-15T14:24:32Z</time>
</trkpt>
<trkpt lat="45.475431770" lon="6.907693370">
  <ele>2192.800000</ele>
<time>2017-08-15T14:24:36Z</time>
</trkpt>
<trkpt lat="45.475506710" lon="6.907798480">
  <ele>2194.300000</ele>
<time>2017-08-15T14:24:41Z</time>
</trkpt>
<trkpt lat="45.475585160" lon="6.907878440">
  <ele>2195.800000</ele>
<time>2017-08-15T14:24:46Z</time>
</trkpt>
<trkpt lat="45.475670160" lon="6.907946670">
  <ele>2197.100000</ele>
<time>2017-08-15T14:24:51Z</time>
</trkpt>
<trkpt lat="45.475750120" lon="6.908031830">
  <ele>2198.300000</ele>
<time>2017-08-15T14:24:56Z</time>
</trkpt>
<trkpt lat="45.475800070" lon="6.908145160">
  <ele>2199.600000</ele>
<time>2017-08-15T14:25:01Z</time>
</trkpt>
<trkpt lat="45.475836790" lon="6.908270050">
  <ele>2201.000000</ele>
<time>2017-08-15T14:25:06Z</time>
</trkpt>
<trkpt lat="45.475888420" lon="6.908393430">
  <ele>2202.000000</ele>
<time>2017-08-15T14:25:11Z</time>
</trkpt>
<trkpt lat="45.475958490" lon="6.908510100">
  <ele>2203.200000</ele>
<time>2017-08-15T14:25:16Z</time>
</trkpt>
<trkpt lat="45.476036780" lon="6.908631810">
  <ele>2204.000000</ele>
<time>2017-08-15T14:25:20Z</time>
</trkpt>
<trkpt lat="45.476115070" lon="6.908741780">
  <ele>2204.600000</ele>
<time>2017-08-15T14:25:23Z</time>
</trkpt>
<trkpt lat="45.476208440" lon="6.908850070">
  <ele>2205.200000</ele>
<time>2017-08-15T14:25:26Z</time>
</trkpt>
<trkpt lat="45.476306680" lon="6.908936740">
  <ele>2206.000000</ele>
<time>2017-08-15T14:25:29Z</time>
</trkpt>
<trkpt lat="45.476406760" lon="6.908990050">
  <ele>2206.900000</ele>
<time>2017-08-15T14:25:32Z</time>
</trkpt>
<trkpt lat="45.476503480" lon="6.909008490">
  <ele>2208.000000</ele>
<time>2017-08-15T14:25:35Z</time>
</trkpt>
<trkpt lat="45.476610100" lon="6.908961720">
  <ele>2209.000000</ele>
<time>2017-08-15T14:25:38Z</time>
</trkpt>
<trkpt lat="45.476691740" lon="6.908858460">
  <ele>2210.000000</ele>
<time>2017-08-15T14:25:41Z</time>
</trkpt>
<trkpt lat="45.476761810" lon="6.908733400">
  <ele>2211.200000</ele>
<time>2017-08-15T14:25:44Z</time>
</trkpt>
<trkpt lat="45.476843450" lon="6.908628460">
  <ele>2212.300000</ele>
<time>2017-08-15T14:25:47Z</time>
</trkpt>
<trkpt lat="45.476933480" lon="6.908575150">
  <ele>2213.400000</ele>
<time>2017-08-15T14:25:50Z</time>
</trkpt>
<trkpt lat="45.477048480" lon="6.908553350">
  <ele>2214.900000</ele>
<time>2017-08-15T14:25:54Z</time>
</trkpt>
<trkpt lat="45.477138500" lon="6.908576820">
  <ele>2216.600000</ele>
<time>2017-08-15T14:25:58Z</time>
</trkpt>
<trkpt lat="45.477231700" lon="6.908640020">
  <ele>2218.400000</ele>
<time>2017-08-15T14:26:03Z</time>
</trkpt>
<trkpt lat="45.477323400" lon="6.908696680">
  <ele>2219.900000</ele>
<time>2017-08-15T14:26:07Z</time>
</trkpt>
<trkpt lat="45.477410070" lon="6.908803470">
  <ele>2221.300000</ele>
<time>2017-08-15T14:26:11Z</time>
</trkpt>
<trkpt lat="45.477478470" lon="6.908896680">
  <ele>2222.300000</ele>
<time>2017-08-15T14:26:14Z</time>
</trkpt>
<trkpt lat="45.477545020" lon="6.908986700">
  <ele>2223.100000</ele>
<time>2017-08-15T14:26:17Z</time>
</trkpt>
<trkpt lat="45.477608390" lon="6.909078400">
  <ele>2224.000000</ele>
<time>2017-08-15T14:26:20Z</time>
</trkpt>
<trkpt lat="45.477683490" lon="6.909191720">
  <ele>2224.900000</ele>
<time>2017-08-15T14:26:24Z</time>
</trkpt>
<trkpt lat="45.477743340" lon="6.909308400">
  <ele>2225.900000</ele>
<time>2017-08-15T14:26:28Z</time>
</trkpt>
<trkpt lat="45.477808380" lon="6.909420040">
  <ele>2226.600000</ele>
<time>2017-08-15T14:26:32Z</time>
</trkpt>
<trkpt lat="45.477880130" lon="6.909536720">
  <ele>2227.300000</ele>
<time>2017-08-15T14:26:36Z</time>
</trkpt>
<trkpt lat="45.477963440" lon="6.909651720">
  <ele>2227.900000</ele>
<time>2017-08-15T14:26:40Z</time>
</trkpt>
<trkpt lat="45.478053470" lon="6.909755150">
  <ele>2228.500000</ele>
<time>2017-08-15T14:26:43Z</time>
</trkpt>
<trkpt lat="45.478166790" lon="6.909843500">
  <ele>2229.000000</ele>
<time>2017-08-15T14:26:46Z</time>
</trkpt>
<trkpt lat="45.478295030" lon="6.909863450">
  <ele>2229.600000</ele>
<time>2017-08-15T14:26:49Z</time>
</trkpt>
<trkpt lat="45.478386730" lon="6.909831760">
  <ele>2230.000000</ele>
<time>2017-08-15T14:26:51Z</time>
</trkpt>
<trkpt lat="45.478483460" lon="6.909786670">
  <ele>2230.300000</ele>
<time>2017-08-15T14:26:53Z</time>
</trkpt>
<trkpt lat="45.478585050" lon="6.909741740">
  <ele>2230.800000</ele>
<time>2017-08-15T14:26:55Z</time>
</trkpt>
<trkpt lat="45.478686800" lon="6.909705030">
  <ele>2231.300000</ele>
<time>2017-08-15T14:26:57Z</time>
</trkpt>
<trkpt lat="45.478793420" lon="6.909680050">
  <ele>2231.800000</ele>
<time>2017-08-15T14:26:59Z</time>
</trkpt>
<trkpt lat="45.478891820" lon="6.909701680">
  <ele>2232.200000</ele>
<time>2017-08-15T14:27:01Z</time>
</trkpt>
<trkpt lat="45.479021740" lon="6.909741740">
  <ele>2232.900000</ele>
<time>2017-08-15T14:27:04Z</time>
</trkpt>
<trkpt lat="45.479111760" lon="6.909751800">
  <ele>2233.400000</ele>
<time>2017-08-15T14:27:06Z</time>
</trkpt>
<trkpt lat="45.479201790" lon="6.909756830">
  <ele>2233.800000</ele>
<time>2017-08-15T14:27:08Z</time>
</trkpt>
<trkpt lat="45.479328350" lon="6.909770070">
  <ele>2234.400000</ele>
<time>2017-08-15T14:27:11Z</time>
</trkpt>
<trkpt lat="45.479446710" lon="6.909776780">
  <ele>2235.000000</ele>
<time>2017-08-15T14:27:14Z</time>
</trkpt>
<trkpt lat="45.479560030" lon="6.909803430">
  <ele>2235.500000</ele>
<time>2017-08-15T14:27:17Z</time>
</trkpt>
<trkpt lat="45.479665140" lon="6.909853390">
  <ele>2236.000000</ele>
<time>2017-08-15T14:27:20Z</time>
</trkpt>
<trkpt lat="45.479761700" lon="6.909918430">
  <ele>2236.600000</ele>
<time>2017-08-15T14:27:23Z</time>
</trkpt>
<trkpt lat="45.479866810" lon="6.909991690">
  <ele>2237.400000</ele>
<time>2017-08-15T14:27:27Z</time>
</trkpt>
<trkpt lat="45.479930010" lon="6.910093450">
  <ele>2238.300000</ele>
<time>2017-08-15T14:27:31Z</time>
</trkpt>
<trkpt lat="45.480013490" lon="6.910190000">
  <ele>2239.100000</ele>
<time>2017-08-15T14:27:35Z</time>
</trkpt>
<trkpt lat="45.480098480" lon="6.910288410">
  <ele>2239.900000</ele>
<time>2017-08-15T14:27:39Z</time>
</trkpt>
<trkpt lat="45.480185150" lon="6.910371720">
  <ele>2240.600000</ele>
<time>2017-08-15T14:27:43Z</time>
</trkpt>
<trkpt lat="45.480276680" lon="6.910433420">
  <ele>2241.400000</ele>
<time>2017-08-15T14:27:47Z</time>
</trkpt>
<trkpt lat="45.480373410" lon="6.910476830">
  <ele>2242.000000</ele>
<time>2017-08-15T14:27:51Z</time>
</trkpt>
<trkpt lat="45.480473490" lon="6.910521760">
  <ele>2242.700000</ele>
<time>2017-08-15T14:27:55Z</time>
</trkpt>
<trkpt lat="45.480570050" lon="6.910581780">
  <ele>2243.400000</ele>
<time>2017-08-15T14:27:59Z</time>
</trkpt>
<trkpt lat="45.480653360" lon="6.910643470">
  <ele>2244.000000</ele>
<time>2017-08-15T14:28:02Z</time>
</trkpt>
<trkpt lat="45.480741710" lon="6.910700130">
  <ele>2244.700000</ele>
<time>2017-08-15T14:28:05Z</time>
</trkpt>
<trkpt lat="45.480838440" lon="6.910763490">
  <ele>2245.500000</ele>
<time>2017-08-15T14:28:08Z</time>
</trkpt>
<trkpt lat="45.480936670" lon="6.910833400">
  <ele>2246.200000</ele>
<time>2017-08-15T14:28:11Z</time>
</trkpt>
<trkpt lat="45.481033400" lon="6.910905150">
  <ele>2247.000000</ele>
<time>2017-08-15T14:28:14Z</time>
</trkpt>
<trkpt lat="45.481123420" lon="6.910975050">
  <ele>2248.000000</ele>
<time>2017-08-15T14:28:17Z</time>
</trkpt>
<trkpt lat="45.481208410" lon="6.911063400">
  <ele>2248.800000</ele>
<time>2017-08-15T14:28:20Z</time>
</trkpt>
<trkpt lat="45.481288380" lon="6.911168340">
  <ele>2249.700000</ele>
<time>2017-08-15T14:28:23Z</time>
</trkpt>
<trkpt lat="45.481343360" lon="6.911273450">
  <ele>2250.400000</ele>
<time>2017-08-15T14:28:26Z</time>
</trkpt>
<trkpt lat="45.481381750" lon="6.911436730">
  <ele>2250.900000</ele>
<time>2017-08-15T14:28:29Z</time>
</trkpt>
<trkpt lat="45.481403380" lon="6.911565140">
  <ele>2251.100000</ele>
<time>2017-08-15T14:28:31Z</time>
</trkpt>
<trkpt lat="45.481426680" lon="6.911713500">
  <ele>2251.300000</ele>
<time>2017-08-15T14:28:33Z</time>
</trkpt>
<trkpt lat="45.481446800" lon="6.911880130">
  <ele>2251.500000</ele>
<time>2017-08-15T14:28:35Z</time>
</trkpt>
<trkpt lat="45.481443440" lon="6.912061680">
  <ele>2251.600000</ele>
<time>2017-08-15T14:28:37Z</time>
</trkpt>
<trkpt lat="45.481416790" lon="6.912241730">
  <ele>2251.300000</ele>
<time>2017-08-15T14:28:39Z</time>
</trkpt>
<trkpt lat="45.481381750" lon="6.912400150">
  <ele>2251.000000</ele>
<time>2017-08-15T14:28:41Z</time>
</trkpt>
<trkpt lat="45.481316710" lon="6.912521680">
  <ele>2250.500000</ele>
<time>2017-08-15T14:28:43Z</time>
</trkpt>
<trkpt lat="45.481228360" lon="6.912605170">
  <ele>2250.000000</ele>
<time>2017-08-15T14:28:45Z</time>
</trkpt>
<trkpt lat="45.481141690" lon="6.912645060">
  <ele>2249.500000</ele>
<time>2017-08-15T14:28:47Z</time>
</trkpt>
<trkpt lat="45.481035080" lon="6.912646740">
  <ele>2248.700000</ele>
<time>2017-08-15T14:28:50Z</time>
</trkpt>
<trkpt lat="45.481138340" lon="6.912698370">
  <ele>2249.900000</ele>
<time>2017-08-15T14:40:40Z</time>
</trkpt>
<trkpt lat="45.481228360" lon="6.912673400">
  <ele>2249.900000</ele>
<time>2017-08-15T14:40:44Z</time>
</trkpt>
<trkpt lat="45.481308490" lon="6.912600140">
  <ele>2250.100000</ele>
<time>2017-08-15T14:40:48Z</time>
</trkpt>
<trkpt lat="45.481381750" lon="6.912511790">
  <ele>2250.200000</ele>
<time>2017-08-15T14:40:52Z</time>
</trkpt>
<trkpt lat="45.481430030" lon="6.912395120">
  <ele>2250.600000</ele>
<time>2017-08-15T14:40:56Z</time>
</trkpt>
<trkpt lat="45.481455010" lon="6.912263350">
  <ele>2251.100000</ele>
<time>2017-08-15T14:41:00Z</time>
</trkpt>
<trkpt lat="45.481470100" lon="6.912093370">
  <ele>2251.900000</ele>
<time>2017-08-15T14:41:04Z</time>
</trkpt>
<trkpt lat="45.481480160" lon="6.911940150">
  <ele>2252.700000</ele>
<time>2017-08-15T14:41:07Z</time>
</trkpt>
<trkpt lat="45.481470100" lon="6.911788430">
  <ele>2253.500000</ele>
<time>2017-08-15T14:41:10Z</time>
</trkpt>
<trkpt lat="45.481445120" lon="6.911638400">
  <ele>2254.300000</ele>
<time>2017-08-15T14:41:13Z</time>
</trkpt>
<trkpt lat="45.481423490" lon="6.911471770">
  <ele>2255.200000</ele>
<time>2017-08-15T14:41:16Z</time>
</trkpt>
<trkpt lat="45.481396670" lon="6.911310160">
  <ele>2256.000000</ele>
<time>2017-08-15T14:41:19Z</time>
</trkpt>
<trkpt lat="45.481343360" lon="6.911166830">
  <ele>2256.900000</ele>
<time>2017-08-15T14:41:23Z</time>
</trkpt>
<trkpt lat="45.481261720" lon="6.911038420">
  <ele>2257.600000</ele>
<time>2017-08-15T14:41:27Z</time>
</trkpt>
<trkpt lat="45.481160130" lon="6.910926770">
  <ele>2257.900000</ele>
<time>2017-08-15T14:41:30Z</time>
</trkpt>
<trkpt lat="45.481058380" lon="6.910833400">
  <ele>2258.100000</ele>
<time>2017-08-15T14:41:32Z</time>
</trkpt>
<trkpt lat="45.480933490" lon="6.910750080">
  <ele>2258.100000</ele>
<time>2017-08-15T14:41:34Z</time>
</trkpt>
<trkpt lat="45.480790160" lon="6.910656710">
  <ele>2257.900000</ele>
<time>2017-08-15T14:41:36Z</time>
</trkpt>
<trkpt lat="45.480635090" lon="6.910553440">
  <ele>2257.700000</ele>
<time>2017-08-15T14:41:38Z</time>
</trkpt>
<trkpt lat="45.480548420" lon="6.910508350">
  <ele>2257.500000</ele>
<time>2017-08-15T14:41:39Z</time>
</trkpt>
<trkpt lat="45.480458400" lon="6.910468450">
  <ele>2257.200000</ele>
<time>2017-08-15T14:41:40Z</time>
</trkpt>
<trkpt lat="45.480365030" lon="6.910425030">
  <ele>2257.000000</ele>
<time>2017-08-15T14:41:41Z</time>
</trkpt>
<trkpt lat="45.480273500" lon="6.910378430">
  <ele>2256.700000</ele>
<time>2017-08-15T14:41:42Z</time>
</trkpt>
<trkpt lat="45.480188340" lon="6.910316740">
  <ele>2256.300000</ele>
<time>2017-08-15T14:41:43Z</time>
</trkpt>
<trkpt lat="45.480111730" lon="6.910233420">
  <ele>2255.900000</ele>
<time>2017-08-15T14:41:44Z</time>
</trkpt>
<trkpt lat="45.480033440" lon="6.910146750">
  <ele>2255.500000</ele>
<time>2017-08-15T14:41:45Z</time>
</trkpt>
<trkpt lat="45.479951800" lon="6.910063440">
  <ele>2255.200000</ele>
<time>2017-08-15T14:41:46Z</time>
</trkpt>
<trkpt lat="45.479873340" lon="6.909980120">
  <ele>2254.800000</ele>
<time>2017-08-15T14:41:47Z</time>
</trkpt>
<trkpt lat="45.479793380" lon="6.909903340">
  <ele>2254.100000</ele>
<time>2017-08-15T14:41:48Z</time>
</trkpt>
<trkpt lat="45.479710060" lon="6.909838470">
  <ele>2253.600000</ele>
<time>2017-08-15T14:41:49Z</time>
</trkpt>
<trkpt lat="45.479616690" lon="6.909790020">
  <ele>2253.000000</ele>
<time>2017-08-15T14:41:50Z</time>
</trkpt>
<trkpt lat="45.479521810" lon="6.909758340">
  <ele>2252.600000</ele>
<time>2017-08-15T14:41:51Z</time>
</trkpt>
<trkpt lat="45.479421730" lon="6.909743420">
  <ele>2252.200000</ele>
<time>2017-08-15T14:41:52Z</time>
</trkpt>
<trkpt lat="45.479321820" lon="6.909733360">
  <ele>2251.800000</ele>
<time>2017-08-15T14:41:53Z</time>
</trkpt>
<trkpt lat="45.479225090" lon="6.909721790">
  <ele>2251.400000</ele>
<time>2017-08-15T14:41:54Z</time>
</trkpt>
<trkpt lat="45.479131710" lon="6.909713410">
  <ele>2251.000000</ele>
<time>2017-08-15T14:41:55Z</time>
</trkpt>
<trkpt lat="45.479033480" lon="6.909703350">
  <ele>2250.600000</ele>
<time>2017-08-15T14:41:56Z</time>
</trkpt>
<trkpt lat="45.478938430" lon="6.909686760">
  <ele>2250.200000</ele>
<time>2017-08-15T14:41:57Z</time>
</trkpt>
<trkpt lat="45.478845050" lon="6.909658420">
  <ele>2249.900000</ele>
<time>2017-08-15T14:41:58Z</time>
</trkpt>
<trkpt lat="45.478753350" lon="6.909638480">
  <ele>2249.500000</ele>
<time>2017-08-15T14:41:59Z</time>
</trkpt>
<trkpt lat="45.478581690" lon="6.909676700">
  <ele>2248.700000</ele>
<time>2017-08-15T14:42:01Z</time>
</trkpt>
<trkpt lat="45.478423440" lon="6.909760010">
  <ele>2247.900000</ele>
<time>2017-08-15T14:42:03Z</time>
</trkpt>
<trkpt lat="45.478265020" lon="6.909816670">
  <ele>2247.200000</ele>
<time>2017-08-15T14:42:05Z</time>
</trkpt>
<trkpt lat="45.478113480" lon="6.909770070">
  <ele>2246.300000</ele>
<time>2017-08-15T14:42:07Z</time>
</trkpt>
<trkpt lat="45.477978360" lon="6.909638480">
  <ele>2245.500000</ele>
<time>2017-08-15T14:42:09Z</time>
</trkpt>
<trkpt lat="45.477865040" lon="6.909478380">
  <ele>2244.600000</ele>
<time>2017-08-15T14:42:11Z</time>
</trkpt>
<trkpt lat="45.477770160" lon="6.909303370">
  <ele>2243.900000</ele>
<time>2017-08-15T14:42:13Z</time>
</trkpt>
<trkpt lat="45.477680140" lon="6.909135060">
  <ele>2243.100000</ele>
<time>2017-08-15T14:42:15Z</time>
</trkpt>
<trkpt lat="45.477581730" lon="6.908976810">
  <ele>2242.400000</ele>
<time>2017-08-15T14:42:17Z</time>
</trkpt>
<trkpt lat="45.477475110" lon="6.908823420">
  <ele>2241.800000</ele>
<time>2017-08-15T14:42:19Z</time>
</trkpt>
<trkpt lat="45.477356760" lon="6.908666680">
  <ele>2241.100000</ele>
<time>2017-08-15T14:42:21Z</time>
</trkpt>
<trkpt lat="45.477210080" lon="6.908565090">
  <ele>2240.100000</ele>
<time>2017-08-15T14:42:23Z</time>
</trkpt>
<trkpt lat="45.477046800" lon="6.908530050">
  <ele>2238.900000</ele>
<time>2017-08-15T14:42:25Z</time>
</trkpt>
<trkpt lat="45.476885030" lon="6.908591740">
  <ele>2237.600000</ele>
<time>2017-08-15T14:42:27Z</time>
</trkpt>
<trkpt lat="45.476751760" lon="6.908741780">
  <ele>2236.000000</ele>
<time>2017-08-15T14:42:29Z</time>
</trkpt>
<trkpt lat="45.476648490" lon="6.908913440">
  <ele>2234.400000</ele>
<time>2017-08-15T14:42:31Z</time>
</trkpt>
<trkpt lat="45.476516730" lon="6.908983350">
  <ele>2232.900000</ele>
<time>2017-08-15T14:42:33Z</time>
</trkpt>
<trkpt lat="45.476353450" lon="6.908926680">
  <ele>2231.400000</ele>
<time>2017-08-15T14:42:35Z</time>
</trkpt>
<trkpt lat="45.476268460" lon="6.908866670">
  <ele>2230.600000</ele>
<time>2017-08-15T14:42:36Z</time>
</trkpt>
<trkpt lat="45.476190000" lon="6.908788380">
  <ele>2229.900000</ele>
<time>2017-08-15T14:42:37Z</time>
</trkpt>
<trkpt lat="45.476116740" lon="6.908693500">
  <ele>2229.200000</ele>
<time>2017-08-15T14:42:38Z</time>
</trkpt>
<trkpt lat="45.476050020" lon="6.908588390">
  <ele>2228.400000</ele>
<time>2017-08-15T14:42:39Z</time>
</trkpt>
<trkpt lat="45.475985150" lon="6.908481770">
  <ele>2227.700000</ele>
<time>2017-08-15T14:42:40Z</time>
</trkpt>
<trkpt lat="45.475926810" lon="6.908371800">
  <ele>2227.000000</ele>
<time>2017-08-15T14:42:41Z</time>
</trkpt>
<trkpt lat="45.475875010" lon="6.908251770">
  <ele>2226.300000</ele>
<time>2017-08-15T14:42:42Z</time>
</trkpt>
<trkpt lat="45.475826730" lon="6.908126720">
  <ele>2225.500000</ele>
<time>2017-08-15T14:42:43Z</time>
</trkpt>
<trkpt lat="45.475770070" lon="6.908020100">
  <ele>2224.600000</ele>
<time>2017-08-15T14:42:44Z</time>
</trkpt>
<trkpt lat="45.475695130" lon="6.907935110">
  <ele>2223.800000</ele>
<time>2017-08-15T14:42:45Z</time>
</trkpt>
<trkpt lat="45.475611820" lon="6.907856820">
  <ele>2223.000000</ele>
<time>2017-08-15T14:42:46Z</time>
</trkpt>
<trkpt lat="45.475526820" lon="6.907768470">
  <ele>2222.200000</ele>
<time>2017-08-15T14:42:47Z</time>
</trkpt>
<trkpt lat="45.475443340" lon="6.907663360">
  <ele>2221.400000</ele>
<time>2017-08-15T14:42:48Z</time>
</trkpt>
<trkpt lat="45.475368410" lon="6.907548360">
  <ele>2220.500000</ele>
<time>2017-08-15T14:42:49Z</time>
</trkpt>
<trkpt lat="45.475293470" lon="6.907425150">
  <ele>2219.700000</ele>
<time>2017-08-15T14:42:50Z</time>
</trkpt>
<trkpt lat="45.475223400" lon="6.907311830">
  <ele>2218.700000</ele>
<time>2017-08-15T14:42:51Z</time>
</trkpt>
<trkpt lat="45.475153490" lon="6.907215100">
  <ele>2217.800000</ele>
<time>2017-08-15T14:42:52Z</time>
</trkpt>
<trkpt lat="45.475018380" lon="6.907075120">
  <ele>2215.900000</ele>
<time>2017-08-15T14:42:54Z</time>
</trkpt>
<trkpt lat="45.474911760" lon="6.906978390">
  <ele>2214.000000</ele>
<time>2017-08-15T14:42:56Z</time>
</trkpt>
<trkpt lat="45.474818390" lon="6.906965150">
  <ele>2212.100000</ele>
<time>2017-08-15T14:42:58Z</time>
</trkpt>
<trkpt lat="45.474753340" lon="6.907058360">
  <ele>2210.100000</ele>
<time>2017-08-15T14:43:00Z</time>
</trkpt>
<trkpt lat="45.474730040" lon="6.907241750">
  <ele>2208.300000</ele>
<time>2017-08-15T14:43:02Z</time>
</trkpt>
<trkpt lat="45.474741780" lon="6.907463370">
  <ele>2206.500000</ele>
<time>2017-08-15T14:43:04Z</time>
</trkpt>
<trkpt lat="45.474808500" lon="6.907641740">
  <ele>2204.800000</ele>
<time>2017-08-15T14:43:06Z</time>
</trkpt>
<trkpt lat="45.474826770" lon="6.907785070">
  <ele>2203.100000</ele>
<time>2017-08-15T14:43:08Z</time>
</trkpt>
<trkpt lat="45.474741780" lon="6.907833350">
  <ele>2201.400000</ele>
<time>2017-08-15T14:43:10Z</time>
</trkpt>
<trkpt lat="45.474661810" lon="6.907753390">
  <ele>2199.800000</ele>
<time>2017-08-15T14:43:12Z</time>
</trkpt>
<trkpt lat="45.474576820" lon="6.907615080">
  <ele>2198.200000</ele>
<time>2017-08-15T14:43:14Z</time>
</trkpt>
<trkpt lat="45.474481770" lon="6.907425150">
  <ele>2196.900000</ele>
<time>2017-08-15T14:43:16Z</time>
</trkpt>
<trkpt lat="45.474400130" lon="6.907216780">
  <ele>2195.700000</ele>
<time>2017-08-15T14:43:18Z</time>
</trkpt>
<trkpt lat="45.474303400" lon="6.907018460">
  <ele>2194.200000</ele>
<time>2017-08-15T14:43:20Z</time>
</trkpt>
<trkpt lat="45.474241710" lon="6.906923410">
  <ele>2193.600000</ele>
<time>2017-08-15T14:43:21Z</time>
</trkpt>
<trkpt lat="45.474168450" lon="6.906841770">
  <ele>2193.000000</ele>
<time>2017-08-15T14:43:22Z</time>
</trkpt>
<trkpt lat="45.474091680" lon="6.906760130">
  <ele>2192.400000</ele>
<time>2017-08-15T14:43:23Z</time>
</trkpt>
<trkpt lat="45.474018420" lon="6.906670110">
  <ele>2191.800000</ele>
<time>2017-08-15T14:43:24Z</time>
</trkpt>
<trkpt lat="45.473945160" lon="6.906568350">
  <ele>2191.200000</ele>
<time>2017-08-15T14:43:25Z</time>
</trkpt>
<trkpt lat="45.473866700" lon="6.906466760">
  <ele>2190.500000</ele>
<time>2017-08-15T14:43:26Z</time>
</trkpt>
<trkpt lat="45.473780040" lon="6.906366680">
  <ele>2189.800000</ele>
<time>2017-08-15T14:43:27Z</time>
</trkpt>
<trkpt lat="45.473690010" lon="6.906276830">
  <ele>2189.000000</ele>
<time>2017-08-15T14:43:28Z</time>
</trkpt>
<trkpt lat="45.473593450" lon="6.906196700">
  <ele>2188.200000</ele>
<time>2017-08-15T14:43:29Z</time>
</trkpt>
<trkpt lat="45.473495050" lon="6.906123440">
  <ele>2187.300000</ele>
<time>2017-08-15T14:43:30Z</time>
</trkpt>
<trkpt lat="45.473401680" lon="6.906048340">
  <ele>2186.500000</ele>
<time>2017-08-15T14:43:31Z</time>
</trkpt>
<trkpt lat="45.473311820" lon="6.905976760">
  <ele>2185.600000</ele>
<time>2017-08-15T14:43:32Z</time>
</trkpt>
<trkpt lat="45.473225150" lon="6.905908360">
  <ele>2184.700000</ele>
<time>2017-08-15T14:43:33Z</time>
</trkpt>
<trkpt lat="45.473131780" lon="6.905843490">
  <ele>2183.800000</ele>
<time>2017-08-15T14:43:34Z</time>
</trkpt>
<trkpt lat="45.473045110" lon="6.905781790">
  <ele>2182.800000</ele>
<time>2017-08-15T14:43:35Z</time>
</trkpt>
<trkpt lat="45.472956770" lon="6.905728490">
  <ele>2181.800000</ele>
<time>2017-08-15T14:43:36Z</time>
</trkpt>
<trkpt lat="45.472866740" lon="6.905671820">
  <ele>2180.600000</ele>
<time>2017-08-15T14:43:37Z</time>
</trkpt>
<trkpt lat="45.472775050" lon="6.905600070">
  <ele>2179.500000</ele>
<time>2017-08-15T14:43:38Z</time>
</trkpt>
<trkpt lat="45.472688380" lon="6.905518430">
  <ele>2178.400000</ele>
<time>2017-08-15T14:43:39Z</time>
</trkpt>
<trkpt lat="45.472558460" lon="6.905353480">
  <ele>2176.200000</ele>
<time>2017-08-15T14:43:41Z</time>
</trkpt>
<trkpt lat="45.472438430" lon="6.905170080">
  <ele>2174.100000</ele>
<time>2017-08-15T14:43:43Z</time>
</trkpt>
<trkpt lat="45.472305160" lon="6.905025080">
  <ele>2172.000000</ele>
<time>2017-08-15T14:43:45Z</time>
</trkpt>
<trkpt lat="45.472133490" lon="6.904950140">
  <ele>2170.100000</ele>
<time>2017-08-15T14:43:47Z</time>
</trkpt>
<trkpt lat="45.472035090" lon="6.904936730">
  <ele>2169.200000</ele>
<time>2017-08-15T14:43:48Z</time>
</trkpt>
<trkpt lat="45.471938360" lon="6.904943440">
  <ele>2168.100000</ele>
<time>2017-08-15T14:43:49Z</time>
</trkpt>
<trkpt lat="45.471846830" lon="6.904958360">
  <ele>2166.900000</ele>
<time>2017-08-15T14:43:50Z</time>
</trkpt>
<trkpt lat="45.471706690" lon="6.904970090">
  <ele>2164.700000</ele>
<time>2017-08-15T14:43:52Z</time>
</trkpt>
<trkpt lat="45.471600070" lon="6.904971770">
  <ele>2162.700000</ele>
<time>2017-08-15T14:43:54Z</time>
</trkpt>
<trkpt lat="45.471510050" lon="6.905006800">
  <ele>2159.800000</ele>
<time>2017-08-15T14:43:57Z</time>
</trkpt>
<trkpt lat="45.471503340" lon="6.905141750">
  <ele>2146.000000</ele>
<time>2017-08-15T14:45:00Z</time>
</trkpt>
<trkpt lat="45.471500160" lon="6.905338390">
  <ele>2145.700000</ele>
<time>2017-08-15T14:45:03Z</time>
</trkpt>
<trkpt lat="45.471440140" lon="6.905471830">
  <ele>2145.200000</ele>
<time>2017-08-15T14:45:05Z</time>
</trkpt>
<trkpt lat="45.471335030" lon="6.905593370">
  <ele>2144.700000</ele>
<time>2017-08-15T14:45:07Z</time>
</trkpt>
<trkpt lat="45.471206790" lon="6.905726810">
  <ele>2144.100000</ele>
<time>2017-08-15T14:45:09Z</time>
</trkpt>
<trkpt lat="45.471060110" lon="6.905821690">
  <ele>2143.100000</ele>
<time>2017-08-15T14:45:11Z</time>
</trkpt>
<trkpt lat="45.470888450" lon="6.905893440">
  <ele>2142.100000</ele>
<time>2017-08-15T14:45:13Z</time>
</trkpt>
<trkpt lat="45.470733380" lon="6.905951780">
  <ele>2140.700000</ele>
<time>2017-08-15T14:45:15Z</time>
</trkpt>
<trkpt lat="45.470571780" lon="6.905981790">
  <ele>2139.100000</ele>
<time>2017-08-15T14:45:17Z</time>
</trkpt>
<trkpt lat="45.470478400" lon="6.905996710">
  <ele>2138.200000</ele>
<time>2017-08-15T14:45:18Z</time>
</trkpt>
<trkpt lat="45.470321830" lon="6.906021680">
  <ele>2136.700000</ele>
<time>2017-08-15T14:45:20Z</time>
</trkpt>
<trkpt lat="45.470190070" lon="6.906008440">
  <ele>2135.300000</ele>
<time>2017-08-15T14:45:22Z</time>
</trkpt>
<trkpt lat="45.470058470" lon="6.906001740">
  <ele>2133.800000</ele>
<time>2017-08-15T14:45:24Z</time>
</trkpt>
<trkpt lat="45.469928380" lon="6.906015150">
  <ele>2132.300000</ele>
<time>2017-08-15T14:45:26Z</time>
</trkpt>
<trkpt lat="45.469793440" lon="6.906048340">
  <ele>2130.600000</ele>
<time>2017-08-15T14:45:28Z</time>
</trkpt>
<trkpt lat="45.469658490" lon="6.906156800">
  <ele>2128.800000</ele>
<time>2017-08-15T14:45:30Z</time>
</trkpt>
<trkpt lat="45.469523370" lon="6.906296780">
  <ele>2126.900000</ele>
<time>2017-08-15T14:45:32Z</time>
</trkpt>
<trkpt lat="45.469410050" lon="6.906430050">
  <ele>2125.000000</ele>
<time>2017-08-15T14:45:34Z</time>
</trkpt>
<trkpt lat="45.469310130" lon="6.906541700">
  <ele>2123.300000</ele>
<time>2017-08-15T14:45:36Z</time>
</trkpt>
<trkpt lat="45.469235030" lon="6.906620150">
  <ele>2121.800000</ele>
<time>2017-08-15T14:45:38Z</time>
</trkpt>
<trkpt lat="45.469141830" lon="6.906648480">
  <ele>2119.900000</ele>
<time>2017-08-15T14:45:41Z</time>
</trkpt>
<trkpt lat="45.469043420" lon="6.906616800">
  <ele>2118.300000</ele>
<time>2017-08-15T14:45:44Z</time>
</trkpt>
<trkpt lat="45.468940160" lon="6.906618480">
  <ele>2116.900000</ele>
<time>2017-08-15T14:45:47Z</time>
</trkpt>
<trkpt lat="45.468878470" lon="6.906741690">
  <ele>2115.400000</ele>
<time>2017-08-15T14:45:51Z</time>
</trkpt>
<trkpt lat="45.468886680" lon="6.906875130">
  <ele>2114.300000</ele>
<time>2017-08-15T14:45:55Z</time>
</trkpt>
<trkpt lat="45.468891710" lon="6.907018460">
  <ele>2113.000000</ele>
<time>2017-08-15T14:46:01Z</time>
</trkpt>
<trkpt lat="45.468896740" lon="6.907181740">
  <ele>2112.100000</ele>
<time>2017-08-15T14:46:07Z</time>
</trkpt>
<trkpt lat="45.468901770" lon="6.907333450">
  <ele>2111.700000</ele>
<time>2017-08-15T14:46:11Z</time>
</trkpt>
<trkpt lat="45.468905120" lon="6.907490030">
  <ele>2111.300000</ele>
<time>2017-08-15T14:46:16Z</time>
</trkpt>
<trkpt lat="45.468886680" lon="6.907618440">
  <ele>2110.900000</ele>
<time>2017-08-15T14:46:21Z</time>
</trkpt>
<trkpt lat="45.468903440" lon="6.907753390">
  <ele>2110.500000</ele>
<time>2017-08-15T14:46:27Z</time>
</trkpt>
<trkpt lat="45.468933450" lon="6.907875090">
  <ele>2110.300000</ele>
<time>2017-08-15T14:46:34Z</time>
</trkpt>
<trkpt lat="45.468943340" lon="6.907741820">
  <ele>2109.600000</ele>
<time>2017-08-15T14:47:46Z</time>
</trkpt>
<trkpt lat="45.469040070" lon="6.907653470">
  <ele>2109.500000</ele>
<time>2017-08-15T14:47:50Z</time>
</trkpt>
<trkpt lat="45.469131770" lon="6.907586750">
  <ele>2109.500000</ele>
<time>2017-08-15T14:47:53Z</time>
</trkpt>
<trkpt lat="45.469223470" lon="6.907651800">
  <ele>2109.500000</ele>
<time>2017-08-15T14:47:56Z</time>
</trkpt>
<trkpt lat="45.469331760" lon="6.907753390">
  <ele>2109.400000</ele>
<time>2017-08-15T14:47:59Z</time>
</trkpt>
<trkpt lat="45.469410050" lon="6.907825130">
  <ele>2109.400000</ele>
<time>2017-08-15T14:48:01Z</time>
</trkpt>
<trkpt lat="45.469485150" lon="6.907903420">
  <ele>2109.300000</ele>
<time>2017-08-15T14:48:03Z</time>
</trkpt>
<trkpt lat="45.469565110" lon="6.908040050">
  <ele>2109.300000</ele>
<time>2017-08-15T14:48:06Z</time>
</trkpt>
<trkpt lat="45.469626800" lon="6.908170130">
  <ele>2109.300000</ele>
<time>2017-08-15T14:48:09Z</time>
</trkpt>
<trkpt lat="45.469696710" lon="6.908276750">
  <ele>2109.400000</ele>
<time>2017-08-15T14:48:11Z</time>
</trkpt>
<trkpt lat="45.469798460" lon="6.908393430">
  <ele>2109.200000</ele>
<time>2017-08-15T14:48:13Z</time>
</trkpt>
<trkpt lat="45.469898380" lon="6.908541790">
  <ele>2108.800000</ele>
<time>2017-08-15T14:48:15Z</time>
</trkpt>
<trkpt lat="45.470003490" lon="6.908713450">
  <ele>2108.500000</ele>
<time>2017-08-15T14:48:17Z</time>
</trkpt>
<trkpt lat="45.470083450" lon="6.908908410">
  <ele>2108.100000</ele>
<time>2017-08-15T14:48:19Z</time>
</trkpt>
<trkpt lat="45.470120160" lon="6.909120140">
  <ele>2107.500000</ele>
<time>2017-08-15T14:48:21Z</time>
</trkpt>
<trkpt lat="45.470121670" lon="6.909331700">
  <ele>2106.900000</ele>
<time>2017-08-15T14:48:23Z</time>
</trkpt>
<trkpt lat="45.470120160" lon="6.909493470">
  <ele>2106.300000</ele>
<time>2017-08-15T14:48:25Z</time>
</trkpt>
<trkpt lat="45.470108430" lon="6.909668480">
  <ele>2105.200000</ele>
<time>2017-08-15T14:48:28Z</time>
</trkpt>
<trkpt lat="45.470090150" lon="6.909813490">
  <ele>2104.500000</ele>
<time>2017-08-15T14:48:30Z</time>
</trkpt>
<trkpt lat="45.470063500" lon="6.909990010">
  <ele>2103.700000</ele>
<time>2017-08-15T14:48:32Z</time>
</trkpt>
<trkpt lat="45.470023430" lon="6.910190000">
  <ele>2102.900000</ele>
<time>2017-08-15T14:48:34Z</time>
</trkpt>
<trkpt lat="45.469985050" lon="6.910396700">
  <ele>2102.000000</ele>
<time>2017-08-15T14:48:36Z</time>
</trkpt>
<trkpt lat="45.469998460" lon="6.910595020">
  <ele>2101.300000</ele>
<time>2017-08-15T14:48:38Z</time>
</trkpt>
<trkpt lat="45.470058470" lon="6.910746730">
  <ele>2100.400000</ele>
<time>2017-08-15T14:48:40Z</time>
</trkpt>
<trkpt lat="45.470118490" lon="6.910846810">
  <ele>2099.700000</ele>
<time>2017-08-15T14:48:42Z</time>
</trkpt>
<trkpt lat="45.470155030" lon="6.910973380">
  <ele>2098.900000</ele>
<time>2017-08-15T14:48:44Z</time>
</trkpt>
<trkpt lat="45.470200130" lon="6.911121740">
  <ele>2098.000000</ele>
<time>2017-08-15T14:48:46Z</time>
</trkpt>
<trkpt lat="45.470270030" lon="6.911271770">
  <ele>2097.100000</ele>
<time>2017-08-15T14:48:48Z</time>
</trkpt>
<trkpt lat="45.470358380" lon="6.911426670">
  <ele>2096.300000</ele>
<time>2017-08-15T14:48:50Z</time>
</trkpt>
<trkpt lat="45.470456780" lon="6.911566820">
  <ele>2095.600000</ele>
<time>2017-08-15T14:48:52Z</time>
</trkpt>
<trkpt lat="45.470555010" lon="6.911665050">
  <ele>2094.900000</ele>
<time>2017-08-15T14:48:54Z</time>
</trkpt>
<trkpt lat="45.470651740" lon="6.911700090">
  <ele>2094.300000</ele>
<time>2017-08-15T14:48:56Z</time>
</trkpt>
<trkpt lat="45.470751820" lon="6.911695060">
  <ele>2093.700000</ele>
<time>2017-08-15T14:48:58Z</time>
</trkpt>
<trkpt lat="45.470856760" lon="6.911701760">
  <ele>2092.700000</ele>
<time>2017-08-15T14:49:02Z</time>
</trkpt>
<trkpt lat="45.470946790" lon="6.911771670">
  <ele>2087.900000</ele>
<time>2017-08-15T14:49:25Z</time>
</trkpt>
<trkpt lat="45.471051730" lon="6.911781730">
  <ele>2086.500000</ele>
<time>2017-08-15T14:49:39Z</time>
</trkpt>
<trkpt lat="45.471105040" lon="6.911736800">
  <ele>2083.700000</ele>
<time>2017-08-15T14:51:13Z</time>
</trkpt>
</trkseg>
</trk>
</gpx>
